<?xml version="1.0" encoding="UTF-8" standalone="no" ?>
<gpx xmlns="http://www.topografix.com/GPX/1/1" xmlns:xsi="http://www.w3.org/2001/XMLSchema-instance" xsi:schemaLocation="http://www.topografix.com/GPX/1/1 http://www.topografix.com/GPX/1/1/gpx.xsd" version="1.1" creator="VisuGPX - https://www.visugpx.com">
  <metadata>
    <name>VTT du mercredi 21 novembre 2012 (Port37)</name>
    <desc><![CDATA[On a évité la boue mais pas le brouillard (sauf à la fin)]]></desc>
  </metadata>
  <trk>
    <name><![CDATA[Untitled]]></name>
    <trkseg>
      <trkpt lat="47.68625" lon="6.04542">
        <ele>239.80000305176</ele>
        <time>2012-11-21T08:30:23.000Z</time>
      </trkpt>
      <trkpt lat="47.68625" lon="6.04542">
        <ele>239.80000305176</ele>
        <time>2012-11-21T08:30:24.000Z</time>
      </trkpt>
      <trkpt lat="47.68625" lon="6.04538">
        <ele>238.80000305176</ele>
        <time>2012-11-21T08:37:44.000Z</time>
      </trkpt>
      <trkpt lat="47.68627" lon="6.0454">
        <ele>238.80000305176</ele>
        <time>2012-11-21T08:37:46.000Z</time>
      </trkpt>
      <trkpt lat="47.68628" lon="6.04538">
        <ele>238.80000305176</ele>
        <time>2012-11-21T08:37:47.000Z</time>
      </trkpt>
      <trkpt lat="47.68628" lon="6.04537">
        <ele>238.80000305176</ele>
        <time>2012-11-21T08:37:49.000Z</time>
      </trkpt>
      <trkpt lat="47.68628" lon="6.04534">
        <ele>238.80000305176</ele>
        <time>2012-11-21T08:37:54.000Z</time>
      </trkpt>
      <trkpt lat="47.68626" lon="6.04529">
        <ele>238.80000305176</ele>
        <time>2012-11-21T08:37:56.000Z</time>
      </trkpt>
      <trkpt lat="47.68622" lon="6.04526">
        <ele>238.80000305176</ele>
        <time>2012-11-21T08:37:58.000Z</time>
      </trkpt>
      <trkpt lat="47.68618" lon="6.04521">
        <ele>238.80000305176</ele>
        <time>2012-11-21T08:38:01.000Z</time>
      </trkpt>
      <trkpt lat="47.68615" lon="6.04519">
        <ele>238.80000305176</ele>
        <time>2012-11-21T08:38:03.000Z</time>
      </trkpt>
      <trkpt lat="47.68602" lon="6.0451">
        <ele>238.19999694824</ele>
        <time>2012-11-21T08:38:08.000Z</time>
      </trkpt>
      <trkpt lat="47.68599" lon="6.04508">
        <ele>238</ele>
        <time>2012-11-21T08:38:09.000Z</time>
      </trkpt>
      <trkpt lat="47.68596" lon="6.04506">
        <ele>237.60000610352</ele>
        <time>2012-11-21T08:38:10.000Z</time>
      </trkpt>
      <trkpt lat="47.68592" lon="6.04503">
        <ele>237</ele>
        <time>2012-11-21T08:38:11.000Z</time>
      </trkpt>
      <trkpt lat="47.68589" lon="6.04499">
        <ele>236.80000305176</ele>
        <time>2012-11-21T08:38:12.000Z</time>
      </trkpt>
      <trkpt lat="47.68585" lon="6.04496">
        <ele>236.80000305176</ele>
        <time>2012-11-21T08:38:13.000Z</time>
      </trkpt>
      <trkpt lat="47.68576" lon="6.0449">
        <ele>236.19999694824</ele>
        <time>2012-11-21T08:38:15.000Z</time>
      </trkpt>
      <trkpt lat="47.68572" lon="6.04487">
        <ele>236</ele>
        <time>2012-11-21T08:38:16.000Z</time>
      </trkpt>
      <trkpt lat="47.68567" lon="6.04483">
        <ele>235.60000610352</ele>
        <time>2012-11-21T08:38:17.000Z</time>
      </trkpt>
      <trkpt lat="47.68563" lon="6.04479">
        <ele>235</ele>
        <time>2012-11-21T08:38:18.000Z</time>
      </trkpt>
      <trkpt lat="47.68557" lon="6.04475">
        <ele>234.80000305176</ele>
        <time>2012-11-21T08:38:19.000Z</time>
      </trkpt>
      <trkpt lat="47.68546" lon="6.04468">
        <ele>234.19999694824</ele>
        <time>2012-11-21T08:38:21.000Z</time>
      </trkpt>
      <trkpt lat="47.6854" lon="6.04464">
        <ele>234</ele>
        <time>2012-11-21T08:38:22.000Z</time>
      </trkpt>
      <trkpt lat="47.68535" lon="6.0446">
        <ele>233.60000610352</ele>
        <time>2012-11-21T08:38:23.000Z</time>
      </trkpt>
      <trkpt lat="47.6853" lon="6.04456">
        <ele>233</ele>
        <time>2012-11-21T08:38:24.000Z</time>
      </trkpt>
      <trkpt lat="47.68525" lon="6.04452">
        <ele>232.80000305176</ele>
        <time>2012-11-21T08:38:25.000Z</time>
      </trkpt>
      <trkpt lat="47.68519" lon="6.04448">
        <ele>232.19999694824</ele>
        <time>2012-11-21T08:38:26.000Z</time>
      </trkpt>
      <trkpt lat="47.68514" lon="6.04445">
        <ele>231.80000305176</ele>
        <time>2012-11-21T08:38:27.000Z</time>
      </trkpt>
      <trkpt lat="47.68509" lon="6.04442">
        <ele>231.19999694824</ele>
        <time>2012-11-21T08:38:28.000Z</time>
      </trkpt>
      <trkpt lat="47.68503" lon="6.04438">
        <ele>231</ele>
        <time>2012-11-21T08:38:29.000Z</time>
      </trkpt>
      <trkpt lat="47.68497" lon="6.04436">
        <ele>230.60000610352</ele>
        <time>2012-11-21T08:38:30.000Z</time>
      </trkpt>
      <trkpt lat="47.68491" lon="6.04434">
        <ele>230</ele>
        <time>2012-11-21T08:38:31.000Z</time>
      </trkpt>
      <trkpt lat="47.68486" lon="6.04433">
        <ele>229.80000305176</ele>
        <time>2012-11-21T08:38:32.000Z</time>
      </trkpt>
      <trkpt lat="47.68481" lon="6.04433">
        <ele>229.19999694824</ele>
        <time>2012-11-21T08:38:33.000Z</time>
      </trkpt>
      <trkpt lat="47.68476" lon="6.04432">
        <ele>228.80000305176</ele>
        <time>2012-11-21T08:38:34.000Z</time>
      </trkpt>
      <trkpt lat="47.68471" lon="6.04432">
        <ele>228.19999694824</ele>
        <time>2012-11-21T08:38:35.000Z</time>
      </trkpt>
      <trkpt lat="47.68463" lon="6.04434">
        <ele>228.19999694824</ele>
        <time>2012-11-21T08:38:37.000Z</time>
      </trkpt>
      <trkpt lat="47.68448" lon="6.04434">
        <ele>228</ele>
        <time>2012-11-21T08:38:40.000Z</time>
      </trkpt>
      <trkpt lat="47.68442" lon="6.04434">
        <ele>227.60000610352</ele>
        <time>2012-11-21T08:38:41.000Z</time>
      </trkpt>
      <trkpt lat="47.68436" lon="6.04434">
        <ele>227</ele>
        <time>2012-11-21T08:38:42.000Z</time>
      </trkpt>
      <trkpt lat="47.68429" lon="6.04433">
        <ele>226.80000305176</ele>
        <time>2012-11-21T08:38:43.000Z</time>
      </trkpt>
      <trkpt lat="47.68423" lon="6.04433">
        <ele>226.19999694824</ele>
        <time>2012-11-21T08:38:44.000Z</time>
      </trkpt>
      <trkpt lat="47.6841" lon="6.04432">
        <ele>226</ele>
        <time>2012-11-21T08:38:46.000Z</time>
      </trkpt>
      <trkpt lat="47.68404" lon="6.04432">
        <ele>225.60000610352</ele>
        <time>2012-11-21T08:38:47.000Z</time>
      </trkpt>
      <trkpt lat="47.684" lon="6.04429">
        <ele>225</ele>
        <time>2012-11-21T08:38:48.000Z</time>
      </trkpt>
      <trkpt lat="47.68397" lon="6.04423">
        <ele>224.80000305176</ele>
        <time>2012-11-21T08:38:49.000Z</time>
      </trkpt>
      <trkpt lat="47.68396" lon="6.04416">
        <ele>224.19999694824</ele>
        <time>2012-11-21T08:38:50.000Z</time>
      </trkpt>
      <trkpt lat="47.68395" lon="6.04399">
        <ele>224.19999694824</ele>
        <time>2012-11-21T08:38:53.000Z</time>
      </trkpt>
      <trkpt lat="47.68395" lon="6.04394">
        <ele>224.19999694824</ele>
        <time>2012-11-21T08:38:54.000Z</time>
      </trkpt>
      <trkpt lat="47.68395" lon="6.04378">
        <ele>224</ele>
        <time>2012-11-21T08:38:58.000Z</time>
      </trkpt>
      <trkpt lat="47.68395" lon="6.04374">
        <ele>223.60000610352</ele>
        <time>2012-11-21T08:38:59.000Z</time>
      </trkpt>
      <trkpt lat="47.68396" lon="6.04369">
        <ele>223</ele>
        <time>2012-11-21T08:39:00.000Z</time>
      </trkpt>
      <trkpt lat="47.68396" lon="6.04365">
        <ele>222.80000305176</ele>
        <time>2012-11-21T08:39:01.000Z</time>
      </trkpt>
      <trkpt lat="47.68396" lon="6.0436">
        <ele>222.19999694824</ele>
        <time>2012-11-21T08:39:02.000Z</time>
      </trkpt>
      <trkpt lat="47.68396" lon="6.04337">
        <ele>222.19999694824</ele>
        <time>2012-11-21T08:39:06.000Z</time>
      </trkpt>
      <trkpt lat="47.68396" lon="6.04301">
        <ele>221.80000305176</ele>
        <time>2012-11-21T08:39:12.000Z</time>
      </trkpt>
      <trkpt lat="47.68396" lon="6.04295">
        <ele>221.19999694824</ele>
        <time>2012-11-21T08:39:13.000Z</time>
      </trkpt>
      <trkpt lat="47.68396" lon="6.04288">
        <ele>221</ele>
        <time>2012-11-21T08:39:14.000Z</time>
      </trkpt>
      <trkpt lat="47.68396" lon="6.04282">
        <ele>220.60000610352</ele>
        <time>2012-11-21T08:39:15.000Z</time>
      </trkpt>
      <trkpt lat="47.68395" lon="6.04276">
        <ele>220</ele>
        <time>2012-11-21T08:39:16.000Z</time>
      </trkpt>
      <trkpt lat="47.68395" lon="6.04266">
        <ele>220</ele>
        <time>2012-11-21T08:39:18.000Z</time>
      </trkpt>
      <trkpt lat="47.68395" lon="6.04259">
        <ele>219.80000305176</ele>
        <time>2012-11-21T08:39:20.000Z</time>
      </trkpt>
      <trkpt lat="47.68394" lon="6.04257">
        <ele>219.19999694824</ele>
        <time>2012-11-21T08:39:21.000Z</time>
      </trkpt>
      <trkpt lat="47.68394" lon="6.04254">
        <ele>219</ele>
        <time>2012-11-21T08:39:22.000Z</time>
      </trkpt>
      <trkpt lat="47.68393" lon="6.04252">
        <ele>218.60000610352</ele>
        <time>2012-11-21T08:39:23.000Z</time>
      </trkpt>
      <trkpt lat="47.68391" lon="6.0425">
        <ele>218</ele>
        <time>2012-11-21T08:39:24.000Z</time>
      </trkpt>
      <trkpt lat="47.68387" lon="6.04246">
        <ele>218</ele>
        <time>2012-11-21T08:39:27.000Z</time>
      </trkpt>
      <trkpt lat="47.68381" lon="6.04244">
        <ele>218</ele>
        <time>2012-11-21T08:39:30.000Z</time>
      </trkpt>
      <trkpt lat="47.68378" lon="6.04242">
        <ele>218</ele>
        <time>2012-11-21T08:39:32.000Z</time>
      </trkpt>
      <trkpt lat="47.68372" lon="6.04234">
        <ele>218</ele>
        <time>2012-11-21T08:39:37.000Z</time>
      </trkpt>
      <trkpt lat="47.68365" lon="6.04223">
        <ele>218</ele>
        <time>2012-11-21T08:39:42.000Z</time>
      </trkpt>
      <trkpt lat="47.68364" lon="6.04221">
        <ele>218</ele>
        <time>2012-11-21T08:39:43.000Z</time>
      </trkpt>
      <trkpt lat="47.68359" lon="6.04202">
        <ele>218</ele>
        <time>2012-11-21T08:39:49.000Z</time>
      </trkpt>
      <trkpt lat="47.68357" lon="6.04179">
        <ele>218</ele>
        <time>2012-11-21T08:39:56.000Z</time>
      </trkpt>
      <trkpt lat="47.68361" lon="6.0416">
        <ele>218</ele>
        <time>2012-11-21T08:40:01.000Z</time>
      </trkpt>
      <trkpt lat="47.68372" lon="6.04154">
        <ele>218</ele>
        <time>2012-11-21T08:40:05.000Z</time>
      </trkpt>
      <trkpt lat="47.68392" lon="6.04158">
        <ele>218</ele>
        <time>2012-11-21T08:40:12.000Z</time>
      </trkpt>
      <trkpt lat="47.6841" lon="6.04159">
        <ele>218</ele>
        <time>2012-11-21T08:40:18.000Z</time>
      </trkpt>
      <trkpt lat="47.6843" lon="6.0416">
        <ele>218</ele>
        <time>2012-11-21T08:40:25.000Z</time>
      </trkpt>
      <trkpt lat="47.68456" lon="6.04162">
        <ele>218</ele>
        <time>2012-11-21T08:40:33.000Z</time>
      </trkpt>
      <trkpt lat="47.68469" lon="6.04165">
        <ele>218</ele>
        <time>2012-11-21T08:40:37.000Z</time>
      </trkpt>
      <trkpt lat="47.68482" lon="6.04166">
        <ele>218</ele>
        <time>2012-11-21T08:40:41.000Z</time>
      </trkpt>
      <trkpt lat="47.68502" lon="6.04169">
        <ele>218</ele>
        <time>2012-11-21T08:40:48.000Z</time>
      </trkpt>
      <trkpt lat="47.68525" lon="6.04174">
        <ele>218</ele>
        <time>2012-11-21T08:40:55.000Z</time>
      </trkpt>
      <trkpt lat="47.6855" lon="6.04178">
        <ele>218</ele>
        <time>2012-11-21T08:41:02.000Z</time>
      </trkpt>
      <trkpt lat="47.68573" lon="6.04185">
        <ele>218</ele>
        <time>2012-11-21T08:41:09.000Z</time>
      </trkpt>
      <trkpt lat="47.68603" lon="6.04193">
        <ele>218</ele>
        <time>2012-11-21T08:41:17.000Z</time>
      </trkpt>
      <trkpt lat="47.68627" lon="6.042">
        <ele>218</ele>
        <time>2012-11-21T08:41:23.000Z</time>
      </trkpt>
      <trkpt lat="47.68664" lon="6.04209">
        <ele>218</ele>
        <time>2012-11-21T08:41:32.000Z</time>
      </trkpt>
      <trkpt lat="47.68696" lon="6.04218">
        <ele>218</ele>
        <time>2012-11-21T08:41:40.000Z</time>
      </trkpt>
      <trkpt lat="47.68727" lon="6.04226">
        <ele>218</ele>
        <time>2012-11-21T08:41:48.000Z</time>
      </trkpt>
      <trkpt lat="47.68757" lon="6.04228">
        <ele>218</ele>
        <time>2012-11-21T08:41:56.000Z</time>
      </trkpt>
      <trkpt lat="47.68786" lon="6.04231">
        <ele>218</ele>
        <time>2012-11-21T08:42:04.000Z</time>
      </trkpt>
      <trkpt lat="47.68821" lon="6.04237">
        <ele>218</ele>
        <time>2012-11-21T08:42:13.000Z</time>
      </trkpt>
      <trkpt lat="47.68844" lon="6.04237">
        <ele>218</ele>
        <time>2012-11-21T08:42:19.000Z</time>
      </trkpt>
      <trkpt lat="47.68851" lon="6.04237">
        <ele>218</ele>
        <time>2012-11-21T08:42:21.000Z</time>
      </trkpt>
      <trkpt lat="47.68871" lon="6.04239">
        <ele>218</ele>
        <time>2012-11-21T08:42:27.000Z</time>
      </trkpt>
      <trkpt lat="47.68884" lon="6.04244">
        <ele>218</ele>
        <time>2012-11-21T08:42:31.000Z</time>
      </trkpt>
      <trkpt lat="47.689" lon="6.0425">
        <ele>218.60000610352</ele>
        <time>2012-11-21T08:42:37.000Z</time>
      </trkpt>
      <trkpt lat="47.68903" lon="6.04251">
        <ele>219</ele>
        <time>2012-11-21T08:42:38.000Z</time>
      </trkpt>
      <trkpt lat="47.68904" lon="6.04251">
        <ele>219.19999694824</ele>
        <time>2012-11-21T08:42:39.000Z</time>
      </trkpt>
      <trkpt lat="47.68906" lon="6.04252">
        <ele>220</ele>
        <time>2012-11-21T08:42:40.000Z</time>
      </trkpt>
      <trkpt lat="47.68907" lon="6.04253">
        <ele>220.19999694824</ele>
        <time>2012-11-21T08:42:41.000Z</time>
      </trkpt>
      <trkpt lat="47.68909" lon="6.04254">
        <ele>220.19999694824</ele>
        <time>2012-11-21T08:42:44.000Z</time>
      </trkpt>
      <trkpt lat="47.68911" lon="6.04256">
        <ele>220.19999694824</ele>
        <time>2012-11-21T08:43:03.000Z</time>
      </trkpt>
      <trkpt lat="47.68913" lon="6.04255">
        <ele>220.19999694824</ele>
        <time>2012-11-21T08:43:04.000Z</time>
      </trkpt>
      <trkpt lat="47.68916" lon="6.0425">
        <ele>220.19999694824</ele>
        <time>2012-11-21T08:43:06.000Z</time>
      </trkpt>
      <trkpt lat="47.68921" lon="6.04238">
        <ele>220.19999694824</ele>
        <time>2012-11-21T08:43:09.000Z</time>
      </trkpt>
      <trkpt lat="47.68926" lon="6.04228">
        <ele>220.19999694824</ele>
        <time>2012-11-21T08:43:11.000Z</time>
      </trkpt>
      <trkpt lat="47.68943" lon="6.04186">
        <ele>220.19999694824</ele>
        <time>2012-11-21T08:43:18.000Z</time>
      </trkpt>
      <trkpt lat="47.68959" lon="6.04147">
        <ele>220.19999694824</ele>
        <time>2012-11-21T08:43:25.000Z</time>
      </trkpt>
      <trkpt lat="47.68971" lon="6.04118">
        <ele>220.19999694824</ele>
        <time>2012-11-21T08:43:31.000Z</time>
      </trkpt>
      <trkpt lat="47.68988" lon="6.04078">
        <ele>220.19999694824</ele>
        <time>2012-11-21T08:43:39.000Z</time>
      </trkpt>
      <trkpt lat="47.69006" lon="6.04034">
        <ele>220.19999694824</ele>
        <time>2012-11-21T08:43:47.000Z</time>
      </trkpt>
      <trkpt lat="47.69015" lon="6.04007">
        <ele>220.19999694824</ele>
        <time>2012-11-21T08:43:52.000Z</time>
      </trkpt>
      <trkpt lat="47.69017" lon="6.04002">
        <ele>220.19999694824</ele>
        <time>2012-11-21T08:43:53.000Z</time>
      </trkpt>
      <trkpt lat="47.69025" lon="6.03981">
        <ele>220.80000305176</ele>
        <time>2012-11-21T08:43:57.000Z</time>
      </trkpt>
      <trkpt lat="47.69027" lon="6.03976">
        <ele>221</ele>
        <time>2012-11-21T08:43:58.000Z</time>
      </trkpt>
      <trkpt lat="47.6903" lon="6.03971">
        <ele>221.60000610352</ele>
        <time>2012-11-21T08:43:59.000Z</time>
      </trkpt>
      <trkpt lat="47.69032" lon="6.03967">
        <ele>222</ele>
        <time>2012-11-21T08:44:00.000Z</time>
      </trkpt>
      <trkpt lat="47.69034" lon="6.03963">
        <ele>222.60000610352</ele>
        <time>2012-11-21T08:44:01.000Z</time>
      </trkpt>
      <trkpt lat="47.69053" lon="6.03916">
        <ele>222.60000610352</ele>
        <time>2012-11-21T08:44:11.000Z</time>
      </trkpt>
      <trkpt lat="47.69069" lon="6.03875">
        <ele>222.60000610352</ele>
        <time>2012-11-21T08:44:19.000Z</time>
      </trkpt>
      <trkpt lat="47.69085" lon="6.03836">
        <ele>222.60000610352</ele>
        <time>2012-11-21T08:44:27.000Z</time>
      </trkpt>
      <trkpt lat="47.69089" lon="6.03825">
        <ele>222.60000610352</ele>
        <time>2012-11-21T08:44:32.000Z</time>
      </trkpt>
      <trkpt lat="47.69089" lon="6.03826">
        <ele>222.60000610352</ele>
        <time>2012-11-21T08:44:33.000Z</time>
      </trkpt>
      <trkpt lat="47.6909" lon="6.03822">
        <ele>222.60000610352</ele>
        <time>2012-11-21T08:45:03.000Z</time>
      </trkpt>
      <trkpt lat="47.69092" lon="6.03816">
        <ele>222.60000610352</ele>
        <time>2012-11-21T08:45:05.000Z</time>
      </trkpt>
      <trkpt lat="47.69096" lon="6.038">
        <ele>222.60000610352</ele>
        <time>2012-11-21T08:45:10.000Z</time>
      </trkpt>
      <trkpt lat="47.69094" lon="6.03795">
        <ele>222.60000610352</ele>
        <time>2012-11-21T08:45:11.000Z</time>
      </trkpt>
      <trkpt lat="47.69082" lon="6.03781">
        <ele>222.60000610352</ele>
        <time>2012-11-21T08:45:14.000Z</time>
      </trkpt>
      <trkpt lat="47.69076" lon="6.03777">
        <ele>222</ele>
        <time>2012-11-21T08:45:15.000Z</time>
      </trkpt>
      <trkpt lat="47.69071" lon="6.03772">
        <ele>221.60000610352</ele>
        <time>2012-11-21T08:45:16.000Z</time>
      </trkpt>
      <trkpt lat="47.69065" lon="6.03768">
        <ele>221</ele>
        <time>2012-11-21T08:45:17.000Z</time>
      </trkpt>
      <trkpt lat="47.69059" lon="6.03763">
        <ele>220.80000305176</ele>
        <time>2012-11-21T08:45:18.000Z</time>
      </trkpt>
      <trkpt lat="47.69053" lon="6.03759">
        <ele>220.19999694824</ele>
        <time>2012-11-21T08:45:19.000Z</time>
      </trkpt>
      <trkpt lat="47.69048" lon="6.03755">
        <ele>220.19999694824</ele>
        <time>2012-11-21T08:45:20.000Z</time>
      </trkpt>
      <trkpt lat="47.69042" lon="6.03751">
        <ele>219.80000305176</ele>
        <time>2012-11-21T08:45:21.000Z</time>
      </trkpt>
      <trkpt lat="47.69037" lon="6.03747">
        <ele>219.19999694824</ele>
        <time>2012-11-21T08:45:22.000Z</time>
      </trkpt>
      <trkpt lat="47.69032" lon="6.03743">
        <ele>219</ele>
        <time>2012-11-21T08:45:23.000Z</time>
      </trkpt>
      <trkpt lat="47.69026" lon="6.03739">
        <ele>218.60000610352</ele>
        <time>2012-11-21T08:45:24.000Z</time>
      </trkpt>
      <trkpt lat="47.69022" lon="6.03735">
        <ele>218</ele>
        <time>2012-11-21T08:45:25.000Z</time>
      </trkpt>
      <trkpt lat="47.69017" lon="6.03732">
        <ele>218</ele>
        <time>2012-11-21T08:45:26.000Z</time>
      </trkpt>
      <trkpt lat="47.68981" lon="6.03702">
        <ele>218</ele>
        <time>2012-11-21T08:45:34.000Z</time>
      </trkpt>
      <trkpt lat="47.68976" lon="6.03699">
        <ele>218</ele>
        <time>2012-11-21T08:45:35.000Z</time>
      </trkpt>
      <trkpt lat="47.68955" lon="6.03683">
        <ele>218</ele>
        <time>2012-11-21T08:45:40.000Z</time>
      </trkpt>
      <trkpt lat="47.68938" lon="6.03672">
        <ele>218</ele>
        <time>2012-11-21T08:45:44.000Z</time>
      </trkpt>
      <trkpt lat="47.6893" lon="6.03668">
        <ele>218</ele>
        <time>2012-11-21T08:45:46.000Z</time>
      </trkpt>
      <trkpt lat="47.68896" lon="6.03653">
        <ele>218</ele>
        <time>2012-11-21T08:45:54.000Z</time>
      </trkpt>
      <trkpt lat="47.68861" lon="6.03648">
        <ele>218</ele>
        <time>2012-11-21T08:46:01.000Z</time>
      </trkpt>
      <trkpt lat="47.68833" lon="6.0365">
        <ele>218</ele>
        <time>2012-11-21T08:46:07.000Z</time>
      </trkpt>
      <trkpt lat="47.68801" lon="6.03648">
        <ele>218</ele>
        <time>2012-11-21T08:46:14.000Z</time>
      </trkpt>
      <trkpt lat="47.68765" lon="6.03645">
        <ele>218</ele>
        <time>2012-11-21T08:46:21.000Z</time>
      </trkpt>
      <trkpt lat="47.68714" lon="6.03636">
        <ele>218</ele>
        <time>2012-11-21T08:46:30.000Z</time>
      </trkpt>
      <trkpt lat="47.68686" lon="6.03631">
        <ele>218</ele>
        <time>2012-11-21T08:46:36.000Z</time>
      </trkpt>
      <trkpt lat="47.68654" lon="6.03628">
        <ele>218</ele>
        <time>2012-11-21T08:46:43.000Z</time>
      </trkpt>
      <trkpt lat="47.6865" lon="6.03627">
        <ele>218</ele>
        <time>2012-11-21T08:46:44.000Z</time>
      </trkpt>
      <trkpt lat="47.68625" lon="6.03623">
        <ele>218</ele>
        <time>2012-11-21T08:46:50.000Z</time>
      </trkpt>
      <trkpt lat="47.68612" lon="6.03625">
        <ele>218</ele>
        <time>2012-11-21T08:46:55.000Z</time>
      </trkpt>
      <trkpt lat="47.68599" lon="6.03636">
        <ele>218</ele>
        <time>2012-11-21T08:47:00.000Z</time>
      </trkpt>
      <trkpt lat="47.68582" lon="6.03645">
        <ele>218</ele>
        <time>2012-11-21T08:47:07.000Z</time>
      </trkpt>
      <trkpt lat="47.68562" lon="6.03647">
        <ele>218</ele>
        <time>2012-11-21T08:47:13.000Z</time>
      </trkpt>
      <trkpt lat="47.68536" lon="6.03642">
        <ele>218</ele>
        <time>2012-11-21T08:47:20.000Z</time>
      </trkpt>
      <trkpt lat="47.6851" lon="6.03631">
        <ele>218</ele>
        <time>2012-11-21T08:47:27.000Z</time>
      </trkpt>
      <trkpt lat="47.68507" lon="6.03629">
        <ele>217.80000305176</ele>
        <time>2012-11-21T08:47:28.000Z</time>
      </trkpt>
      <trkpt lat="47.68503" lon="6.03627">
        <ele>217.19999694824</ele>
        <time>2012-11-21T08:47:29.000Z</time>
      </trkpt>
      <trkpt lat="47.68499" lon="6.03625">
        <ele>217</ele>
        <time>2012-11-21T08:47:30.000Z</time>
      </trkpt>
      <trkpt lat="47.68496" lon="6.03624">
        <ele>216.60000610352</ele>
        <time>2012-11-21T08:47:31.000Z</time>
      </trkpt>
      <trkpt lat="47.68493" lon="6.03622">
        <ele>216</ele>
        <time>2012-11-21T08:47:32.000Z</time>
      </trkpt>
      <trkpt lat="47.68486" lon="6.03619">
        <ele>216</ele>
        <time>2012-11-21T08:47:34.000Z</time>
      </trkpt>
      <trkpt lat="47.6846" lon="6.03614">
        <ele>216</ele>
        <time>2012-11-21T08:47:41.000Z</time>
      </trkpt>
      <trkpt lat="47.68452" lon="6.03617">
        <ele>216</ele>
        <time>2012-11-21T08:47:43.000Z</time>
      </trkpt>
      <trkpt lat="47.68435" lon="6.03623">
        <ele>216</ele>
        <time>2012-11-21T08:47:47.000Z</time>
      </trkpt>
      <trkpt lat="47.68431" lon="6.03623">
        <ele>216</ele>
        <time>2012-11-21T08:47:48.000Z</time>
      </trkpt>
      <trkpt lat="47.68417" lon="6.0362">
        <ele>216</ele>
        <time>2012-11-21T08:47:52.000Z</time>
      </trkpt>
      <trkpt lat="47.68389" lon="6.03605">
        <ele>216</ele>
        <time>2012-11-21T08:48:00.000Z</time>
      </trkpt>
      <trkpt lat="47.6836" lon="6.03591">
        <ele>216</ele>
        <time>2012-11-21T08:48:08.000Z</time>
      </trkpt>
      <trkpt lat="47.68322" lon="6.0358">
        <ele>216</ele>
        <time>2012-11-21T08:48:18.000Z</time>
      </trkpt>
      <trkpt lat="47.68289" lon="6.03573">
        <ele>216</ele>
        <time>2012-11-21T08:48:27.000Z</time>
      </trkpt>
      <trkpt lat="47.68245" lon="6.03568">
        <ele>216</ele>
        <time>2012-11-21T08:48:38.000Z</time>
      </trkpt>
      <trkpt lat="47.68209" lon="6.03566">
        <ele>216</ele>
        <time>2012-11-21T08:48:47.000Z</time>
      </trkpt>
      <trkpt lat="47.68179" lon="6.03571">
        <ele>216</ele>
        <time>2012-11-21T08:48:55.000Z</time>
      </trkpt>
      <trkpt lat="47.68133" lon="6.03581">
        <ele>216</ele>
        <time>2012-11-21T08:49:07.000Z</time>
      </trkpt>
      <trkpt lat="47.68105" lon="6.03578">
        <ele>216</ele>
        <time>2012-11-21T08:49:14.000Z</time>
      </trkpt>
      <trkpt lat="47.68097" lon="6.03576">
        <ele>216</ele>
        <time>2012-11-21T08:49:16.000Z</time>
      </trkpt>
      <trkpt lat="47.6808" lon="6.03572">
        <ele>216</ele>
        <time>2012-11-21T08:49:20.000Z</time>
      </trkpt>
      <trkpt lat="47.68072" lon="6.0357">
        <ele>216</ele>
        <time>2012-11-21T08:49:22.000Z</time>
      </trkpt>
      <trkpt lat="47.68057" lon="6.03567">
        <ele>216</ele>
        <time>2012-11-21T08:49:26.000Z</time>
      </trkpt>
      <trkpt lat="47.6804" lon="6.03568">
        <ele>216</ele>
        <time>2012-11-21T08:49:30.000Z</time>
      </trkpt>
      <trkpt lat="47.68029" lon="6.03573">
        <ele>216</ele>
        <time>2012-11-21T08:49:33.000Z</time>
      </trkpt>
      <trkpt lat="47.68026" lon="6.03575">
        <ele>216</ele>
        <time>2012-11-21T08:49:34.000Z</time>
      </trkpt>
      <trkpt lat="47.67999" lon="6.03599">
        <ele>216</ele>
        <time>2012-11-21T08:49:42.000Z</time>
      </trkpt>
      <trkpt lat="47.67968" lon="6.03622">
        <ele>216</ele>
        <time>2012-11-21T08:49:51.000Z</time>
      </trkpt>
      <trkpt lat="47.67936" lon="6.03641">
        <ele>216</ele>
        <time>2012-11-21T08:50:00.000Z</time>
      </trkpt>
      <trkpt lat="47.67896" lon="6.03667">
        <ele>216</ele>
        <time>2012-11-21T08:50:11.000Z</time>
      </trkpt>
      <trkpt lat="47.67858" lon="6.03689">
        <ele>216</ele>
        <time>2012-11-21T08:50:21.000Z</time>
      </trkpt>
      <trkpt lat="47.6783" lon="6.03711">
        <ele>216</ele>
        <time>2012-11-21T08:50:29.000Z</time>
      </trkpt>
      <trkpt lat="47.67798" lon="6.03736">
        <ele>216</ele>
        <time>2012-11-21T08:50:38.000Z</time>
      </trkpt>
      <trkpt lat="47.67769" lon="6.03762">
        <ele>216</ele>
        <time>2012-11-21T08:50:46.000Z</time>
      </trkpt>
      <trkpt lat="47.67727" lon="6.03803">
        <ele>216</ele>
        <time>2012-11-21T08:50:58.000Z</time>
      </trkpt>
      <trkpt lat="47.67698" lon="6.0383">
        <ele>216</ele>
        <time>2012-11-21T08:51:06.000Z</time>
      </trkpt>
      <trkpt lat="47.67668" lon="6.03861">
        <ele>216</ele>
        <time>2012-11-21T08:51:15.000Z</time>
      </trkpt>
      <trkpt lat="47.67649" lon="6.03882">
        <ele>216</ele>
        <time>2012-11-21T08:51:21.000Z</time>
      </trkpt>
      <trkpt lat="47.67622" lon="6.03914">
        <ele>216</ele>
        <time>2012-11-21T08:51:29.000Z</time>
      </trkpt>
      <trkpt lat="47.67597" lon="6.03944">
        <ele>216</ele>
        <time>2012-11-21T08:51:36.000Z</time>
      </trkpt>
      <trkpt lat="47.67587" lon="6.03955">
        <ele>216</ele>
        <time>2012-11-21T08:51:39.000Z</time>
      </trkpt>
      <trkpt lat="47.67581" lon="6.03963">
        <ele>216</ele>
        <time>2012-11-21T08:51:41.000Z</time>
      </trkpt>
      <trkpt lat="47.67556" lon="6.03985">
        <ele>216</ele>
        <time>2012-11-21T08:51:48.000Z</time>
      </trkpt>
      <trkpt lat="47.6754" lon="6.0399">
        <ele>216</ele>
        <time>2012-11-21T08:51:52.000Z</time>
      </trkpt>
      <trkpt lat="47.67532" lon="6.0399">
        <ele>216</ele>
        <time>2012-11-21T08:51:54.000Z</time>
      </trkpt>
      <trkpt lat="47.67513" lon="6.03975">
        <ele>216</ele>
        <time>2012-11-21T08:51:59.000Z</time>
      </trkpt>
      <trkpt lat="47.67494" lon="6.03944">
        <ele>216</ele>
        <time>2012-11-21T08:52:06.000Z</time>
      </trkpt>
      <trkpt lat="47.67473" lon="6.03907">
        <ele>216</ele>
        <time>2012-11-21T08:52:14.000Z</time>
      </trkpt>
      <trkpt lat="47.67453" lon="6.03876">
        <ele>216</ele>
        <time>2012-11-21T08:52:21.000Z</time>
      </trkpt>
      <trkpt lat="47.67436" lon="6.03846">
        <ele>216</ele>
        <time>2012-11-21T08:52:28.000Z</time>
      </trkpt>
      <trkpt lat="47.67417" lon="6.0381">
        <ele>216</ele>
        <time>2012-11-21T08:52:36.000Z</time>
      </trkpt>
      <trkpt lat="47.67394" lon="6.03772">
        <ele>216</ele>
        <time>2012-11-21T08:52:45.000Z</time>
      </trkpt>
      <trkpt lat="47.67382" lon="6.03754">
        <ele>216</ele>
        <time>2012-11-21T08:52:49.000Z</time>
      </trkpt>
      <trkpt lat="47.67377" lon="6.03745">
        <ele>216</ele>
        <time>2012-11-21T08:52:51.000Z</time>
      </trkpt>
      <trkpt lat="47.67359" lon="6.03709">
        <ele>216</ele>
        <time>2012-11-21T08:52:58.000Z</time>
      </trkpt>
      <trkpt lat="47.67343" lon="6.0366">
        <ele>216</ele>
        <time>2012-11-21T08:53:07.000Z</time>
      </trkpt>
      <trkpt lat="47.67336" lon="6.03634">
        <ele>216</ele>
        <time>2012-11-21T08:53:12.000Z</time>
      </trkpt>
      <trkpt lat="47.67328" lon="6.03607">
        <ele>216</ele>
        <time>2012-11-21T08:53:17.000Z</time>
      </trkpt>
      <trkpt lat="47.67319" lon="6.03571">
        <ele>216</ele>
        <time>2012-11-21T08:53:24.000Z</time>
      </trkpt>
      <trkpt lat="47.67313" lon="6.03539">
        <ele>216</ele>
        <time>2012-11-21T08:53:30.000Z</time>
      </trkpt>
      <trkpt lat="47.67305" lon="6.03502">
        <ele>216</ele>
        <time>2012-11-21T08:53:36.000Z</time>
      </trkpt>
      <trkpt lat="47.67294" lon="6.0345">
        <ele>216</ele>
        <time>2012-11-21T08:53:44.000Z</time>
      </trkpt>
      <trkpt lat="47.67286" lon="6.0342">
        <ele>216</ele>
        <time>2012-11-21T08:53:49.000Z</time>
      </trkpt>
      <trkpt lat="47.67283" lon="6.03409">
        <ele>216</ele>
        <time>2012-11-21T08:53:51.000Z</time>
      </trkpt>
      <trkpt lat="47.67279" lon="6.03393">
        <ele>216</ele>
        <time>2012-11-21T08:53:54.000Z</time>
      </trkpt>
      <trkpt lat="47.67275" lon="6.03376">
        <ele>216</ele>
        <time>2012-11-21T08:53:57.000Z</time>
      </trkpt>
      <trkpt lat="47.67267" lon="6.03345">
        <ele>216</ele>
        <time>2012-11-21T08:54:03.000Z</time>
      </trkpt>
      <trkpt lat="47.67262" lon="6.03328">
        <ele>216</ele>
        <time>2012-11-21T08:54:06.000Z</time>
      </trkpt>
      <trkpt lat="47.67257" lon="6.03311">
        <ele>216</ele>
        <time>2012-11-21T08:54:09.000Z</time>
      </trkpt>
      <trkpt lat="47.6725" lon="6.0329">
        <ele>216</ele>
        <time>2012-11-21T08:54:13.000Z</time>
      </trkpt>
      <trkpt lat="47.67247" lon="6.03278">
        <ele>216</ele>
        <time>2012-11-21T08:54:15.000Z</time>
      </trkpt>
      <trkpt lat="47.67243" lon="6.03261">
        <ele>216</ele>
        <time>2012-11-21T08:54:18.000Z</time>
      </trkpt>
      <trkpt lat="47.6724" lon="6.0325">
        <ele>216</ele>
        <time>2012-11-21T08:54:20.000Z</time>
      </trkpt>
      <trkpt lat="47.67234" lon="6.0321">
        <ele>216</ele>
        <time>2012-11-21T08:54:27.000Z</time>
      </trkpt>
      <trkpt lat="47.6723" lon="6.03174">
        <ele>216</ele>
        <time>2012-11-21T08:54:34.000Z</time>
      </trkpt>
      <trkpt lat="47.67225" lon="6.03142">
        <ele>216</ele>
        <time>2012-11-21T08:54:41.000Z</time>
      </trkpt>
      <trkpt lat="47.67223" lon="6.03105">
        <ele>216</ele>
        <time>2012-11-21T08:54:49.000Z</time>
      </trkpt>
      <trkpt lat="47.6722" lon="6.03067">
        <ele>216</ele>
        <time>2012-11-21T08:54:56.000Z</time>
      </trkpt>
      <trkpt lat="47.67216" lon="6.03033">
        <ele>216</ele>
        <time>2012-11-21T08:55:02.000Z</time>
      </trkpt>
      <trkpt lat="47.67213" lon="6.03006">
        <ele>216</ele>
        <time>2012-11-21T08:55:07.000Z</time>
      </trkpt>
      <trkpt lat="47.67208" lon="6.02981">
        <ele>216</ele>
        <time>2012-11-21T08:55:12.000Z</time>
      </trkpt>
      <trkpt lat="47.67194" lon="6.02937">
        <ele>216</ele>
        <time>2012-11-21T08:55:20.000Z</time>
      </trkpt>
      <trkpt lat="47.67182" lon="6.02901">
        <ele>216</ele>
        <time>2012-11-21T08:55:27.000Z</time>
      </trkpt>
      <trkpt lat="47.67171" lon="6.0287">
        <ele>216</ele>
        <time>2012-11-21T08:55:33.000Z</time>
      </trkpt>
      <trkpt lat="47.67157" lon="6.02841">
        <ele>216</ele>
        <time>2012-11-21T08:55:39.000Z</time>
      </trkpt>
      <trkpt lat="47.67138" lon="6.02811">
        <ele>216</ele>
        <time>2012-11-21T08:55:46.000Z</time>
      </trkpt>
      <trkpt lat="47.67121" lon="6.02787">
        <ele>216</ele>
        <time>2012-11-21T08:55:52.000Z</time>
      </trkpt>
      <trkpt lat="47.671" lon="6.02763">
        <ele>216</ele>
        <time>2012-11-21T08:55:58.000Z</time>
      </trkpt>
      <trkpt lat="47.67074" lon="6.02731">
        <ele>216</ele>
        <time>2012-11-21T08:56:06.000Z</time>
      </trkpt>
      <trkpt lat="47.67051" lon="6.02704">
        <ele>216</ele>
        <time>2012-11-21T08:56:13.000Z</time>
      </trkpt>
      <trkpt lat="47.67023" lon="6.02669">
        <ele>216</ele>
        <time>2012-11-21T08:56:22.000Z</time>
      </trkpt>
      <trkpt lat="47.67004" lon="6.02639">
        <ele>216</ele>
        <time>2012-11-21T08:56:29.000Z</time>
      </trkpt>
      <trkpt lat="47.66987" lon="6.02612">
        <ele>215.80000305176</ele>
        <time>2012-11-21T08:56:35.000Z</time>
      </trkpt>
      <trkpt lat="47.66985" lon="6.02608">
        <ele>215</ele>
        <time>2012-11-21T08:56:36.000Z</time>
      </trkpt>
      <trkpt lat="47.66982" lon="6.02604">
        <ele>214.60000610352</ele>
        <time>2012-11-21T08:56:37.000Z</time>
      </trkpt>
      <trkpt lat="47.6698" lon="6.02599">
        <ele>214</ele>
        <time>2012-11-21T08:56:38.000Z</time>
      </trkpt>
      <trkpt lat="47.66967" lon="6.02577">
        <ele>214</ele>
        <time>2012-11-21T08:56:43.000Z</time>
      </trkpt>
      <trkpt lat="47.66951" lon="6.02549">
        <ele>214</ele>
        <time>2012-11-21T08:56:49.000Z</time>
      </trkpt>
      <trkpt lat="47.66935" lon="6.02523">
        <ele>214</ele>
        <time>2012-11-21T08:56:55.000Z</time>
      </trkpt>
      <trkpt lat="47.66919" lon="6.02496">
        <ele>214</ele>
        <time>2012-11-21T08:57:01.000Z</time>
      </trkpt>
      <trkpt lat="47.66899" lon="6.02463">
        <ele>214</ele>
        <time>2012-11-21T08:57:08.000Z</time>
      </trkpt>
      <trkpt lat="47.66882" lon="6.02429">
        <ele>214</ele>
        <time>2012-11-21T08:57:15.000Z</time>
      </trkpt>
      <trkpt lat="47.66862" lon="6.0239">
        <ele>214</ele>
        <time>2012-11-21T08:57:23.000Z</time>
      </trkpt>
      <trkpt lat="47.66852" lon="6.0237">
        <ele>214</ele>
        <time>2012-11-21T08:57:27.000Z</time>
      </trkpt>
      <trkpt lat="47.66848" lon="6.0236">
        <ele>214</ele>
        <time>2012-11-21T08:57:29.000Z</time>
      </trkpt>
      <trkpt lat="47.66831" lon="6.02323">
        <ele>214</ele>
        <time>2012-11-21T08:57:36.000Z</time>
      </trkpt>
      <trkpt lat="47.66825" lon="6.02308">
        <ele>214</ele>
        <time>2012-11-21T08:57:39.000Z</time>
      </trkpt>
      <trkpt lat="47.66819" lon="6.02293">
        <ele>214</ele>
        <time>2012-11-21T08:57:42.000Z</time>
      </trkpt>
      <trkpt lat="47.66809" lon="6.02262">
        <ele>214</ele>
        <time>2012-11-21T08:57:48.000Z</time>
      </trkpt>
      <trkpt lat="47.66797" lon="6.0222">
        <ele>214</ele>
        <time>2012-11-21T08:57:56.000Z</time>
      </trkpt>
      <trkpt lat="47.66787" lon="6.02187">
        <ele>214</ele>
        <time>2012-11-21T08:58:02.000Z</time>
      </trkpt>
      <trkpt lat="47.66779" lon="6.02154">
        <ele>214</ele>
        <time>2012-11-21T08:58:08.000Z</time>
      </trkpt>
      <trkpt lat="47.66773" lon="6.02126">
        <ele>214</ele>
        <time>2012-11-21T08:58:13.000Z</time>
      </trkpt>
      <trkpt lat="47.66772" lon="6.0212">
        <ele>214</ele>
        <time>2012-11-21T08:58:14.000Z</time>
      </trkpt>
      <trkpt lat="47.66759" lon="6.02068">
        <ele>214</ele>
        <time>2012-11-21T08:58:23.000Z</time>
      </trkpt>
      <trkpt lat="47.66748" lon="6.02021">
        <ele>214</ele>
        <time>2012-11-21T08:58:31.000Z</time>
      </trkpt>
      <trkpt lat="47.66737" lon="6.01983">
        <ele>214</ele>
        <time>2012-11-21T08:58:38.000Z</time>
      </trkpt>
      <trkpt lat="47.66729" lon="6.01957">
        <ele>214</ele>
        <time>2012-11-21T08:58:43.000Z</time>
      </trkpt>
      <trkpt lat="47.66717" lon="6.01926">
        <ele>214</ele>
        <time>2012-11-21T08:58:49.000Z</time>
      </trkpt>
      <trkpt lat="47.66715" lon="6.01921">
        <ele>214</ele>
        <time>2012-11-21T08:58:50.000Z</time>
      </trkpt>
      <trkpt lat="47.66705" lon="6.01903">
        <ele>214</ele>
        <time>2012-11-21T08:58:54.000Z</time>
      </trkpt>
      <trkpt lat="47.66691" lon="6.01877">
        <ele>214</ele>
        <time>2012-11-21T08:59:00.000Z</time>
      </trkpt>
      <trkpt lat="47.66679" lon="6.01856">
        <ele>214</ele>
        <time>2012-11-21T08:59:05.000Z</time>
      </trkpt>
      <trkpt lat="47.66661" lon="6.01824">
        <ele>214</ele>
        <time>2012-11-21T08:59:12.000Z</time>
      </trkpt>
      <trkpt lat="47.66649" lon="6.01793">
        <ele>214</ele>
        <time>2012-11-21T08:59:18.000Z</time>
      </trkpt>
      <trkpt lat="47.66627" lon="6.0176">
        <ele>214</ele>
        <time>2012-11-21T08:59:26.000Z</time>
      </trkpt>
      <trkpt lat="47.66615" lon="6.01746">
        <ele>214</ele>
        <time>2012-11-21T08:59:31.000Z</time>
      </trkpt>
      <trkpt lat="47.66604" lon="6.0173">
        <ele>214</ele>
        <time>2012-11-21T08:59:37.000Z</time>
      </trkpt>
      <trkpt lat="47.66597" lon="6.01725">
        <ele>214</ele>
        <time>2012-11-21T08:59:40.000Z</time>
      </trkpt>
      <trkpt lat="47.66591" lon="6.01722">
        <ele>214</ele>
        <time>2012-11-21T08:59:42.000Z</time>
      </trkpt>
      <trkpt lat="47.66587" lon="6.01717">
        <ele>214</ele>
        <time>2012-11-21T08:59:44.000Z</time>
      </trkpt>
      <trkpt lat="47.6658" lon="6.0171">
        <ele>214</ele>
        <time>2012-11-21T08:59:47.000Z</time>
      </trkpt>
      <trkpt lat="47.66578" lon="6.01708">
        <ele>214</ele>
        <time>2012-11-21T08:59:48.000Z</time>
      </trkpt>
      <trkpt lat="47.66562" lon="6.01691">
        <ele>214</ele>
        <time>2012-11-21T08:59:55.000Z</time>
      </trkpt>
      <trkpt lat="47.6654" lon="6.01669">
        <ele>214</ele>
        <time>2012-11-21T09:00:03.000Z</time>
      </trkpt>
      <trkpt lat="47.66515" lon="6.01642">
        <ele>214</ele>
        <time>2012-11-21T09:00:12.000Z</time>
      </trkpt>
      <trkpt lat="47.66493" lon="6.01622">
        <ele>214</ele>
        <time>2012-11-21T09:00:19.000Z</time>
      </trkpt>
      <trkpt lat="47.66467" lon="6.016">
        <ele>214</ele>
        <time>2012-11-21T09:00:27.000Z</time>
      </trkpt>
      <trkpt lat="47.66447" lon="6.01584">
        <ele>214</ele>
        <time>2012-11-21T09:00:33.000Z</time>
      </trkpt>
      <trkpt lat="47.66416" lon="6.0156">
        <ele>214</ele>
        <time>2012-11-21T09:00:42.000Z</time>
      </trkpt>
      <trkpt lat="47.66396" lon="6.01548">
        <ele>214</ele>
        <time>2012-11-21T09:00:48.000Z</time>
      </trkpt>
      <trkpt lat="47.66367" lon="6.01531">
        <ele>214</ele>
        <time>2012-11-21T09:00:56.000Z</time>
      </trkpt>
      <trkpt lat="47.66329" lon="6.0151">
        <ele>214</ele>
        <time>2012-11-21T09:01:06.000Z</time>
      </trkpt>
      <trkpt lat="47.66321" lon="6.01505">
        <ele>214</ele>
        <time>2012-11-21T09:01:08.000Z</time>
      </trkpt>
      <trkpt lat="47.66309" lon="6.015">
        <ele>214</ele>
        <time>2012-11-21T09:01:11.000Z</time>
      </trkpt>
      <trkpt lat="47.66305" lon="6.01498">
        <ele>214</ele>
        <time>2012-11-21T09:01:12.000Z</time>
      </trkpt>
      <trkpt lat="47.66274" lon="6.01488">
        <ele>214</ele>
        <time>2012-11-21T09:01:20.000Z</time>
      </trkpt>
      <trkpt lat="47.66244" lon="6.0148">
        <ele>214</ele>
        <time>2012-11-21T09:01:28.000Z</time>
      </trkpt>
      <trkpt lat="47.66212" lon="6.01472">
        <ele>214</ele>
        <time>2012-11-21T09:01:36.000Z</time>
      </trkpt>
      <trkpt lat="47.66188" lon="6.01471">
        <ele>214</ele>
        <time>2012-11-21T09:01:42.000Z</time>
      </trkpt>
      <trkpt lat="47.66166" lon="6.01474">
        <ele>214</ele>
        <time>2012-11-21T09:01:48.000Z</time>
      </trkpt>
      <trkpt lat="47.66141" lon="6.01475">
        <ele>214</ele>
        <time>2012-11-21T09:01:55.000Z</time>
      </trkpt>
      <trkpt lat="47.66119" lon="6.01478">
        <ele>214</ele>
        <time>2012-11-21T09:02:01.000Z</time>
      </trkpt>
      <trkpt lat="47.66094" lon="6.01481">
        <ele>214</ele>
        <time>2012-11-21T09:02:08.000Z</time>
      </trkpt>
      <trkpt lat="47.66066" lon="6.01484">
        <ele>214</ele>
        <time>2012-11-21T09:02:15.000Z</time>
      </trkpt>
      <trkpt lat="47.66038" lon="6.01491">
        <ele>214</ele>
        <time>2012-11-21T09:02:22.000Z</time>
      </trkpt>
      <trkpt lat="47.66014" lon="6.01498">
        <ele>214</ele>
        <time>2012-11-21T09:02:28.000Z</time>
      </trkpt>
      <trkpt lat="47.65992" lon="6.01507">
        <ele>214</ele>
        <time>2012-11-21T09:02:34.000Z</time>
      </trkpt>
      <trkpt lat="47.65965" lon="6.01517">
        <ele>214</ele>
        <time>2012-11-21T09:02:41.000Z</time>
      </trkpt>
      <trkpt lat="47.65941" lon="6.01524">
        <ele>214</ele>
        <time>2012-11-21T09:02:47.000Z</time>
      </trkpt>
      <trkpt lat="47.65917" lon="6.01533">
        <ele>214</ele>
        <time>2012-11-21T09:02:53.000Z</time>
      </trkpt>
      <trkpt lat="47.65889" lon="6.0155">
        <ele>214</ele>
        <time>2012-11-21T09:03:00.000Z</time>
      </trkpt>
      <trkpt lat="47.65866" lon="6.01563">
        <ele>214</ele>
        <time>2012-11-21T09:03:06.000Z</time>
      </trkpt>
      <trkpt lat="47.65846" lon="6.01577">
        <ele>214</ele>
        <time>2012-11-21T09:03:12.000Z</time>
      </trkpt>
      <trkpt lat="47.65831" lon="6.01589">
        <ele>214</ele>
        <time>2012-11-21T09:03:17.000Z</time>
      </trkpt>
      <trkpt lat="47.6581" lon="6.01605">
        <ele>214</ele>
        <time>2012-11-21T09:03:24.000Z</time>
      </trkpt>
      <trkpt lat="47.6579" lon="6.01623">
        <ele>214</ele>
        <time>2012-11-21T09:03:30.000Z</time>
      </trkpt>
      <trkpt lat="47.65767" lon="6.01643">
        <ele>214</ele>
        <time>2012-11-21T09:03:37.000Z</time>
      </trkpt>
      <trkpt lat="47.65746" lon="6.01661">
        <ele>214</ele>
        <time>2012-11-21T09:03:43.000Z</time>
      </trkpt>
      <trkpt lat="47.65726" lon="6.01675">
        <ele>214</ele>
        <time>2012-11-21T09:03:48.000Z</time>
      </trkpt>
      <trkpt lat="47.65688" lon="6.01698">
        <ele>214</ele>
        <time>2012-11-21T09:03:57.000Z</time>
      </trkpt>
      <trkpt lat="47.65673" lon="6.01698">
        <ele>214</ele>
        <time>2012-11-21T09:04:01.000Z</time>
      </trkpt>
      <trkpt lat="47.65671" lon="6.01694">
        <ele>214</ele>
        <time>2012-11-21T09:04:02.000Z</time>
      </trkpt>
      <trkpt lat="47.65665" lon="6.0168">
        <ele>214</ele>
        <time>2012-11-21T09:04:05.000Z</time>
      </trkpt>
      <trkpt lat="47.65656" lon="6.01677">
        <ele>214</ele>
        <time>2012-11-21T09:04:08.000Z</time>
      </trkpt>
      <trkpt lat="47.6565" lon="6.01683">
        <ele>214</ele>
        <time>2012-11-21T09:04:10.000Z</time>
      </trkpt>
      <trkpt lat="47.65643" lon="6.01689">
        <ele>214</ele>
        <time>2012-11-21T09:04:12.000Z</time>
      </trkpt>
      <trkpt lat="47.65615" lon="6.01716">
        <ele>214</ele>
        <time>2012-11-21T09:04:21.000Z</time>
      </trkpt>
      <trkpt lat="47.65596" lon="6.01748">
        <ele>214</ele>
        <time>2012-11-21T09:04:28.000Z</time>
      </trkpt>
      <trkpt lat="47.65574" lon="6.01786">
        <ele>213.80000305176</ele>
        <time>2012-11-21T09:04:36.000Z</time>
      </trkpt>
      <trkpt lat="47.65571" lon="6.01791">
        <ele>213.19999694824</ele>
        <time>2012-11-21T09:04:37.000Z</time>
      </trkpt>
      <trkpt lat="47.65568" lon="6.01794">
        <ele>213</ele>
        <time>2012-11-21T09:04:38.000Z</time>
      </trkpt>
      <trkpt lat="47.65565" lon="6.01798">
        <ele>212.60000610352</ele>
        <time>2012-11-21T09:04:39.000Z</time>
      </trkpt>
      <trkpt lat="47.65562" lon="6.01802">
        <ele>212</ele>
        <time>2012-11-21T09:04:40.000Z</time>
      </trkpt>
      <trkpt lat="47.6555" lon="6.01813">
        <ele>212</ele>
        <time>2012-11-21T09:04:44.000Z</time>
      </trkpt>
      <trkpt lat="47.65531" lon="6.01828">
        <ele>212</ele>
        <time>2012-11-21T09:04:51.000Z</time>
      </trkpt>
      <trkpt lat="47.65522" lon="6.01838">
        <ele>212.60000610352</ele>
        <time>2012-11-21T09:04:55.000Z</time>
      </trkpt>
      <trkpt lat="47.6552" lon="6.01842">
        <ele>213</ele>
        <time>2012-11-21T09:04:56.000Z</time>
      </trkpt>
      <trkpt lat="47.65518" lon="6.01845">
        <ele>213.19999694824</ele>
        <time>2012-11-21T09:04:57.000Z</time>
      </trkpt>
      <trkpt lat="47.65517" lon="6.01849">
        <ele>213.80000305176</ele>
        <time>2012-11-21T09:04:58.000Z</time>
      </trkpt>
      <trkpt lat="47.65515" lon="6.01853">
        <ele>214.19999694824</ele>
        <time>2012-11-21T09:04:59.000Z</time>
      </trkpt>
      <trkpt lat="47.65514" lon="6.01866">
        <ele>214.19999694824</ele>
        <time>2012-11-21T09:05:02.000Z</time>
      </trkpt>
      <trkpt lat="47.65515" lon="6.01877">
        <ele>214.19999694824</ele>
        <time>2012-11-21T09:05:05.000Z</time>
      </trkpt>
      <trkpt lat="47.65519" lon="6.01882">
        <ele>214.19999694824</ele>
        <time>2012-11-21T09:05:07.000Z</time>
      </trkpt>
      <trkpt lat="47.6552" lon="6.01885">
        <ele>214.19999694824</ele>
        <time>2012-11-21T09:05:08.000Z</time>
      </trkpt>
      <trkpt lat="47.65521" lon="6.01889">
        <ele>214.80000305176</ele>
        <time>2012-11-21T09:05:09.000Z</time>
      </trkpt>
      <trkpt lat="47.65521" lon="6.01892">
        <ele>215</ele>
        <time>2012-11-21T09:05:10.000Z</time>
      </trkpt>
      <trkpt lat="47.65522" lon="6.01895">
        <ele>215.60000610352</ele>
        <time>2012-11-21T09:05:11.000Z</time>
      </trkpt>
      <trkpt lat="47.65524" lon="6.01898">
        <ele>216</ele>
        <time>2012-11-21T09:05:12.000Z</time>
      </trkpt>
      <trkpt lat="47.65525" lon="6.019">
        <ele>216.19999694824</ele>
        <time>2012-11-21T09:05:13.000Z</time>
      </trkpt>
      <trkpt lat="47.6553" lon="6.01911">
        <ele>216.19999694824</ele>
        <time>2012-11-21T09:05:17.000Z</time>
      </trkpt>
      <trkpt lat="47.65533" lon="6.01917">
        <ele>216.19999694824</ele>
        <time>2012-11-21T09:05:21.000Z</time>
      </trkpt>
      <trkpt lat="47.65533" lon="6.01921">
        <ele>216.19999694824</ele>
        <time>2012-11-21T09:06:21.000Z</time>
      </trkpt>
      <trkpt lat="47.65527" lon="6.01934">
        <ele>216.19999694824</ele>
        <time>2012-11-21T09:06:25.000Z</time>
      </trkpt>
      <trkpt lat="47.65504" lon="6.01957">
        <ele>216.19999694824</ele>
        <time>2012-11-21T09:06:31.000Z</time>
      </trkpt>
      <trkpt lat="47.655" lon="6.01961">
        <ele>216</ele>
        <time>2012-11-21T09:06:32.000Z</time>
      </trkpt>
      <trkpt lat="47.65496" lon="6.01963">
        <ele>215.60000610352</ele>
        <time>2012-11-21T09:06:33.000Z</time>
      </trkpt>
      <trkpt lat="47.65491" lon="6.01965">
        <ele>215</ele>
        <time>2012-11-21T09:06:34.000Z</time>
      </trkpt>
      <trkpt lat="47.65487" lon="6.01968">
        <ele>214.80000305176</ele>
        <time>2012-11-21T09:06:35.000Z</time>
      </trkpt>
      <trkpt lat="47.65483" lon="6.01971">
        <ele>214</ele>
        <time>2012-11-21T09:06:36.000Z</time>
      </trkpt>
      <trkpt lat="47.6546" lon="6.0199">
        <ele>214</ele>
        <time>2012-11-21T09:06:42.000Z</time>
      </trkpt>
      <trkpt lat="47.65452" lon="6.01996">
        <ele>214</ele>
        <time>2012-11-21T09:06:44.000Z</time>
      </trkpt>
      <trkpt lat="47.65425" lon="6.02019">
        <ele>214</ele>
        <time>2012-11-21T09:06:51.000Z</time>
      </trkpt>
      <trkpt lat="47.654" lon="6.0204">
        <ele>214</ele>
        <time>2012-11-21T09:06:58.000Z</time>
      </trkpt>
      <trkpt lat="47.65367" lon="6.02065">
        <ele>214</ele>
        <time>2012-11-21T09:07:07.000Z</time>
      </trkpt>
      <trkpt lat="47.65334" lon="6.02083">
        <ele>214</ele>
        <time>2012-11-21T09:07:15.000Z</time>
      </trkpt>
      <trkpt lat="47.65298" lon="6.02096">
        <ele>214</ele>
        <time>2012-11-21T09:07:23.000Z</time>
      </trkpt>
      <trkpt lat="47.65274" lon="6.02103">
        <ele>214</ele>
        <time>2012-11-21T09:07:29.000Z</time>
      </trkpt>
      <trkpt lat="47.65257" lon="6.02105">
        <ele>214</ele>
        <time>2012-11-21T09:07:34.000Z</time>
      </trkpt>
      <trkpt lat="47.65223" lon="6.02106">
        <ele>214</ele>
        <time>2012-11-21T09:07:43.000Z</time>
      </trkpt>
      <trkpt lat="47.65192" lon="6.02104">
        <ele>214</ele>
        <time>2012-11-21T09:07:51.000Z</time>
      </trkpt>
      <trkpt lat="47.65163" lon="6.02097">
        <ele>214</ele>
        <time>2012-11-21T09:07:59.000Z</time>
      </trkpt>
      <trkpt lat="47.65133" lon="6.02086">
        <ele>214</ele>
        <time>2012-11-21T09:08:07.000Z</time>
      </trkpt>
      <trkpt lat="47.65125" lon="6.02083">
        <ele>213.80000305176</ele>
        <time>2012-11-21T09:08:09.000Z</time>
      </trkpt>
      <trkpt lat="47.65121" lon="6.02082">
        <ele>213.19999694824</ele>
        <time>2012-11-21T09:08:10.000Z</time>
      </trkpt>
      <trkpt lat="47.65117" lon="6.0208">
        <ele>213</ele>
        <time>2012-11-21T09:08:11.000Z</time>
      </trkpt>
      <trkpt lat="47.65113" lon="6.02078">
        <ele>212.60000610352</ele>
        <time>2012-11-21T09:08:12.000Z</time>
      </trkpt>
      <trkpt lat="47.6511" lon="6.02077">
        <ele>212</ele>
        <time>2012-11-21T09:08:13.000Z</time>
      </trkpt>
      <trkpt lat="47.65094" lon="6.02071">
        <ele>212</ele>
        <time>2012-11-21T09:08:17.000Z</time>
      </trkpt>
      <trkpt lat="47.65086" lon="6.02068">
        <ele>212</ele>
        <time>2012-11-21T09:08:19.000Z</time>
      </trkpt>
      <trkpt lat="47.65044" lon="6.0205">
        <ele>212</ele>
        <time>2012-11-21T09:08:26.000Z</time>
      </trkpt>
      <trkpt lat="47.65025" lon="6.02038">
        <ele>212</ele>
        <time>2012-11-21T09:08:32.000Z</time>
      </trkpt>
      <trkpt lat="47.65015" lon="6.02029">
        <ele>212</ele>
        <time>2012-11-21T09:08:34.000Z</time>
      </trkpt>
      <trkpt lat="47.64998" lon="6.02024">
        <ele>212</ele>
        <time>2012-11-21T09:08:37.000Z</time>
      </trkpt>
      <trkpt lat="47.64993" lon="6.02023">
        <ele>212</ele>
        <time>2012-11-21T09:08:38.000Z</time>
      </trkpt>
      <trkpt lat="47.64988" lon="6.02024">
        <ele>212</ele>
        <time>2012-11-21T09:08:39.000Z</time>
      </trkpt>
      <trkpt lat="47.64979" lon="6.02031">
        <ele>212</ele>
        <time>2012-11-21T09:08:41.000Z</time>
      </trkpt>
      <trkpt lat="47.64968" lon="6.02039">
        <ele>212</ele>
        <time>2012-11-21T09:08:44.000Z</time>
      </trkpt>
      <trkpt lat="47.64962" lon="6.02044">
        <ele>212</ele>
        <time>2012-11-21T09:08:46.000Z</time>
      </trkpt>
      <trkpt lat="47.64945" lon="6.02057">
        <ele>212</ele>
        <time>2012-11-21T09:08:52.000Z</time>
      </trkpt>
      <trkpt lat="47.64921" lon="6.02076">
        <ele>212</ele>
        <time>2012-11-21T09:09:00.000Z</time>
      </trkpt>
      <trkpt lat="47.64904" lon="6.02091">
        <ele>212</ele>
        <time>2012-11-21T09:09:06.000Z</time>
      </trkpt>
      <trkpt lat="47.64895" lon="6.02094">
        <ele>212</ele>
        <time>2012-11-21T09:09:11.000Z</time>
      </trkpt>
      <trkpt lat="47.64885" lon="6.02078">
        <ele>212</ele>
        <time>2012-11-21T09:09:16.000Z</time>
      </trkpt>
      <trkpt lat="47.64885" lon="6.02074">
        <ele>212</ele>
        <time>2012-11-21T09:09:17.000Z</time>
      </trkpt>
      <trkpt lat="47.64888" lon="6.02064">
        <ele>212</ele>
        <time>2012-11-21T09:09:21.000Z</time>
      </trkpt>
      <trkpt lat="47.64892" lon="6.02071">
        <ele>212</ele>
        <time>2012-11-21T09:09:25.000Z</time>
      </trkpt>
      <trkpt lat="47.64898" lon="6.02089">
        <ele>212</ele>
        <time>2012-11-21T09:09:29.000Z</time>
      </trkpt>
      <trkpt lat="47.64905" lon="6.021">
        <ele>212</ele>
        <time>2012-11-21T09:09:32.000Z</time>
      </trkpt>
      <trkpt lat="47.64907" lon="6.02107">
        <ele>212</ele>
        <time>2012-11-21T09:09:34.000Z</time>
      </trkpt>
      <trkpt lat="47.64912" lon="6.02124">
        <ele>212</ele>
        <time>2012-11-21T09:09:38.000Z</time>
      </trkpt>
      <trkpt lat="47.64918" lon="6.02144">
        <ele>212</ele>
        <time>2012-11-21T09:09:43.000Z</time>
      </trkpt>
      <trkpt lat="47.64923" lon="6.02167">
        <ele>212</ele>
        <time>2012-11-21T09:09:49.000Z</time>
      </trkpt>
      <trkpt lat="47.64931" lon="6.02189">
        <ele>212</ele>
        <time>2012-11-21T09:09:53.000Z</time>
      </trkpt>
      <trkpt lat="47.64951" lon="6.02239">
        <ele>212</ele>
        <time>2012-11-21T09:10:00.000Z</time>
      </trkpt>
      <trkpt lat="47.64954" lon="6.02246">
        <ele>212</ele>
        <time>2012-11-21T09:10:01.000Z</time>
      </trkpt>
      <trkpt lat="47.64958" lon="6.0226">
        <ele>212</ele>
        <time>2012-11-21T09:10:03.000Z</time>
      </trkpt>
      <trkpt lat="47.64963" lon="6.02274">
        <ele>212</ele>
        <time>2012-11-21T09:10:05.000Z</time>
      </trkpt>
      <trkpt lat="47.64969" lon="6.02295">
        <ele>212</ele>
        <time>2012-11-21T09:10:08.000Z</time>
      </trkpt>
      <trkpt lat="47.64972" lon="6.02316">
        <ele>212</ele>
        <time>2012-11-21T09:10:11.000Z</time>
      </trkpt>
      <trkpt lat="47.64968" lon="6.02338">
        <ele>212</ele>
        <time>2012-11-21T09:10:15.000Z</time>
      </trkpt>
      <trkpt lat="47.64968" lon="6.02349">
        <ele>212</ele>
        <time>2012-11-21T09:10:17.000Z</time>
      </trkpt>
      <trkpt lat="47.64968" lon="6.02366">
        <ele>212</ele>
        <time>2012-11-21T09:10:20.000Z</time>
      </trkpt>
      <trkpt lat="47.64963" lon="6.02388">
        <ele>212</ele>
        <time>2012-11-21T09:10:24.000Z</time>
      </trkpt>
      <trkpt lat="47.64945" lon="6.02411">
        <ele>212</ele>
        <time>2012-11-21T09:10:30.000Z</time>
      </trkpt>
      <trkpt lat="47.64938" lon="6.02422">
        <ele>212</ele>
        <time>2012-11-21T09:10:33.000Z</time>
      </trkpt>
      <trkpt lat="47.64939" lon="6.02431">
        <ele>212</ele>
        <time>2012-11-21T09:10:35.000Z</time>
      </trkpt>
      <trkpt lat="47.64944" lon="6.02468">
        <ele>212</ele>
        <time>2012-11-21T09:10:43.000Z</time>
      </trkpt>
      <trkpt lat="47.64948" lon="6.02497">
        <ele>212</ele>
        <time>2012-11-21T09:10:49.000Z</time>
      </trkpt>
      <trkpt lat="47.64952" lon="6.02512">
        <ele>212</ele>
        <time>2012-11-21T09:10:51.000Z</time>
      </trkpt>
      <trkpt lat="47.64955" lon="6.0253">
        <ele>212</ele>
        <time>2012-11-21T09:10:53.000Z</time>
      </trkpt>
      <trkpt lat="47.64962" lon="6.02585">
        <ele>212</ele>
        <time>2012-11-21T09:10:59.000Z</time>
      </trkpt>
      <trkpt lat="47.64972" lon="6.02651">
        <ele>212</ele>
        <time>2012-11-21T09:11:07.000Z</time>
      </trkpt>
      <trkpt lat="47.64977" lon="6.02695">
        <ele>212</ele>
        <time>2012-11-21T09:11:13.000Z</time>
      </trkpt>
      <trkpt lat="47.64979" lon="6.02717">
        <ele>211.80000305176</ele>
        <time>2012-11-21T09:11:16.000Z</time>
      </trkpt>
      <trkpt lat="47.6498" lon="6.02724">
        <ele>211.19999694824</ele>
        <time>2012-11-21T09:11:17.000Z</time>
      </trkpt>
      <trkpt lat="47.64981" lon="6.02732">
        <ele>211</ele>
        <time>2012-11-21T09:11:18.000Z</time>
      </trkpt>
      <trkpt lat="47.64982" lon="6.02739">
        <ele>210.60000610352</ele>
        <time>2012-11-21T09:11:19.000Z</time>
      </trkpt>
      <trkpt lat="47.64983" lon="6.02746">
        <ele>210</ele>
        <time>2012-11-21T09:11:20.000Z</time>
      </trkpt>
      <trkpt lat="47.64989" lon="6.02796">
        <ele>210</ele>
        <time>2012-11-21T09:11:27.000Z</time>
      </trkpt>
      <trkpt lat="47.64996" lon="6.02851">
        <ele>210</ele>
        <time>2012-11-21T09:11:35.000Z</time>
      </trkpt>
      <trkpt lat="47.65006" lon="6.02906">
        <ele>210</ele>
        <time>2012-11-21T09:11:43.000Z</time>
      </trkpt>
      <trkpt lat="47.65021" lon="6.02951">
        <ele>210</ele>
        <time>2012-11-21T09:11:50.000Z</time>
      </trkpt>
      <trkpt lat="47.6504" lon="6.02988">
        <ele>210</ele>
        <time>2012-11-21T09:11:57.000Z</time>
      </trkpt>
      <trkpt lat="47.65063" lon="6.03025">
        <ele>210</ele>
        <time>2012-11-21T09:12:05.000Z</time>
      </trkpt>
      <trkpt lat="47.65069" lon="6.03042">
        <ele>210</ele>
        <time>2012-11-21T09:12:09.000Z</time>
      </trkpt>
      <trkpt lat="47.65068" lon="6.03046">
        <ele>210</ele>
        <time>2012-11-21T09:12:10.000Z</time>
      </trkpt>
      <trkpt lat="47.65069" lon="6.03059">
        <ele>210</ele>
        <time>2012-11-21T09:12:13.000Z</time>
      </trkpt>
      <trkpt lat="47.6507" lon="6.03064">
        <ele>210.60000610352</ele>
        <time>2012-11-21T09:12:14.000Z</time>
      </trkpt>
      <trkpt lat="47.65072" lon="6.03068">
        <ele>211</ele>
        <time>2012-11-21T09:12:15.000Z</time>
      </trkpt>
      <trkpt lat="47.65074" lon="6.03072">
        <ele>211.80000305176</ele>
        <time>2012-11-21T09:12:16.000Z</time>
      </trkpt>
      <trkpt lat="47.65076" lon="6.03077">
        <ele>212</ele>
        <time>2012-11-21T09:12:17.000Z</time>
      </trkpt>
      <trkpt lat="47.6508" lon="6.03091">
        <ele>212</ele>
        <time>2012-11-21T09:12:20.000Z</time>
      </trkpt>
      <trkpt lat="47.65083" lon="6.0312">
        <ele>212</ele>
        <time>2012-11-21T09:12:26.000Z</time>
      </trkpt>
      <trkpt lat="47.65076" lon="6.03143">
        <ele>212</ele>
        <time>2012-11-21T09:12:31.000Z</time>
      </trkpt>
      <trkpt lat="47.6506" lon="6.03174">
        <ele>212</ele>
        <time>2012-11-21T09:12:39.000Z</time>
      </trkpt>
      <trkpt lat="47.65058" lon="6.03177">
        <ele>212.60000610352</ele>
        <time>2012-11-21T09:12:40.000Z</time>
      </trkpt>
      <trkpt lat="47.65056" lon="6.03181">
        <ele>213.19999694824</ele>
        <time>2012-11-21T09:12:41.000Z</time>
      </trkpt>
      <trkpt lat="47.65054" lon="6.03184">
        <ele>213.80000305176</ele>
        <time>2012-11-21T09:12:42.000Z</time>
      </trkpt>
      <trkpt lat="47.65052" lon="6.03188">
        <ele>214</ele>
        <time>2012-11-21T09:12:43.000Z</time>
      </trkpt>
      <trkpt lat="47.65046" lon="6.03199">
        <ele>214</ele>
        <time>2012-11-21T09:12:46.000Z</time>
      </trkpt>
      <trkpt lat="47.65031" lon="6.03221">
        <ele>214</ele>
        <time>2012-11-21T09:12:53.000Z</time>
      </trkpt>
      <trkpt lat="47.65009" lon="6.03242">
        <ele>214</ele>
        <time>2012-11-21T09:13:01.000Z</time>
      </trkpt>
      <trkpt lat="47.64978" lon="6.03261">
        <ele>214</ele>
        <time>2012-11-21T09:13:09.000Z</time>
      </trkpt>
      <trkpt lat="47.6497" lon="6.03267">
        <ele>214</ele>
        <time>2012-11-21T09:13:11.000Z</time>
      </trkpt>
      <trkpt lat="47.64953" lon="6.03278">
        <ele>214</ele>
        <time>2012-11-21T09:13:15.000Z</time>
      </trkpt>
      <trkpt lat="47.64944" lon="6.03283">
        <ele>214</ele>
        <time>2012-11-21T09:13:17.000Z</time>
      </trkpt>
      <trkpt lat="47.64926" lon="6.03294">
        <ele>214</ele>
        <time>2012-11-21T09:13:21.000Z</time>
      </trkpt>
      <trkpt lat="47.64901" lon="6.03311">
        <ele>214</ele>
        <time>2012-11-21T09:13:27.000Z</time>
      </trkpt>
      <trkpt lat="47.64894" lon="6.03316">
        <ele>214</ele>
        <time>2012-11-21T09:13:29.000Z</time>
      </trkpt>
      <trkpt lat="47.64872" lon="6.03328">
        <ele>214</ele>
        <time>2012-11-21T09:13:36.000Z</time>
      </trkpt>
      <trkpt lat="47.6485" lon="6.0334">
        <ele>214</ele>
        <time>2012-11-21T09:13:44.000Z</time>
      </trkpt>
      <trkpt lat="47.64828" lon="6.03352">
        <ele>214</ele>
        <time>2012-11-21T09:13:51.000Z</time>
      </trkpt>
      <trkpt lat="47.64802" lon="6.03367">
        <ele>214</ele>
        <time>2012-11-21T09:13:59.000Z</time>
      </trkpt>
      <trkpt lat="47.64781" lon="6.03379">
        <ele>214</ele>
        <time>2012-11-21T09:14:05.000Z</time>
      </trkpt>
      <trkpt lat="47.64752" lon="6.03401">
        <ele>214</ele>
        <time>2012-11-21T09:14:13.000Z</time>
      </trkpt>
      <trkpt lat="47.6472" lon="6.03423">
        <ele>214</ele>
        <time>2012-11-21T09:14:22.000Z</time>
      </trkpt>
      <trkpt lat="47.64688" lon="6.03447">
        <ele>214</ele>
        <time>2012-11-21T09:14:31.000Z</time>
      </trkpt>
      <trkpt lat="47.64662" lon="6.03472">
        <ele>214.60000610352</ele>
        <time>2012-11-21T09:14:39.000Z</time>
      </trkpt>
      <trkpt lat="47.64659" lon="6.03476">
        <ele>215</ele>
        <time>2012-11-21T09:14:40.000Z</time>
      </trkpt>
      <trkpt lat="47.64656" lon="6.0348">
        <ele>215.19999694824</ele>
        <time>2012-11-21T09:14:41.000Z</time>
      </trkpt>
      <trkpt lat="47.64653" lon="6.03484">
        <ele>215.80000305176</ele>
        <time>2012-11-21T09:14:42.000Z</time>
      </trkpt>
      <trkpt lat="47.6465" lon="6.03488">
        <ele>216</ele>
        <time>2012-11-21T09:14:43.000Z</time>
      </trkpt>
      <trkpt lat="47.64641" lon="6.035">
        <ele>216</ele>
        <time>2012-11-21T09:14:46.000Z</time>
      </trkpt>
      <trkpt lat="47.64613" lon="6.03534">
        <ele>216</ele>
        <time>2012-11-21T09:14:55.000Z</time>
      </trkpt>
      <trkpt lat="47.6459" lon="6.03564">
        <ele>216</ele>
        <time>2012-11-21T09:15:03.000Z</time>
      </trkpt>
      <trkpt lat="47.64567" lon="6.03594">
        <ele>216</ele>
        <time>2012-11-21T09:15:11.000Z</time>
      </trkpt>
      <trkpt lat="47.64564" lon="6.03598">
        <ele>216.60000610352</ele>
        <time>2012-11-21T09:15:12.000Z</time>
      </trkpt>
      <trkpt lat="47.64561" lon="6.03601">
        <ele>217</ele>
        <time>2012-11-21T09:15:13.000Z</time>
      </trkpt>
      <trkpt lat="47.64557" lon="6.03604">
        <ele>217.60000610352</ele>
        <time>2012-11-21T09:15:14.000Z</time>
      </trkpt>
      <trkpt lat="47.64553" lon="6.03606">
        <ele>218</ele>
        <time>2012-11-21T09:15:15.000Z</time>
      </trkpt>
      <trkpt lat="47.64549" lon="6.03608">
        <ele>218.19999694824</ele>
        <time>2012-11-21T09:15:16.000Z</time>
      </trkpt>
      <trkpt lat="47.64545" lon="6.0361">
        <ele>218.19999694824</ele>
        <time>2012-11-21T09:15:17.000Z</time>
      </trkpt>
      <trkpt lat="47.64512" lon="6.03621">
        <ele>218.19999694824</ele>
        <time>2012-11-21T09:15:25.000Z</time>
      </trkpt>
      <trkpt lat="47.64473" lon="6.03625">
        <ele>218.19999694824</ele>
        <time>2012-11-21T09:15:34.000Z</time>
      </trkpt>
      <trkpt lat="47.64435" lon="6.03622">
        <ele>218.19999694824</ele>
        <time>2012-11-21T09:15:43.000Z</time>
      </trkpt>
      <trkpt lat="47.64417" lon="6.03631">
        <ele>218.19999694824</ele>
        <time>2012-11-21T09:15:48.000Z</time>
      </trkpt>
      <trkpt lat="47.64404" lon="6.03658">
        <ele>218.19999694824</ele>
        <time>2012-11-21T09:15:54.000Z</time>
      </trkpt>
      <trkpt lat="47.64391" lon="6.03688">
        <ele>218.19999694824</ele>
        <time>2012-11-21T09:16:01.000Z</time>
      </trkpt>
      <trkpt lat="47.64389" lon="6.0369">
        <ele>218.80000305176</ele>
        <time>2012-11-21T09:16:02.000Z</time>
      </trkpt>
      <trkpt lat="47.64387" lon="6.03693">
        <ele>219</ele>
        <time>2012-11-21T09:16:03.000Z</time>
      </trkpt>
      <trkpt lat="47.64384" lon="6.03694">
        <ele>219.60000610352</ele>
        <time>2012-11-21T09:16:04.000Z</time>
      </trkpt>
      <trkpt lat="47.64382" lon="6.03695">
        <ele>220</ele>
        <time>2012-11-21T09:16:05.000Z</time>
      </trkpt>
      <trkpt lat="47.6438" lon="6.03696">
        <ele>220.60000610352</ele>
        <time>2012-11-21T09:16:06.000Z</time>
      </trkpt>
      <trkpt lat="47.64374" lon="6.03699">
        <ele>221</ele>
        <time>2012-11-21T09:16:09.000Z</time>
      </trkpt>
      <trkpt lat="47.64372" lon="6.03699">
        <ele>221.19999694824</ele>
        <time>2012-11-21T09:16:10.000Z</time>
      </trkpt>
      <trkpt lat="47.64369" lon="6.037">
        <ele>221.80000305176</ele>
        <time>2012-11-21T09:16:11.000Z</time>
      </trkpt>
      <trkpt lat="47.64367" lon="6.03701">
        <ele>222</ele>
        <time>2012-11-21T09:16:12.000Z</time>
      </trkpt>
      <trkpt lat="47.64364" lon="6.03701">
        <ele>222.60000610352</ele>
        <time>2012-11-21T09:16:13.000Z</time>
      </trkpt>
      <trkpt lat="47.64356" lon="6.03704">
        <ele>222.60000610352</ele>
        <time>2012-11-21T09:16:16.000Z</time>
      </trkpt>
      <trkpt lat="47.6434" lon="6.03706">
        <ele>223</ele>
        <time>2012-11-21T09:16:21.000Z</time>
      </trkpt>
      <trkpt lat="47.64337" lon="6.03706">
        <ele>223.19999694824</ele>
        <time>2012-11-21T09:16:22.000Z</time>
      </trkpt>
      <trkpt lat="47.64334" lon="6.03706">
        <ele>224.19999694824</ele>
        <time>2012-11-21T09:16:23.000Z</time>
      </trkpt>
      <trkpt lat="47.64331" lon="6.03707">
        <ele>224.80000305176</ele>
        <time>2012-11-21T09:16:24.000Z</time>
      </trkpt>
      <trkpt lat="47.64319" lon="6.03709">
        <ele>224.80000305176</ele>
        <time>2012-11-21T09:16:28.000Z</time>
      </trkpt>
      <trkpt lat="47.64298" lon="6.03709">
        <ele>224.80000305176</ele>
        <time>2012-11-21T09:16:34.000Z</time>
      </trkpt>
      <trkpt lat="47.64276" lon="6.03706">
        <ele>224.80000305176</ele>
        <time>2012-11-21T09:16:40.000Z</time>
      </trkpt>
      <trkpt lat="47.64247" lon="6.03696">
        <ele>224.80000305176</ele>
        <time>2012-11-21T09:16:47.000Z</time>
      </trkpt>
      <trkpt lat="47.64217" lon="6.03688">
        <ele>224.80000305176</ele>
        <time>2012-11-21T09:16:55.000Z</time>
      </trkpt>
      <trkpt lat="47.64188" lon="6.03683">
        <ele>224.80000305176</ele>
        <time>2012-11-21T09:17:03.000Z</time>
      </trkpt>
      <trkpt lat="47.64153" lon="6.03683">
        <ele>224.80000305176</ele>
        <time>2012-11-21T09:17:12.000Z</time>
      </trkpt>
      <trkpt lat="47.64125" lon="6.03676">
        <ele>224.80000305176</ele>
        <time>2012-11-21T09:17:19.000Z</time>
      </trkpt>
      <trkpt lat="47.64093" lon="6.03661">
        <ele>224.80000305176</ele>
        <time>2012-11-21T09:17:28.000Z</time>
      </trkpt>
      <trkpt lat="47.64063" lon="6.03645">
        <ele>224.80000305176</ele>
        <time>2012-11-21T09:17:37.000Z</time>
      </trkpt>
      <trkpt lat="47.64037" lon="6.03628">
        <ele>224.80000305176</ele>
        <time>2012-11-21T09:17:44.000Z</time>
      </trkpt>
      <trkpt lat="47.64005" lon="6.03605">
        <ele>224.80000305176</ele>
        <time>2012-11-21T09:17:52.000Z</time>
      </trkpt>
      <trkpt lat="47.63978" lon="6.03586">
        <ele>224.80000305176</ele>
        <time>2012-11-21T09:17:58.000Z</time>
      </trkpt>
      <trkpt lat="47.63973" lon="6.03584">
        <ele>224.80000305176</ele>
        <time>2012-11-21T09:17:59.000Z</time>
      </trkpt>
      <trkpt lat="47.63962" lon="6.0358">
        <ele>224.80000305176</ele>
        <time>2012-11-21T09:18:01.000Z</time>
      </trkpt>
      <trkpt lat="47.63953" lon="6.03575">
        <ele>224.80000305176</ele>
        <time>2012-11-21T09:18:03.000Z</time>
      </trkpt>
      <trkpt lat="47.63929" lon="6.03565">
        <ele>224.80000305176</ele>
        <time>2012-11-21T09:18:09.000Z</time>
      </trkpt>
      <trkpt lat="47.63897" lon="6.03554">
        <ele>224.19999694824</ele>
        <time>2012-11-21T09:18:16.000Z</time>
      </trkpt>
      <trkpt lat="47.63892" lon="6.03551">
        <ele>223.80000305176</ele>
        <time>2012-11-21T09:18:17.000Z</time>
      </trkpt>
      <trkpt lat="47.63887" lon="6.03548">
        <ele>223.19999694824</ele>
        <time>2012-11-21T09:18:18.000Z</time>
      </trkpt>
      <trkpt lat="47.63881" lon="6.03545">
        <ele>223</ele>
        <time>2012-11-21T09:18:19.000Z</time>
      </trkpt>
      <trkpt lat="47.63875" lon="6.03542">
        <ele>222.60000610352</ele>
        <time>2012-11-21T09:18:20.000Z</time>
      </trkpt>
      <trkpt lat="47.63864" lon="6.03536">
        <ele>222.60000610352</ele>
        <time>2012-11-21T09:18:22.000Z</time>
      </trkpt>
      <trkpt lat="47.63845" lon="6.03529">
        <ele>222</ele>
        <time>2012-11-21T09:18:25.000Z</time>
      </trkpt>
      <trkpt lat="47.63839" lon="6.03528">
        <ele>221</ele>
        <time>2012-11-21T09:18:26.000Z</time>
      </trkpt>
      <trkpt lat="47.63832" lon="6.03527">
        <ele>220.80000305176</ele>
        <time>2012-11-21T09:18:27.000Z</time>
      </trkpt>
      <trkpt lat="47.63825" lon="6.03525">
        <ele>220.19999694824</ele>
        <time>2012-11-21T09:18:28.000Z</time>
      </trkpt>
      <trkpt lat="47.63805" lon="6.03521">
        <ele>220</ele>
        <time>2012-11-21T09:18:31.000Z</time>
      </trkpt>
      <trkpt lat="47.63798" lon="6.03518">
        <ele>219.19999694824</ele>
        <time>2012-11-21T09:18:32.000Z</time>
      </trkpt>
      <trkpt lat="47.63792" lon="6.03516">
        <ele>219</ele>
        <time>2012-11-21T09:18:33.000Z</time>
      </trkpt>
      <trkpt lat="47.63785" lon="6.03513">
        <ele>218.60000610352</ele>
        <time>2012-11-21T09:18:34.000Z</time>
      </trkpt>
      <trkpt lat="47.63778" lon="6.03512">
        <ele>218</ele>
        <time>2012-11-21T09:18:35.000Z</time>
      </trkpt>
      <trkpt lat="47.63762" lon="6.03509">
        <ele>217.60000610352</ele>
        <time>2012-11-21T09:18:37.000Z</time>
      </trkpt>
      <trkpt lat="47.63754" lon="6.03509">
        <ele>217</ele>
        <time>2012-11-21T09:18:38.000Z</time>
      </trkpt>
      <trkpt lat="47.63746" lon="6.03511">
        <ele>216.60000610352</ele>
        <time>2012-11-21T09:18:39.000Z</time>
      </trkpt>
      <trkpt lat="47.63739" lon="6.03514">
        <ele>216</ele>
        <time>2012-11-21T09:18:40.000Z</time>
      </trkpt>
      <trkpt lat="47.63731" lon="6.03518">
        <ele>215.80000305176</ele>
        <time>2012-11-21T09:18:41.000Z</time>
      </trkpt>
      <trkpt lat="47.63724" lon="6.03522">
        <ele>215.19999694824</ele>
        <time>2012-11-21T09:18:42.000Z</time>
      </trkpt>
      <trkpt lat="47.63716" lon="6.03525">
        <ele>214.80000305176</ele>
        <time>2012-11-21T09:18:43.000Z</time>
      </trkpt>
      <trkpt lat="47.63709" lon="6.03528">
        <ele>214.19999694824</ele>
        <time>2012-11-21T09:18:44.000Z</time>
      </trkpt>
      <trkpt lat="47.63703" lon="6.0353">
        <ele>214</ele>
        <time>2012-11-21T09:18:45.000Z</time>
      </trkpt>
      <trkpt lat="47.63698" lon="6.03532">
        <ele>213.60000610352</ele>
        <time>2012-11-21T09:18:46.000Z</time>
      </trkpt>
      <trkpt lat="47.63693" lon="6.03535">
        <ele>213.60000610352</ele>
        <time>2012-11-21T09:18:47.000Z</time>
      </trkpt>
      <trkpt lat="47.63689" lon="6.03542">
        <ele>213.60000610352</ele>
        <time>2012-11-21T09:18:49.000Z</time>
      </trkpt>
      <trkpt lat="47.63691" lon="6.03548">
        <ele>213.60000610352</ele>
        <time>2012-11-21T09:18:52.000Z</time>
      </trkpt>
      <trkpt lat="47.63691" lon="6.03547">
        <ele>213.60000610352</ele>
        <time>2012-11-21T09:18:54.000Z</time>
      </trkpt>
      <trkpt lat="47.63692" lon="6.03549">
        <ele>213.60000610352</ele>
        <time>2012-11-21T09:19:25.000Z</time>
      </trkpt>
      <trkpt lat="47.63693" lon="6.03551">
        <ele>213.60000610352</ele>
        <time>2012-11-21T09:19:26.000Z</time>
      </trkpt>
      <trkpt lat="47.63694" lon="6.03561">
        <ele>213.60000610352</ele>
        <time>2012-11-21T09:19:29.000Z</time>
      </trkpt>
      <trkpt lat="47.63694" lon="6.03566">
        <ele>213.60000610352</ele>
        <time>2012-11-21T09:19:31.000Z</time>
      </trkpt>
      <trkpt lat="47.63696" lon="6.03578">
        <ele>213.60000610352</ele>
        <time>2012-11-21T09:19:36.000Z</time>
      </trkpt>
      <trkpt lat="47.63698" lon="6.03593">
        <ele>213.60000610352</ele>
        <time>2012-11-21T09:19:42.000Z</time>
      </trkpt>
      <trkpt lat="47.63698" lon="6.03596">
        <ele>214</ele>
        <time>2012-11-21T09:19:43.000Z</time>
      </trkpt>
      <trkpt lat="47.63698" lon="6.03598">
        <ele>214.19999694824</ele>
        <time>2012-11-21T09:19:44.000Z</time>
      </trkpt>
      <trkpt lat="47.63698" lon="6.03601">
        <ele>214.80000305176</ele>
        <time>2012-11-21T09:19:45.000Z</time>
      </trkpt>
      <trkpt lat="47.63699" lon="6.03603">
        <ele>215</ele>
        <time>2012-11-21T09:19:46.000Z</time>
      </trkpt>
      <trkpt lat="47.63699" lon="6.03606">
        <ele>215.60000610352</ele>
        <time>2012-11-21T09:19:47.000Z</time>
      </trkpt>
      <trkpt lat="47.63699" lon="6.03609">
        <ele>215.60000610352</ele>
        <time>2012-11-21T09:19:48.000Z</time>
      </trkpt>
      <trkpt lat="47.63702" lon="6.03629">
        <ele>215.60000610352</ele>
        <time>2012-11-21T09:19:55.000Z</time>
      </trkpt>
      <trkpt lat="47.63703" lon="6.03639">
        <ele>216</ele>
        <time>2012-11-21T09:19:59.000Z</time>
      </trkpt>
      <trkpt lat="47.63704" lon="6.03642">
        <ele>216.19999694824</ele>
        <time>2012-11-21T09:20:00.000Z</time>
      </trkpt>
      <trkpt lat="47.63704" lon="6.03644">
        <ele>216.80000305176</ele>
        <time>2012-11-21T09:20:01.000Z</time>
      </trkpt>
      <trkpt lat="47.63704" lon="6.03646">
        <ele>217</ele>
        <time>2012-11-21T09:20:02.000Z</time>
      </trkpt>
      <trkpt lat="47.63705" lon="6.03648">
        <ele>217.60000610352</ele>
        <time>2012-11-21T09:20:03.000Z</time>
      </trkpt>
      <trkpt lat="47.63707" lon="6.03658">
        <ele>217.60000610352</ele>
        <time>2012-11-21T09:20:07.000Z</time>
      </trkpt>
      <trkpt lat="47.63711" lon="6.03676">
        <ele>217.60000610352</ele>
        <time>2012-11-21T09:20:14.000Z</time>
      </trkpt>
      <trkpt lat="47.63713" lon="6.03689">
        <ele>218</ele>
        <time>2012-11-21T09:20:19.000Z</time>
      </trkpt>
      <trkpt lat="47.63714" lon="6.03691">
        <ele>218.19999694824</ele>
        <time>2012-11-21T09:20:20.000Z</time>
      </trkpt>
      <trkpt lat="47.63715" lon="6.03694">
        <ele>219</ele>
        <time>2012-11-21T09:20:21.000Z</time>
      </trkpt>
      <trkpt lat="47.63715" lon="6.03697">
        <ele>219.19999694824</ele>
        <time>2012-11-21T09:20:22.000Z</time>
      </trkpt>
      <trkpt lat="47.63716" lon="6.03699">
        <ele>219.80000305176</ele>
        <time>2012-11-21T09:20:23.000Z</time>
      </trkpt>
      <trkpt lat="47.6372" lon="6.03718">
        <ele>219.80000305176</ele>
        <time>2012-11-21T09:20:31.000Z</time>
      </trkpt>
      <trkpt lat="47.63723" lon="6.03734">
        <ele>220</ele>
        <time>2012-11-21T09:20:38.000Z</time>
      </trkpt>
      <trkpt lat="47.63724" lon="6.03737">
        <ele>220.60000610352</ele>
        <time>2012-11-21T09:20:39.000Z</time>
      </trkpt>
      <trkpt lat="47.63724" lon="6.03739">
        <ele>221</ele>
        <time>2012-11-21T09:20:40.000Z</time>
      </trkpt>
      <trkpt lat="47.63725" lon="6.03741">
        <ele>221.19999694824</ele>
        <time>2012-11-21T09:20:41.000Z</time>
      </trkpt>
      <trkpt lat="47.63725" lon="6.03743">
        <ele>221.80000305176</ele>
        <time>2012-11-21T09:20:42.000Z</time>
      </trkpt>
      <trkpt lat="47.63728" lon="6.0375">
        <ele>221.80000305176</ele>
        <time>2012-11-21T09:20:45.000Z</time>
      </trkpt>
      <trkpt lat="47.63733" lon="6.0377">
        <ele>221.80000305176</ele>
        <time>2012-11-21T09:20:53.000Z</time>
      </trkpt>
      <trkpt lat="47.63735" lon="6.03784">
        <ele>221.80000305176</ele>
        <time>2012-11-21T09:20:59.000Z</time>
      </trkpt>
      <trkpt lat="47.63736" lon="6.03791">
        <ele>222</ele>
        <time>2012-11-21T09:21:02.000Z</time>
      </trkpt>
      <trkpt lat="47.63737" lon="6.03794">
        <ele>222.60000610352</ele>
        <time>2012-11-21T09:21:03.000Z</time>
      </trkpt>
      <trkpt lat="47.63738" lon="6.03796">
        <ele>223</ele>
        <time>2012-11-21T09:21:04.000Z</time>
      </trkpt>
      <trkpt lat="47.63739" lon="6.03798">
        <ele>223.19999694824</ele>
        <time>2012-11-21T09:21:05.000Z</time>
      </trkpt>
      <trkpt lat="47.63739" lon="6.03801">
        <ele>223.80000305176</ele>
        <time>2012-11-21T09:21:06.000Z</time>
      </trkpt>
      <trkpt lat="47.63742" lon="6.03815">
        <ele>223.80000305176</ele>
        <time>2012-11-21T09:21:12.000Z</time>
      </trkpt>
      <trkpt lat="47.63746" lon="6.03835">
        <ele>223.80000305176</ele>
        <time>2012-11-21T09:21:20.000Z</time>
      </trkpt>
      <trkpt lat="47.6375" lon="6.03856">
        <ele>223.80000305176</ele>
        <time>2012-11-21T09:21:28.000Z</time>
      </trkpt>
      <trkpt lat="47.6375" lon="6.03859">
        <ele>224</ele>
        <time>2012-11-21T09:21:29.000Z</time>
      </trkpt>
      <trkpt lat="47.63751" lon="6.03862">
        <ele>224.60000610352</ele>
        <time>2012-11-21T09:21:30.000Z</time>
      </trkpt>
      <trkpt lat="47.63751" lon="6.03865">
        <ele>225</ele>
        <time>2012-11-21T09:21:31.000Z</time>
      </trkpt>
      <trkpt lat="47.63752" lon="6.03868">
        <ele>225.19999694824</ele>
        <time>2012-11-21T09:21:32.000Z</time>
      </trkpt>
      <trkpt lat="47.63753" lon="6.03871">
        <ele>225.80000305176</ele>
        <time>2012-11-21T09:21:33.000Z</time>
      </trkpt>
      <trkpt lat="47.63754" lon="6.03878">
        <ele>225.80000305176</ele>
        <time>2012-11-21T09:21:36.000Z</time>
      </trkpt>
      <trkpt lat="47.63757" lon="6.03893">
        <ele>225.80000305176</ele>
        <time>2012-11-21T09:21:42.000Z</time>
      </trkpt>
      <trkpt lat="47.63758" lon="6.03895">
        <ele>225.80000305176</ele>
        <time>2012-11-21T09:21:43.000Z</time>
      </trkpt>
      <trkpt lat="47.63759" lon="6.03905">
        <ele>226</ele>
        <time>2012-11-21T09:21:47.000Z</time>
      </trkpt>
      <trkpt lat="47.63759" lon="6.03907">
        <ele>226.60000610352</ele>
        <time>2012-11-21T09:21:48.000Z</time>
      </trkpt>
      <trkpt lat="47.6376" lon="6.03909">
        <ele>227</ele>
        <time>2012-11-21T09:21:49.000Z</time>
      </trkpt>
      <trkpt lat="47.63761" lon="6.03911">
        <ele>227.19999694824</ele>
        <time>2012-11-21T09:21:50.000Z</time>
      </trkpt>
      <trkpt lat="47.63761" lon="6.03913">
        <ele>227.80000305176</ele>
        <time>2012-11-21T09:21:51.000Z</time>
      </trkpt>
      <trkpt lat="47.63764" lon="6.03922">
        <ele>227.80000305176</ele>
        <time>2012-11-21T09:21:55.000Z</time>
      </trkpt>
      <trkpt lat="47.63765" lon="6.03938">
        <ele>227.80000305176</ele>
        <time>2012-11-21T09:22:02.000Z</time>
      </trkpt>
      <trkpt lat="47.63768" lon="6.03955">
        <ele>228</ele>
        <time>2012-11-21T09:22:09.000Z</time>
      </trkpt>
      <trkpt lat="47.63769" lon="6.03957">
        <ele>228.60000610352</ele>
        <time>2012-11-21T09:22:10.000Z</time>
      </trkpt>
      <trkpt lat="47.6377" lon="6.03959">
        <ele>229</ele>
        <time>2012-11-21T09:22:11.000Z</time>
      </trkpt>
      <trkpt lat="47.6377" lon="6.03962">
        <ele>229.19999694824</ele>
        <time>2012-11-21T09:22:12.000Z</time>
      </trkpt>
      <trkpt lat="47.63771" lon="6.03964">
        <ele>229.80000305176</ele>
        <time>2012-11-21T09:22:13.000Z</time>
      </trkpt>
      <trkpt lat="47.63773" lon="6.03972">
        <ele>229.80000305176</ele>
        <time>2012-11-21T09:22:16.000Z</time>
      </trkpt>
      <trkpt lat="47.63776" lon="6.0399">
        <ele>229.80000305176</ele>
        <time>2012-11-21T09:22:23.000Z</time>
      </trkpt>
      <trkpt lat="47.63778" lon="6.04006">
        <ele>229.80000305176</ele>
        <time>2012-11-21T09:22:29.000Z</time>
      </trkpt>
      <trkpt lat="47.63781" lon="6.04023">
        <ele>229.80000305176</ele>
        <time>2012-11-21T09:22:36.000Z</time>
      </trkpt>
      <trkpt lat="47.63781" lon="6.04028">
        <ele>230</ele>
        <time>2012-11-21T09:22:38.000Z</time>
      </trkpt>
      <trkpt lat="47.63782" lon="6.04031">
        <ele>230.60000610352</ele>
        <time>2012-11-21T09:22:39.000Z</time>
      </trkpt>
      <trkpt lat="47.63782" lon="6.04033">
        <ele>231</ele>
        <time>2012-11-21T09:22:40.000Z</time>
      </trkpt>
      <trkpt lat="47.63782" lon="6.04036">
        <ele>231.60000610352</ele>
        <time>2012-11-21T09:22:41.000Z</time>
      </trkpt>
      <trkpt lat="47.63782" lon="6.04038">
        <ele>232</ele>
        <time>2012-11-21T09:22:42.000Z</time>
      </trkpt>
      <trkpt lat="47.63783" lon="6.04041">
        <ele>232</ele>
        <time>2012-11-21T09:22:43.000Z</time>
      </trkpt>
      <trkpt lat="47.63784" lon="6.04053">
        <ele>232</ele>
        <time>2012-11-21T09:22:48.000Z</time>
      </trkpt>
      <trkpt lat="47.63786" lon="6.04069">
        <ele>232</ele>
        <time>2012-11-21T09:22:54.000Z</time>
      </trkpt>
      <trkpt lat="47.63789" lon="6.04084">
        <ele>232</ele>
        <time>2012-11-21T09:23:00.000Z</time>
      </trkpt>
      <trkpt lat="47.6379" lon="6.04086">
        <ele>232.19999694824</ele>
        <time>2012-11-21T09:23:01.000Z</time>
      </trkpt>
      <trkpt lat="47.6379" lon="6.04089">
        <ele>232.80000305176</ele>
        <time>2012-11-21T09:23:02.000Z</time>
      </trkpt>
      <trkpt lat="47.6379" lon="6.04091">
        <ele>233</ele>
        <time>2012-11-21T09:23:03.000Z</time>
      </trkpt>
      <trkpt lat="47.6379" lon="6.04093">
        <ele>233.60000610352</ele>
        <time>2012-11-21T09:23:04.000Z</time>
      </trkpt>
      <trkpt lat="47.6379" lon="6.04096">
        <ele>234</ele>
        <time>2012-11-21T09:23:05.000Z</time>
      </trkpt>
      <trkpt lat="47.63791" lon="6.04098">
        <ele>234</ele>
        <time>2012-11-21T09:23:06.000Z</time>
      </trkpt>
      <trkpt lat="47.63794" lon="6.04118">
        <ele>234</ele>
        <time>2012-11-21T09:23:15.000Z</time>
      </trkpt>
      <trkpt lat="47.63796" lon="6.04132">
        <ele>234</ele>
        <time>2012-11-21T09:23:21.000Z</time>
      </trkpt>
      <trkpt lat="47.63798" lon="6.04143">
        <ele>234.19999694824</ele>
        <time>2012-11-21T09:23:26.000Z</time>
      </trkpt>
      <trkpt lat="47.63798" lon="6.04145">
        <ele>234.80000305176</ele>
        <time>2012-11-21T09:23:27.000Z</time>
      </trkpt>
      <trkpt lat="47.63799" lon="6.04148">
        <ele>235</ele>
        <time>2012-11-21T09:23:28.000Z</time>
      </trkpt>
      <trkpt lat="47.63799" lon="6.0415">
        <ele>235.60000610352</ele>
        <time>2012-11-21T09:23:29.000Z</time>
      </trkpt>
      <trkpt lat="47.63799" lon="6.04152">
        <ele>236</ele>
        <time>2012-11-21T09:23:30.000Z</time>
      </trkpt>
      <trkpt lat="47.63801" lon="6.04164">
        <ele>236</ele>
        <time>2012-11-21T09:23:35.000Z</time>
      </trkpt>
      <trkpt lat="47.63804" lon="6.04178">
        <ele>236</ele>
        <time>2012-11-21T09:23:41.000Z</time>
      </trkpt>
      <trkpt lat="47.63807" lon="6.04197">
        <ele>236</ele>
        <time>2012-11-21T09:23:48.000Z</time>
      </trkpt>
      <trkpt lat="47.63812" lon="6.04216">
        <ele>236.19999694824</ele>
        <time>2012-11-21T09:23:56.000Z</time>
      </trkpt>
      <trkpt lat="47.63812" lon="6.04219">
        <ele>236.80000305176</ele>
        <time>2012-11-21T09:23:57.000Z</time>
      </trkpt>
      <trkpt lat="47.63812" lon="6.04221">
        <ele>237</ele>
        <time>2012-11-21T09:23:58.000Z</time>
      </trkpt>
      <trkpt lat="47.63812" lon="6.04224">
        <ele>237.60000610352</ele>
        <time>2012-11-21T09:23:59.000Z</time>
      </trkpt>
      <trkpt lat="47.63813" lon="6.04226">
        <ele>238</ele>
        <time>2012-11-21T09:24:00.000Z</time>
      </trkpt>
      <trkpt lat="47.63815" lon="6.04237">
        <ele>238</ele>
        <time>2012-11-21T09:24:04.000Z</time>
      </trkpt>
      <trkpt lat="47.63819" lon="6.04255">
        <ele>238</ele>
        <time>2012-11-21T09:24:11.000Z</time>
      </trkpt>
      <trkpt lat="47.63824" lon="6.04276">
        <ele>238</ele>
        <time>2012-11-21T09:24:19.000Z</time>
      </trkpt>
      <trkpt lat="47.63825" lon="6.04278">
        <ele>238.19999694824</ele>
        <time>2012-11-21T09:24:20.000Z</time>
      </trkpt>
      <trkpt lat="47.63825" lon="6.0428">
        <ele>238.80000305176</ele>
        <time>2012-11-21T09:24:21.000Z</time>
      </trkpt>
      <trkpt lat="47.63826" lon="6.04283">
        <ele>239</ele>
        <time>2012-11-21T09:24:22.000Z</time>
      </trkpt>
      <trkpt lat="47.63826" lon="6.04285">
        <ele>239.60000610352</ele>
        <time>2012-11-21T09:24:23.000Z</time>
      </trkpt>
      <trkpt lat="47.63827" lon="6.04288">
        <ele>240</ele>
        <time>2012-11-21T09:24:24.000Z</time>
      </trkpt>
      <trkpt lat="47.63829" lon="6.04295">
        <ele>240</ele>
        <time>2012-11-21T09:24:27.000Z</time>
      </trkpt>
      <trkpt lat="47.63834" lon="6.04312">
        <ele>240</ele>
        <time>2012-11-21T09:24:35.000Z</time>
      </trkpt>
      <trkpt lat="47.63837" lon="6.04322">
        <ele>240</ele>
        <time>2012-11-21T09:24:40.000Z</time>
      </trkpt>
      <trkpt lat="47.63837" lon="6.04324">
        <ele>240</ele>
        <time>2012-11-21T09:24:41.000Z</time>
      </trkpt>
      <trkpt lat="47.6384" lon="6.04332">
        <ele>240</ele>
        <time>2012-11-21T09:24:46.000Z</time>
      </trkpt>
      <trkpt lat="47.6384" lon="6.04332">
        <ele>240</ele>
        <time>2012-11-21T09:24:47.000Z</time>
      </trkpt>
      <trkpt lat="47.6384" lon="6.04333">
        <ele>240</ele>
        <time>2012-11-21T09:24:48.000Z</time>
      </trkpt>
      <trkpt lat="47.63841" lon="6.04337">
        <ele>240</ele>
        <time>2012-11-21T09:24:52.000Z</time>
      </trkpt>
      <trkpt lat="47.63841" lon="6.04341">
        <ele>240</ele>
        <time>2012-11-21T09:24:54.000Z</time>
      </trkpt>
      <trkpt lat="47.63842" lon="6.04346">
        <ele>240.19999694824</ele>
        <time>2012-11-21T09:24:56.000Z</time>
      </trkpt>
      <trkpt lat="47.63842" lon="6.04349">
        <ele>240.80000305176</ele>
        <time>2012-11-21T09:24:57.000Z</time>
      </trkpt>
      <trkpt lat="47.63843" lon="6.04352">
        <ele>241</ele>
        <time>2012-11-21T09:24:58.000Z</time>
      </trkpt>
      <trkpt lat="47.63845" lon="6.04365">
        <ele>242</ele>
        <time>2012-11-21T09:24:59.000Z</time>
      </trkpt>
      <trkpt lat="47.63847" lon="6.04374">
        <ele>242</ele>
        <time>2012-11-21T09:25:05.000Z</time>
      </trkpt>
      <trkpt lat="47.63854" lon="6.04401">
        <ele>242</ele>
        <time>2012-11-21T09:25:13.000Z</time>
      </trkpt>
      <trkpt lat="47.63861" lon="6.04422">
        <ele>242</ele>
        <time>2012-11-21T09:25:20.000Z</time>
      </trkpt>
      <trkpt lat="47.63869" lon="6.0445">
        <ele>242</ele>
        <time>2012-11-21T09:25:30.000Z</time>
      </trkpt>
      <trkpt lat="47.6387" lon="6.04453">
        <ele>242.60000610352</ele>
        <time>2012-11-21T09:25:31.000Z</time>
      </trkpt>
      <trkpt lat="47.63871" lon="6.04456">
        <ele>243</ele>
        <time>2012-11-21T09:25:32.000Z</time>
      </trkpt>
      <trkpt lat="47.63871" lon="6.04459">
        <ele>243.19999694824</ele>
        <time>2012-11-21T09:25:33.000Z</time>
      </trkpt>
      <trkpt lat="47.63872" lon="6.04461">
        <ele>243.80000305176</ele>
        <time>2012-11-21T09:25:34.000Z</time>
      </trkpt>
      <trkpt lat="47.63873" lon="6.04464">
        <ele>244</ele>
        <time>2012-11-21T09:25:35.000Z</time>
      </trkpt>
      <trkpt lat="47.63875" lon="6.04471">
        <ele>244</ele>
        <time>2012-11-21T09:25:38.000Z</time>
      </trkpt>
      <trkpt lat="47.63881" lon="6.0449">
        <ele>244</ele>
        <time>2012-11-21T09:25:45.000Z</time>
      </trkpt>
      <trkpt lat="47.63889" lon="6.0451">
        <ele>244</ele>
        <time>2012-11-21T09:25:53.000Z</time>
      </trkpt>
      <trkpt lat="47.63896" lon="6.04528">
        <ele>244.60000610352</ele>
        <time>2012-11-21T09:26:00.000Z</time>
      </trkpt>
      <trkpt lat="47.63898" lon="6.04531">
        <ele>245</ele>
        <time>2012-11-21T09:26:01.000Z</time>
      </trkpt>
      <trkpt lat="47.63899" lon="6.04533">
        <ele>245.19999694824</ele>
        <time>2012-11-21T09:26:02.000Z</time>
      </trkpt>
      <trkpt lat="47.639" lon="6.04536">
        <ele>245.80000305176</ele>
        <time>2012-11-21T09:26:03.000Z</time>
      </trkpt>
      <trkpt lat="47.63901" lon="6.04538">
        <ele>246</ele>
        <time>2012-11-21T09:26:04.000Z</time>
      </trkpt>
      <trkpt lat="47.63906" lon="6.04552">
        <ele>246</ele>
        <time>2012-11-21T09:26:09.000Z</time>
      </trkpt>
      <trkpt lat="47.63917" lon="6.04578">
        <ele>246</ele>
        <time>2012-11-21T09:26:19.000Z</time>
      </trkpt>
      <trkpt lat="47.63926" lon="6.04596">
        <ele>246</ele>
        <time>2012-11-21T09:26:26.000Z</time>
      </trkpt>
      <trkpt lat="47.63937" lon="6.04624">
        <ele>246</ele>
        <time>2012-11-21T09:26:36.000Z</time>
      </trkpt>
      <trkpt lat="47.63938" lon="6.04627">
        <ele>246.60000610352</ele>
        <time>2012-11-21T09:26:37.000Z</time>
      </trkpt>
      <trkpt lat="47.63939" lon="6.0463">
        <ele>247</ele>
        <time>2012-11-21T09:26:38.000Z</time>
      </trkpt>
      <trkpt lat="47.6394" lon="6.04632">
        <ele>247.60000610352</ele>
        <time>2012-11-21T09:26:39.000Z</time>
      </trkpt>
      <trkpt lat="47.63941" lon="6.04634">
        <ele>248</ele>
        <time>2012-11-21T09:26:40.000Z</time>
      </trkpt>
      <trkpt lat="47.63942" lon="6.04635">
        <ele>248.19999694824</ele>
        <time>2012-11-21T09:26:41.000Z</time>
      </trkpt>
      <trkpt lat="47.63943" lon="6.04637">
        <ele>248.19999694824</ele>
        <time>2012-11-21T09:26:42.000Z</time>
      </trkpt>
      <trkpt lat="47.63946" lon="6.04641">
        <ele>248.19999694824</ele>
        <time>2012-11-21T09:26:44.000Z</time>
      </trkpt>
      <trkpt lat="47.63949" lon="6.0465">
        <ele>248.19999694824</ele>
        <time>2012-11-21T09:26:48.000Z</time>
      </trkpt>
      <trkpt lat="47.63954" lon="6.04667">
        <ele>248.19999694824</ele>
        <time>2012-11-21T09:26:55.000Z</time>
      </trkpt>
      <trkpt lat="47.63959" lon="6.04682">
        <ele>248.19999694824</ele>
        <time>2012-11-21T09:27:02.000Z</time>
      </trkpt>
      <trkpt lat="47.63965" lon="6.04699">
        <ele>248.19999694824</ele>
        <time>2012-11-21T09:27:09.000Z</time>
      </trkpt>
      <trkpt lat="47.63972" lon="6.0472">
        <ele>248.19999694824</ele>
        <time>2012-11-21T09:27:18.000Z</time>
      </trkpt>
      <trkpt lat="47.63975" lon="6.04729">
        <ele>249</ele>
        <time>2012-11-21T09:27:22.000Z</time>
      </trkpt>
      <trkpt lat="47.63976" lon="6.04732">
        <ele>249.60000610352</ele>
        <time>2012-11-21T09:27:23.000Z</time>
      </trkpt>
      <trkpt lat="47.63977" lon="6.04734">
        <ele>250</ele>
        <time>2012-11-21T09:27:24.000Z</time>
      </trkpt>
      <trkpt lat="47.63978" lon="6.04737">
        <ele>250.19999694824</ele>
        <time>2012-11-21T09:27:25.000Z</time>
      </trkpt>
      <trkpt lat="47.63984" lon="6.04758">
        <ele>250.19999694824</ele>
        <time>2012-11-21T09:27:33.000Z</time>
      </trkpt>
      <trkpt lat="47.63987" lon="6.04773">
        <ele>250.19999694824</ele>
        <time>2012-11-21T09:27:39.000Z</time>
      </trkpt>
      <trkpt lat="47.6399" lon="6.04787">
        <ele>250.19999694824</ele>
        <time>2012-11-21T09:27:45.000Z</time>
      </trkpt>
      <trkpt lat="47.63994" lon="6.04805">
        <ele>250.19999694824</ele>
        <time>2012-11-21T09:27:52.000Z</time>
      </trkpt>
      <trkpt lat="47.64001" lon="6.04824">
        <ele>250.19999694824</ele>
        <time>2012-11-21T09:27:59.000Z</time>
      </trkpt>
      <trkpt lat="47.64007" lon="6.04847">
        <ele>250.80000305176</ele>
        <time>2012-11-21T09:28:07.000Z</time>
      </trkpt>
      <trkpt lat="47.64008" lon="6.0485">
        <ele>251</ele>
        <time>2012-11-21T09:28:08.000Z</time>
      </trkpt>
      <trkpt lat="47.64009" lon="6.04853">
        <ele>251.60000610352</ele>
        <time>2012-11-21T09:28:09.000Z</time>
      </trkpt>
      <trkpt lat="47.6401" lon="6.04856">
        <ele>252</ele>
        <time>2012-11-21T09:28:10.000Z</time>
      </trkpt>
      <trkpt lat="47.6401" lon="6.04858">
        <ele>252.19999694824</ele>
        <time>2012-11-21T09:28:11.000Z</time>
      </trkpt>
      <trkpt lat="47.64013" lon="6.04873">
        <ele>252.19999694824</ele>
        <time>2012-11-21T09:28:16.000Z</time>
      </trkpt>
      <trkpt lat="47.64017" lon="6.04892">
        <ele>252.19999694824</ele>
        <time>2012-11-21T09:28:23.000Z</time>
      </trkpt>
      <trkpt lat="47.64019" lon="6.04907">
        <ele>252.19999694824</ele>
        <time>2012-11-21T09:28:29.000Z</time>
      </trkpt>
      <trkpt lat="47.64022" lon="6.04926">
        <ele>252.19999694824</ele>
        <time>2012-11-21T09:28:36.000Z</time>
      </trkpt>
      <trkpt lat="47.64025" lon="6.04946">
        <ele>252.19999694824</ele>
        <time>2012-11-21T09:28:44.000Z</time>
      </trkpt>
      <trkpt lat="47.64027" lon="6.04966">
        <ele>252.19999694824</ele>
        <time>2012-11-21T09:28:51.000Z</time>
      </trkpt>
      <trkpt lat="47.64028" lon="6.04987">
        <ele>252.19999694824</ele>
        <time>2012-11-21T09:28:57.000Z</time>
      </trkpt>
      <trkpt lat="47.64028" lon="6.05011">
        <ele>252.80000305176</ele>
        <time>2012-11-21T09:29:04.000Z</time>
      </trkpt>
      <trkpt lat="47.64028" lon="6.05015">
        <ele>253</ele>
        <time>2012-11-21T09:29:05.000Z</time>
      </trkpt>
      <trkpt lat="47.64027" lon="6.05018">
        <ele>253.60000610352</ele>
        <time>2012-11-21T09:29:06.000Z</time>
      </trkpt>
      <trkpt lat="47.64027" lon="6.05021">
        <ele>254</ele>
        <time>2012-11-21T09:29:07.000Z</time>
      </trkpt>
      <trkpt lat="47.64027" lon="6.05025">
        <ele>254.19999694824</ele>
        <time>2012-11-21T09:29:08.000Z</time>
      </trkpt>
      <trkpt lat="47.64028" lon="6.05031">
        <ele>254.19999694824</ele>
        <time>2012-11-21T09:29:10.000Z</time>
      </trkpt>
      <trkpt lat="47.64027" lon="6.05052">
        <ele>254.19999694824</ele>
        <time>2012-11-21T09:29:17.000Z</time>
      </trkpt>
      <trkpt lat="47.64027" lon="6.05056">
        <ele>254.19999694824</ele>
        <time>2012-11-21T09:29:19.000Z</time>
      </trkpt>
      <trkpt lat="47.64026" lon="6.05064">
        <ele>254.19999694824</ele>
        <time>2012-11-21T09:29:22.000Z</time>
      </trkpt>
      <trkpt lat="47.64026" lon="6.05067">
        <ele>254.80000305176</ele>
        <time>2012-11-21T09:29:23.000Z</time>
      </trkpt>
      <trkpt lat="47.64026" lon="6.05069">
        <ele>255.60000610352</ele>
        <time>2012-11-21T09:29:24.000Z</time>
      </trkpt>
      <trkpt lat="47.64026" lon="6.05072">
        <ele>256</ele>
        <time>2012-11-21T09:29:25.000Z</time>
      </trkpt>
      <trkpt lat="47.64025" lon="6.05074">
        <ele>256.20001220703</ele>
        <time>2012-11-21T09:29:26.000Z</time>
      </trkpt>
      <trkpt lat="47.64025" lon="6.05077">
        <ele>256.20001220703</ele>
        <time>2012-11-21T09:29:27.000Z</time>
      </trkpt>
      <trkpt lat="47.64017" lon="6.05092">
        <ele>256.20001220703</ele>
        <time>2012-11-21T09:29:34.000Z</time>
      </trkpt>
      <trkpt lat="47.64005" lon="6.05103">
        <ele>256.20001220703</ele>
        <time>2012-11-21T09:29:41.000Z</time>
      </trkpt>
      <trkpt lat="47.63995" lon="6.05116">
        <ele>256.20001220703</ele>
        <time>2012-11-21T09:29:47.000Z</time>
      </trkpt>
      <trkpt lat="47.63978" lon="6.05138">
        <ele>256.20001220703</ele>
        <time>2012-11-21T09:29:56.000Z</time>
      </trkpt>
      <trkpt lat="47.63973" lon="6.05144">
        <ele>256.60000610352</ele>
        <time>2012-11-21T09:29:58.000Z</time>
      </trkpt>
      <trkpt lat="47.63971" lon="6.05146">
        <ele>257.20001220703</ele>
        <time>2012-11-21T09:29:59.000Z</time>
      </trkpt>
      <trkpt lat="47.63969" lon="6.05149">
        <ele>257.60000610352</ele>
        <time>2012-11-21T09:30:00.000Z</time>
      </trkpt>
      <trkpt lat="47.63967" lon="6.05152">
        <ele>258</ele>
        <time>2012-11-21T09:30:01.000Z</time>
      </trkpt>
      <trkpt lat="47.63965" lon="6.05155">
        <ele>258.20001220703</ele>
        <time>2012-11-21T09:30:02.000Z</time>
      </trkpt>
      <trkpt lat="47.63961" lon="6.0516">
        <ele>258.20001220703</ele>
        <time>2012-11-21T09:30:04.000Z</time>
      </trkpt>
      <trkpt lat="47.63948" lon="6.05178">
        <ele>258.20001220703</ele>
        <time>2012-11-21T09:30:12.000Z</time>
      </trkpt>
      <trkpt lat="47.63946" lon="6.05179">
        <ele>258.20001220703</ele>
        <time>2012-11-21T09:30:13.000Z</time>
      </trkpt>
      <trkpt lat="47.63943" lon="6.05183">
        <ele>258.60000610352</ele>
        <time>2012-11-21T09:30:15.000Z</time>
      </trkpt>
      <trkpt lat="47.63942" lon="6.05185">
        <ele>259.20001220703</ele>
        <time>2012-11-21T09:30:16.000Z</time>
      </trkpt>
      <trkpt lat="47.63941" lon="6.05186">
        <ele>259.60000610352</ele>
        <time>2012-11-21T09:30:17.000Z</time>
      </trkpt>
      <trkpt lat="47.63939" lon="6.05187">
        <ele>260.20001220703</ele>
        <time>2012-11-21T09:30:18.000Z</time>
      </trkpt>
      <trkpt lat="47.63938" lon="6.05188">
        <ele>260.60000610352</ele>
        <time>2012-11-21T09:30:19.000Z</time>
      </trkpt>
      <trkpt lat="47.63934" lon="6.05194">
        <ele>260.60000610352</ele>
        <time>2012-11-21T09:30:23.000Z</time>
      </trkpt>
      <trkpt lat="47.63933" lon="6.05195">
        <ele>260.60000610352</ele>
        <time>2012-11-21T09:30:24.000Z</time>
      </trkpt>
      <trkpt lat="47.6393" lon="6.05201">
        <ele>260.60000610352</ele>
        <time>2012-11-21T09:30:28.000Z</time>
      </trkpt>
      <trkpt lat="47.6393" lon="6.05205">
        <ele>260.60000610352</ele>
        <time>2012-11-21T09:30:30.000Z</time>
      </trkpt>
      <trkpt lat="47.63931" lon="6.05214">
        <ele>260.60000610352</ele>
        <time>2012-11-21T09:30:35.000Z</time>
      </trkpt>
      <trkpt lat="47.63931" lon="6.05216">
        <ele>260.60000610352</ele>
        <time>2012-11-21T09:30:36.000Z</time>
      </trkpt>
      <trkpt lat="47.63932" lon="6.05219">
        <ele>261</ele>
        <time>2012-11-21T09:30:37.000Z</time>
      </trkpt>
      <trkpt lat="47.63932" lon="6.05221">
        <ele>261.60000610352</ele>
        <time>2012-11-21T09:30:38.000Z</time>
      </trkpt>
      <trkpt lat="47.63932" lon="6.05223">
        <ele>262.20001220703</ele>
        <time>2012-11-21T09:30:39.000Z</time>
      </trkpt>
      <trkpt lat="47.63933" lon="6.05224">
        <ele>262.60000610352</ele>
        <time>2012-11-21T09:30:40.000Z</time>
      </trkpt>
      <trkpt lat="47.63934" lon="6.05231">
        <ele>262.60000610352</ele>
        <time>2012-11-21T09:30:43.000Z</time>
      </trkpt>
      <trkpt lat="47.63937" lon="6.05249">
        <ele>262.60000610352</ele>
        <time>2012-11-21T09:30:51.000Z</time>
      </trkpt>
      <trkpt lat="47.63937" lon="6.05251">
        <ele>262.60000610352</ele>
        <time>2012-11-21T09:30:52.000Z</time>
      </trkpt>
      <trkpt lat="47.63939" lon="6.05261">
        <ele>262.60000610352</ele>
        <time>2012-11-21T09:30:56.000Z</time>
      </trkpt>
      <trkpt lat="47.6394" lon="6.05266">
        <ele>262.60000610352</ele>
        <time>2012-11-21T09:30:58.000Z</time>
      </trkpt>
      <trkpt lat="47.63942" lon="6.05276">
        <ele>262.60000610352</ele>
        <time>2012-11-21T09:31:02.000Z</time>
      </trkpt>
      <trkpt lat="47.63942" lon="6.0528">
        <ele>263</ele>
        <time>2012-11-21T09:31:03.000Z</time>
      </trkpt>
      <trkpt lat="47.63943" lon="6.05284">
        <ele>263.20001220703</ele>
        <time>2012-11-21T09:31:04.000Z</time>
      </trkpt>
      <trkpt lat="47.63944" lon="6.05287">
        <ele>263.60000610352</ele>
        <time>2012-11-21T09:31:05.000Z</time>
      </trkpt>
      <trkpt lat="47.63944" lon="6.05291">
        <ele>264.20001220703</ele>
        <time>2012-11-21T09:31:06.000Z</time>
      </trkpt>
      <trkpt lat="47.63944" lon="6.05294">
        <ele>264.60000610352</ele>
        <time>2012-11-21T09:31:07.000Z</time>
      </trkpt>
      <trkpt lat="47.63945" lon="6.05297">
        <ele>264.60000610352</ele>
        <time>2012-11-21T09:31:08.000Z</time>
      </trkpt>
      <trkpt lat="47.63949" lon="6.0532">
        <ele>264.60000610352</ele>
        <time>2012-11-21T09:31:15.000Z</time>
      </trkpt>
      <trkpt lat="47.63953" lon="6.05339">
        <ele>264.60000610352</ele>
        <time>2012-11-21T09:31:21.000Z</time>
      </trkpt>
      <trkpt lat="47.63959" lon="6.0536">
        <ele>264.60000610352</ele>
        <time>2012-11-21T09:31:28.000Z</time>
      </trkpt>
      <trkpt lat="47.6396" lon="6.05363">
        <ele>265</ele>
        <time>2012-11-21T09:31:29.000Z</time>
      </trkpt>
      <trkpt lat="47.63962" lon="6.05366">
        <ele>265.20001220703</ele>
        <time>2012-11-21T09:31:30.000Z</time>
      </trkpt>
      <trkpt lat="47.63963" lon="6.05369">
        <ele>265.60000610352</ele>
        <time>2012-11-21T09:31:31.000Z</time>
      </trkpt>
      <trkpt lat="47.63963" lon="6.05372">
        <ele>266.20001220703</ele>
        <time>2012-11-21T09:31:32.000Z</time>
      </trkpt>
      <trkpt lat="47.63965" lon="6.05375">
        <ele>266.60000610352</ele>
        <time>2012-11-21T09:31:33.000Z</time>
      </trkpt>
      <trkpt lat="47.63968" lon="6.0538">
        <ele>266.60000610352</ele>
        <time>2012-11-21T09:31:35.000Z</time>
      </trkpt>
      <trkpt lat="47.63974" lon="6.05401">
        <ele>266.60000610352</ele>
        <time>2012-11-21T09:31:42.000Z</time>
      </trkpt>
      <trkpt lat="47.63975" lon="6.0542">
        <ele>266.60000610352</ele>
        <time>2012-11-21T09:31:48.000Z</time>
      </trkpt>
      <trkpt lat="47.63968" lon="6.05436">
        <ele>266.60000610352</ele>
        <time>2012-11-21T09:31:53.000Z</time>
      </trkpt>
      <trkpt lat="47.63958" lon="6.0545">
        <ele>267.20001220703</ele>
        <time>2012-11-21T09:31:58.000Z</time>
      </trkpt>
      <trkpt lat="47.63956" lon="6.05453">
        <ele>267.60000610352</ele>
        <time>2012-11-21T09:31:59.000Z</time>
      </trkpt>
      <trkpt lat="47.63954" lon="6.05456">
        <ele>268</ele>
        <time>2012-11-21T09:32:00.000Z</time>
      </trkpt>
      <trkpt lat="47.63953" lon="6.0546">
        <ele>268.20001220703</ele>
        <time>2012-11-21T09:32:01.000Z</time>
      </trkpt>
      <trkpt lat="47.63952" lon="6.05464">
        <ele>268.60000610352</ele>
        <time>2012-11-21T09:32:02.000Z</time>
      </trkpt>
      <trkpt lat="47.6395" lon="6.05476">
        <ele>268.60000610352</ele>
        <time>2012-11-21T09:32:05.000Z</time>
      </trkpt>
      <trkpt lat="47.6395" lon="6.05496">
        <ele>268.60000610352</ele>
        <time>2012-11-21T09:32:10.000Z</time>
      </trkpt>
      <trkpt lat="47.63955" lon="6.05515">
        <ele>268.60000610352</ele>
        <time>2012-11-21T09:32:15.000Z</time>
      </trkpt>
      <trkpt lat="47.63961" lon="6.05545">
        <ele>268.60000610352</ele>
        <time>2012-11-21T09:32:21.000Z</time>
      </trkpt>
      <trkpt lat="47.63971" lon="6.0559">
        <ele>268.60000610352</ele>
        <time>2012-11-21T09:32:29.000Z</time>
      </trkpt>
      <trkpt lat="47.6398" lon="6.05621">
        <ele>268.60000610352</ele>
        <time>2012-11-21T09:32:35.000Z</time>
      </trkpt>
      <trkpt lat="47.63993" lon="6.05673">
        <ele>268.60000610352</ele>
        <time>2012-11-21T09:32:44.000Z</time>
      </trkpt>
      <trkpt lat="47.64002" lon="6.05712">
        <ele>268.60000610352</ele>
        <time>2012-11-21T09:32:50.000Z</time>
      </trkpt>
      <trkpt lat="47.64007" lon="6.0574">
        <ele>268.60000610352</ele>
        <time>2012-11-21T09:32:54.000Z</time>
      </trkpt>
      <trkpt lat="47.6401" lon="6.05753">
        <ele>268.60000610352</ele>
        <time>2012-11-21T09:32:56.000Z</time>
      </trkpt>
      <trkpt lat="47.64014" lon="6.05767">
        <ele>268.20001220703</ele>
        <time>2012-11-21T09:32:59.000Z</time>
      </trkpt>
      <trkpt lat="47.64015" lon="6.05771">
        <ele>268</ele>
        <time>2012-11-21T09:33:00.000Z</time>
      </trkpt>
      <trkpt lat="47.64016" lon="6.05775">
        <ele>267.60000610352</ele>
        <time>2012-11-21T09:33:01.000Z</time>
      </trkpt>
      <trkpt lat="47.64017" lon="6.05778">
        <ele>267.20001220703</ele>
        <time>2012-11-21T09:33:02.000Z</time>
      </trkpt>
      <trkpt lat="47.64018" lon="6.05782">
        <ele>266.60000610352</ele>
        <time>2012-11-21T09:33:03.000Z</time>
      </trkpt>
      <trkpt lat="47.64023" lon="6.05802">
        <ele>266.60000610352</ele>
        <time>2012-11-21T09:33:08.000Z</time>
      </trkpt>
      <trkpt lat="47.64028" lon="6.05828">
        <ele>266.60000610352</ele>
        <time>2012-11-21T09:33:14.000Z</time>
      </trkpt>
      <trkpt lat="47.64037" lon="6.05867">
        <ele>267.20001220703</ele>
        <time>2012-11-21T09:33:23.000Z</time>
      </trkpt>
      <trkpt lat="47.64038" lon="6.05871">
        <ele>267.60000610352</ele>
        <time>2012-11-21T09:33:24.000Z</time>
      </trkpt>
      <trkpt lat="47.64039" lon="6.05874">
        <ele>268</ele>
        <time>2012-11-21T09:33:25.000Z</time>
      </trkpt>
      <trkpt lat="47.6404" lon="6.05878">
        <ele>268.20001220703</ele>
        <time>2012-11-21T09:33:26.000Z</time>
      </trkpt>
      <trkpt lat="47.64042" lon="6.05882">
        <ele>269</ele>
        <time>2012-11-21T09:33:27.000Z</time>
      </trkpt>
      <trkpt lat="47.64046" lon="6.05893">
        <ele>269</ele>
        <time>2012-11-21T09:33:30.000Z</time>
      </trkpt>
      <trkpt lat="47.64057" lon="6.05909">
        <ele>269</ele>
        <time>2012-11-21T09:33:36.000Z</time>
      </trkpt>
      <trkpt lat="47.64067" lon="6.05926">
        <ele>269</ele>
        <time>2012-11-21T09:33:41.000Z</time>
      </trkpt>
      <trkpt lat="47.64079" lon="6.05946">
        <ele>269</ele>
        <time>2012-11-21T09:33:47.000Z</time>
      </trkpt>
      <trkpt lat="47.64092" lon="6.05965">
        <ele>269</ele>
        <time>2012-11-21T09:33:53.000Z</time>
      </trkpt>
      <trkpt lat="47.64107" lon="6.0599">
        <ele>269</ele>
        <time>2012-11-21T09:34:00.000Z</time>
      </trkpt>
      <trkpt lat="47.64125" lon="6.06019">
        <ele>269</ele>
        <time>2012-11-21T09:34:07.000Z</time>
      </trkpt>
      <trkpt lat="47.64136" lon="6.06036">
        <ele>269</ele>
        <time>2012-11-21T09:34:11.000Z</time>
      </trkpt>
      <trkpt lat="47.64142" lon="6.06045">
        <ele>269</ele>
        <time>2012-11-21T09:34:13.000Z</time>
      </trkpt>
      <trkpt lat="47.64154" lon="6.06065">
        <ele>269</ele>
        <time>2012-11-21T09:34:18.000Z</time>
      </trkpt>
      <trkpt lat="47.64172" lon="6.06093">
        <ele>269</ele>
        <time>2012-11-21T09:34:26.000Z</time>
      </trkpt>
      <trkpt lat="47.64184" lon="6.06111">
        <ele>269</ele>
        <time>2012-11-21T09:34:31.000Z</time>
      </trkpt>
      <trkpt lat="47.64199" lon="6.06136">
        <ele>269</ele>
        <time>2012-11-21T09:34:37.000Z</time>
      </trkpt>
      <trkpt lat="47.64199" lon="6.06145">
        <ele>269</ele>
        <time>2012-11-21T09:34:39.000Z</time>
      </trkpt>
      <trkpt lat="47.64198" lon="6.06148">
        <ele>269</ele>
        <time>2012-11-21T09:34:40.000Z</time>
      </trkpt>
      <trkpt lat="47.64191" lon="6.06175">
        <ele>269</ele>
        <time>2012-11-21T09:34:48.000Z</time>
      </trkpt>
      <trkpt lat="47.64188" lon="6.06188">
        <ele>269.20001220703</ele>
        <time>2012-11-21T09:34:52.000Z</time>
      </trkpt>
      <trkpt lat="47.64187" lon="6.06191">
        <ele>269.60000610352</ele>
        <time>2012-11-21T09:34:53.000Z</time>
      </trkpt>
      <trkpt lat="47.64186" lon="6.06195">
        <ele>270.20001220703</ele>
        <time>2012-11-21T09:34:54.000Z</time>
      </trkpt>
      <trkpt lat="47.64185" lon="6.06198">
        <ele>270.60000610352</ele>
        <time>2012-11-21T09:34:55.000Z</time>
      </trkpt>
      <trkpt lat="47.64184" lon="6.06202">
        <ele>271</ele>
        <time>2012-11-21T09:34:56.000Z</time>
      </trkpt>
      <trkpt lat="47.64177" lon="6.06222">
        <ele>271</ele>
        <time>2012-11-21T09:35:01.000Z</time>
      </trkpt>
      <trkpt lat="47.64165" lon="6.06255">
        <ele>271</ele>
        <time>2012-11-21T09:35:09.000Z</time>
      </trkpt>
      <trkpt lat="47.64163" lon="6.06262">
        <ele>271.20001220703</ele>
        <time>2012-11-21T09:35:11.000Z</time>
      </trkpt>
      <trkpt lat="47.64161" lon="6.06266">
        <ele>271.60000610352</ele>
        <time>2012-11-21T09:35:12.000Z</time>
      </trkpt>
      <trkpt lat="47.6416" lon="6.0627">
        <ele>272.20001220703</ele>
        <time>2012-11-21T09:35:13.000Z</time>
      </trkpt>
      <trkpt lat="47.64158" lon="6.06273">
        <ele>272.60000610352</ele>
        <time>2012-11-21T09:35:14.000Z</time>
      </trkpt>
      <trkpt lat="47.64157" lon="6.06277">
        <ele>273</ele>
        <time>2012-11-21T09:35:15.000Z</time>
      </trkpt>
      <trkpt lat="47.64155" lon="6.06281">
        <ele>273</ele>
        <time>2012-11-21T09:35:16.000Z</time>
      </trkpt>
      <trkpt lat="47.64144" lon="6.06311">
        <ele>273</ele>
        <time>2012-11-21T09:35:23.000Z</time>
      </trkpt>
      <trkpt lat="47.64129" lon="6.06351">
        <ele>273</ele>
        <time>2012-11-21T09:35:32.000Z</time>
      </trkpt>
      <trkpt lat="47.64116" lon="6.06381">
        <ele>273</ele>
        <time>2012-11-21T09:35:39.000Z</time>
      </trkpt>
      <trkpt lat="47.64103" lon="6.06411">
        <ele>273</ele>
        <time>2012-11-21T09:35:46.000Z</time>
      </trkpt>
      <trkpt lat="47.64088" lon="6.06441">
        <ele>273</ele>
        <time>2012-11-21T09:35:53.000Z</time>
      </trkpt>
      <trkpt lat="47.6407" lon="6.06473">
        <ele>273</ele>
        <time>2012-11-21T09:36:01.000Z</time>
      </trkpt>
      <trkpt lat="47.64049" lon="6.06504">
        <ele>273</ele>
        <time>2012-11-21T09:36:10.000Z</time>
      </trkpt>
      <trkpt lat="47.64039" lon="6.06522">
        <ele>273.20001220703</ele>
        <time>2012-11-21T09:36:15.000Z</time>
      </trkpt>
      <trkpt lat="47.64037" lon="6.06526">
        <ele>273.60000610352</ele>
        <time>2012-11-21T09:36:16.000Z</time>
      </trkpt>
      <trkpt lat="47.64036" lon="6.0653">
        <ele>274.20001220703</ele>
        <time>2012-11-21T09:36:17.000Z</time>
      </trkpt>
      <trkpt lat="47.64035" lon="6.06533">
        <ele>274.60000610352</ele>
        <time>2012-11-21T09:36:18.000Z</time>
      </trkpt>
      <trkpt lat="47.64034" lon="6.06537">
        <ele>275</ele>
        <time>2012-11-21T09:36:19.000Z</time>
      </trkpt>
      <trkpt lat="47.64032" lon="6.06548">
        <ele>275</ele>
        <time>2012-11-21T09:36:22.000Z</time>
      </trkpt>
      <trkpt lat="47.64031" lon="6.0655">
        <ele>275</ele>
        <time>2012-11-21T09:36:23.000Z</time>
      </trkpt>
      <trkpt lat="47.64025" lon="6.06556">
        <ele>275</ele>
        <time>2012-11-21T09:36:26.000Z</time>
      </trkpt>
      <trkpt lat="47.64008" lon="6.06571">
        <ele>275</ele>
        <time>2012-11-21T09:36:33.000Z</time>
      </trkpt>
      <trkpt lat="47.63989" lon="6.06597">
        <ele>275</ele>
        <time>2012-11-21T09:36:40.000Z</time>
      </trkpt>
      <trkpt lat="47.6398" lon="6.06612">
        <ele>275</ele>
        <time>2012-11-21T09:36:43.000Z</time>
      </trkpt>
      <trkpt lat="47.63973" lon="6.06625">
        <ele>274.60000610352</ele>
        <time>2012-11-21T09:36:45.000Z</time>
      </trkpt>
      <trkpt lat="47.63969" lon="6.06631">
        <ele>274.20001220703</ele>
        <time>2012-11-21T09:36:46.000Z</time>
      </trkpt>
      <trkpt lat="47.63966" lon="6.06638">
        <ele>273.60000610352</ele>
        <time>2012-11-21T09:36:47.000Z</time>
      </trkpt>
      <trkpt lat="47.63962" lon="6.06646">
        <ele>273.20001220703</ele>
        <time>2012-11-21T09:36:48.000Z</time>
      </trkpt>
      <trkpt lat="47.63958" lon="6.06654">
        <ele>273</ele>
        <time>2012-11-21T09:36:49.000Z</time>
      </trkpt>
      <trkpt lat="47.63953" lon="6.06662">
        <ele>272.60000610352</ele>
        <time>2012-11-21T09:36:50.000Z</time>
      </trkpt>
      <trkpt lat="47.63949" lon="6.0667">
        <ele>272</ele>
        <time>2012-11-21T09:36:51.000Z</time>
      </trkpt>
      <trkpt lat="47.63943" lon="6.06678">
        <ele>271.60000610352</ele>
        <time>2012-11-21T09:36:52.000Z</time>
      </trkpt>
      <trkpt lat="47.63937" lon="6.06685">
        <ele>271.20001220703</ele>
        <time>2012-11-21T09:36:53.000Z</time>
      </trkpt>
      <trkpt lat="47.63931" lon="6.06692">
        <ele>270.60000610352</ele>
        <time>2012-11-21T09:36:54.000Z</time>
      </trkpt>
      <trkpt lat="47.63924" lon="6.06698">
        <ele>270.20001220703</ele>
        <time>2012-11-21T09:36:55.000Z</time>
      </trkpt>
      <trkpt lat="47.63917" lon="6.06703">
        <ele>270</ele>
        <time>2012-11-21T09:36:56.000Z</time>
      </trkpt>
      <trkpt lat="47.6391" lon="6.06709">
        <ele>269.60000610352</ele>
        <time>2012-11-21T09:36:57.000Z</time>
      </trkpt>
      <trkpt lat="47.63903" lon="6.06714">
        <ele>269.20001220703</ele>
        <time>2012-11-21T09:36:58.000Z</time>
      </trkpt>
      <trkpt lat="47.63896" lon="6.06719">
        <ele>268.60000610352</ele>
        <time>2012-11-21T09:36:59.000Z</time>
      </trkpt>
      <trkpt lat="47.63888" lon="6.06723">
        <ele>268.20001220703</ele>
        <time>2012-11-21T09:37:00.000Z</time>
      </trkpt>
      <trkpt lat="47.6388" lon="6.06727">
        <ele>267.60000610352</ele>
        <time>2012-11-21T09:37:01.000Z</time>
      </trkpt>
      <trkpt lat="47.63872" lon="6.06729">
        <ele>267.20001220703</ele>
        <time>2012-11-21T09:37:02.000Z</time>
      </trkpt>
      <trkpt lat="47.63865" lon="6.0673">
        <ele>266.60000610352</ele>
        <time>2012-11-21T09:37:03.000Z</time>
      </trkpt>
      <trkpt lat="47.63857" lon="6.0673">
        <ele>266.20001220703</ele>
        <time>2012-11-21T09:37:04.000Z</time>
      </trkpt>
      <trkpt lat="47.6385" lon="6.0673">
        <ele>266</ele>
        <time>2012-11-21T09:37:05.000Z</time>
      </trkpt>
      <trkpt lat="47.63842" lon="6.06729">
        <ele>265.20001220703</ele>
        <time>2012-11-21T09:37:06.000Z</time>
      </trkpt>
      <trkpt lat="47.63834" lon="6.06727">
        <ele>265</ele>
        <time>2012-11-21T09:37:07.000Z</time>
      </trkpt>
      <trkpt lat="47.63826" lon="6.06725">
        <ele>264.60000610352</ele>
        <time>2012-11-21T09:37:08.000Z</time>
      </trkpt>
      <trkpt lat="47.63817" lon="6.06724">
        <ele>264</ele>
        <time>2012-11-21T09:37:09.000Z</time>
      </trkpt>
      <trkpt lat="47.63809" lon="6.06722">
        <ele>263.60000610352</ele>
        <time>2012-11-21T09:37:10.000Z</time>
      </trkpt>
      <trkpt lat="47.63801" lon="6.0672">
        <ele>263.20001220703</ele>
        <time>2012-11-21T09:37:11.000Z</time>
      </trkpt>
      <trkpt lat="47.63792" lon="6.06718">
        <ele>262.60000610352</ele>
        <time>2012-11-21T09:37:12.000Z</time>
      </trkpt>
      <trkpt lat="47.63783" lon="6.06716">
        <ele>262</ele>
        <time>2012-11-21T09:37:13.000Z</time>
      </trkpt>
      <trkpt lat="47.63775" lon="6.06713">
        <ele>261.20001220703</ele>
        <time>2012-11-21T09:37:14.000Z</time>
      </trkpt>
      <trkpt lat="47.63766" lon="6.06711">
        <ele>261</ele>
        <time>2012-11-21T09:37:15.000Z</time>
      </trkpt>
      <trkpt lat="47.63757" lon="6.06709">
        <ele>260.20001220703</ele>
        <time>2012-11-21T09:37:16.000Z</time>
      </trkpt>
      <trkpt lat="47.63748" lon="6.06707">
        <ele>260</ele>
        <time>2012-11-21T09:37:17.000Z</time>
      </trkpt>
      <trkpt lat="47.6374" lon="6.06705">
        <ele>259.20001220703</ele>
        <time>2012-11-21T09:37:18.000Z</time>
      </trkpt>
      <trkpt lat="47.63731" lon="6.06703">
        <ele>259</ele>
        <time>2012-11-21T09:37:19.000Z</time>
      </trkpt>
      <trkpt lat="47.63722" lon="6.06701">
        <ele>258.60000610352</ele>
        <time>2012-11-21T09:37:20.000Z</time>
      </trkpt>
      <trkpt lat="47.63714" lon="6.06699">
        <ele>258.20001220703</ele>
        <time>2012-11-21T09:37:21.000Z</time>
      </trkpt>
      <trkpt lat="47.63705" lon="6.06698">
        <ele>257.60000610352</ele>
        <time>2012-11-21T09:37:22.000Z</time>
      </trkpt>
      <trkpt lat="47.63696" lon="6.06696">
        <ele>257.20001220703</ele>
        <time>2012-11-21T09:37:23.000Z</time>
      </trkpt>
      <trkpt lat="47.63687" lon="6.06694">
        <ele>256.60000610352</ele>
        <time>2012-11-21T09:37:24.000Z</time>
      </trkpt>
      <trkpt lat="47.63678" lon="6.06692">
        <ele>256.20001220703</ele>
        <time>2012-11-21T09:37:25.000Z</time>
      </trkpt>
      <trkpt lat="47.63668" lon="6.06691">
        <ele>255.80000305176</ele>
        <time>2012-11-21T09:37:26.000Z</time>
      </trkpt>
      <trkpt lat="47.63659" lon="6.06689">
        <ele>255</ele>
        <time>2012-11-21T09:37:27.000Z</time>
      </trkpt>
      <trkpt lat="47.6365" lon="6.06689">
        <ele>254.60000610352</ele>
        <time>2012-11-21T09:37:28.000Z</time>
      </trkpt>
      <trkpt lat="47.63641" lon="6.06689">
        <ele>254</ele>
        <time>2012-11-21T09:37:29.000Z</time>
      </trkpt>
      <trkpt lat="47.63631" lon="6.06689">
        <ele>253.60000610352</ele>
        <time>2012-11-21T09:37:30.000Z</time>
      </trkpt>
      <trkpt lat="47.63622" lon="6.06691">
        <ele>253</ele>
        <time>2012-11-21T09:37:31.000Z</time>
      </trkpt>
      <trkpt lat="47.63613" lon="6.06694">
        <ele>252.60000610352</ele>
        <time>2012-11-21T09:37:32.000Z</time>
      </trkpt>
      <trkpt lat="47.63603" lon="6.06698">
        <ele>252</ele>
        <time>2012-11-21T09:37:33.000Z</time>
      </trkpt>
      <trkpt lat="47.63595" lon="6.06702">
        <ele>251.60000610352</ele>
        <time>2012-11-21T09:37:34.000Z</time>
      </trkpt>
      <trkpt lat="47.63586" lon="6.06707">
        <ele>251</ele>
        <time>2012-11-21T09:37:35.000Z</time>
      </trkpt>
      <trkpt lat="47.63577" lon="6.06711">
        <ele>250.60000610352</ele>
        <time>2012-11-21T09:37:36.000Z</time>
      </trkpt>
      <trkpt lat="47.63568" lon="6.06716">
        <ele>250</ele>
        <time>2012-11-21T09:37:37.000Z</time>
      </trkpt>
      <trkpt lat="47.63558" lon="6.06721">
        <ele>249</ele>
        <time>2012-11-21T09:37:38.000Z</time>
      </trkpt>
      <trkpt lat="47.63549" lon="6.06726">
        <ele>248.60000610352</ele>
        <time>2012-11-21T09:37:39.000Z</time>
      </trkpt>
      <trkpt lat="47.63539" lon="6.0673">
        <ele>248</ele>
        <time>2012-11-21T09:37:40.000Z</time>
      </trkpt>
      <trkpt lat="47.63531" lon="6.06735">
        <ele>247.19999694824</ele>
        <time>2012-11-21T09:37:41.000Z</time>
      </trkpt>
      <trkpt lat="47.63524" lon="6.0674">
        <ele>246.80000305176</ele>
        <time>2012-11-21T09:37:42.000Z</time>
      </trkpt>
      <trkpt lat="47.63518" lon="6.06747">
        <ele>246.19999694824</ele>
        <time>2012-11-21T09:37:43.000Z</time>
      </trkpt>
      <trkpt lat="47.63511" lon="6.06766">
        <ele>246</ele>
        <time>2012-11-21T09:37:45.000Z</time>
      </trkpt>
      <trkpt lat="47.63511" lon="6.06777">
        <ele>245.60000610352</ele>
        <time>2012-11-21T09:37:46.000Z</time>
      </trkpt>
      <trkpt lat="47.63512" lon="6.06788">
        <ele>245</ele>
        <time>2012-11-21T09:37:47.000Z</time>
      </trkpt>
      <trkpt lat="47.63515" lon="6.06799">
        <ele>244.80000305176</ele>
        <time>2012-11-21T09:37:48.000Z</time>
      </trkpt>
      <trkpt lat="47.63519" lon="6.06808">
        <ele>244.19999694824</ele>
        <time>2012-11-21T09:37:49.000Z</time>
      </trkpt>
      <trkpt lat="47.63532" lon="6.06825">
        <ele>243.80000305176</ele>
        <time>2012-11-21T09:37:51.000Z</time>
      </trkpt>
      <trkpt lat="47.63539" lon="6.06833">
        <ele>243.19999694824</ele>
        <time>2012-11-21T09:37:52.000Z</time>
      </trkpt>
      <trkpt lat="47.63546" lon="6.06842">
        <ele>243</ele>
        <time>2012-11-21T09:37:53.000Z</time>
      </trkpt>
      <trkpt lat="47.63553" lon="6.0685">
        <ele>242.19999694824</ele>
        <time>2012-11-21T09:37:54.000Z</time>
      </trkpt>
      <trkpt lat="47.6356" lon="6.06857">
        <ele>242</ele>
        <time>2012-11-21T09:37:55.000Z</time>
      </trkpt>
      <trkpt lat="47.63567" lon="6.06865">
        <ele>241.19999694824</ele>
        <time>2012-11-21T09:37:56.000Z</time>
      </trkpt>
      <trkpt lat="47.63573" lon="6.06872">
        <ele>240.80000305176</ele>
        <time>2012-11-21T09:37:57.000Z</time>
      </trkpt>
      <trkpt lat="47.6358" lon="6.0688">
        <ele>240</ele>
        <time>2012-11-21T09:37:58.000Z</time>
      </trkpt>
      <trkpt lat="47.63586" lon="6.06887">
        <ele>239.60000610352</ele>
        <time>2012-11-21T09:37:59.000Z</time>
      </trkpt>
      <trkpt lat="47.63592" lon="6.06894">
        <ele>239</ele>
        <time>2012-11-21T09:38:00.000Z</time>
      </trkpt>
      <trkpt lat="47.63598" lon="6.06901">
        <ele>238.60000610352</ele>
        <time>2012-11-21T09:38:01.000Z</time>
      </trkpt>
      <trkpt lat="47.63605" lon="6.06908">
        <ele>238</ele>
        <time>2012-11-21T09:38:02.000Z</time>
      </trkpt>
      <trkpt lat="47.63612" lon="6.06915">
        <ele>237</ele>
        <time>2012-11-21T09:38:03.000Z</time>
      </trkpt>
      <trkpt lat="47.63618" lon="6.06922">
        <ele>236.80000305176</ele>
        <time>2012-11-21T09:38:04.000Z</time>
      </trkpt>
      <trkpt lat="47.63624" lon="6.0693">
        <ele>236.19999694824</ele>
        <time>2012-11-21T09:38:05.000Z</time>
      </trkpt>
      <trkpt lat="47.63631" lon="6.06938">
        <ele>236</ele>
        <time>2012-11-21T09:38:06.000Z</time>
      </trkpt>
      <trkpt lat="47.63638" lon="6.06946">
        <ele>235.60000610352</ele>
        <time>2012-11-21T09:38:07.000Z</time>
      </trkpt>
      <trkpt lat="47.63644" lon="6.06954">
        <ele>235</ele>
        <time>2012-11-21T09:38:08.000Z</time>
      </trkpt>
      <trkpt lat="47.63651" lon="6.06963">
        <ele>234.80000305176</ele>
        <time>2012-11-21T09:38:09.000Z</time>
      </trkpt>
      <trkpt lat="47.63658" lon="6.06972">
        <ele>234.19999694824</ele>
        <time>2012-11-21T09:38:10.000Z</time>
      </trkpt>
      <trkpt lat="47.63664" lon="6.06982">
        <ele>234</ele>
        <time>2012-11-21T09:38:11.000Z</time>
      </trkpt>
      <trkpt lat="47.63669" lon="6.06992">
        <ele>233.19999694824</ele>
        <time>2012-11-21T09:38:12.000Z</time>
      </trkpt>
      <trkpt lat="47.63675" lon="6.07003">
        <ele>233</ele>
        <time>2012-11-21T09:38:13.000Z</time>
      </trkpt>
      <trkpt lat="47.63679" lon="6.07015">
        <ele>232.60000610352</ele>
        <time>2012-11-21T09:38:14.000Z</time>
      </trkpt>
      <trkpt lat="47.63682" lon="6.07027">
        <ele>232</ele>
        <time>2012-11-21T09:38:15.000Z</time>
      </trkpt>
      <trkpt lat="47.63685" lon="6.0704">
        <ele>231.60000610352</ele>
        <time>2012-11-21T09:38:16.000Z</time>
      </trkpt>
      <trkpt lat="47.63689" lon="6.07053">
        <ele>231</ele>
        <time>2012-11-21T09:38:17.000Z</time>
      </trkpt>
      <trkpt lat="47.63692" lon="6.07066">
        <ele>230.60000610352</ele>
        <time>2012-11-21T09:38:18.000Z</time>
      </trkpt>
      <trkpt lat="47.63696" lon="6.07079">
        <ele>230</ele>
        <time>2012-11-21T09:38:19.000Z</time>
      </trkpt>
      <trkpt lat="47.63699" lon="6.07091">
        <ele>229.60000610352</ele>
        <time>2012-11-21T09:38:20.000Z</time>
      </trkpt>
      <trkpt lat="47.63702" lon="6.07104">
        <ele>229</ele>
        <time>2012-11-21T09:38:21.000Z</time>
      </trkpt>
      <trkpt lat="47.63705" lon="6.07116">
        <ele>228.60000610352</ele>
        <time>2012-11-21T09:38:22.000Z</time>
      </trkpt>
      <trkpt lat="47.63708" lon="6.07129">
        <ele>228.60000610352</ele>
        <time>2012-11-21T09:38:23.000Z</time>
      </trkpt>
      <trkpt lat="47.63711" lon="6.07141">
        <ele>228</ele>
        <time>2012-11-21T09:38:24.000Z</time>
      </trkpt>
      <trkpt lat="47.63715" lon="6.07154">
        <ele>227.80000305176</ele>
        <time>2012-11-21T09:38:25.000Z</time>
      </trkpt>
      <trkpt lat="47.63718" lon="6.07166">
        <ele>227.19999694824</ele>
        <time>2012-11-21T09:38:26.000Z</time>
      </trkpt>
      <trkpt lat="47.6372" lon="6.07178">
        <ele>226.19999694824</ele>
        <time>2012-11-21T09:38:27.000Z</time>
      </trkpt>
      <trkpt lat="47.63734" lon="6.07223">
        <ele>226</ele>
        <time>2012-11-21T09:38:31.000Z</time>
      </trkpt>
      <trkpt lat="47.63739" lon="6.07232">
        <ele>225.60000610352</ele>
        <time>2012-11-21T09:38:32.000Z</time>
      </trkpt>
      <trkpt lat="47.63744" lon="6.07241">
        <ele>225</ele>
        <time>2012-11-21T09:38:33.000Z</time>
      </trkpt>
      <trkpt lat="47.63748" lon="6.07251">
        <ele>224.60000610352</ele>
        <time>2012-11-21T09:38:34.000Z</time>
      </trkpt>
      <trkpt lat="47.63751" lon="6.07261">
        <ele>224</ele>
        <time>2012-11-21T09:38:35.000Z</time>
      </trkpt>
      <trkpt lat="47.63755" lon="6.07271">
        <ele>223.80000305176</ele>
        <time>2012-11-21T09:38:36.000Z</time>
      </trkpt>
      <trkpt lat="47.63758" lon="6.07279">
        <ele>223.19999694824</ele>
        <time>2012-11-21T09:38:37.000Z</time>
      </trkpt>
      <trkpt lat="47.63762" lon="6.07287">
        <ele>223</ele>
        <time>2012-11-21T09:38:38.000Z</time>
      </trkpt>
      <trkpt lat="47.63766" lon="6.07294">
        <ele>222.60000610352</ele>
        <time>2012-11-21T09:38:39.000Z</time>
      </trkpt>
      <trkpt lat="47.6377" lon="6.073">
        <ele>222</ele>
        <time>2012-11-21T09:38:40.000Z</time>
      </trkpt>
      <trkpt lat="47.63783" lon="6.07316">
        <ele>222</ele>
        <time>2012-11-21T09:38:43.000Z</time>
      </trkpt>
      <trkpt lat="47.63787" lon="6.0732">
        <ele>222</ele>
        <time>2012-11-21T09:38:44.000Z</time>
      </trkpt>
      <trkpt lat="47.63806" lon="6.07342">
        <ele>222</ele>
        <time>2012-11-21T09:38:50.000Z</time>
      </trkpt>
      <trkpt lat="47.63823" lon="6.0736">
        <ele>222</ele>
        <time>2012-11-21T09:38:56.000Z</time>
      </trkpt>
      <trkpt lat="47.63842" lon="6.07382">
        <ele>222</ele>
        <time>2012-11-21T09:39:03.000Z</time>
      </trkpt>
      <trkpt lat="47.63864" lon="6.07399">
        <ele>222</ele>
        <time>2012-11-21T09:39:10.000Z</time>
      </trkpt>
      <trkpt lat="47.63867" lon="6.07401">
        <ele>222.60000610352</ele>
        <time>2012-11-21T09:39:11.000Z</time>
      </trkpt>
      <trkpt lat="47.63869" lon="6.07402">
        <ele>223</ele>
        <time>2012-11-21T09:39:12.000Z</time>
      </trkpt>
      <trkpt lat="47.63872" lon="6.07404">
        <ele>223.19999694824</ele>
        <time>2012-11-21T09:39:13.000Z</time>
      </trkpt>
      <trkpt lat="47.63875" lon="6.07406">
        <ele>223.80000305176</ele>
        <time>2012-11-21T09:39:14.000Z</time>
      </trkpt>
      <trkpt lat="47.63878" lon="6.07408">
        <ele>224</ele>
        <time>2012-11-21T09:39:15.000Z</time>
      </trkpt>
      <trkpt lat="47.63881" lon="6.0741">
        <ele>224</ele>
        <time>2012-11-21T09:39:16.000Z</time>
      </trkpt>
      <trkpt lat="47.63904" lon="6.07432">
        <ele>224</ele>
        <time>2012-11-21T09:39:25.000Z</time>
      </trkpt>
      <trkpt lat="47.6392" lon="6.07462">
        <ele>224</ele>
        <time>2012-11-21T09:39:32.000Z</time>
      </trkpt>
      <trkpt lat="47.63923" lon="6.07467">
        <ele>224</ele>
        <time>2012-11-21T09:39:33.000Z</time>
      </trkpt>
      <trkpt lat="47.63932" lon="6.07487">
        <ele>224</ele>
        <time>2012-11-21T09:39:37.000Z</time>
      </trkpt>
      <trkpt lat="47.63945" lon="6.07514">
        <ele>224</ele>
        <time>2012-11-21T09:39:42.000Z</time>
      </trkpt>
      <trkpt lat="47.63949" lon="6.07524">
        <ele>224</ele>
        <time>2012-11-21T09:39:44.000Z</time>
      </trkpt>
      <trkpt lat="47.63966" lon="6.07571">
        <ele>224</ele>
        <time>2012-11-21T09:39:53.000Z</time>
      </trkpt>
      <trkpt lat="47.63981" lon="6.07616">
        <ele>224</ele>
        <time>2012-11-21T09:40:01.000Z</time>
      </trkpt>
      <trkpt lat="47.63993" lon="6.0765">
        <ele>224</ele>
        <time>2012-11-21T09:40:08.000Z</time>
      </trkpt>
      <trkpt lat="47.64004" lon="6.07681">
        <ele>224</ele>
        <time>2012-11-21T09:40:14.000Z</time>
      </trkpt>
      <trkpt lat="47.64009" lon="6.07693">
        <ele>224.60000610352</ele>
        <time>2012-11-21T09:40:16.000Z</time>
      </trkpt>
      <trkpt lat="47.64011" lon="6.07699">
        <ele>225</ele>
        <time>2012-11-21T09:40:17.000Z</time>
      </trkpt>
      <trkpt lat="47.64013" lon="6.07705">
        <ele>225.19999694824</ele>
        <time>2012-11-21T09:40:18.000Z</time>
      </trkpt>
      <trkpt lat="47.64016" lon="6.07711">
        <ele>225.80000305176</ele>
        <time>2012-11-21T09:40:19.000Z</time>
      </trkpt>
      <trkpt lat="47.64018" lon="6.07717">
        <ele>226.19999694824</ele>
        <time>2012-11-21T09:40:20.000Z</time>
      </trkpt>
      <trkpt lat="47.64034" lon="6.07755">
        <ele>226.19999694824</ele>
        <time>2012-11-21T09:40:27.000Z</time>
      </trkpt>
      <trkpt lat="47.6405" lon="6.07799">
        <ele>226.19999694824</ele>
        <time>2012-11-21T09:40:34.000Z</time>
      </trkpt>
      <trkpt lat="47.64068" lon="6.07839">
        <ele>226</ele>
        <time>2012-11-21T09:40:39.000Z</time>
      </trkpt>
      <trkpt lat="47.64071" lon="6.07847">
        <ele>225.60000610352</ele>
        <time>2012-11-21T09:40:40.000Z</time>
      </trkpt>
      <trkpt lat="47.64075" lon="6.07856">
        <ele>225</ele>
        <time>2012-11-21T09:40:41.000Z</time>
      </trkpt>
      <trkpt lat="47.6408" lon="6.07863">
        <ele>224.80000305176</ele>
        <time>2012-11-21T09:40:42.000Z</time>
      </trkpt>
      <trkpt lat="47.64083" lon="6.07871">
        <ele>224.19999694824</ele>
        <time>2012-11-21T09:40:43.000Z</time>
      </trkpt>
      <trkpt lat="47.64094" lon="6.07894">
        <ele>224.19999694824</ele>
        <time>2012-11-21T09:40:46.000Z</time>
      </trkpt>
      <trkpt lat="47.64113" lon="6.07946">
        <ele>224.19999694824</ele>
        <time>2012-11-21T09:40:53.000Z</time>
      </trkpt>
      <trkpt lat="47.64137" lon="6.08006">
        <ele>224.19999694824</ele>
        <time>2012-11-21T09:41:02.000Z</time>
      </trkpt>
      <trkpt lat="47.64155" lon="6.0805">
        <ele>224.19999694824</ele>
        <time>2012-11-21T09:41:09.000Z</time>
      </trkpt>
      <trkpt lat="47.64166" lon="6.08076">
        <ele>224.19999694824</ele>
        <time>2012-11-21T09:41:13.000Z</time>
      </trkpt>
      <trkpt lat="47.64172" lon="6.08087">
        <ele>224.19999694824</ele>
        <time>2012-11-21T09:41:15.000Z</time>
      </trkpt>
      <trkpt lat="47.64174" lon="6.08093">
        <ele>224.19999694824</ele>
        <time>2012-11-21T09:41:16.000Z</time>
      </trkpt>
      <trkpt lat="47.6419" lon="6.0813">
        <ele>224.19999694824</ele>
        <time>2012-11-21T09:41:23.000Z</time>
      </trkpt>
      <trkpt lat="47.64209" lon="6.08172">
        <ele>224.19999694824</ele>
        <time>2012-11-21T09:41:31.000Z</time>
      </trkpt>
      <trkpt lat="47.64226" lon="6.08216">
        <ele>224.19999694824</ele>
        <time>2012-11-21T09:41:39.000Z</time>
      </trkpt>
      <trkpt lat="47.64234" lon="6.0824">
        <ele>223.19999694824</ele>
        <time>2012-11-21T09:41:43.000Z</time>
      </trkpt>
      <trkpt lat="47.64236" lon="6.08247">
        <ele>223</ele>
        <time>2012-11-21T09:41:44.000Z</time>
      </trkpt>
      <trkpt lat="47.64238" lon="6.08253">
        <ele>222.60000610352</ele>
        <time>2012-11-21T09:41:45.000Z</time>
      </trkpt>
      <trkpt lat="47.6424" lon="6.0826">
        <ele>222</ele>
        <time>2012-11-21T09:41:46.000Z</time>
      </trkpt>
      <trkpt lat="47.64245" lon="6.08272">
        <ele>222</ele>
        <time>2012-11-21T09:41:48.000Z</time>
      </trkpt>
      <trkpt lat="47.64262" lon="6.08327">
        <ele>222</ele>
        <time>2012-11-21T09:41:56.000Z</time>
      </trkpt>
      <trkpt lat="47.64286" lon="6.08384">
        <ele>222</ele>
        <time>2012-11-21T09:42:05.000Z</time>
      </trkpt>
      <trkpt lat="47.64303" lon="6.08421">
        <ele>222</ele>
        <time>2012-11-21T09:42:12.000Z</time>
      </trkpt>
      <trkpt lat="47.64323" lon="6.08459">
        <ele>222</ele>
        <time>2012-11-21T09:42:20.000Z</time>
      </trkpt>
      <trkpt lat="47.64348" lon="6.08499">
        <ele>222</ele>
        <time>2012-11-21T09:42:30.000Z</time>
      </trkpt>
      <trkpt lat="47.64371" lon="6.08538">
        <ele>222</ele>
        <time>2012-11-21T09:42:40.000Z</time>
      </trkpt>
      <trkpt lat="47.64387" lon="6.0857">
        <ele>222.80000305176</ele>
        <time>2012-11-21T09:42:47.000Z</time>
      </trkpt>
      <trkpt lat="47.64389" lon="6.08574">
        <ele>223</ele>
        <time>2012-11-21T09:42:48.000Z</time>
      </trkpt>
      <trkpt lat="47.64391" lon="6.08579">
        <ele>223.60000610352</ele>
        <time>2012-11-21T09:42:49.000Z</time>
      </trkpt>
      <trkpt lat="47.64393" lon="6.08583">
        <ele>224</ele>
        <time>2012-11-21T09:42:50.000Z</time>
      </trkpt>
      <trkpt lat="47.64395" lon="6.08587">
        <ele>224.19999694824</ele>
        <time>2012-11-21T09:42:51.000Z</time>
      </trkpt>
      <trkpt lat="47.64401" lon="6.08601">
        <ele>224.19999694824</ele>
        <time>2012-11-21T09:42:54.000Z</time>
      </trkpt>
      <trkpt lat="47.64417" lon="6.08642">
        <ele>224.19999694824</ele>
        <time>2012-11-21T09:43:02.000Z</time>
      </trkpt>
      <trkpt lat="47.64438" lon="6.08692">
        <ele>224.19999694824</ele>
        <time>2012-11-21T09:43:10.000Z</time>
      </trkpt>
      <trkpt lat="47.64458" lon="6.08743">
        <ele>224.19999694824</ele>
        <time>2012-11-21T09:43:18.000Z</time>
      </trkpt>
      <trkpt lat="47.64478" lon="6.08794">
        <ele>224.19999694824</ele>
        <time>2012-11-21T09:43:25.000Z</time>
      </trkpt>
      <trkpt lat="47.64503" lon="6.08856">
        <ele>224</ele>
        <time>2012-11-21T09:43:33.000Z</time>
      </trkpt>
      <trkpt lat="47.64506" lon="6.08864">
        <ele>223.60000610352</ele>
        <time>2012-11-21T09:43:34.000Z</time>
      </trkpt>
      <trkpt lat="47.6451" lon="6.08872">
        <ele>223</ele>
        <time>2012-11-21T09:43:35.000Z</time>
      </trkpt>
      <trkpt lat="47.64514" lon="6.0888">
        <ele>222.80000305176</ele>
        <time>2012-11-21T09:43:36.000Z</time>
      </trkpt>
      <trkpt lat="47.64517" lon="6.08888">
        <ele>222.19999694824</ele>
        <time>2012-11-21T09:43:37.000Z</time>
      </trkpt>
      <trkpt lat="47.64532" lon="6.0892">
        <ele>222.19999694824</ele>
        <time>2012-11-21T09:43:41.000Z</time>
      </trkpt>
      <trkpt lat="47.6454" lon="6.08936">
        <ele>221.80000305176</ele>
        <time>2012-11-21T09:43:43.000Z</time>
      </trkpt>
      <trkpt lat="47.64544" lon="6.08943">
        <ele>221.19999694824</ele>
        <time>2012-11-21T09:43:44.000Z</time>
      </trkpt>
      <trkpt lat="47.64548" lon="6.08951">
        <ele>221</ele>
        <time>2012-11-21T09:43:45.000Z</time>
      </trkpt>
      <trkpt lat="47.64552" lon="6.08959">
        <ele>220</ele>
        <time>2012-11-21T09:43:46.000Z</time>
      </trkpt>
      <trkpt lat="47.64559" lon="6.08974">
        <ele>220</ele>
        <time>2012-11-21T09:43:48.000Z</time>
      </trkpt>
      <trkpt lat="47.6459" lon="6.09032">
        <ele>220</ele>
        <time>2012-11-21T09:43:56.000Z</time>
      </trkpt>
      <trkpt lat="47.64615" lon="6.09081">
        <ele>220</ele>
        <time>2012-11-21T09:44:03.000Z</time>
      </trkpt>
      <trkpt lat="47.64635" lon="6.09109">
        <ele>220</ele>
        <time>2012-11-21T09:44:09.000Z</time>
      </trkpt>
      <trkpt lat="47.64658" lon="6.09132">
        <ele>220</ele>
        <time>2012-11-21T09:44:16.000Z</time>
      </trkpt>
      <trkpt lat="47.64681" lon="6.0915">
        <ele>220</ele>
        <time>2012-11-21T09:44:23.000Z</time>
      </trkpt>
      <trkpt lat="47.64692" lon="6.09156">
        <ele>220</ele>
        <time>2012-11-21T09:44:26.000Z</time>
      </trkpt>
      <trkpt lat="47.64703" lon="6.0916">
        <ele>220</ele>
        <time>2012-11-21T09:44:29.000Z</time>
      </trkpt>
      <trkpt lat="47.6471" lon="6.09164">
        <ele>220</ele>
        <time>2012-11-21T09:44:31.000Z</time>
      </trkpt>
      <trkpt lat="47.64714" lon="6.09177">
        <ele>220</ele>
        <time>2012-11-21T09:44:33.000Z</time>
      </trkpt>
      <trkpt lat="47.6471" lon="6.09193">
        <ele>220</ele>
        <time>2012-11-21T09:44:35.000Z</time>
      </trkpt>
      <trkpt lat="47.64695" lon="6.09214">
        <ele>219.80000305176</ele>
        <time>2012-11-21T09:44:38.000Z</time>
      </trkpt>
      <trkpt lat="47.64689" lon="6.09222">
        <ele>219.19999694824</ele>
        <time>2012-11-21T09:44:39.000Z</time>
      </trkpt>
      <trkpt lat="47.64685" lon="6.09229">
        <ele>218.80000305176</ele>
        <time>2012-11-21T09:44:40.000Z</time>
      </trkpt>
      <trkpt lat="47.64681" lon="6.09237">
        <ele>218.19999694824</ele>
        <time>2012-11-21T09:44:41.000Z</time>
      </trkpt>
      <trkpt lat="47.64677" lon="6.09246">
        <ele>218</ele>
        <time>2012-11-21T09:44:42.000Z</time>
      </trkpt>
      <trkpt lat="47.64673" lon="6.09253">
        <ele>218</ele>
        <time>2012-11-21T09:44:43.000Z</time>
      </trkpt>
      <trkpt lat="47.64653" lon="6.09292">
        <ele>217.60000610352</ele>
        <time>2012-11-21T09:44:48.000Z</time>
      </trkpt>
      <trkpt lat="47.64649" lon="6.09299">
        <ele>217</ele>
        <time>2012-11-21T09:44:49.000Z</time>
      </trkpt>
      <trkpt lat="47.64645" lon="6.09306">
        <ele>216.60000610352</ele>
        <time>2012-11-21T09:44:50.000Z</time>
      </trkpt>
      <trkpt lat="47.64642" lon="6.09314">
        <ele>216</ele>
        <time>2012-11-21T09:44:51.000Z</time>
      </trkpt>
      <trkpt lat="47.64638" lon="6.0932">
        <ele>215.80000305176</ele>
        <time>2012-11-21T09:44:52.000Z</time>
      </trkpt>
      <trkpt lat="47.64634" lon="6.09326">
        <ele>215.80000305176</ele>
        <time>2012-11-21T09:44:53.000Z</time>
      </trkpt>
      <trkpt lat="47.64621" lon="6.09341">
        <ele>215.80000305176</ele>
        <time>2012-11-21T09:44:56.000Z</time>
      </trkpt>
      <trkpt lat="47.64613" lon="6.0935">
        <ele>215.80000305176</ele>
        <time>2012-11-21T09:44:58.000Z</time>
      </trkpt>
      <trkpt lat="47.64608" lon="6.09363">
        <ele>215.80000305176</ele>
        <time>2012-11-21T09:45:00.000Z</time>
      </trkpt>
      <trkpt lat="47.64609" lon="6.09382">
        <ele>215.80000305176</ele>
        <time>2012-11-21T09:45:03.000Z</time>
      </trkpt>
      <trkpt lat="47.6461" lon="6.09388">
        <ele>215.80000305176</ele>
        <time>2012-11-21T09:45:04.000Z</time>
      </trkpt>
      <trkpt lat="47.64615" lon="6.09418">
        <ele>215.80000305176</ele>
        <time>2012-11-21T09:45:08.000Z</time>
      </trkpt>
      <trkpt lat="47.64621" lon="6.09458">
        <ele>215.80000305176</ele>
        <time>2012-11-21T09:45:13.000Z</time>
      </trkpt>
      <trkpt lat="47.64624" lon="6.09486">
        <ele>215.80000305176</ele>
        <time>2012-11-21T09:45:17.000Z</time>
      </trkpt>
      <trkpt lat="47.64624" lon="6.09498">
        <ele>215.80000305176</ele>
        <time>2012-11-21T09:45:19.000Z</time>
      </trkpt>
      <trkpt lat="47.64621" lon="6.09532">
        <ele>215.80000305176</ele>
        <time>2012-11-21T09:45:25.000Z</time>
      </trkpt>
      <trkpt lat="47.6461" lon="6.09575">
        <ele>215.80000305176</ele>
        <time>2012-11-21T09:45:33.000Z</time>
      </trkpt>
      <trkpt lat="47.64597" lon="6.09613">
        <ele>215.80000305176</ele>
        <time>2012-11-21T09:45:40.000Z</time>
      </trkpt>
      <trkpt lat="47.64591" lon="6.09628">
        <ele>215.80000305176</ele>
        <time>2012-11-21T09:45:43.000Z</time>
      </trkpt>
      <trkpt lat="47.64586" lon="6.09645">
        <ele>215.80000305176</ele>
        <time>2012-11-21T09:45:46.000Z</time>
      </trkpt>
      <trkpt lat="47.64565" lon="6.09701">
        <ele>215.80000305176</ele>
        <time>2012-11-21T09:45:56.000Z</time>
      </trkpt>
      <trkpt lat="47.6455" lon="6.09747">
        <ele>215.80000305176</ele>
        <time>2012-11-21T09:46:04.000Z</time>
      </trkpt>
      <trkpt lat="47.64532" lon="6.09799">
        <ele>215.80000305176</ele>
        <time>2012-11-21T09:46:13.000Z</time>
      </trkpt>
      <trkpt lat="47.64519" lon="6.09837">
        <ele>215.80000305176</ele>
        <time>2012-11-21T09:46:20.000Z</time>
      </trkpt>
      <trkpt lat="47.64504" lon="6.09876">
        <ele>215.80000305176</ele>
        <time>2012-11-21T09:46:27.000Z</time>
      </trkpt>
      <trkpt lat="47.64492" lon="6.09913">
        <ele>215.80000305176</ele>
        <time>2012-11-21T09:46:34.000Z</time>
      </trkpt>
      <trkpt lat="47.64491" lon="6.0992">
        <ele>215.80000305176</ele>
        <time>2012-11-21T09:46:35.000Z</time>
      </trkpt>
      <trkpt lat="47.64492" lon="6.09943">
        <ele>215.80000305176</ele>
        <time>2012-11-21T09:46:39.000Z</time>
      </trkpt>
      <trkpt lat="47.64486" lon="6.09961">
        <ele>215.80000305176</ele>
        <time>2012-11-21T09:46:44.000Z</time>
      </trkpt>
      <trkpt lat="47.64484" lon="6.09962">
        <ele>215.80000305176</ele>
        <time>2012-11-21T09:46:45.000Z</time>
      </trkpt>
      <trkpt lat="47.64477" lon="6.09959">
        <ele>215.80000305176</ele>
        <time>2012-11-21T09:46:48.000Z</time>
      </trkpt>
      <trkpt lat="47.64458" lon="6.09952">
        <ele>215.80000305176</ele>
        <time>2012-11-21T09:46:55.000Z</time>
      </trkpt>
      <trkpt lat="47.64444" lon="6.0995">
        <ele>215.80000305176</ele>
        <time>2012-11-21T09:47:01.000Z</time>
      </trkpt>
      <trkpt lat="47.64431" lon="6.09946">
        <ele>215.80000305176</ele>
        <time>2012-11-21T09:47:07.000Z</time>
      </trkpt>
      <trkpt lat="47.64428" lon="6.09945">
        <ele>215.80000305176</ele>
        <time>2012-11-21T09:47:09.000Z</time>
      </trkpt>
      <trkpt lat="47.64428" lon="6.09946">
        <ele>215.80000305176</ele>
        <time>2012-11-21T09:47:11.000Z</time>
      </trkpt>
      <trkpt lat="47.64425" lon="6.09946">
        <ele>215.80000305176</ele>
        <time>2012-11-21T09:47:13.000Z</time>
      </trkpt>
      <trkpt lat="47.64413" lon="6.09946">
        <ele>215.80000305176</ele>
        <time>2012-11-21T09:47:18.000Z</time>
      </trkpt>
      <trkpt lat="47.64392" lon="6.09951">
        <ele>215.80000305176</ele>
        <time>2012-11-21T09:47:24.000Z</time>
      </trkpt>
      <trkpt lat="47.64365" lon="6.0996">
        <ele>215.80000305176</ele>
        <time>2012-11-21T09:47:31.000Z</time>
      </trkpt>
      <trkpt lat="47.64338" lon="6.09977">
        <ele>215.80000305176</ele>
        <time>2012-11-21T09:47:37.000Z</time>
      </trkpt>
      <trkpt lat="47.64314" lon="6.09994">
        <ele>215.80000305176</ele>
        <time>2012-11-21T09:47:43.000Z</time>
      </trkpt>
      <trkpt lat="47.64299" lon="6.10004">
        <ele>215.80000305176</ele>
        <time>2012-11-21T09:47:47.000Z</time>
      </trkpt>
      <trkpt lat="47.64287" lon="6.1001">
        <ele>215.80000305176</ele>
        <time>2012-11-21T09:47:50.000Z</time>
      </trkpt>
      <trkpt lat="47.6428" lon="6.10015">
        <ele>215.80000305176</ele>
        <time>2012-11-21T09:47:52.000Z</time>
      </trkpt>
      <trkpt lat="47.64261" lon="6.10029">
        <ele>215.80000305176</ele>
        <time>2012-11-21T09:47:57.000Z</time>
      </trkpt>
      <trkpt lat="47.64239" lon="6.10045">
        <ele>215.80000305176</ele>
        <time>2012-11-21T09:48:03.000Z</time>
      </trkpt>
      <trkpt lat="47.64207" lon="6.10069">
        <ele>215.80000305176</ele>
        <time>2012-11-21T09:48:12.000Z</time>
      </trkpt>
      <trkpt lat="47.64195" lon="6.10078">
        <ele>215.80000305176</ele>
        <time>2012-11-21T09:48:15.000Z</time>
      </trkpt>
      <trkpt lat="47.64178" lon="6.1009">
        <ele>215.80000305176</ele>
        <time>2012-11-21T09:48:19.000Z</time>
      </trkpt>
      <trkpt lat="47.64135" lon="6.10121">
        <ele>215.80000305176</ele>
        <time>2012-11-21T09:48:29.000Z</time>
      </trkpt>
      <trkpt lat="47.6411" lon="6.10137">
        <ele>215.80000305176</ele>
        <time>2012-11-21T09:48:35.000Z</time>
      </trkpt>
      <trkpt lat="47.6408" lon="6.10158">
        <ele>215.80000305176</ele>
        <time>2012-11-21T09:48:43.000Z</time>
      </trkpt>
      <trkpt lat="47.64057" lon="6.10174">
        <ele>215.80000305176</ele>
        <time>2012-11-21T09:48:49.000Z</time>
      </trkpt>
      <trkpt lat="47.64053" lon="6.10176">
        <ele>215.80000305176</ele>
        <time>2012-11-21T09:48:50.000Z</time>
      </trkpt>
      <trkpt lat="47.64017" lon="6.10203">
        <ele>215.80000305176</ele>
        <time>2012-11-21T09:48:59.000Z</time>
      </trkpt>
      <trkpt lat="47.63989" lon="6.10224">
        <ele>215.80000305176</ele>
        <time>2012-11-21T09:49:06.000Z</time>
      </trkpt>
      <trkpt lat="47.63961" lon="6.10243">
        <ele>215.80000305176</ele>
        <time>2012-11-21T09:49:13.000Z</time>
      </trkpt>
      <trkpt lat="47.63958" lon="6.10246">
        <ele>215.80000305176</ele>
        <time>2012-11-21T09:49:14.000Z</time>
      </trkpt>
      <trkpt lat="47.63942" lon="6.10258">
        <ele>216</ele>
        <time>2012-11-21T09:49:18.000Z</time>
      </trkpt>
      <trkpt lat="47.63937" lon="6.10261">
        <ele>216.60000610352</ele>
        <time>2012-11-21T09:49:19.000Z</time>
      </trkpt>
      <trkpt lat="47.63933" lon="6.10264">
        <ele>217</ele>
        <time>2012-11-21T09:49:20.000Z</time>
      </trkpt>
      <trkpt lat="47.63929" lon="6.10267">
        <ele>217.19999694824</ele>
        <time>2012-11-21T09:49:21.000Z</time>
      </trkpt>
      <trkpt lat="47.63925" lon="6.1027">
        <ele>217.80000305176</ele>
        <time>2012-11-21T09:49:22.000Z</time>
      </trkpt>
      <trkpt lat="47.63906" lon="6.10288">
        <ele>217.80000305176</ele>
        <time>2012-11-21T09:49:27.000Z</time>
      </trkpt>
      <trkpt lat="47.639" lon="6.10298">
        <ele>217.80000305176</ele>
        <time>2012-11-21T09:49:29.000Z</time>
      </trkpt>
      <trkpt lat="47.63895" lon="6.10309">
        <ele>217.80000305176</ele>
        <time>2012-11-21T09:49:31.000Z</time>
      </trkpt>
      <trkpt lat="47.63891" lon="6.10321">
        <ele>217.80000305176</ele>
        <time>2012-11-21T09:49:33.000Z</time>
      </trkpt>
      <trkpt lat="47.63889" lon="6.10328">
        <ele>217.80000305176</ele>
        <time>2012-11-21T09:49:34.000Z</time>
      </trkpt>
      <trkpt lat="47.63885" lon="6.10349">
        <ele>217.80000305176</ele>
        <time>2012-11-21T09:49:37.000Z</time>
      </trkpt>
      <trkpt lat="47.63882" lon="6.10363">
        <ele>217.80000305176</ele>
        <time>2012-11-21T09:49:39.000Z</time>
      </trkpt>
      <trkpt lat="47.63873" lon="6.10414">
        <ele>217.80000305176</ele>
        <time>2012-11-21T09:49:46.000Z</time>
      </trkpt>
      <trkpt lat="47.63871" lon="6.10427">
        <ele>217.80000305176</ele>
        <time>2012-11-21T09:49:48.000Z</time>
      </trkpt>
      <trkpt lat="47.63865" lon="6.1046">
        <ele>217.80000305176</ele>
        <time>2012-11-21T09:49:53.000Z</time>
      </trkpt>
      <trkpt lat="47.63855" lon="6.10508">
        <ele>217.80000305176</ele>
        <time>2012-11-21T09:50:01.000Z</time>
      </trkpt>
      <trkpt lat="47.63854" lon="6.10525">
        <ele>217.80000305176</ele>
        <time>2012-11-21T09:50:04.000Z</time>
      </trkpt>
      <trkpt lat="47.63857" lon="6.10529">
        <ele>217.80000305176</ele>
        <time>2012-11-21T09:50:05.000Z</time>
      </trkpt>
      <trkpt lat="47.63869" lon="6.10535">
        <ele>217.80000305176</ele>
        <time>2012-11-21T09:50:08.000Z</time>
      </trkpt>
      <trkpt lat="47.63888" lon="6.10546">
        <ele>217.80000305176</ele>
        <time>2012-11-21T09:50:14.000Z</time>
      </trkpt>
      <trkpt lat="47.63905" lon="6.10564">
        <ele>217.80000305176</ele>
        <time>2012-11-21T09:50:20.000Z</time>
      </trkpt>
      <trkpt lat="47.63923" lon="6.10588">
        <ele>217.80000305176</ele>
        <time>2012-11-21T09:50:27.000Z</time>
      </trkpt>
      <trkpt lat="47.63935" lon="6.10616">
        <ele>217.80000305176</ele>
        <time>2012-11-21T09:50:33.000Z</time>
      </trkpt>
      <trkpt lat="47.63937" lon="6.10636">
        <ele>217.80000305176</ele>
        <time>2012-11-21T09:50:36.000Z</time>
      </trkpt>
      <trkpt lat="47.63938" lon="6.10652">
        <ele>217.80000305176</ele>
        <time>2012-11-21T09:50:38.000Z</time>
      </trkpt>
      <trkpt lat="47.63942" lon="6.10714">
        <ele>217.80000305176</ele>
        <time>2012-11-21T09:50:45.000Z</time>
      </trkpt>
      <trkpt lat="47.63944" lon="6.10744">
        <ele>217.19999694824</ele>
        <time>2012-11-21T09:50:48.000Z</time>
      </trkpt>
      <trkpt lat="47.63945" lon="6.10753">
        <ele>217</ele>
        <time>2012-11-21T09:50:49.000Z</time>
      </trkpt>
      <trkpt lat="47.63945" lon="6.10761">
        <ele>216.60000610352</ele>
        <time>2012-11-21T09:50:50.000Z</time>
      </trkpt>
      <trkpt lat="47.63944" lon="6.10768">
        <ele>216</ele>
        <time>2012-11-21T09:50:51.000Z</time>
      </trkpt>
      <trkpt lat="47.63943" lon="6.10774">
        <ele>215.80000305176</ele>
        <time>2012-11-21T09:50:52.000Z</time>
      </trkpt>
      <trkpt lat="47.63935" lon="6.10795">
        <ele>215.80000305176</ele>
        <time>2012-11-21T09:50:56.000Z</time>
      </trkpt>
      <trkpt lat="47.63929" lon="6.10811">
        <ele>215.80000305176</ele>
        <time>2012-11-21T09:51:00.000Z</time>
      </trkpt>
      <trkpt lat="47.63935" lon="6.10831">
        <ele>215.80000305176</ele>
        <time>2012-11-21T09:51:04.000Z</time>
      </trkpt>
      <trkpt lat="47.63944" lon="6.10865">
        <ele>215.80000305176</ele>
        <time>2012-11-21T09:51:10.000Z</time>
      </trkpt>
      <trkpt lat="47.63946" lon="6.1088">
        <ele>215.80000305176</ele>
        <time>2012-11-21T09:51:12.000Z</time>
      </trkpt>
      <trkpt lat="47.63948" lon="6.10903">
        <ele>215.80000305176</ele>
        <time>2012-11-21T09:51:15.000Z</time>
      </trkpt>
      <trkpt lat="47.63945" lon="6.10927">
        <ele>215.80000305176</ele>
        <time>2012-11-21T09:51:18.000Z</time>
      </trkpt>
      <trkpt lat="47.63939" lon="6.10942">
        <ele>215.80000305176</ele>
        <time>2012-11-21T09:51:20.000Z</time>
      </trkpt>
      <trkpt lat="47.63933" lon="6.10963">
        <ele>215.80000305176</ele>
        <time>2012-11-21T09:51:23.000Z</time>
      </trkpt>
      <trkpt lat="47.63931" lon="6.1097">
        <ele>215.80000305176</ele>
        <time>2012-11-21T09:51:24.000Z</time>
      </trkpt>
      <trkpt lat="47.63917" lon="6.11024">
        <ele>215.80000305176</ele>
        <time>2012-11-21T09:51:32.000Z</time>
      </trkpt>
      <trkpt lat="47.63908" lon="6.11074">
        <ele>215.80000305176</ele>
        <time>2012-11-21T09:51:39.000Z</time>
      </trkpt>
      <trkpt lat="47.63905" lon="6.11112">
        <ele>215.80000305176</ele>
        <time>2012-11-21T09:51:44.000Z</time>
      </trkpt>
      <trkpt lat="47.63907" lon="6.11133">
        <ele>215.80000305176</ele>
        <time>2012-11-21T09:51:47.000Z</time>
      </trkpt>
      <trkpt lat="47.63908" lon="6.11146">
        <ele>215.80000305176</ele>
        <time>2012-11-21T09:51:49.000Z</time>
      </trkpt>
      <trkpt lat="47.63908" lon="6.1116">
        <ele>215.80000305176</ele>
        <time>2012-11-21T09:51:51.000Z</time>
      </trkpt>
      <trkpt lat="47.63911" lon="6.11187">
        <ele>215.80000305176</ele>
        <time>2012-11-21T09:51:55.000Z</time>
      </trkpt>
      <trkpt lat="47.63914" lon="6.11235">
        <ele>215.80000305176</ele>
        <time>2012-11-21T09:52:02.000Z</time>
      </trkpt>
      <trkpt lat="47.63915" lon="6.11242">
        <ele>215.80000305176</ele>
        <time>2012-11-21T09:52:03.000Z</time>
      </trkpt>
      <trkpt lat="47.63917" lon="6.11249">
        <ele>215.80000305176</ele>
        <time>2012-11-21T09:52:04.000Z</time>
      </trkpt>
      <trkpt lat="47.63922" lon="6.11284">
        <ele>215.80000305176</ele>
        <time>2012-11-21T09:52:09.000Z</time>
      </trkpt>
      <trkpt lat="47.63922" lon="6.11291">
        <ele>215.80000305176</ele>
        <time>2012-11-21T09:52:10.000Z</time>
      </trkpt>
      <trkpt lat="47.63922" lon="6.11305">
        <ele>215.80000305176</ele>
        <time>2012-11-21T09:52:12.000Z</time>
      </trkpt>
      <trkpt lat="47.63922" lon="6.11312">
        <ele>215.80000305176</ele>
        <time>2012-11-21T09:52:13.000Z</time>
      </trkpt>
      <trkpt lat="47.6392" lon="6.1134">
        <ele>215.80000305176</ele>
        <time>2012-11-21T09:52:17.000Z</time>
      </trkpt>
      <trkpt lat="47.63918" lon="6.11353">
        <ele>215.80000305176</ele>
        <time>2012-11-21T09:52:19.000Z</time>
      </trkpt>
      <trkpt lat="47.63913" lon="6.11374">
        <ele>215.80000305176</ele>
        <time>2012-11-21T09:52:22.000Z</time>
      </trkpt>
      <trkpt lat="47.63907" lon="6.11392">
        <ele>215.80000305176</ele>
        <time>2012-11-21T09:52:25.000Z</time>
      </trkpt>
      <trkpt lat="47.63888" lon="6.11441">
        <ele>215.80000305176</ele>
        <time>2012-11-21T09:52:33.000Z</time>
      </trkpt>
      <trkpt lat="47.63869" lon="6.1147">
        <ele>215.80000305176</ele>
        <time>2012-11-21T09:52:39.000Z</time>
      </trkpt>
      <trkpt lat="47.63847" lon="6.11493">
        <ele>215.80000305176</ele>
        <time>2012-11-21T09:52:46.000Z</time>
      </trkpt>
      <trkpt lat="47.63835" lon="6.11508">
        <ele>215.80000305176</ele>
        <time>2012-11-21T09:52:51.000Z</time>
      </trkpt>
      <trkpt lat="47.63825" lon="6.11529">
        <ele>215.80000305176</ele>
        <time>2012-11-21T09:52:58.000Z</time>
      </trkpt>
      <trkpt lat="47.63824" lon="6.11533">
        <ele>215.80000305176</ele>
        <time>2012-11-21T09:53:01.000Z</time>
      </trkpt>
      <trkpt lat="47.63824" lon="6.11534">
        <ele>215.80000305176</ele>
        <time>2012-11-21T09:59:53.000Z</time>
      </trkpt>
      <trkpt lat="47.6383" lon="6.11543">
        <ele>215.80000305176</ele>
        <time>2012-11-21T09:59:58.000Z</time>
      </trkpt>
      <trkpt lat="47.63838" lon="6.11565">
        <ele>215.80000305176</ele>
        <time>2012-11-21T10:00:04.000Z</time>
      </trkpt>
      <trkpt lat="47.63841" lon="6.11572">
        <ele>215.80000305176</ele>
        <time>2012-11-21T10:00:06.000Z</time>
      </trkpt>
      <trkpt lat="47.6385" lon="6.11592">
        <ele>215.80000305176</ele>
        <time>2012-11-21T10:00:11.000Z</time>
      </trkpt>
      <trkpt lat="47.63863" lon="6.11626">
        <ele>215.80000305176</ele>
        <time>2012-11-21T10:00:19.000Z</time>
      </trkpt>
      <trkpt lat="47.63879" lon="6.11668">
        <ele>215.80000305176</ele>
        <time>2012-11-21T10:00:28.000Z</time>
      </trkpt>
      <trkpt lat="47.63894" lon="6.11705">
        <ele>215.80000305176</ele>
        <time>2012-11-21T10:00:36.000Z</time>
      </trkpt>
      <trkpt lat="47.63913" lon="6.11746">
        <ele>215.80000305176</ele>
        <time>2012-11-21T10:00:45.000Z</time>
      </trkpt>
      <trkpt lat="47.63934" lon="6.11786">
        <ele>215.80000305176</ele>
        <time>2012-11-21T10:00:54.000Z</time>
      </trkpt>
      <trkpt lat="47.63953" lon="6.11828">
        <ele>215.80000305176</ele>
        <time>2012-11-21T10:01:03.000Z</time>
      </trkpt>
      <trkpt lat="47.63969" lon="6.11873">
        <ele>215.80000305176</ele>
        <time>2012-11-21T10:01:12.000Z</time>
      </trkpt>
      <trkpt lat="47.63983" lon="6.11924">
        <ele>215.80000305176</ele>
        <time>2012-11-21T10:01:22.000Z</time>
      </trkpt>
      <trkpt lat="47.63989" lon="6.11962">
        <ele>215.80000305176</ele>
        <time>2012-11-21T10:01:29.000Z</time>
      </trkpt>
      <trkpt lat="47.63989" lon="6.12011">
        <ele>215.80000305176</ele>
        <time>2012-11-21T10:01:38.000Z</time>
      </trkpt>
      <trkpt lat="47.63984" lon="6.12057">
        <ele>215.80000305176</ele>
        <time>2012-11-21T10:01:46.000Z</time>
      </trkpt>
      <trkpt lat="47.63975" lon="6.12096">
        <ele>215.80000305176</ele>
        <time>2012-11-21T10:01:53.000Z</time>
      </trkpt>
      <trkpt lat="47.63962" lon="6.12131">
        <ele>215.80000305176</ele>
        <time>2012-11-21T10:02:00.000Z</time>
      </trkpt>
      <trkpt lat="47.63946" lon="6.12162">
        <ele>215.80000305176</ele>
        <time>2012-11-21T10:02:07.000Z</time>
      </trkpt>
      <trkpt lat="47.6393" lon="6.12188">
        <ele>215.80000305176</ele>
        <time>2012-11-21T10:02:13.000Z</time>
      </trkpt>
      <trkpt lat="47.63923" lon="6.12195">
        <ele>215.80000305176</ele>
        <time>2012-11-21T10:02:15.000Z</time>
      </trkpt>
      <trkpt lat="47.63894" lon="6.12224">
        <ele>215.80000305176</ele>
        <time>2012-11-21T10:02:23.000Z</time>
      </trkpt>
      <trkpt lat="47.63863" lon="6.12242">
        <ele>215.80000305176</ele>
        <time>2012-11-21T10:02:31.000Z</time>
      </trkpt>
      <trkpt lat="47.63835" lon="6.12253">
        <ele>215.80000305176</ele>
        <time>2012-11-21T10:02:38.000Z</time>
      </trkpt>
      <trkpt lat="47.63812" lon="6.12261">
        <ele>215.80000305176</ele>
        <time>2012-11-21T10:02:44.000Z</time>
      </trkpt>
      <trkpt lat="47.63785" lon="6.12268">
        <ele>215.80000305176</ele>
        <time>2012-11-21T10:02:51.000Z</time>
      </trkpt>
      <trkpt lat="47.63774" lon="6.12272">
        <ele>215.80000305176</ele>
        <time>2012-11-21T10:02:54.000Z</time>
      </trkpt>
      <trkpt lat="47.63762" lon="6.12276">
        <ele>215.80000305176</ele>
        <time>2012-11-21T10:02:57.000Z</time>
      </trkpt>
      <trkpt lat="47.63732" lon="6.12281">
        <ele>215.80000305176</ele>
        <time>2012-11-21T10:03:04.000Z</time>
      </trkpt>
      <trkpt lat="47.63697" lon="6.12285">
        <ele>215.80000305176</ele>
        <time>2012-11-21T10:03:12.000Z</time>
      </trkpt>
      <trkpt lat="47.63693" lon="6.12285">
        <ele>215.80000305176</ele>
        <time>2012-11-21T10:03:13.000Z</time>
      </trkpt>
      <trkpt lat="47.63676" lon="6.12283">
        <ele>215.80000305176</ele>
        <time>2012-11-21T10:03:17.000Z</time>
      </trkpt>
      <trkpt lat="47.63642" lon="6.1228">
        <ele>215.80000305176</ele>
        <time>2012-11-21T10:03:25.000Z</time>
      </trkpt>
      <trkpt lat="47.63608" lon="6.12282">
        <ele>215.80000305176</ele>
        <time>2012-11-21T10:03:33.000Z</time>
      </trkpt>
      <trkpt lat="47.6358" lon="6.12292">
        <ele>215.80000305176</ele>
        <time>2012-11-21T10:03:40.000Z</time>
      </trkpt>
      <trkpt lat="47.63576" lon="6.12294">
        <ele>215.80000305176</ele>
        <time>2012-11-21T10:03:41.000Z</time>
      </trkpt>
      <trkpt lat="47.63545" lon="6.12316">
        <ele>215.80000305176</ele>
        <time>2012-11-21T10:03:49.000Z</time>
      </trkpt>
      <trkpt lat="47.63515" lon="6.12327">
        <ele>215.80000305176</ele>
        <time>2012-11-21T10:03:56.000Z</time>
      </trkpt>
      <trkpt lat="47.63486" lon="6.12329">
        <ele>215.80000305176</ele>
        <time>2012-11-21T10:04:03.000Z</time>
      </trkpt>
      <trkpt lat="47.63456" lon="6.12328">
        <ele>215.80000305176</ele>
        <time>2012-11-21T10:04:10.000Z</time>
      </trkpt>
      <trkpt lat="47.63427" lon="6.12331">
        <ele>215.80000305176</ele>
        <time>2012-11-21T10:04:17.000Z</time>
      </trkpt>
      <trkpt lat="47.63423" lon="6.12332">
        <ele>215.80000305176</ele>
        <time>2012-11-21T10:04:18.000Z</time>
      </trkpt>
      <trkpt lat="47.63399" lon="6.12336">
        <ele>215.80000305176</ele>
        <time>2012-11-21T10:04:24.000Z</time>
      </trkpt>
      <trkpt lat="47.63362" lon="6.12342">
        <ele>215.80000305176</ele>
        <time>2012-11-21T10:04:33.000Z</time>
      </trkpt>
      <trkpt lat="47.63339" lon="6.12348">
        <ele>215.80000305176</ele>
        <time>2012-11-21T10:04:39.000Z</time>
      </trkpt>
      <trkpt lat="47.63314" lon="6.12363">
        <ele>215.80000305176</ele>
        <time>2012-11-21T10:04:46.000Z</time>
      </trkpt>
      <trkpt lat="47.63299" lon="6.12389">
        <ele>215.80000305176</ele>
        <time>2012-11-21T10:04:52.000Z</time>
      </trkpt>
      <trkpt lat="47.63288" lon="6.12419">
        <ele>215.80000305176</ele>
        <time>2012-11-21T10:04:58.000Z</time>
      </trkpt>
      <trkpt lat="47.63272" lon="6.12462">
        <ele>215.80000305176</ele>
        <time>2012-11-21T10:05:06.000Z</time>
      </trkpt>
      <trkpt lat="47.63263" lon="6.12502">
        <ele>215.80000305176</ele>
        <time>2012-11-21T10:05:13.000Z</time>
      </trkpt>
      <trkpt lat="47.63256" lon="6.12548">
        <ele>215.80000305176</ele>
        <time>2012-11-21T10:05:21.000Z</time>
      </trkpt>
      <trkpt lat="47.63252" lon="6.12587">
        <ele>215.80000305176</ele>
        <time>2012-11-21T10:05:28.000Z</time>
      </trkpt>
      <trkpt lat="47.63247" lon="6.12627">
        <ele>215.80000305176</ele>
        <time>2012-11-21T10:05:35.000Z</time>
      </trkpt>
      <trkpt lat="47.63232" lon="6.12676">
        <ele>215.80000305176</ele>
        <time>2012-11-21T10:05:44.000Z</time>
      </trkpt>
      <trkpt lat="47.63224" lon="6.12691">
        <ele>215.80000305176</ele>
        <time>2012-11-21T10:05:47.000Z</time>
      </trkpt>
      <trkpt lat="47.6321" lon="6.12714">
        <ele>215.80000305176</ele>
        <time>2012-11-21T10:05:52.000Z</time>
      </trkpt>
      <trkpt lat="47.63207" lon="6.12718">
        <ele>215.80000305176</ele>
        <time>2012-11-21T10:05:53.000Z</time>
      </trkpt>
      <trkpt lat="47.6319" lon="6.12742">
        <ele>215.80000305176</ele>
        <time>2012-11-21T10:05:59.000Z</time>
      </trkpt>
      <trkpt lat="47.63181" lon="6.12764">
        <ele>215.80000305176</ele>
        <time>2012-11-21T10:06:04.000Z</time>
      </trkpt>
      <trkpt lat="47.63178" lon="6.12785">
        <ele>215.80000305176</ele>
        <time>2012-11-21T10:06:09.000Z</time>
      </trkpt>
      <trkpt lat="47.6318" lon="6.12792">
        <ele>215.80000305176</ele>
        <time>2012-11-21T10:06:13.000Z</time>
      </trkpt>
      <trkpt lat="47.63181" lon="6.12803">
        <ele>215.80000305176</ele>
        <time>2012-11-21T10:06:58.000Z</time>
      </trkpt>
      <trkpt lat="47.63182" lon="6.12812">
        <ele>215.80000305176</ele>
        <time>2012-11-21T10:07:01.000Z</time>
      </trkpt>
      <trkpt lat="47.63188" lon="6.12836">
        <ele>215.80000305176</ele>
        <time>2012-11-21T10:07:07.000Z</time>
      </trkpt>
      <trkpt lat="47.63202" lon="6.1286">
        <ele>215.80000305176</ele>
        <time>2012-11-21T10:07:13.000Z</time>
      </trkpt>
      <trkpt lat="47.63221" lon="6.12877">
        <ele>215.80000305176</ele>
        <time>2012-11-21T10:07:19.000Z</time>
      </trkpt>
      <trkpt lat="47.63234" lon="6.12885">
        <ele>215.80000305176</ele>
        <time>2012-11-21T10:07:24.000Z</time>
      </trkpt>
      <trkpt lat="47.6324" lon="6.12889">
        <ele>215.80000305176</ele>
        <time>2012-11-21T10:07:29.000Z</time>
      </trkpt>
      <trkpt lat="47.63242" lon="6.12893">
        <ele>215.80000305176</ele>
        <time>2012-11-21T10:07:54.000Z</time>
      </trkpt>
      <trkpt lat="47.63245" lon="6.12899">
        <ele>215.80000305176</ele>
        <time>2012-11-21T10:07:56.000Z</time>
      </trkpt>
      <trkpt lat="47.63252" lon="6.12919">
        <ele>215.80000305176</ele>
        <time>2012-11-21T10:08:01.000Z</time>
      </trkpt>
      <trkpt lat="47.63254" lon="6.12951">
        <ele>215.80000305176</ele>
        <time>2012-11-21T10:08:07.000Z</time>
      </trkpt>
      <trkpt lat="47.6325" lon="6.12975">
        <ele>215.80000305176</ele>
        <time>2012-11-21T10:08:12.000Z</time>
      </trkpt>
      <trkpt lat="47.63239" lon="6.13001">
        <ele>215.80000305176</ele>
        <time>2012-11-21T10:08:18.000Z</time>
      </trkpt>
      <trkpt lat="47.63224" lon="6.13018">
        <ele>215.80000305176</ele>
        <time>2012-11-21T10:08:23.000Z</time>
      </trkpt>
      <trkpt lat="47.63218" lon="6.13037">
        <ele>215.80000305176</ele>
        <time>2012-11-21T10:08:27.000Z</time>
      </trkpt>
      <trkpt lat="47.63221" lon="6.13056">
        <ele>215.80000305176</ele>
        <time>2012-11-21T10:08:31.000Z</time>
      </trkpt>
      <trkpt lat="47.63229" lon="6.13069">
        <ele>215.80000305176</ele>
        <time>2012-11-21T10:08:35.000Z</time>
      </trkpt>
      <trkpt lat="47.63232" lon="6.13069">
        <ele>215.80000305176</ele>
        <time>2012-11-21T10:08:36.000Z</time>
      </trkpt>
      <trkpt lat="47.63241" lon="6.13063">
        <ele>215.80000305176</ele>
        <time>2012-11-21T10:08:39.000Z</time>
      </trkpt>
      <trkpt lat="47.63244" lon="6.1306">
        <ele>215.80000305176</ele>
        <time>2012-11-21T10:08:40.000Z</time>
      </trkpt>
      <trkpt lat="47.63261" lon="6.13054">
        <ele>215.80000305176</ele>
        <time>2012-11-21T10:08:45.000Z</time>
      </trkpt>
      <trkpt lat="47.6328" lon="6.13063">
        <ele>215.80000305176</ele>
        <time>2012-11-21T10:08:51.000Z</time>
      </trkpt>
      <trkpt lat="47.63286" lon="6.13079">
        <ele>215.80000305176</ele>
        <time>2012-11-21T10:08:55.000Z</time>
      </trkpt>
      <trkpt lat="47.63295" lon="6.13104">
        <ele>215.80000305176</ele>
        <time>2012-11-21T10:09:02.000Z</time>
      </trkpt>
      <trkpt lat="47.63302" lon="6.13114">
        <ele>215.80000305176</ele>
        <time>2012-11-21T10:09:05.000Z</time>
      </trkpt>
      <trkpt lat="47.63306" lon="6.13114">
        <ele>215.80000305176</ele>
        <time>2012-11-21T10:09:06.000Z</time>
      </trkpt>
      <trkpt lat="47.63314" lon="6.13104">
        <ele>215.80000305176</ele>
        <time>2012-11-21T10:09:09.000Z</time>
      </trkpt>
      <trkpt lat="47.63321" lon="6.13098">
        <ele>215.80000305176</ele>
        <time>2012-11-21T10:09:11.000Z</time>
      </trkpt>
      <trkpt lat="47.63325" lon="6.13095">
        <ele>215.80000305176</ele>
        <time>2012-11-21T10:09:12.000Z</time>
      </trkpt>
      <trkpt lat="47.63332" lon="6.13087">
        <ele>215.80000305176</ele>
        <time>2012-11-21T10:09:14.000Z</time>
      </trkpt>
      <trkpt lat="47.6334" lon="6.13081">
        <ele>215.80000305176</ele>
        <time>2012-11-21T10:09:16.000Z</time>
      </trkpt>
      <trkpt lat="47.63357" lon="6.13069">
        <ele>215.80000305176</ele>
        <time>2012-11-21T10:09:20.000Z</time>
      </trkpt>
      <trkpt lat="47.63368" lon="6.13062">
        <ele>215.80000305176</ele>
        <time>2012-11-21T10:09:23.000Z</time>
      </trkpt>
      <trkpt lat="47.6338" lon="6.13054">
        <ele>215.80000305176</ele>
        <time>2012-11-21T10:09:26.000Z</time>
      </trkpt>
      <trkpt lat="47.63413" lon="6.13039">
        <ele>215.80000305176</ele>
        <time>2012-11-21T10:09:33.000Z</time>
      </trkpt>
      <trkpt lat="47.63445" lon="6.13034">
        <ele>215.80000305176</ele>
        <time>2012-11-21T10:09:39.000Z</time>
      </trkpt>
      <trkpt lat="47.63459" lon="6.13028">
        <ele>215.80000305176</ele>
        <time>2012-11-21T10:09:42.000Z</time>
      </trkpt>
      <trkpt lat="47.63473" lon="6.13018">
        <ele>215.80000305176</ele>
        <time>2012-11-21T10:09:45.000Z</time>
      </trkpt>
      <trkpt lat="47.63507" lon="6.1299">
        <ele>215.80000305176</ele>
        <time>2012-11-21T10:09:53.000Z</time>
      </trkpt>
      <trkpt lat="47.63536" lon="6.12956">
        <ele>215.80000305176</ele>
        <time>2012-11-21T10:10:01.000Z</time>
      </trkpt>
      <trkpt lat="47.63544" lon="6.1294">
        <ele>215.80000305176</ele>
        <time>2012-11-21T10:10:04.000Z</time>
      </trkpt>
      <trkpt lat="47.63549" lon="6.12923">
        <ele>215.80000305176</ele>
        <time>2012-11-21T10:10:07.000Z</time>
      </trkpt>
      <trkpt lat="47.63561" lon="6.1288">
        <ele>215.80000305176</ele>
        <time>2012-11-21T10:10:15.000Z</time>
      </trkpt>
      <trkpt lat="47.63563" lon="6.12874">
        <ele>215.80000305176</ele>
        <time>2012-11-21T10:10:16.000Z</time>
      </trkpt>
      <trkpt lat="47.63568" lon="6.12852">
        <ele>215.80000305176</ele>
        <time>2012-11-21T10:10:20.000Z</time>
      </trkpt>
      <trkpt lat="47.63568" lon="6.12846">
        <ele>215.80000305176</ele>
        <time>2012-11-21T10:10:21.000Z</time>
      </trkpt>
      <trkpt lat="47.63578" lon="6.12814">
        <ele>215.80000305176</ele>
        <time>2012-11-21T10:10:27.000Z</time>
      </trkpt>
      <trkpt lat="47.63592" lon="6.12805">
        <ele>215.80000305176</ele>
        <time>2012-11-21T10:10:31.000Z</time>
      </trkpt>
      <trkpt lat="47.63617" lon="6.12804">
        <ele>215.80000305176</ele>
        <time>2012-11-21T10:10:37.000Z</time>
      </trkpt>
      <trkpt lat="47.63648" lon="6.12801">
        <ele>215.80000305176</ele>
        <time>2012-11-21T10:10:44.000Z</time>
      </trkpt>
      <trkpt lat="47.63658" lon="6.128">
        <ele>215.80000305176</ele>
        <time>2012-11-21T10:10:46.000Z</time>
      </trkpt>
      <trkpt lat="47.63668" lon="6.12798">
        <ele>215.80000305176</ele>
        <time>2012-11-21T10:10:48.000Z</time>
      </trkpt>
      <trkpt lat="47.63672" lon="6.12797">
        <ele>215.80000305176</ele>
        <time>2012-11-21T10:10:49.000Z</time>
      </trkpt>
      <trkpt lat="47.63703" lon="6.12792">
        <ele>215.80000305176</ele>
        <time>2012-11-21T10:10:55.000Z</time>
      </trkpt>
      <trkpt lat="47.63745" lon="6.12786">
        <ele>215.80000305176</ele>
        <time>2012-11-21T10:11:03.000Z</time>
      </trkpt>
      <trkpt lat="47.63776" lon="6.12781">
        <ele>215.80000305176</ele>
        <time>2012-11-21T10:11:10.000Z</time>
      </trkpt>
      <trkpt lat="47.6378" lon="6.1278">
        <ele>215.80000305176</ele>
        <time>2012-11-21T10:11:11.000Z</time>
      </trkpt>
      <trkpt lat="47.63807" lon="6.12776">
        <ele>215.80000305176</ele>
        <time>2012-11-21T10:11:18.000Z</time>
      </trkpt>
      <trkpt lat="47.6384" lon="6.12769">
        <ele>215.80000305176</ele>
        <time>2012-11-21T10:11:26.000Z</time>
      </trkpt>
      <trkpt lat="47.63855" lon="6.12767">
        <ele>215.80000305176</ele>
        <time>2012-11-21T10:11:30.000Z</time>
      </trkpt>
      <trkpt lat="47.63858" lon="6.12766">
        <ele>215.80000305176</ele>
        <time>2012-11-21T10:11:31.000Z</time>
      </trkpt>
      <trkpt lat="47.63888" lon="6.12761">
        <ele>215.80000305176</ele>
        <time>2012-11-21T10:11:39.000Z</time>
      </trkpt>
      <trkpt lat="47.63898" lon="6.12767">
        <ele>215.80000305176</ele>
        <time>2012-11-21T10:11:42.000Z</time>
      </trkpt>
      <trkpt lat="47.639" lon="6.12772">
        <ele>215.80000305176</ele>
        <time>2012-11-21T10:11:43.000Z</time>
      </trkpt>
      <trkpt lat="47.63901" lon="6.12795">
        <ele>215.80000305176</ele>
        <time>2012-11-21T10:11:47.000Z</time>
      </trkpt>
      <trkpt lat="47.63902" lon="6.12801">
        <ele>215.80000305176</ele>
        <time>2012-11-21T10:11:48.000Z</time>
      </trkpt>
      <trkpt lat="47.63902" lon="6.12807">
        <ele>215.19999694824</ele>
        <time>2012-11-21T10:11:49.000Z</time>
      </trkpt>
      <trkpt lat="47.63903" lon="6.12813">
        <ele>215</ele>
        <time>2012-11-21T10:11:50.000Z</time>
      </trkpt>
      <trkpt lat="47.63904" lon="6.12819">
        <ele>214.60000610352</ele>
        <time>2012-11-21T10:11:51.000Z</time>
      </trkpt>
      <trkpt lat="47.63904" lon="6.12825">
        <ele>214</ele>
        <time>2012-11-21T10:11:52.000Z</time>
      </trkpt>
      <trkpt lat="47.63905" lon="6.12831">
        <ele>213.80000305176</ele>
        <time>2012-11-21T10:11:53.000Z</time>
      </trkpt>
      <trkpt lat="47.63905" lon="6.12836">
        <ele>213.80000305176</ele>
        <time>2012-11-21T10:11:54.000Z</time>
      </trkpt>
      <trkpt lat="47.63908" lon="6.12864">
        <ele>213.80000305176</ele>
        <time>2012-11-21T10:12:00.000Z</time>
      </trkpt>
      <trkpt lat="47.63911" lon="6.12899">
        <ele>213.80000305176</ele>
        <time>2012-11-21T10:12:07.000Z</time>
      </trkpt>
      <trkpt lat="47.63915" lon="6.12938">
        <ele>213.80000305176</ele>
        <time>2012-11-21T10:12:14.000Z</time>
      </trkpt>
      <trkpt lat="47.63918" lon="6.12978">
        <ele>213.80000305176</ele>
        <time>2012-11-21T10:12:21.000Z</time>
      </trkpt>
      <trkpt lat="47.63923" lon="6.13027">
        <ele>213.80000305176</ele>
        <time>2012-11-21T10:12:29.000Z</time>
      </trkpt>
      <trkpt lat="47.63926" lon="6.13056">
        <ele>213.80000305176</ele>
        <time>2012-11-21T10:12:33.000Z</time>
      </trkpt>
      <trkpt lat="47.63928" lon="6.13068">
        <ele>213.80000305176</ele>
        <time>2012-11-21T10:12:35.000Z</time>
      </trkpt>
      <trkpt lat="47.63938" lon="6.13074">
        <ele>213.80000305176</ele>
        <time>2012-11-21T10:12:38.000Z</time>
      </trkpt>
      <trkpt lat="47.63955" lon="6.1307">
        <ele>213.80000305176</ele>
        <time>2012-11-21T10:12:42.000Z</time>
      </trkpt>
      <trkpt lat="47.6396" lon="6.13069">
        <ele>213.80000305176</ele>
        <time>2012-11-21T10:12:43.000Z</time>
      </trkpt>
      <trkpt lat="47.6397" lon="6.13066">
        <ele>213.80000305176</ele>
        <time>2012-11-21T10:12:45.000Z</time>
      </trkpt>
      <trkpt lat="47.6398" lon="6.13063">
        <ele>213.80000305176</ele>
        <time>2012-11-21T10:12:47.000Z</time>
      </trkpt>
      <trkpt lat="47.64025" lon="6.13051">
        <ele>213.80000305176</ele>
        <time>2012-11-21T10:12:56.000Z</time>
      </trkpt>
      <trkpt lat="47.64058" lon="6.13042">
        <ele>213.80000305176</ele>
        <time>2012-11-21T10:13:03.000Z</time>
      </trkpt>
      <trkpt lat="47.64089" lon="6.13031">
        <ele>213.80000305176</ele>
        <time>2012-11-21T10:13:09.000Z</time>
      </trkpt>
      <trkpt lat="47.64118" lon="6.13023">
        <ele>213.80000305176</ele>
        <time>2012-11-21T10:13:15.000Z</time>
      </trkpt>
      <trkpt lat="47.64126" lon="6.13021">
        <ele>213.80000305176</ele>
        <time>2012-11-21T10:13:17.000Z</time>
      </trkpt>
      <trkpt lat="47.64144" lon="6.13015">
        <ele>213.80000305176</ele>
        <time>2012-11-21T10:13:21.000Z</time>
      </trkpt>
      <trkpt lat="47.64179" lon="6.13005">
        <ele>213.80000305176</ele>
        <time>2012-11-21T10:13:29.000Z</time>
      </trkpt>
      <trkpt lat="47.64205" lon="6.12999">
        <ele>213.80000305176</ele>
        <time>2012-11-21T10:13:35.000Z</time>
      </trkpt>
      <trkpt lat="47.64214" lon="6.12998">
        <ele>213.80000305176</ele>
        <time>2012-11-21T10:13:37.000Z</time>
      </trkpt>
      <trkpt lat="47.64222" lon="6.12996">
        <ele>213.80000305176</ele>
        <time>2012-11-21T10:13:39.000Z</time>
      </trkpt>
      <trkpt lat="47.6424" lon="6.12991">
        <ele>213.80000305176</ele>
        <time>2012-11-21T10:13:43.000Z</time>
      </trkpt>
      <trkpt lat="47.64271" lon="6.12982">
        <ele>213.80000305176</ele>
        <time>2012-11-21T10:13:50.000Z</time>
      </trkpt>
      <trkpt lat="47.64303" lon="6.12974">
        <ele>213.80000305176</ele>
        <time>2012-11-21T10:13:57.000Z</time>
      </trkpt>
      <trkpt lat="47.64333" lon="6.12964">
        <ele>213.80000305176</ele>
        <time>2012-11-21T10:14:04.000Z</time>
      </trkpt>
      <trkpt lat="47.64362" lon="6.12955">
        <ele>213.80000305176</ele>
        <time>2012-11-21T10:14:11.000Z</time>
      </trkpt>
      <trkpt lat="47.64404" lon="6.12943">
        <ele>213.80000305176</ele>
        <time>2012-11-21T10:14:21.000Z</time>
      </trkpt>
      <trkpt lat="47.64436" lon="6.12933">
        <ele>213.80000305176</ele>
        <time>2012-11-21T10:14:29.000Z</time>
      </trkpt>
      <trkpt lat="47.6444" lon="6.12932">
        <ele>213.80000305176</ele>
        <time>2012-11-21T10:14:30.000Z</time>
      </trkpt>
      <trkpt lat="47.64461" lon="6.12924">
        <ele>213.80000305176</ele>
        <time>2012-11-21T10:14:35.000Z</time>
      </trkpt>
      <trkpt lat="47.64477" lon="6.12922">
        <ele>213.80000305176</ele>
        <time>2012-11-21T10:14:39.000Z</time>
      </trkpt>
      <trkpt lat="47.64481" lon="6.12926">
        <ele>213.80000305176</ele>
        <time>2012-11-21T10:14:40.000Z</time>
      </trkpt>
      <trkpt lat="47.64496" lon="6.12945">
        <ele>213.80000305176</ele>
        <time>2012-11-21T10:14:44.000Z</time>
      </trkpt>
      <trkpt lat="47.6451" lon="6.12954">
        <ele>213.80000305176</ele>
        <time>2012-11-21T10:14:47.000Z</time>
      </trkpt>
      <trkpt lat="47.64515" lon="6.12955">
        <ele>213.80000305176</ele>
        <time>2012-11-21T10:14:48.000Z</time>
      </trkpt>
      <trkpt lat="47.6452" lon="6.12957">
        <ele>213.80000305176</ele>
        <time>2012-11-21T10:14:49.000Z</time>
      </trkpt>
      <trkpt lat="47.64535" lon="6.12964">
        <ele>213.80000305176</ele>
        <time>2012-11-21T10:14:52.000Z</time>
      </trkpt>
      <trkpt lat="47.64548" lon="6.12976">
        <ele>213.80000305176</ele>
        <time>2012-11-21T10:14:55.000Z</time>
      </trkpt>
      <trkpt lat="47.6456" lon="6.12988">
        <ele>213.80000305176</ele>
        <time>2012-11-21T10:14:58.000Z</time>
      </trkpt>
      <trkpt lat="47.64569" lon="6.1299">
        <ele>213.80000305176</ele>
        <time>2012-11-21T10:15:00.000Z</time>
      </trkpt>
      <trkpt lat="47.64573" lon="6.12991">
        <ele>213.80000305176</ele>
        <time>2012-11-21T10:15:01.000Z</time>
      </trkpt>
      <trkpt lat="47.64582" lon="6.12988">
        <ele>214</ele>
        <time>2012-11-21T10:15:03.000Z</time>
      </trkpt>
      <trkpt lat="47.64587" lon="6.12985">
        <ele>214.60000610352</ele>
        <time>2012-11-21T10:15:04.000Z</time>
      </trkpt>
      <trkpt lat="47.64591" lon="6.12983">
        <ele>215</ele>
        <time>2012-11-21T10:15:05.000Z</time>
      </trkpt>
      <trkpt lat="47.64595" lon="6.1298">
        <ele>215.60000610352</ele>
        <time>2012-11-21T10:15:06.000Z</time>
      </trkpt>
      <trkpt lat="47.64599" lon="6.12977">
        <ele>216</ele>
        <time>2012-11-21T10:15:07.000Z</time>
      </trkpt>
      <trkpt lat="47.64623" lon="6.12962">
        <ele>216</ele>
        <time>2012-11-21T10:15:13.000Z</time>
      </trkpt>
      <trkpt lat="47.64639" lon="6.12951">
        <ele>216</ele>
        <time>2012-11-21T10:15:18.000Z</time>
      </trkpt>
      <trkpt lat="47.64654" lon="6.12942">
        <ele>216</ele>
        <time>2012-11-21T10:15:23.000Z</time>
      </trkpt>
      <trkpt lat="47.64669" lon="6.12932">
        <ele>216</ele>
        <time>2012-11-21T10:15:28.000Z</time>
      </trkpt>
      <trkpt lat="47.64687" lon="6.12918">
        <ele>216</ele>
        <time>2012-11-21T10:15:34.000Z</time>
      </trkpt>
      <trkpt lat="47.64704" lon="6.12908">
        <ele>216</ele>
        <time>2012-11-21T10:15:39.000Z</time>
      </trkpt>
      <trkpt lat="47.64723" lon="6.12895">
        <ele>216</ele>
        <time>2012-11-21T10:15:45.000Z</time>
      </trkpt>
      <trkpt lat="47.64727" lon="6.12894">
        <ele>216.19999694824</ele>
        <time>2012-11-21T10:15:46.000Z</time>
      </trkpt>
      <trkpt lat="47.6473" lon="6.12892">
        <ele>216.80000305176</ele>
        <time>2012-11-21T10:15:47.000Z</time>
      </trkpt>
      <trkpt lat="47.64733" lon="6.12889">
        <ele>217</ele>
        <time>2012-11-21T10:15:48.000Z</time>
      </trkpt>
      <trkpt lat="47.64736" lon="6.12887">
        <ele>217.60000610352</ele>
        <time>2012-11-21T10:15:49.000Z</time>
      </trkpt>
      <trkpt lat="47.64739" lon="6.12884">
        <ele>218</ele>
        <time>2012-11-21T10:15:50.000Z</time>
      </trkpt>
      <trkpt lat="47.64743" lon="6.12875">
        <ele>218</ele>
        <time>2012-11-21T10:15:52.000Z</time>
      </trkpt>
      <trkpt lat="47.64749" lon="6.1285">
        <ele>218</ele>
        <time>2012-11-21T10:15:57.000Z</time>
      </trkpt>
      <trkpt lat="47.6475" lon="6.12825">
        <ele>218</ele>
        <time>2012-11-21T10:16:02.000Z</time>
      </trkpt>
      <trkpt lat="47.64751" lon="6.1281">
        <ele>218.60000610352</ele>
        <time>2012-11-21T10:16:05.000Z</time>
      </trkpt>
      <trkpt lat="47.64752" lon="6.12805">
        <ele>219</ele>
        <time>2012-11-21T10:16:06.000Z</time>
      </trkpt>
      <trkpt lat="47.64753" lon="6.128">
        <ele>219.19999694824</ele>
        <time>2012-11-21T10:16:07.000Z</time>
      </trkpt>
      <trkpt lat="47.64753" lon="6.12795">
        <ele>219.80000305176</ele>
        <time>2012-11-21T10:16:08.000Z</time>
      </trkpt>
      <trkpt lat="47.64754" lon="6.12791">
        <ele>220</ele>
        <time>2012-11-21T10:16:09.000Z</time>
      </trkpt>
      <trkpt lat="47.64756" lon="6.12769">
        <ele>220</ele>
        <time>2012-11-21T10:16:14.000Z</time>
      </trkpt>
      <trkpt lat="47.6476" lon="6.12739">
        <ele>220</ele>
        <time>2012-11-21T10:16:21.000Z</time>
      </trkpt>
      <trkpt lat="47.64764" lon="6.1271">
        <ele>220.60000610352</ele>
        <time>2012-11-21T10:16:28.000Z</time>
      </trkpt>
      <trkpt lat="47.64765" lon="6.12706">
        <ele>221</ele>
        <time>2012-11-21T10:16:29.000Z</time>
      </trkpt>
      <trkpt lat="47.64766" lon="6.12701">
        <ele>221.19999694824</ele>
        <time>2012-11-21T10:16:30.000Z</time>
      </trkpt>
      <trkpt lat="47.64766" lon="6.12697">
        <ele>222</ele>
        <time>2012-11-21T10:16:31.000Z</time>
      </trkpt>
      <trkpt lat="47.64767" lon="6.12692">
        <ele>222.19999694824</ele>
        <time>2012-11-21T10:16:32.000Z</time>
      </trkpt>
      <trkpt lat="47.64771" lon="6.12675">
        <ele>222.19999694824</ele>
        <time>2012-11-21T10:16:36.000Z</time>
      </trkpt>
      <trkpt lat="47.64777" lon="6.12643">
        <ele>222.19999694824</ele>
        <time>2012-11-21T10:16:43.000Z</time>
      </trkpt>
      <trkpt lat="47.64784" lon="6.12615">
        <ele>222.19999694824</ele>
        <time>2012-11-21T10:16:49.000Z</time>
      </trkpt>
      <trkpt lat="47.64791" lon="6.12585">
        <ele>222.19999694824</ele>
        <time>2012-11-21T10:16:55.000Z</time>
      </trkpt>
      <trkpt lat="47.64793" lon="6.12572">
        <ele>222.19999694824</ele>
        <time>2012-11-21T10:16:57.000Z</time>
      </trkpt>
      <trkpt lat="47.64793" lon="6.1255">
        <ele>222.19999694824</ele>
        <time>2012-11-21T10:17:00.000Z</time>
      </trkpt>
      <trkpt lat="47.64783" lon="6.12531">
        <ele>222.19999694824</ele>
        <time>2012-11-21T10:17:03.000Z</time>
      </trkpt>
      <trkpt lat="47.64775" lon="6.12523">
        <ele>222.19999694824</ele>
        <time>2012-11-21T10:17:05.000Z</time>
      </trkpt>
      <trkpt lat="47.64771" lon="6.1252">
        <ele>222.19999694824</ele>
        <time>2012-11-21T10:17:06.000Z</time>
      </trkpt>
      <trkpt lat="47.64766" lon="6.12517">
        <ele>222.19999694824</ele>
        <time>2012-11-21T10:17:07.000Z</time>
      </trkpt>
      <trkpt lat="47.64757" lon="6.12502">
        <ele>222.19999694824</ele>
        <time>2012-11-21T10:17:11.000Z</time>
      </trkpt>
      <trkpt lat="47.64759" lon="6.12493">
        <ele>222.19999694824</ele>
        <time>2012-11-21T10:17:14.000Z</time>
      </trkpt>
      <trkpt lat="47.64763" lon="6.12493">
        <ele>222.19999694824</ele>
        <time>2012-11-21T10:17:17.000Z</time>
      </trkpt>
      <trkpt lat="47.64763" lon="6.12493">
        <ele>222.19999694824</ele>
        <time>2012-11-21T10:17:18.000Z</time>
      </trkpt>
      <trkpt lat="47.64765" lon="6.12493">
        <ele>222.19999694824</ele>
        <time>2012-11-21T10:17:41.000Z</time>
      </trkpt>
      <trkpt lat="47.64768" lon="6.12493">
        <ele>222.19999694824</ele>
        <time>2012-11-21T10:17:43.000Z</time>
      </trkpt>
      <trkpt lat="47.64778" lon="6.12505">
        <ele>222.19999694824</ele>
        <time>2012-11-21T10:17:48.000Z</time>
      </trkpt>
      <trkpt lat="47.64794" lon="6.12522">
        <ele>222.19999694824</ele>
        <time>2012-11-21T10:17:54.000Z</time>
      </trkpt>
      <trkpt lat="47.64803" lon="6.12533">
        <ele>222.80000305176</ele>
        <time>2012-11-21T10:17:58.000Z</time>
      </trkpt>
      <trkpt lat="47.64805" lon="6.12535">
        <ele>223</ele>
        <time>2012-11-21T10:17:59.000Z</time>
      </trkpt>
      <trkpt lat="47.64808" lon="6.12537">
        <ele>223.60000610352</ele>
        <time>2012-11-21T10:18:00.000Z</time>
      </trkpt>
      <trkpt lat="47.6481" lon="6.1254">
        <ele>224</ele>
        <time>2012-11-21T10:18:01.000Z</time>
      </trkpt>
      <trkpt lat="47.64813" lon="6.12542">
        <ele>224.19999694824</ele>
        <time>2012-11-21T10:18:02.000Z</time>
      </trkpt>
      <trkpt lat="47.64828" lon="6.12558">
        <ele>224.19999694824</ele>
        <time>2012-11-21T10:18:08.000Z</time>
      </trkpt>
      <trkpt lat="47.64849" lon="6.12578">
        <ele>224.19999694824</ele>
        <time>2012-11-21T10:18:15.000Z</time>
      </trkpt>
      <trkpt lat="47.64869" lon="6.12598">
        <ele>224.19999694824</ele>
        <time>2012-11-21T10:18:20.000Z</time>
      </trkpt>
      <trkpt lat="47.6489" lon="6.12619">
        <ele>224</ele>
        <time>2012-11-21T10:18:24.000Z</time>
      </trkpt>
      <trkpt lat="47.64896" lon="6.12626">
        <ele>223.60000610352</ele>
        <time>2012-11-21T10:18:25.000Z</time>
      </trkpt>
      <trkpt lat="47.64903" lon="6.12633">
        <ele>223</ele>
        <time>2012-11-21T10:18:26.000Z</time>
      </trkpt>
      <trkpt lat="47.6491" lon="6.12639">
        <ele>222.60000610352</ele>
        <time>2012-11-21T10:18:27.000Z</time>
      </trkpt>
      <trkpt lat="47.64917" lon="6.12644">
        <ele>222</ele>
        <time>2012-11-21T10:18:28.000Z</time>
      </trkpt>
      <trkpt lat="47.64924" lon="6.12646">
        <ele>222</ele>
        <time>2012-11-21T10:18:29.000Z</time>
      </trkpt>
      <trkpt lat="47.64944" lon="6.12641">
        <ele>222</ele>
        <time>2012-11-21T10:18:32.000Z</time>
      </trkpt>
      <trkpt lat="47.64951" lon="6.12638">
        <ele>222</ele>
        <time>2012-11-21T10:18:33.000Z</time>
      </trkpt>
      <trkpt lat="47.64962" lon="6.12634">
        <ele>222</ele>
        <time>2012-11-21T10:18:35.000Z</time>
      </trkpt>
      <trkpt lat="47.64967" lon="6.12635">
        <ele>222</ele>
        <time>2012-11-21T10:18:36.000Z</time>
      </trkpt>
      <trkpt lat="47.64986" lon="6.12628">
        <ele>222</ele>
        <time>2012-11-21T10:18:40.000Z</time>
      </trkpt>
      <trkpt lat="47.64994" lon="6.12624">
        <ele>222</ele>
        <time>2012-11-21T10:18:42.000Z</time>
      </trkpt>
      <trkpt lat="47.65006" lon="6.12616">
        <ele>222</ele>
        <time>2012-11-21T10:18:45.000Z</time>
      </trkpt>
      <trkpt lat="47.65021" lon="6.12605">
        <ele>222</ele>
        <time>2012-11-21T10:18:49.000Z</time>
      </trkpt>
      <trkpt lat="47.65024" lon="6.126">
        <ele>222</ele>
        <time>2012-11-21T10:18:50.000Z</time>
      </trkpt>
      <trkpt lat="47.65033" lon="6.12587">
        <ele>222</ele>
        <time>2012-11-21T10:18:53.000Z</time>
      </trkpt>
      <trkpt lat="47.65035" lon="6.12583">
        <ele>222</ele>
        <time>2012-11-21T10:18:54.000Z</time>
      </trkpt>
      <trkpt lat="47.6506" lon="6.12545">
        <ele>222</ele>
        <time>2012-11-21T10:19:03.000Z</time>
      </trkpt>
      <trkpt lat="47.65082" lon="6.12518">
        <ele>222</ele>
        <time>2012-11-21T10:19:11.000Z</time>
      </trkpt>
      <trkpt lat="47.651" lon="6.12503">
        <ele>222</ele>
        <time>2012-11-21T10:19:16.000Z</time>
      </trkpt>
      <trkpt lat="47.65111" lon="6.12487">
        <ele>222</ele>
        <time>2012-11-21T10:19:20.000Z</time>
      </trkpt>
      <trkpt lat="47.65137" lon="6.12444">
        <ele>222</ele>
        <time>2012-11-21T10:19:31.000Z</time>
      </trkpt>
      <trkpt lat="47.65146" lon="6.12428">
        <ele>222.60000610352</ele>
        <time>2012-11-21T10:19:35.000Z</time>
      </trkpt>
      <trkpt lat="47.65148" lon="6.12425">
        <ele>223</ele>
        <time>2012-11-21T10:19:36.000Z</time>
      </trkpt>
      <trkpt lat="47.6515" lon="6.12421">
        <ele>223.60000610352</ele>
        <time>2012-11-21T10:19:37.000Z</time>
      </trkpt>
      <trkpt lat="47.65152" lon="6.12418">
        <ele>224</ele>
        <time>2012-11-21T10:19:38.000Z</time>
      </trkpt>
      <trkpt lat="47.65154" lon="6.12413">
        <ele>224.19999694824</ele>
        <time>2012-11-21T10:19:39.000Z</time>
      </trkpt>
      <trkpt lat="47.65156" lon="6.12404">
        <ele>224.19999694824</ele>
        <time>2012-11-21T10:19:41.000Z</time>
      </trkpt>
      <trkpt lat="47.65165" lon="6.12395">
        <ele>224.19999694824</ele>
        <time>2012-11-21T10:19:44.000Z</time>
      </trkpt>
      <trkpt lat="47.65175" lon="6.12374">
        <ele>224.19999694824</ele>
        <time>2012-11-21T10:19:49.000Z</time>
      </trkpt>
      <trkpt lat="47.6519" lon="6.12348">
        <ele>224.19999694824</ele>
        <time>2012-11-21T10:19:56.000Z</time>
      </trkpt>
      <trkpt lat="47.65201" lon="6.12326">
        <ele>224.19999694824</ele>
        <time>2012-11-21T10:20:02.000Z</time>
      </trkpt>
      <trkpt lat="47.65205" lon="6.12313">
        <ele>224.80000305176</ele>
        <time>2012-11-21T10:20:05.000Z</time>
      </trkpt>
      <trkpt lat="47.65207" lon="6.12309">
        <ele>225</ele>
        <time>2012-11-21T10:20:06.000Z</time>
      </trkpt>
      <trkpt lat="47.65208" lon="6.12305">
        <ele>225.60000610352</ele>
        <time>2012-11-21T10:20:07.000Z</time>
      </trkpt>
      <trkpt lat="47.6521" lon="6.12301">
        <ele>226</ele>
        <time>2012-11-21T10:20:08.000Z</time>
      </trkpt>
      <trkpt lat="47.65212" lon="6.12297">
        <ele>226.60000610352</ele>
        <time>2012-11-21T10:20:09.000Z</time>
      </trkpt>
      <trkpt lat="47.65224" lon="6.12265">
        <ele>226.60000610352</ele>
        <time>2012-11-21T10:20:16.000Z</time>
      </trkpt>
      <trkpt lat="47.65243" lon="6.12225">
        <ele>226.60000610352</ele>
        <time>2012-11-21T10:20:25.000Z</time>
      </trkpt>
      <trkpt lat="47.65259" lon="6.12193">
        <ele>226.60000610352</ele>
        <time>2012-11-21T10:20:33.000Z</time>
      </trkpt>
      <trkpt lat="47.65266" lon="6.12183">
        <ele>227</ele>
        <time>2012-11-21T10:20:36.000Z</time>
      </trkpt>
      <trkpt lat="47.65268" lon="6.12179">
        <ele>227.19999694824</ele>
        <time>2012-11-21T10:20:37.000Z</time>
      </trkpt>
      <trkpt lat="47.6527" lon="6.12177">
        <ele>227.80000305176</ele>
        <time>2012-11-21T10:20:38.000Z</time>
      </trkpt>
      <trkpt lat="47.65274" lon="6.12175">
        <ele>228</ele>
        <time>2012-11-21T10:20:39.000Z</time>
      </trkpt>
      <trkpt lat="47.65277" lon="6.12174">
        <ele>228.60000610352</ele>
        <time>2012-11-21T10:20:40.000Z</time>
      </trkpt>
      <trkpt lat="47.65295" lon="6.12167">
        <ele>228.60000610352</ele>
        <time>2012-11-21T10:20:46.000Z</time>
      </trkpt>
      <trkpt lat="47.65312" lon="6.12166">
        <ele>228.60000610352</ele>
        <time>2012-11-21T10:20:51.000Z</time>
      </trkpt>
      <trkpt lat="47.65323" lon="6.1216">
        <ele>228.60000610352</ele>
        <time>2012-11-21T10:20:55.000Z</time>
      </trkpt>
      <trkpt lat="47.65332" lon="6.1214">
        <ele>228.60000610352</ele>
        <time>2012-11-21T10:21:00.000Z</time>
      </trkpt>
      <trkpt lat="47.65348" lon="6.1212">
        <ele>228.60000610352</ele>
        <time>2012-11-21T10:21:07.000Z</time>
      </trkpt>
      <trkpt lat="47.65359" lon="6.12105">
        <ele>229.19999694824</ele>
        <time>2012-11-21T10:21:12.000Z</time>
      </trkpt>
      <trkpt lat="47.65361" lon="6.12101">
        <ele>229.80000305176</ele>
        <time>2012-11-21T10:21:13.000Z</time>
      </trkpt>
      <trkpt lat="47.65363" lon="6.12098">
        <ele>230</ele>
        <time>2012-11-21T10:21:14.000Z</time>
      </trkpt>
      <trkpt lat="47.65366" lon="6.12095">
        <ele>230.60000610352</ele>
        <time>2012-11-21T10:21:15.000Z</time>
      </trkpt>
      <trkpt lat="47.65381" lon="6.12075">
        <ele>231</ele>
        <time>2012-11-21T10:21:22.000Z</time>
      </trkpt>
      <trkpt lat="47.65383" lon="6.12073">
        <ele>231.19999694824</ele>
        <time>2012-11-21T10:21:23.000Z</time>
      </trkpt>
      <trkpt lat="47.65385" lon="6.12071">
        <ele>231.80000305176</ele>
        <time>2012-11-21T10:21:24.000Z</time>
      </trkpt>
      <trkpt lat="47.65387" lon="6.12068">
        <ele>232</ele>
        <time>2012-11-21T10:21:25.000Z</time>
      </trkpt>
      <trkpt lat="47.65389" lon="6.12066">
        <ele>232.60000610352</ele>
        <time>2012-11-21T10:21:26.000Z</time>
      </trkpt>
      <trkpt lat="47.65409" lon="6.12036">
        <ele>233.19999694824</ele>
        <time>2012-11-21T10:21:36.000Z</time>
      </trkpt>
      <trkpt lat="47.65411" lon="6.12033">
        <ele>234</ele>
        <time>2012-11-21T10:21:37.000Z</time>
      </trkpt>
      <trkpt lat="47.65413" lon="6.1203">
        <ele>234.19999694824</ele>
        <time>2012-11-21T10:21:38.000Z</time>
      </trkpt>
      <trkpt lat="47.65415" lon="6.12027">
        <ele>234.80000305176</ele>
        <time>2012-11-21T10:21:39.000Z</time>
      </trkpt>
      <trkpt lat="47.65428" lon="6.12005">
        <ele>234.80000305176</ele>
        <time>2012-11-21T10:21:46.000Z</time>
      </trkpt>
      <trkpt lat="47.6543" lon="6.12002">
        <ele>235</ele>
        <time>2012-11-21T10:21:47.000Z</time>
      </trkpt>
      <trkpt lat="47.65432" lon="6.11999">
        <ele>235.60000610352</ele>
        <time>2012-11-21T10:21:48.000Z</time>
      </trkpt>
      <trkpt lat="47.65434" lon="6.11996">
        <ele>236</ele>
        <time>2012-11-21T10:21:49.000Z</time>
      </trkpt>
      <trkpt lat="47.65435" lon="6.11992">
        <ele>236.19999694824</ele>
        <time>2012-11-21T10:21:50.000Z</time>
      </trkpt>
      <trkpt lat="47.65437" lon="6.11989">
        <ele>236.80000305176</ele>
        <time>2012-11-21T10:21:51.000Z</time>
      </trkpt>
      <trkpt lat="47.65442" lon="6.1198">
        <ele>236.80000305176</ele>
        <time>2012-11-21T10:21:54.000Z</time>
      </trkpt>
      <trkpt lat="47.65453" lon="6.11962">
        <ele>236.80000305176</ele>
        <time>2012-11-21T10:22:00.000Z</time>
      </trkpt>
      <trkpt lat="47.65454" lon="6.11959">
        <ele>237.60000610352</ele>
        <time>2012-11-21T10:22:01.000Z</time>
      </trkpt>
      <trkpt lat="47.65456" lon="6.11956">
        <ele>238</ele>
        <time>2012-11-21T10:22:02.000Z</time>
      </trkpt>
      <trkpt lat="47.65458" lon="6.11953">
        <ele>238.60000610352</ele>
        <time>2012-11-21T10:22:03.000Z</time>
      </trkpt>
      <trkpt lat="47.65459" lon="6.1195">
        <ele>239</ele>
        <time>2012-11-21T10:22:04.000Z</time>
      </trkpt>
      <trkpt lat="47.65466" lon="6.11937">
        <ele>239</ele>
        <time>2012-11-21T10:22:08.000Z</time>
      </trkpt>
      <trkpt lat="47.65479" lon="6.11911">
        <ele>239</ele>
        <time>2012-11-21T10:22:16.000Z</time>
      </trkpt>
      <trkpt lat="47.65489" lon="6.11891">
        <ele>239.19999694824</ele>
        <time>2012-11-21T10:22:22.000Z</time>
      </trkpt>
      <trkpt lat="47.65491" lon="6.11888">
        <ele>239.80000305176</ele>
        <time>2012-11-21T10:22:23.000Z</time>
      </trkpt>
      <trkpt lat="47.65492" lon="6.11885">
        <ele>240</ele>
        <time>2012-11-21T10:22:24.000Z</time>
      </trkpt>
      <trkpt lat="47.65494" lon="6.11882">
        <ele>240.60000610352</ele>
        <time>2012-11-21T10:22:25.000Z</time>
      </trkpt>
      <trkpt lat="47.65496" lon="6.11879">
        <ele>241</ele>
        <time>2012-11-21T10:22:26.000Z</time>
      </trkpt>
      <trkpt lat="47.65506" lon="6.11857">
        <ele>241</ele>
        <time>2012-11-21T10:22:33.000Z</time>
      </trkpt>
      <trkpt lat="47.65514" lon="6.11841">
        <ele>241.19999694824</ele>
        <time>2012-11-21T10:22:38.000Z</time>
      </trkpt>
      <trkpt lat="47.65516" lon="6.11838">
        <ele>241.80000305176</ele>
        <time>2012-11-21T10:22:39.000Z</time>
      </trkpt>
      <trkpt lat="47.65518" lon="6.11834">
        <ele>242</ele>
        <time>2012-11-21T10:22:40.000Z</time>
      </trkpt>
      <trkpt lat="47.6552" lon="6.11831">
        <ele>242.60000610352</ele>
        <time>2012-11-21T10:22:41.000Z</time>
      </trkpt>
      <trkpt lat="47.65521" lon="6.11828">
        <ele>243</ele>
        <time>2012-11-21T10:22:42.000Z</time>
      </trkpt>
      <trkpt lat="47.65533" lon="6.11807">
        <ele>243</ele>
        <time>2012-11-21T10:22:48.000Z</time>
      </trkpt>
      <trkpt lat="47.65549" lon="6.11777">
        <ele>243</ele>
        <time>2012-11-21T10:22:56.000Z</time>
      </trkpt>
      <trkpt lat="47.65555" lon="6.11765">
        <ele>243.19999694824</ele>
        <time>2012-11-21T10:22:59.000Z</time>
      </trkpt>
      <trkpt lat="47.65557" lon="6.11761">
        <ele>243.80000305176</ele>
        <time>2012-11-21T10:23:00.000Z</time>
      </trkpt>
      <trkpt lat="47.65559" lon="6.11757">
        <ele>244</ele>
        <time>2012-11-21T10:23:01.000Z</time>
      </trkpt>
      <trkpt lat="47.65561" lon="6.11753">
        <ele>244.60000610352</ele>
        <time>2012-11-21T10:23:02.000Z</time>
      </trkpt>
      <trkpt lat="47.65563" lon="6.11749">
        <ele>245</ele>
        <time>2012-11-21T10:23:03.000Z</time>
      </trkpt>
      <trkpt lat="47.65567" lon="6.11742">
        <ele>245</ele>
        <time>2012-11-21T10:23:05.000Z</time>
      </trkpt>
      <trkpt lat="47.65585" lon="6.11706">
        <ele>245</ele>
        <time>2012-11-21T10:23:14.000Z</time>
      </trkpt>
      <trkpt lat="47.656" lon="6.11677">
        <ele>245</ele>
        <time>2012-11-21T10:23:21.000Z</time>
      </trkpt>
      <trkpt lat="47.65617" lon="6.11647">
        <ele>245</ele>
        <time>2012-11-21T10:23:28.000Z</time>
      </trkpt>
      <trkpt lat="47.65637" lon="6.11615">
        <ele>245</ele>
        <time>2012-11-21T10:23:36.000Z</time>
      </trkpt>
      <trkpt lat="47.6566" lon="6.11581">
        <ele>245</ele>
        <time>2012-11-21T10:23:45.000Z</time>
      </trkpt>
      <trkpt lat="47.65665" lon="6.11574">
        <ele>245.19999694824</ele>
        <time>2012-11-21T10:23:47.000Z</time>
      </trkpt>
      <trkpt lat="47.65668" lon="6.1157">
        <ele>246</ele>
        <time>2012-11-21T10:23:48.000Z</time>
      </trkpt>
      <trkpt lat="47.6567" lon="6.11566">
        <ele>246.19999694824</ele>
        <time>2012-11-21T10:23:49.000Z</time>
      </trkpt>
      <trkpt lat="47.65673" lon="6.11563">
        <ele>246.80000305176</ele>
        <time>2012-11-21T10:23:50.000Z</time>
      </trkpt>
      <trkpt lat="47.65675" lon="6.11559">
        <ele>247</ele>
        <time>2012-11-21T10:23:51.000Z</time>
      </trkpt>
      <trkpt lat="47.65683" lon="6.11549">
        <ele>247</ele>
        <time>2012-11-21T10:23:54.000Z</time>
      </trkpt>
      <trkpt lat="47.65704" lon="6.11517">
        <ele>247.60000610352</ele>
        <time>2012-11-21T10:24:03.000Z</time>
      </trkpt>
      <trkpt lat="47.65706" lon="6.11514">
        <ele>248.19999694824</ele>
        <time>2012-11-21T10:24:04.000Z</time>
      </trkpt>
      <trkpt lat="47.65709" lon="6.1151">
        <ele>248.80000305176</ele>
        <time>2012-11-21T10:24:05.000Z</time>
      </trkpt>
      <trkpt lat="47.65711" lon="6.11506">
        <ele>249</ele>
        <time>2012-11-21T10:24:06.000Z</time>
      </trkpt>
      <trkpt lat="47.65733" lon="6.11475">
        <ele>249</ele>
        <time>2012-11-21T10:24:15.000Z</time>
      </trkpt>
      <trkpt lat="47.6575" lon="6.11448">
        <ele>249</ele>
        <time>2012-11-21T10:24:23.000Z</time>
      </trkpt>
      <trkpt lat="47.65766" lon="6.11422">
        <ele>249.60000610352</ele>
        <time>2012-11-21T10:24:30.000Z</time>
      </trkpt>
      <trkpt lat="47.65768" lon="6.11419">
        <ele>250</ele>
        <time>2012-11-21T10:24:31.000Z</time>
      </trkpt>
      <trkpt lat="47.6577" lon="6.11415">
        <ele>250.19999694824</ele>
        <time>2012-11-21T10:24:32.000Z</time>
      </trkpt>
      <trkpt lat="47.65773" lon="6.11412">
        <ele>250.80000305176</ele>
        <time>2012-11-21T10:24:33.000Z</time>
      </trkpt>
      <trkpt lat="47.65775" lon="6.11408">
        <ele>251</ele>
        <time>2012-11-21T10:24:34.000Z</time>
      </trkpt>
      <trkpt lat="47.6579" lon="6.11382">
        <ele>251</ele>
        <time>2012-11-21T10:24:41.000Z</time>
      </trkpt>
      <trkpt lat="47.6581" lon="6.11349">
        <ele>251</ele>
        <time>2012-11-21T10:24:50.000Z</time>
      </trkpt>
      <trkpt lat="47.6583" lon="6.11317">
        <ele>251</ele>
        <time>2012-11-21T10:24:59.000Z</time>
      </trkpt>
      <trkpt lat="47.65849" lon="6.11287">
        <ele>251</ele>
        <time>2012-11-21T10:25:07.000Z</time>
      </trkpt>
      <trkpt lat="47.65871" lon="6.11255">
        <ele>251</ele>
        <time>2012-11-21T10:25:14.000Z</time>
      </trkpt>
      <trkpt lat="47.65882" lon="6.11239">
        <ele>251.60000610352</ele>
        <time>2012-11-21T10:25:18.000Z</time>
      </trkpt>
      <trkpt lat="47.65884" lon="6.11236">
        <ele>252</ele>
        <time>2012-11-21T10:25:19.000Z</time>
      </trkpt>
      <trkpt lat="47.65886" lon="6.11231">
        <ele>252.19999694824</ele>
        <time>2012-11-21T10:25:20.000Z</time>
      </trkpt>
      <trkpt lat="47.65889" lon="6.11227">
        <ele>252.80000305176</ele>
        <time>2012-11-21T10:25:21.000Z</time>
      </trkpt>
      <trkpt lat="47.65891" lon="6.11224">
        <ele>253.19999694824</ele>
        <time>2012-11-21T10:25:22.000Z</time>
      </trkpt>
      <trkpt lat="47.65907" lon="6.11202">
        <ele>253.19999694824</ele>
        <time>2012-11-21T10:25:29.000Z</time>
      </trkpt>
      <trkpt lat="47.65924" lon="6.11178">
        <ele>253.80000305176</ele>
        <time>2012-11-21T10:25:37.000Z</time>
      </trkpt>
      <trkpt lat="47.65926" lon="6.11175">
        <ele>254</ele>
        <time>2012-11-21T10:25:38.000Z</time>
      </trkpt>
      <trkpt lat="47.65928" lon="6.11172">
        <ele>254.60000610352</ele>
        <time>2012-11-21T10:25:39.000Z</time>
      </trkpt>
      <trkpt lat="47.6593" lon="6.11169">
        <ele>255</ele>
        <time>2012-11-21T10:25:40.000Z</time>
      </trkpt>
      <trkpt lat="47.65932" lon="6.11167">
        <ele>255.19999694824</ele>
        <time>2012-11-21T10:25:41.000Z</time>
      </trkpt>
      <trkpt lat="47.65946" lon="6.11147">
        <ele>255.19999694824</ele>
        <time>2012-11-21T10:25:48.000Z</time>
      </trkpt>
      <trkpt lat="47.6596" lon="6.11127">
        <ele>255.80000305176</ele>
        <time>2012-11-21T10:25:55.000Z</time>
      </trkpt>
      <trkpt lat="47.65962" lon="6.11124">
        <ele>256.20001220703</ele>
        <time>2012-11-21T10:25:56.000Z</time>
      </trkpt>
      <trkpt lat="47.65964" lon="6.11122">
        <ele>256.60000610352</ele>
        <time>2012-11-21T10:25:57.000Z</time>
      </trkpt>
      <trkpt lat="47.65966" lon="6.1112">
        <ele>257</ele>
        <time>2012-11-21T10:25:58.000Z</time>
      </trkpt>
      <trkpt lat="47.65968" lon="6.11117">
        <ele>257.20001220703</ele>
        <time>2012-11-21T10:25:59.000Z</time>
      </trkpt>
      <trkpt lat="47.65976" lon="6.11105">
        <ele>257.20001220703</ele>
        <time>2012-11-21T10:26:03.000Z</time>
      </trkpt>
      <trkpt lat="47.65978" lon="6.11102">
        <ele>257.20001220703</ele>
        <time>2012-11-21T10:26:04.000Z</time>
      </trkpt>
      <trkpt lat="47.6598" lon="6.111">
        <ele>258</ele>
        <time>2012-11-21T10:26:05.000Z</time>
      </trkpt>
      <trkpt lat="47.65982" lon="6.11097">
        <ele>258.20001220703</ele>
        <time>2012-11-21T10:26:06.000Z</time>
      </trkpt>
      <trkpt lat="47.65985" lon="6.11095">
        <ele>259.20001220703</ele>
        <time>2012-11-21T10:26:07.000Z</time>
      </trkpt>
      <trkpt lat="47.65987" lon="6.11092">
        <ele>259.60000610352</ele>
        <time>2012-11-21T10:26:08.000Z</time>
      </trkpt>
      <trkpt lat="47.65992" lon="6.11086">
        <ele>259.60000610352</ele>
        <time>2012-11-21T10:26:10.000Z</time>
      </trkpt>
      <trkpt lat="47.65999" lon="6.11076">
        <ele>260</ele>
        <time>2012-11-21T10:26:13.000Z</time>
      </trkpt>
      <trkpt lat="47.66001" lon="6.11072">
        <ele>260.20001220703</ele>
        <time>2012-11-21T10:26:14.000Z</time>
      </trkpt>
      <trkpt lat="47.66003" lon="6.11069">
        <ele>260.60000610352</ele>
        <time>2012-11-21T10:26:15.000Z</time>
      </trkpt>
      <trkpt lat="47.66005" lon="6.11066">
        <ele>261.20001220703</ele>
        <time>2012-11-21T10:26:16.000Z</time>
      </trkpt>
      <trkpt lat="47.66007" lon="6.11063">
        <ele>261.60000610352</ele>
        <time>2012-11-21T10:26:17.000Z</time>
      </trkpt>
      <trkpt lat="47.66023" lon="6.11041">
        <ele>261.60000610352</ele>
        <time>2012-11-21T10:26:25.000Z</time>
      </trkpt>
      <trkpt lat="47.66025" lon="6.11039">
        <ele>262</ele>
        <time>2012-11-21T10:26:26.000Z</time>
      </trkpt>
      <trkpt lat="47.66027" lon="6.11036">
        <ele>262.20001220703</ele>
        <time>2012-11-21T10:26:27.000Z</time>
      </trkpt>
      <trkpt lat="47.66029" lon="6.11034">
        <ele>262.60000610352</ele>
        <time>2012-11-21T10:26:28.000Z</time>
      </trkpt>
      <trkpt lat="47.66031" lon="6.11031">
        <ele>263.20001220703</ele>
        <time>2012-11-21T10:26:29.000Z</time>
      </trkpt>
      <trkpt lat="47.66033" lon="6.11029">
        <ele>263.60000610352</ele>
        <time>2012-11-21T10:26:30.000Z</time>
      </trkpt>
      <trkpt lat="47.66039" lon="6.11021">
        <ele>263.60000610352</ele>
        <time>2012-11-21T10:26:33.000Z</time>
      </trkpt>
      <trkpt lat="47.66056" lon="6.10999">
        <ele>263.60000610352</ele>
        <time>2012-11-21T10:26:40.000Z</time>
      </trkpt>
      <trkpt lat="47.66079" lon="6.10972">
        <ele>263.60000610352</ele>
        <time>2012-11-21T10:26:49.000Z</time>
      </trkpt>
      <trkpt lat="47.66093" lon="6.10956">
        <ele>263.60000610352</ele>
        <time>2012-11-21T10:26:55.000Z</time>
      </trkpt>
      <trkpt lat="47.66114" lon="6.10931">
        <ele>263.60000610352</ele>
        <time>2012-11-21T10:27:05.000Z</time>
      </trkpt>
      <trkpt lat="47.66121" lon="6.10917">
        <ele>264.20001220703</ele>
        <time>2012-11-21T10:27:10.000Z</time>
      </trkpt>
      <trkpt lat="47.66122" lon="6.10914">
        <ele>264.60000610352</ele>
        <time>2012-11-21T10:27:11.000Z</time>
      </trkpt>
      <trkpt lat="47.66124" lon="6.10912">
        <ele>265</ele>
        <time>2012-11-21T10:27:12.000Z</time>
      </trkpt>
      <trkpt lat="47.66126" lon="6.1091">
        <ele>265.20001220703</ele>
        <time>2012-11-21T10:27:13.000Z</time>
      </trkpt>
      <trkpt lat="47.66127" lon="6.10908">
        <ele>265.60000610352</ele>
        <time>2012-11-21T10:27:14.000Z</time>
      </trkpt>
      <trkpt lat="47.66131" lon="6.10904">
        <ele>265.60000610352</ele>
        <time>2012-11-21T10:27:16.000Z</time>
      </trkpt>
      <trkpt lat="47.66142" lon="6.10887">
        <ele>265.60000610352</ele>
        <time>2012-11-21T10:27:23.000Z</time>
      </trkpt>
      <trkpt lat="47.66146" lon="6.10883">
        <ele>266.20001220703</ele>
        <time>2012-11-21T10:27:25.000Z</time>
      </trkpt>
      <trkpt lat="47.66149" lon="6.1088">
        <ele>266.60000610352</ele>
        <time>2012-11-21T10:27:26.000Z</time>
      </trkpt>
      <trkpt lat="47.66151" lon="6.10877">
        <ele>267</ele>
        <time>2012-11-21T10:27:27.000Z</time>
      </trkpt>
      <trkpt lat="47.66153" lon="6.10875">
        <ele>267.20001220703</ele>
        <time>2012-11-21T10:27:28.000Z</time>
      </trkpt>
      <trkpt lat="47.66155" lon="6.10872">
        <ele>268</ele>
        <time>2012-11-21T10:27:29.000Z</time>
      </trkpt>
      <trkpt lat="47.66166" lon="6.10855">
        <ele>268</ele>
        <time>2012-11-21T10:27:35.000Z</time>
      </trkpt>
      <trkpt lat="47.66178" lon="6.1084">
        <ele>268</ele>
        <time>2012-11-21T10:27:39.000Z</time>
      </trkpt>
      <trkpt lat="47.66189" lon="6.10819">
        <ele>268</ele>
        <time>2012-11-21T10:27:44.000Z</time>
      </trkpt>
      <trkpt lat="47.66188" lon="6.10814">
        <ele>268</ele>
        <time>2012-11-21T10:27:45.000Z</time>
      </trkpt>
      <trkpt lat="47.66193" lon="6.108">
        <ele>268</ele>
        <time>2012-11-21T10:27:48.000Z</time>
      </trkpt>
      <trkpt lat="47.66199" lon="6.10794">
        <ele>268</ele>
        <time>2012-11-21T10:27:50.000Z</time>
      </trkpt>
      <trkpt lat="47.66211" lon="6.10783">
        <ele>268</ele>
        <time>2012-11-21T10:27:54.000Z</time>
      </trkpt>
      <trkpt lat="47.66225" lon="6.10766">
        <ele>268</ele>
        <time>2012-11-21T10:28:01.000Z</time>
      </trkpt>
      <trkpt lat="47.66225" lon="6.10766">
        <ele>268</ele>
        <time>2012-11-21T10:28:02.000Z</time>
      </trkpt>
      <trkpt lat="47.66226" lon="6.10766">
        <ele>268</ele>
        <time>2012-11-21T10:29:02.000Z</time>
      </trkpt>
      <trkpt lat="47.66227" lon="6.10766">
        <ele>268</ele>
        <time>2012-11-21T10:29:03.000Z</time>
      </trkpt>
      <trkpt lat="47.66233" lon="6.10765">
        <ele>268</ele>
        <time>2012-11-21T10:29:06.000Z</time>
      </trkpt>
      <trkpt lat="47.66234" lon="6.10762">
        <ele>268</ele>
        <time>2012-11-21T10:29:08.000Z</time>
      </trkpt>
      <trkpt lat="47.66234" lon="6.10761">
        <ele>268</ele>
        <time>2012-11-21T10:29:09.000Z</time>
      </trkpt>
      <trkpt lat="47.66229" lon="6.10759">
        <ele>268</ele>
        <time>2012-11-21T10:29:13.000Z</time>
      </trkpt>
      <trkpt lat="47.66227" lon="6.10757">
        <ele>267.60000610352</ele>
        <time>2012-11-21T10:29:15.000Z</time>
      </trkpt>
      <trkpt lat="47.66227" lon="6.10755">
        <ele>267.20001220703</ele>
        <time>2012-11-21T10:29:16.000Z</time>
      </trkpt>
      <trkpt lat="47.66227" lon="6.10752">
        <ele>266.60000610352</ele>
        <time>2012-11-21T10:29:17.000Z</time>
      </trkpt>
      <trkpt lat="47.66228" lon="6.1075">
        <ele>266.20001220703</ele>
        <time>2012-11-21T10:29:18.000Z</time>
      </trkpt>
      <trkpt lat="47.6623" lon="6.10748">
        <ele>266</ele>
        <time>2012-11-21T10:29:19.000Z</time>
      </trkpt>
      <trkpt lat="47.66235" lon="6.10736">
        <ele>266</ele>
        <time>2012-11-21T10:29:22.000Z</time>
      </trkpt>
      <trkpt lat="47.66239" lon="6.1073">
        <ele>266</ele>
        <time>2012-11-21T10:29:24.000Z</time>
      </trkpt>
      <trkpt lat="47.66244" lon="6.10718">
        <ele>265.60000610352</ele>
        <time>2012-11-21T10:29:27.000Z</time>
      </trkpt>
      <trkpt lat="47.66245" lon="6.10713">
        <ele>265</ele>
        <time>2012-11-21T10:29:28.000Z</time>
      </trkpt>
      <trkpt lat="47.66246" lon="6.10707">
        <ele>264.60000610352</ele>
        <time>2012-11-21T10:29:29.000Z</time>
      </trkpt>
      <trkpt lat="47.66246" lon="6.107">
        <ele>264.20001220703</ele>
        <time>2012-11-21T10:29:30.000Z</time>
      </trkpt>
      <trkpt lat="47.66244" lon="6.10693">
        <ele>263.60000610352</ele>
        <time>2012-11-21T10:29:31.000Z</time>
      </trkpt>
      <trkpt lat="47.66242" lon="6.10686">
        <ele>263.60000610352</ele>
        <time>2012-11-21T10:29:32.000Z</time>
      </trkpt>
      <trkpt lat="47.66242" lon="6.1068">
        <ele>263.60000610352</ele>
        <time>2012-11-21T10:29:33.000Z</time>
      </trkpt>
      <trkpt lat="47.66239" lon="6.10667">
        <ele>263.20001220703</ele>
        <time>2012-11-21T10:29:35.000Z</time>
      </trkpt>
      <trkpt lat="47.66238" lon="6.10661">
        <ele>263</ele>
        <time>2012-11-21T10:29:36.000Z</time>
      </trkpt>
      <trkpt lat="47.66236" lon="6.10656">
        <ele>262.20001220703</ele>
        <time>2012-11-21T10:29:37.000Z</time>
      </trkpt>
      <trkpt lat="47.66234" lon="6.10651">
        <ele>262</ele>
        <time>2012-11-21T10:29:38.000Z</time>
      </trkpt>
      <trkpt lat="47.66233" lon="6.10646">
        <ele>261.60000610352</ele>
        <time>2012-11-21T10:29:39.000Z</time>
      </trkpt>
      <trkpt lat="47.66229" lon="6.10633">
        <ele>261.60000610352</ele>
        <time>2012-11-21T10:29:42.000Z</time>
      </trkpt>
      <trkpt lat="47.66227" lon="6.10628">
        <ele>261.20001220703</ele>
        <time>2012-11-21T10:29:43.000Z</time>
      </trkpt>
      <trkpt lat="47.66226" lon="6.10622">
        <ele>260.60000610352</ele>
        <time>2012-11-21T10:29:44.000Z</time>
      </trkpt>
      <trkpt lat="47.66223" lon="6.10616">
        <ele>260.20001220703</ele>
        <time>2012-11-21T10:29:45.000Z</time>
      </trkpt>
      <trkpt lat="47.66221" lon="6.1061">
        <ele>260</ele>
        <time>2012-11-21T10:29:46.000Z</time>
      </trkpt>
      <trkpt lat="47.66217" lon="6.10604">
        <ele>259.60000610352</ele>
        <time>2012-11-21T10:29:47.000Z</time>
      </trkpt>
      <trkpt lat="47.66213" lon="6.10597">
        <ele>259.60000610352</ele>
        <time>2012-11-21T10:29:48.000Z</time>
      </trkpt>
      <trkpt lat="47.66205" lon="6.10582">
        <ele>258.60000610352</ele>
        <time>2012-11-21T10:29:50.000Z</time>
      </trkpt>
      <trkpt lat="47.662" lon="6.10574">
        <ele>258.20001220703</ele>
        <time>2012-11-21T10:29:51.000Z</time>
      </trkpt>
      <trkpt lat="47.66196" lon="6.10567">
        <ele>258</ele>
        <time>2012-11-21T10:29:52.000Z</time>
      </trkpt>
      <trkpt lat="47.66192" lon="6.1056">
        <ele>257.60000610352</ele>
        <time>2012-11-21T10:29:53.000Z</time>
      </trkpt>
      <trkpt lat="47.66169" lon="6.10523">
        <ele>257.60000610352</ele>
        <time>2012-11-21T10:29:59.000Z</time>
      </trkpt>
      <trkpt lat="47.66154" lon="6.10499">
        <ele>257.60000610352</ele>
        <time>2012-11-21T10:30:05.000Z</time>
      </trkpt>
      <trkpt lat="47.66141" lon="6.10477">
        <ele>257.60000610352</ele>
        <time>2012-11-21T10:30:12.000Z</time>
      </trkpt>
      <trkpt lat="47.66124" lon="6.10448">
        <ele>257.60000610352</ele>
        <time>2012-11-21T10:30:20.000Z</time>
      </trkpt>
      <trkpt lat="47.66114" lon="6.10429">
        <ele>257.60000610352</ele>
        <time>2012-11-21T10:30:26.000Z</time>
      </trkpt>
      <trkpt lat="47.66115" lon="6.10426">
        <ele>257.60000610352</ele>
        <time>2012-11-21T10:30:29.000Z</time>
      </trkpt>
      <trkpt lat="47.66115" lon="6.10425">
        <ele>257.60000610352</ele>
        <time>2012-11-21T10:30:36.000Z</time>
      </trkpt>
      <trkpt lat="47.66116" lon="6.10417">
        <ele>257.60000610352</ele>
        <time>2012-11-21T10:30:39.000Z</time>
      </trkpt>
      <trkpt lat="47.6612" lon="6.10413">
        <ele>257.60000610352</ele>
        <time>2012-11-21T10:30:41.000Z</time>
      </trkpt>
      <trkpt lat="47.66124" lon="6.10411">
        <ele>257.60000610352</ele>
        <time>2012-11-21T10:30:45.000Z</time>
      </trkpt>
      <trkpt lat="47.66136" lon="6.10402">
        <ele>257.60000610352</ele>
        <time>2012-11-21T10:30:52.000Z</time>
      </trkpt>
      <trkpt lat="47.6615" lon="6.10393">
        <ele>257.60000610352</ele>
        <time>2012-11-21T10:30:59.000Z</time>
      </trkpt>
      <trkpt lat="47.66168" lon="6.10387">
        <ele>257.60000610352</ele>
        <time>2012-11-21T10:31:04.000Z</time>
      </trkpt>
      <trkpt lat="47.6618" lon="6.10385">
        <ele>257</ele>
        <time>2012-11-21T10:31:06.000Z</time>
      </trkpt>
      <trkpt lat="47.66188" lon="6.10384">
        <ele>256.60000610352</ele>
        <time>2012-11-21T10:31:07.000Z</time>
      </trkpt>
      <trkpt lat="47.66195" lon="6.10383">
        <ele>256</ele>
        <time>2012-11-21T10:31:08.000Z</time>
      </trkpt>
      <trkpt lat="47.66202" lon="6.10382">
        <ele>255.60000610352</ele>
        <time>2012-11-21T10:31:09.000Z</time>
      </trkpt>
      <trkpt lat="47.66209" lon="6.10379">
        <ele>255</ele>
        <time>2012-11-21T10:31:10.000Z</time>
      </trkpt>
      <trkpt lat="47.66215" lon="6.10376">
        <ele>254.60000610352</ele>
        <time>2012-11-21T10:31:11.000Z</time>
      </trkpt>
      <trkpt lat="47.6622" lon="6.10372">
        <ele>254</ele>
        <time>2012-11-21T10:31:12.000Z</time>
      </trkpt>
      <trkpt lat="47.66226" lon="6.10368">
        <ele>253.80000305176</ele>
        <time>2012-11-21T10:31:13.000Z</time>
      </trkpt>
      <trkpt lat="47.66231" lon="6.10363">
        <ele>253.19999694824</ele>
        <time>2012-11-21T10:31:14.000Z</time>
      </trkpt>
      <trkpt lat="47.66235" lon="6.10359">
        <ele>253</ele>
        <time>2012-11-21T10:31:15.000Z</time>
      </trkpt>
      <trkpt lat="47.66245" lon="6.1035">
        <ele>253</ele>
        <time>2012-11-21T10:31:17.000Z</time>
      </trkpt>
      <trkpt lat="47.66273" lon="6.10324">
        <ele>253</ele>
        <time>2012-11-21T10:31:24.000Z</time>
      </trkpt>
      <trkpt lat="47.66277" lon="6.10321">
        <ele>253</ele>
        <time>2012-11-21T10:31:25.000Z</time>
      </trkpt>
      <trkpt lat="47.66292" lon="6.1031">
        <ele>253</ele>
        <time>2012-11-21T10:31:29.000Z</time>
      </trkpt>
      <trkpt lat="47.66324" lon="6.10287">
        <ele>253</ele>
        <time>2012-11-21T10:31:38.000Z</time>
      </trkpt>
      <trkpt lat="47.66349" lon="6.10271">
        <ele>253</ele>
        <time>2012-11-21T10:31:45.000Z</time>
      </trkpt>
      <trkpt lat="47.6636" lon="6.10265">
        <ele>253</ele>
        <time>2012-11-21T10:31:48.000Z</time>
      </trkpt>
      <trkpt lat="47.66371" lon="6.10258">
        <ele>253</ele>
        <time>2012-11-21T10:31:51.000Z</time>
      </trkpt>
      <trkpt lat="47.66393" lon="6.1024">
        <ele>253</ele>
        <time>2012-11-21T10:31:57.000Z</time>
      </trkpt>
      <trkpt lat="47.66396" lon="6.10234">
        <ele>252.60000610352</ele>
        <time>2012-11-21T10:31:58.000Z</time>
      </trkpt>
      <trkpt lat="47.66399" lon="6.10226">
        <ele>252</ele>
        <time>2012-11-21T10:31:59.000Z</time>
      </trkpt>
      <trkpt lat="47.66402" lon="6.10218">
        <ele>251.60000610352</ele>
        <time>2012-11-21T10:32:00.000Z</time>
      </trkpt>
      <trkpt lat="47.66403" lon="6.10208">
        <ele>251</ele>
        <time>2012-11-21T10:32:01.000Z</time>
      </trkpt>
      <trkpt lat="47.66404" lon="6.10197">
        <ele>250.80000305176</ele>
        <time>2012-11-21T10:32:02.000Z</time>
      </trkpt>
      <trkpt lat="47.66405" lon="6.10187">
        <ele>250</ele>
        <time>2012-11-21T10:32:03.000Z</time>
      </trkpt>
      <trkpt lat="47.66407" lon="6.10178">
        <ele>249.60000610352</ele>
        <time>2012-11-21T10:32:04.000Z</time>
      </trkpt>
      <trkpt lat="47.66409" lon="6.10169">
        <ele>249</ele>
        <time>2012-11-21T10:32:05.000Z</time>
      </trkpt>
      <trkpt lat="47.66412" lon="6.10161">
        <ele>248.19999694824</ele>
        <time>2012-11-21T10:32:06.000Z</time>
      </trkpt>
      <trkpt lat="47.66415" lon="6.10153">
        <ele>248</ele>
        <time>2012-11-21T10:32:07.000Z</time>
      </trkpt>
      <trkpt lat="47.66423" lon="6.10131">
        <ele>248</ele>
        <time>2012-11-21T10:32:10.000Z</time>
      </trkpt>
      <trkpt lat="47.66434" lon="6.10082">
        <ele>248</ele>
        <time>2012-11-21T10:32:17.000Z</time>
      </trkpt>
      <trkpt lat="47.66442" lon="6.10038">
        <ele>248</ele>
        <time>2012-11-21T10:32:23.000Z</time>
      </trkpt>
      <trkpt lat="47.66443" lon="6.1003">
        <ele>248</ele>
        <time>2012-11-21T10:32:24.000Z</time>
      </trkpt>
      <trkpt lat="47.66443" lon="6.10006">
        <ele>247.60000610352</ele>
        <time>2012-11-21T10:32:27.000Z</time>
      </trkpt>
      <trkpt lat="47.66443" lon="6.09998">
        <ele>247</ele>
        <time>2012-11-21T10:32:28.000Z</time>
      </trkpt>
      <trkpt lat="47.66443" lon="6.0999">
        <ele>246.60000610352</ele>
        <time>2012-11-21T10:32:29.000Z</time>
      </trkpt>
      <trkpt lat="47.66442" lon="6.09982">
        <ele>246</ele>
        <time>2012-11-21T10:32:30.000Z</time>
      </trkpt>
      <trkpt lat="47.66443" lon="6.09974">
        <ele>245.80000305176</ele>
        <time>2012-11-21T10:32:31.000Z</time>
      </trkpt>
      <trkpt lat="47.66443" lon="6.09957">
        <ele>245.80000305176</ele>
        <time>2012-11-21T10:32:33.000Z</time>
      </trkpt>
      <trkpt lat="47.66442" lon="6.09939">
        <ele>245.19999694824</ele>
        <time>2012-11-21T10:32:35.000Z</time>
      </trkpt>
      <trkpt lat="47.66442" lon="6.09931">
        <ele>244.80000305176</ele>
        <time>2012-11-21T10:32:36.000Z</time>
      </trkpt>
      <trkpt lat="47.66441" lon="6.09921">
        <ele>244.19999694824</ele>
        <time>2012-11-21T10:32:37.000Z</time>
      </trkpt>
      <trkpt lat="47.66441" lon="6.09912">
        <ele>244</ele>
        <time>2012-11-21T10:32:38.000Z</time>
      </trkpt>
      <trkpt lat="47.66441" lon="6.09904">
        <ele>243.19999694824</ele>
        <time>2012-11-21T10:32:39.000Z</time>
      </trkpt>
      <trkpt lat="47.6644" lon="6.09885">
        <ele>243</ele>
        <time>2012-11-21T10:32:41.000Z</time>
      </trkpt>
      <trkpt lat="47.66439" lon="6.09875">
        <ele>242.60000610352</ele>
        <time>2012-11-21T10:32:42.000Z</time>
      </trkpt>
      <trkpt lat="47.66438" lon="6.09866">
        <ele>242</ele>
        <time>2012-11-21T10:32:43.000Z</time>
      </trkpt>
      <trkpt lat="47.66435" lon="6.09856">
        <ele>241.80000305176</ele>
        <time>2012-11-21T10:32:44.000Z</time>
      </trkpt>
      <trkpt lat="47.66431" lon="6.09848">
        <ele>241.19999694824</ele>
        <time>2012-11-21T10:32:45.000Z</time>
      </trkpt>
      <trkpt lat="47.66421" lon="6.09823">
        <ele>241</ele>
        <time>2012-11-21T10:32:48.000Z</time>
      </trkpt>
      <trkpt lat="47.66418" lon="6.09814">
        <ele>240.60000610352</ele>
        <time>2012-11-21T10:32:49.000Z</time>
      </trkpt>
      <trkpt lat="47.66415" lon="6.09806">
        <ele>240</ele>
        <time>2012-11-21T10:32:50.000Z</time>
      </trkpt>
      <trkpt lat="47.66413" lon="6.09797">
        <ele>239.80000305176</ele>
        <time>2012-11-21T10:32:51.000Z</time>
      </trkpt>
      <trkpt lat="47.66411" lon="6.09788">
        <ele>239.19999694824</ele>
        <time>2012-11-21T10:32:52.000Z</time>
      </trkpt>
      <trkpt lat="47.6641" lon="6.09769">
        <ele>239.19999694824</ele>
        <time>2012-11-21T10:32:54.000Z</time>
      </trkpt>
      <trkpt lat="47.66406" lon="6.09733">
        <ele>239.19999694824</ele>
        <time>2012-11-21T10:32:58.000Z</time>
      </trkpt>
      <trkpt lat="47.6641" lon="6.09717">
        <ele>239.19999694824</ele>
        <time>2012-11-21T10:33:00.000Z</time>
      </trkpt>
      <trkpt lat="47.66419" lon="6.09678">
        <ele>239.19999694824</ele>
        <time>2012-11-21T10:33:06.000Z</time>
      </trkpt>
      <trkpt lat="47.66427" lon="6.09648">
        <ele>239.80000305176</ele>
        <time>2012-11-21T10:33:12.000Z</time>
      </trkpt>
      <trkpt lat="47.66428" lon="6.09643">
        <ele>240</ele>
        <time>2012-11-21T10:33:13.000Z</time>
      </trkpt>
      <trkpt lat="47.66429" lon="6.09638">
        <ele>240.60000610352</ele>
        <time>2012-11-21T10:33:14.000Z</time>
      </trkpt>
      <trkpt lat="47.66429" lon="6.09633">
        <ele>241</ele>
        <time>2012-11-21T10:33:15.000Z</time>
      </trkpt>
      <trkpt lat="47.6643" lon="6.09629">
        <ele>241.60000610352</ele>
        <time>2012-11-21T10:33:16.000Z</time>
      </trkpt>
      <trkpt lat="47.66431" lon="6.09625">
        <ele>241.60000610352</ele>
        <time>2012-11-21T10:33:17.000Z</time>
      </trkpt>
      <trkpt lat="47.66434" lon="6.09614">
        <ele>242</ele>
        <time>2012-11-21T10:33:20.000Z</time>
      </trkpt>
      <trkpt lat="47.66436" lon="6.09612">
        <ele>242.19999694824</ele>
        <time>2012-11-21T10:33:21.000Z</time>
      </trkpt>
      <trkpt lat="47.66437" lon="6.09609">
        <ele>243</ele>
        <time>2012-11-21T10:33:22.000Z</time>
      </trkpt>
      <trkpt lat="47.66438" lon="6.09605">
        <ele>243.19999694824</ele>
        <time>2012-11-21T10:33:23.000Z</time>
      </trkpt>
      <trkpt lat="47.66438" lon="6.09601">
        <ele>243.80000305176</ele>
        <time>2012-11-21T10:33:24.000Z</time>
      </trkpt>
      <trkpt lat="47.6644" lon="6.09594">
        <ele>243.80000305176</ele>
        <time>2012-11-21T10:33:27.000Z</time>
      </trkpt>
      <trkpt lat="47.66442" lon="6.09584">
        <ele>244.19999694824</ele>
        <time>2012-11-21T10:33:31.000Z</time>
      </trkpt>
      <trkpt lat="47.66442" lon="6.09582">
        <ele>244.80000305176</ele>
        <time>2012-11-21T10:33:32.000Z</time>
      </trkpt>
      <trkpt lat="47.66442" lon="6.09579">
        <ele>245</ele>
        <time>2012-11-21T10:33:33.000Z</time>
      </trkpt>
      <trkpt lat="47.66441" lon="6.09577">
        <ele>246</ele>
        <time>2012-11-21T10:33:34.000Z</time>
      </trkpt>
      <trkpt lat="47.66443" lon="6.0956">
        <ele>246</ele>
        <time>2012-11-21T10:33:39.000Z</time>
      </trkpt>
      <trkpt lat="47.66444" lon="6.09544">
        <ele>246</ele>
        <time>2012-11-21T10:33:45.000Z</time>
      </trkpt>
      <trkpt lat="47.66445" lon="6.09529">
        <ele>246.60000610352</ele>
        <time>2012-11-21T10:33:49.000Z</time>
      </trkpt>
      <trkpt lat="47.66445" lon="6.09526">
        <ele>247</ele>
        <time>2012-11-21T10:33:50.000Z</time>
      </trkpt>
      <trkpt lat="47.66445" lon="6.09522">
        <ele>247.19999694824</ele>
        <time>2012-11-21T10:33:51.000Z</time>
      </trkpt>
      <trkpt lat="47.66445" lon="6.09518">
        <ele>247.80000305176</ele>
        <time>2012-11-21T10:33:52.000Z</time>
      </trkpt>
      <trkpt lat="47.66445" lon="6.09515">
        <ele>248</ele>
        <time>2012-11-21T10:33:53.000Z</time>
      </trkpt>
      <trkpt lat="47.66445" lon="6.095">
        <ele>248</ele>
        <time>2012-11-21T10:33:58.000Z</time>
      </trkpt>
      <trkpt lat="47.66446" lon="6.09475">
        <ele>248</ele>
        <time>2012-11-21T10:34:06.000Z</time>
      </trkpt>
      <trkpt lat="47.66446" lon="6.0944">
        <ele>248</ele>
        <time>2012-11-21T10:34:14.000Z</time>
      </trkpt>
      <trkpt lat="47.66442" lon="6.09401">
        <ele>248</ele>
        <time>2012-11-21T10:34:19.000Z</time>
      </trkpt>
      <trkpt lat="47.66439" lon="6.09392">
        <ele>247.80000305176</ele>
        <time>2012-11-21T10:34:20.000Z</time>
      </trkpt>
      <trkpt lat="47.66437" lon="6.09382">
        <ele>247.19999694824</ele>
        <time>2012-11-21T10:34:21.000Z</time>
      </trkpt>
      <trkpt lat="47.66434" lon="6.09372">
        <ele>247</ele>
        <time>2012-11-21T10:34:22.000Z</time>
      </trkpt>
      <trkpt lat="47.66432" lon="6.09362">
        <ele>245.60000610352</ele>
        <time>2012-11-21T10:34:23.000Z</time>
      </trkpt>
      <trkpt lat="47.66429" lon="6.09351">
        <ele>245</ele>
        <time>2012-11-21T10:34:24.000Z</time>
      </trkpt>
      <trkpt lat="47.66426" lon="6.0934">
        <ele>244.19999694824</ele>
        <time>2012-11-21T10:34:25.000Z</time>
      </trkpt>
      <trkpt lat="47.66423" lon="6.0933">
        <ele>243.80000305176</ele>
        <time>2012-11-21T10:34:26.000Z</time>
      </trkpt>
      <trkpt lat="47.66421" lon="6.09319">
        <ele>243</ele>
        <time>2012-11-21T10:34:27.000Z</time>
      </trkpt>
      <trkpt lat="47.66418" lon="6.09309">
        <ele>242.60000610352</ele>
        <time>2012-11-21T10:34:28.000Z</time>
      </trkpt>
      <trkpt lat="47.66415" lon="6.09298">
        <ele>242</ele>
        <time>2012-11-21T10:34:29.000Z</time>
      </trkpt>
      <trkpt lat="47.66413" lon="6.09288">
        <ele>241.19999694824</ele>
        <time>2012-11-21T10:34:30.000Z</time>
      </trkpt>
      <trkpt lat="47.6641" lon="6.09267">
        <ele>241.19999694824</ele>
        <time>2012-11-21T10:34:32.000Z</time>
      </trkpt>
      <trkpt lat="47.66408" lon="6.09247">
        <ele>240.80000305176</ele>
        <time>2012-11-21T10:34:34.000Z</time>
      </trkpt>
      <trkpt lat="47.66407" lon="6.09238">
        <ele>240.19999694824</ele>
        <time>2012-11-21T10:34:35.000Z</time>
      </trkpt>
      <trkpt lat="47.66407" lon="6.09229">
        <ele>240</ele>
        <time>2012-11-21T10:34:36.000Z</time>
      </trkpt>
      <trkpt lat="47.66406" lon="6.0922">
        <ele>239.19999694824</ele>
        <time>2012-11-21T10:34:37.000Z</time>
      </trkpt>
      <trkpt lat="47.66406" lon="6.09211">
        <ele>239</ele>
        <time>2012-11-21T10:34:38.000Z</time>
      </trkpt>
      <trkpt lat="47.66404" lon="6.09166">
        <ele>238.60000610352</ele>
        <time>2012-11-21T10:34:43.000Z</time>
      </trkpt>
      <trkpt lat="47.66403" lon="6.09158">
        <ele>238</ele>
        <time>2012-11-21T10:34:44.000Z</time>
      </trkpt>
      <trkpt lat="47.66403" lon="6.09149">
        <ele>237.60000610352</ele>
        <time>2012-11-21T10:34:45.000Z</time>
      </trkpt>
      <trkpt lat="47.66403" lon="6.09141">
        <ele>237</ele>
        <time>2012-11-21T10:34:46.000Z</time>
      </trkpt>
      <trkpt lat="47.66402" lon="6.09132">
        <ele>236.80000305176</ele>
        <time>2012-11-21T10:34:47.000Z</time>
      </trkpt>
      <trkpt lat="47.66401" lon="6.09107">
        <ele>236.19999694824</ele>
        <time>2012-11-21T10:34:50.000Z</time>
      </trkpt>
      <trkpt lat="47.66401" lon="6.09099">
        <ele>235.80000305176</ele>
        <time>2012-11-21T10:34:51.000Z</time>
      </trkpt>
      <trkpt lat="47.66401" lon="6.09091">
        <ele>235.19999694824</ele>
        <time>2012-11-21T10:34:52.000Z</time>
      </trkpt>
      <trkpt lat="47.66401" lon="6.09082">
        <ele>235</ele>
        <time>2012-11-21T10:34:53.000Z</time>
      </trkpt>
      <trkpt lat="47.66402" lon="6.09074">
        <ele>234.60000610352</ele>
        <time>2012-11-21T10:34:54.000Z</time>
      </trkpt>
      <trkpt lat="47.66406" lon="6.09053">
        <ele>234.60000610352</ele>
        <time>2012-11-21T10:34:57.000Z</time>
      </trkpt>
      <trkpt lat="47.66416" lon="6.09041">
        <ele>234.60000610352</ele>
        <time>2012-11-21T10:35:00.000Z</time>
      </trkpt>
      <trkpt lat="47.66433" lon="6.09038">
        <ele>234.60000610352</ele>
        <time>2012-11-21T10:35:04.000Z</time>
      </trkpt>
      <trkpt lat="47.66437" lon="6.09038">
        <ele>234.60000610352</ele>
        <time>2012-11-21T10:35:05.000Z</time>
      </trkpt>
      <trkpt lat="47.66441" lon="6.09037">
        <ele>234.60000610352</ele>
        <time>2012-11-21T10:35:06.000Z</time>
      </trkpt>
      <trkpt lat="47.66454" lon="6.09036">
        <ele>234.60000610352</ele>
        <time>2012-11-21T10:35:09.000Z</time>
      </trkpt>
      <trkpt lat="47.66466" lon="6.09036">
        <ele>233.80000305176</ele>
        <time>2012-11-21T10:35:12.000Z</time>
      </trkpt>
      <trkpt lat="47.6647" lon="6.09035">
        <ele>233.19999694824</ele>
        <time>2012-11-21T10:35:13.000Z</time>
      </trkpt>
      <trkpt lat="47.66474" lon="6.09035">
        <ele>233</ele>
        <time>2012-11-21T10:35:14.000Z</time>
      </trkpt>
      <trkpt lat="47.66478" lon="6.09035">
        <ele>232.60000610352</ele>
        <time>2012-11-21T10:35:15.000Z</time>
      </trkpt>
      <trkpt lat="47.66515" lon="6.09034">
        <ele>232.60000610352</ele>
        <time>2012-11-21T10:35:24.000Z</time>
      </trkpt>
      <trkpt lat="47.66542" lon="6.09034">
        <ele>232.60000610352</ele>
        <time>2012-11-21T10:35:31.000Z</time>
      </trkpt>
      <trkpt lat="47.66567" lon="6.0904">
        <ele>232.60000610352</ele>
        <time>2012-11-21T10:35:38.000Z</time>
      </trkpt>
      <trkpt lat="47.66589" lon="6.09045">
        <ele>232.60000610352</ele>
        <time>2012-11-21T10:35:44.000Z</time>
      </trkpt>
      <trkpt lat="47.66614" lon="6.0905">
        <ele>232.60000610352</ele>
        <time>2012-11-21T10:35:50.000Z</time>
      </trkpt>
      <trkpt lat="47.66618" lon="6.09051">
        <ele>232.60000610352</ele>
        <time>2012-11-21T10:35:51.000Z</time>
      </trkpt>
      <trkpt lat="47.6664" lon="6.09058">
        <ele>232.60000610352</ele>
        <time>2012-11-21T10:35:57.000Z</time>
      </trkpt>
      <trkpt lat="47.66662" lon="6.09056">
        <ele>232.60000610352</ele>
        <time>2012-11-21T10:36:03.000Z</time>
      </trkpt>
      <trkpt lat="47.66681" lon="6.09037">
        <ele>232.60000610352</ele>
        <time>2012-11-21T10:36:09.000Z</time>
      </trkpt>
      <trkpt lat="47.66709" lon="6.09009">
        <ele>232.60000610352</ele>
        <time>2012-11-21T10:36:17.000Z</time>
      </trkpt>
      <trkpt lat="47.66712" lon="6.09004">
        <ele>232</ele>
        <time>2012-11-21T10:36:18.000Z</time>
      </trkpt>
      <trkpt lat="47.66715" lon="6.08999">
        <ele>231.80000305176</ele>
        <time>2012-11-21T10:36:19.000Z</time>
      </trkpt>
      <trkpt lat="47.66717" lon="6.08995">
        <ele>231</ele>
        <time>2012-11-21T10:36:20.000Z</time>
      </trkpt>
      <trkpt lat="47.66718" lon="6.08989">
        <ele>230.80000305176</ele>
        <time>2012-11-21T10:36:21.000Z</time>
      </trkpt>
      <trkpt lat="47.66719" lon="6.08984">
        <ele>230.19999694824</ele>
        <time>2012-11-21T10:36:22.000Z</time>
      </trkpt>
      <trkpt lat="47.6672" lon="6.08979">
        <ele>230.19999694824</ele>
        <time>2012-11-21T10:36:23.000Z</time>
      </trkpt>
      <trkpt lat="47.66727" lon="6.08958">
        <ele>230.19999694824</ele>
        <time>2012-11-21T10:36:27.000Z</time>
      </trkpt>
      <trkpt lat="47.66743" lon="6.08911">
        <ele>230.19999694824</ele>
        <time>2012-11-21T10:36:36.000Z</time>
      </trkpt>
      <trkpt lat="47.66754" lon="6.08881">
        <ele>230.19999694824</ele>
        <time>2012-11-21T10:36:42.000Z</time>
      </trkpt>
      <trkpt lat="47.66753" lon="6.08866">
        <ele>230.19999694824</ele>
        <time>2012-11-21T10:36:45.000Z</time>
      </trkpt>
      <trkpt lat="47.66751" lon="6.08862">
        <ele>230.19999694824</ele>
        <time>2012-11-21T10:36:46.000Z</time>
      </trkpt>
      <trkpt lat="47.66737" lon="6.08839">
        <ele>230.19999694824</ele>
        <time>2012-11-21T10:36:52.000Z</time>
      </trkpt>
      <trkpt lat="47.66727" lon="6.08818">
        <ele>230.19999694824</ele>
        <time>2012-11-21T10:36:57.000Z</time>
      </trkpt>
      <trkpt lat="47.66716" lon="6.08779">
        <ele>230.19999694824</ele>
        <time>2012-11-21T10:37:05.000Z</time>
      </trkpt>
      <trkpt lat="47.66707" lon="6.08735">
        <ele>230.19999694824</ele>
        <time>2012-11-21T10:37:14.000Z</time>
      </trkpt>
      <trkpt lat="47.667" lon="6.087">
        <ele>230.19999694824</ele>
        <time>2012-11-21T10:37:21.000Z</time>
      </trkpt>
      <trkpt lat="47.66692" lon="6.0866">
        <ele>230.19999694824</ele>
        <time>2012-11-21T10:37:29.000Z</time>
      </trkpt>
      <trkpt lat="47.66688" lon="6.08638">
        <ele>230.19999694824</ele>
        <time>2012-11-21T10:37:34.000Z</time>
      </trkpt>
      <trkpt lat="47.66683" lon="6.08614">
        <ele>230.19999694824</ele>
        <time>2012-11-21T10:37:40.000Z</time>
      </trkpt>
      <trkpt lat="47.66683" lon="6.08579">
        <ele>230.19999694824</ele>
        <time>2012-11-21T10:37:47.000Z</time>
      </trkpt>
      <trkpt lat="47.66685" lon="6.08541">
        <ele>230.19999694824</ele>
        <time>2012-11-21T10:37:55.000Z</time>
      </trkpt>
      <trkpt lat="47.66689" lon="6.08519">
        <ele>230.19999694824</ele>
        <time>2012-11-21T10:38:00.000Z</time>
      </trkpt>
      <trkpt lat="47.66694" lon="6.08495">
        <ele>230.19999694824</ele>
        <time>2012-11-21T10:38:05.000Z</time>
      </trkpt>
      <trkpt lat="47.66702" lon="6.0847">
        <ele>230.19999694824</ele>
        <time>2012-11-21T10:38:11.000Z</time>
      </trkpt>
      <trkpt lat="47.66713" lon="6.08448">
        <ele>230.19999694824</ele>
        <time>2012-11-21T10:38:16.000Z</time>
      </trkpt>
      <trkpt lat="47.66723" lon="6.08427">
        <ele>230.19999694824</ele>
        <time>2012-11-21T10:38:21.000Z</time>
      </trkpt>
      <trkpt lat="47.66741" lon="6.08407">
        <ele>230.19999694824</ele>
        <time>2012-11-21T10:38:28.000Z</time>
      </trkpt>
      <trkpt lat="47.66757" lon="6.08395">
        <ele>230</ele>
        <time>2012-11-21T10:38:32.000Z</time>
      </trkpt>
      <trkpt lat="47.66763" lon="6.08393">
        <ele>229.60000610352</ele>
        <time>2012-11-21T10:38:33.000Z</time>
      </trkpt>
      <trkpt lat="47.66768" lon="6.08391">
        <ele>229</ele>
        <time>2012-11-21T10:38:34.000Z</time>
      </trkpt>
      <trkpt lat="47.66773" lon="6.0839">
        <ele>228.80000305176</ele>
        <time>2012-11-21T10:38:35.000Z</time>
      </trkpt>
      <trkpt lat="47.66778" lon="6.08388">
        <ele>228.19999694824</ele>
        <time>2012-11-21T10:38:36.000Z</time>
      </trkpt>
      <trkpt lat="47.66796" lon="6.08389">
        <ele>228.19999694824</ele>
        <time>2012-11-21T10:38:40.000Z</time>
      </trkpt>
      <trkpt lat="47.66812" lon="6.08389">
        <ele>228.19999694824</ele>
        <time>2012-11-21T10:38:44.000Z</time>
      </trkpt>
      <trkpt lat="47.66827" lon="6.08384">
        <ele>228.19999694824</ele>
        <time>2012-11-21T10:38:49.000Z</time>
      </trkpt>
      <trkpt lat="47.66845" lon="6.08382">
        <ele>228.19999694824</ele>
        <time>2012-11-21T10:38:56.000Z</time>
      </trkpt>
      <trkpt lat="47.66854" lon="6.08378">
        <ele>228.80000305176</ele>
        <time>2012-11-21T10:39:01.000Z</time>
      </trkpt>
      <trkpt lat="47.66856" lon="6.08378">
        <ele>229</ele>
        <time>2012-11-21T10:39:02.000Z</time>
      </trkpt>
      <trkpt lat="47.66858" lon="6.08376">
        <ele>229.60000610352</ele>
        <time>2012-11-21T10:39:03.000Z</time>
      </trkpt>
      <trkpt lat="47.66859" lon="6.08375">
        <ele>230</ele>
        <time>2012-11-21T10:39:04.000Z</time>
      </trkpt>
      <trkpt lat="47.6686" lon="6.08374">
        <ele>230.19999694824</ele>
        <time>2012-11-21T10:39:05.000Z</time>
      </trkpt>
      <trkpt lat="47.66867" lon="6.08365">
        <ele>230.19999694824</ele>
        <time>2012-11-21T10:39:10.000Z</time>
      </trkpt>
      <trkpt lat="47.66874" lon="6.08352">
        <ele>230.19999694824</ele>
        <time>2012-11-21T10:39:15.000Z</time>
      </trkpt>
      <trkpt lat="47.66886" lon="6.08334">
        <ele>230.19999694824</ele>
        <time>2012-11-21T10:39:21.000Z</time>
      </trkpt>
      <trkpt lat="47.669" lon="6.08306">
        <ele>230.19999694824</ele>
        <time>2012-11-21T10:39:28.000Z</time>
      </trkpt>
      <trkpt lat="47.66908" lon="6.08279">
        <ele>230.19999694824</ele>
        <time>2012-11-21T10:39:35.000Z</time>
      </trkpt>
      <trkpt lat="47.66908" lon="6.08276">
        <ele>230.80000305176</ele>
        <time>2012-11-21T10:39:36.000Z</time>
      </trkpt>
      <trkpt lat="47.66909" lon="6.08273">
        <ele>231</ele>
        <time>2012-11-21T10:39:37.000Z</time>
      </trkpt>
      <trkpt lat="47.6691" lon="6.08269">
        <ele>231.60000610352</ele>
        <time>2012-11-21T10:39:38.000Z</time>
      </trkpt>
      <trkpt lat="47.66911" lon="6.08266">
        <ele>232</ele>
        <time>2012-11-21T10:39:39.000Z</time>
      </trkpt>
      <trkpt lat="47.66912" lon="6.08263">
        <ele>232.19999694824</ele>
        <time>2012-11-21T10:39:40.000Z</time>
      </trkpt>
      <trkpt lat="47.66913" lon="6.08261">
        <ele>232.19999694824</ele>
        <time>2012-11-21T10:39:41.000Z</time>
      </trkpt>
      <trkpt lat="47.66914" lon="6.08247">
        <ele>232.19999694824</ele>
        <time>2012-11-21T10:39:46.000Z</time>
      </trkpt>
      <trkpt lat="47.66916" lon="6.08242">
        <ele>232.80000305176</ele>
        <time>2012-11-21T10:39:48.000Z</time>
      </trkpt>
      <trkpt lat="47.66917" lon="6.08239">
        <ele>233.19999694824</ele>
        <time>2012-11-21T10:39:49.000Z</time>
      </trkpt>
      <trkpt lat="47.66917" lon="6.08237">
        <ele>233.80000305176</ele>
        <time>2012-11-21T10:39:50.000Z</time>
      </trkpt>
      <trkpt lat="47.66917" lon="6.08233">
        <ele>234</ele>
        <time>2012-11-21T10:39:51.000Z</time>
      </trkpt>
      <trkpt lat="47.66917" lon="6.08231">
        <ele>234.60000610352</ele>
        <time>2012-11-21T10:39:52.000Z</time>
      </trkpt>
      <trkpt lat="47.66916" lon="6.08228">
        <ele>234.60000610352</ele>
        <time>2012-11-21T10:39:53.000Z</time>
      </trkpt>
      <trkpt lat="47.66912" lon="6.08214">
        <ele>234.60000610352</ele>
        <time>2012-11-21T10:39:58.000Z</time>
      </trkpt>
      <trkpt lat="47.66907" lon="6.08205">
        <ele>234.60000610352</ele>
        <time>2012-11-21T10:40:03.000Z</time>
      </trkpt>
      <trkpt lat="47.66901" lon="6.08184">
        <ele>234.60000610352</ele>
        <time>2012-11-21T10:40:08.000Z</time>
      </trkpt>
      <trkpt lat="47.66896" lon="6.08169">
        <ele>234.60000610352</ele>
        <time>2012-11-21T10:40:12.000Z</time>
      </trkpt>
      <trkpt lat="47.66893" lon="6.0816">
        <ele>234.60000610352</ele>
        <time>2012-11-21T10:40:14.000Z</time>
      </trkpt>
      <trkpt lat="47.6689" lon="6.08138">
        <ele>234.60000610352</ele>
        <time>2012-11-21T10:40:18.000Z</time>
      </trkpt>
      <trkpt lat="47.6689" lon="6.08131">
        <ele>234.60000610352</ele>
        <time>2012-11-21T10:40:19.000Z</time>
      </trkpt>
      <trkpt lat="47.66892" lon="6.08117">
        <ele>234</ele>
        <time>2012-11-21T10:40:21.000Z</time>
      </trkpt>
      <trkpt lat="47.66895" lon="6.0811">
        <ele>233.80000305176</ele>
        <time>2012-11-21T10:40:22.000Z</time>
      </trkpt>
      <trkpt lat="47.66898" lon="6.08104">
        <ele>233.19999694824</ele>
        <time>2012-11-21T10:40:23.000Z</time>
      </trkpt>
      <trkpt lat="47.66901" lon="6.08098">
        <ele>232.80000305176</ele>
        <time>2012-11-21T10:40:24.000Z</time>
      </trkpt>
      <trkpt lat="47.66905" lon="6.08091">
        <ele>232.19999694824</ele>
        <time>2012-11-21T10:40:25.000Z</time>
      </trkpt>
      <trkpt lat="47.66909" lon="6.08084">
        <ele>231.80000305176</ele>
        <time>2012-11-21T10:40:26.000Z</time>
      </trkpt>
      <trkpt lat="47.66913" lon="6.08076">
        <ele>231.19999694824</ele>
        <time>2012-11-21T10:40:27.000Z</time>
      </trkpt>
      <trkpt lat="47.66917" lon="6.08068">
        <ele>230.80000305176</ele>
        <time>2012-11-21T10:40:28.000Z</time>
      </trkpt>
      <trkpt lat="47.6692" lon="6.08062">
        <ele>230.19999694824</ele>
        <time>2012-11-21T10:40:29.000Z</time>
      </trkpt>
      <trkpt lat="47.66923" lon="6.08057">
        <ele>229.80000305176</ele>
        <time>2012-11-21T10:40:30.000Z</time>
      </trkpt>
      <trkpt lat="47.66926" lon="6.08053">
        <ele>229.19999694824</ele>
        <time>2012-11-21T10:40:31.000Z</time>
      </trkpt>
      <trkpt lat="47.66927" lon="6.08048">
        <ele>228</ele>
        <time>2012-11-21T10:40:32.000Z</time>
      </trkpt>
      <trkpt lat="47.66928" lon="6.08043">
        <ele>227.80000305176</ele>
        <time>2012-11-21T10:40:33.000Z</time>
      </trkpt>
      <trkpt lat="47.66928" lon="6.08037">
        <ele>227</ele>
        <time>2012-11-21T10:40:34.000Z</time>
      </trkpt>
      <trkpt lat="47.66926" lon="6.08032">
        <ele>226.60000610352</ele>
        <time>2012-11-21T10:40:35.000Z</time>
      </trkpt>
      <trkpt lat="47.66924" lon="6.08027">
        <ele>226</ele>
        <time>2012-11-21T10:40:36.000Z</time>
      </trkpt>
      <trkpt lat="47.66921" lon="6.08012">
        <ele>226</ele>
        <time>2012-11-21T10:40:39.000Z</time>
      </trkpt>
      <trkpt lat="47.66929" lon="6.07996">
        <ele>226</ele>
        <time>2012-11-21T10:40:43.000Z</time>
      </trkpt>
      <trkpt lat="47.6694" lon="6.07982">
        <ele>226</ele>
        <time>2012-11-21T10:40:47.000Z</time>
      </trkpt>
      <trkpt lat="47.66946" lon="6.07975">
        <ele>226</ele>
        <time>2012-11-21T10:40:49.000Z</time>
      </trkpt>
      <trkpt lat="47.66963" lon="6.07943">
        <ele>226</ele>
        <time>2012-11-21T10:40:57.000Z</time>
      </trkpt>
      <trkpt lat="47.66975" lon="6.07917">
        <ele>226</ele>
        <time>2012-11-21T10:41:04.000Z</time>
      </trkpt>
      <trkpt lat="47.66986" lon="6.07909">
        <ele>226</ele>
        <time>2012-11-21T10:41:09.000Z</time>
      </trkpt>
      <trkpt lat="47.66997" lon="6.07914">
        <ele>226</ele>
        <time>2012-11-21T10:41:14.000Z</time>
      </trkpt>
      <trkpt lat="47.67015" lon="6.07921">
        <ele>226</ele>
        <time>2012-11-21T10:41:21.000Z</time>
      </trkpt>
      <trkpt lat="47.67029" lon="6.07919">
        <ele>226.60000610352</ele>
        <time>2012-11-21T10:41:26.000Z</time>
      </trkpt>
      <trkpt lat="47.67032" lon="6.07918">
        <ele>227</ele>
        <time>2012-11-21T10:41:27.000Z</time>
      </trkpt>
      <trkpt lat="47.67034" lon="6.07917">
        <ele>227.19999694824</ele>
        <time>2012-11-21T10:41:28.000Z</time>
      </trkpt>
      <trkpt lat="47.67036" lon="6.07916">
        <ele>227.80000305176</ele>
        <time>2012-11-21T10:41:29.000Z</time>
      </trkpt>
      <trkpt lat="47.67038" lon="6.07914">
        <ele>228</ele>
        <time>2012-11-21T10:41:30.000Z</time>
      </trkpt>
      <trkpt lat="47.6704" lon="6.07912">
        <ele>228</ele>
        <time>2012-11-21T10:41:31.000Z</time>
      </trkpt>
      <trkpt lat="47.67047" lon="6.07898">
        <ele>228.60000610352</ele>
        <time>2012-11-21T10:41:36.000Z</time>
      </trkpt>
      <trkpt lat="47.67048" lon="6.07896">
        <ele>229</ele>
        <time>2012-11-21T10:41:37.000Z</time>
      </trkpt>
      <trkpt lat="47.67049" lon="6.07894">
        <ele>229.60000610352</ele>
        <time>2012-11-21T10:41:38.000Z</time>
      </trkpt>
      <trkpt lat="47.67051" lon="6.07891">
        <ele>230</ele>
        <time>2012-11-21T10:41:39.000Z</time>
      </trkpt>
      <trkpt lat="47.67052" lon="6.0789">
        <ele>230.19999694824</ele>
        <time>2012-11-21T10:41:40.000Z</time>
      </trkpt>
      <trkpt lat="47.67058" lon="6.0788">
        <ele>230.19999694824</ele>
        <time>2012-11-21T10:41:44.000Z</time>
      </trkpt>
      <trkpt lat="47.67062" lon="6.07873">
        <ele>231</ele>
        <time>2012-11-21T10:41:47.000Z</time>
      </trkpt>
      <trkpt lat="47.67063" lon="6.0787">
        <ele>231.60000610352</ele>
        <time>2012-11-21T10:41:48.000Z</time>
      </trkpt>
      <trkpt lat="47.67065" lon="6.07868">
        <ele>232</ele>
        <time>2012-11-21T10:41:49.000Z</time>
      </trkpt>
      <trkpt lat="47.67067" lon="6.07866">
        <ele>232.60000610352</ele>
        <time>2012-11-21T10:41:50.000Z</time>
      </trkpt>
      <trkpt lat="47.67068" lon="6.07863">
        <ele>232.60000610352</ele>
        <time>2012-11-21T10:41:51.000Z</time>
      </trkpt>
      <trkpt lat="47.67073" lon="6.07854">
        <ele>233</ele>
        <time>2012-11-21T10:41:55.000Z</time>
      </trkpt>
      <trkpt lat="47.67076" lon="6.07852">
        <ele>233.19999694824</ele>
        <time>2012-11-21T10:41:56.000Z</time>
      </trkpt>
      <trkpt lat="47.67078" lon="6.0785">
        <ele>233.80000305176</ele>
        <time>2012-11-21T10:41:57.000Z</time>
      </trkpt>
      <trkpt lat="47.6708" lon="6.07848">
        <ele>234</ele>
        <time>2012-11-21T10:41:58.000Z</time>
      </trkpt>
      <trkpt lat="47.67082" lon="6.07847">
        <ele>234.80000305176</ele>
        <time>2012-11-21T10:41:59.000Z</time>
      </trkpt>
      <trkpt lat="47.67091" lon="6.07839">
        <ele>234.80000305176</ele>
        <time>2012-11-21T10:42:04.000Z</time>
      </trkpt>
      <trkpt lat="47.67094" lon="6.07837">
        <ele>235</ele>
        <time>2012-11-21T10:42:06.000Z</time>
      </trkpt>
      <trkpt lat="47.67096" lon="6.07835">
        <ele>235.60000610352</ele>
        <time>2012-11-21T10:42:07.000Z</time>
      </trkpt>
      <trkpt lat="47.67098" lon="6.07834">
        <ele>236</ele>
        <time>2012-11-21T10:42:08.000Z</time>
      </trkpt>
      <trkpt lat="47.671" lon="6.07833">
        <ele>236.19999694824</ele>
        <time>2012-11-21T10:42:09.000Z</time>
      </trkpt>
      <trkpt lat="47.67102" lon="6.07831">
        <ele>236.80000305176</ele>
        <time>2012-11-21T10:42:10.000Z</time>
      </trkpt>
      <trkpt lat="47.67104" lon="6.0783">
        <ele>236.80000305176</ele>
        <time>2012-11-21T10:42:11.000Z</time>
      </trkpt>
      <trkpt lat="47.67117" lon="6.07824">
        <ele>236.80000305176</ele>
        <time>2012-11-21T10:42:18.000Z</time>
      </trkpt>
      <trkpt lat="47.67132" lon="6.07819">
        <ele>236.80000305176</ele>
        <time>2012-11-21T10:42:24.000Z</time>
      </trkpt>
      <trkpt lat="47.67135" lon="6.07819">
        <ele>237</ele>
        <time>2012-11-21T10:42:25.000Z</time>
      </trkpt>
      <trkpt lat="47.67137" lon="6.0782">
        <ele>237.60000610352</ele>
        <time>2012-11-21T10:42:26.000Z</time>
      </trkpt>
      <trkpt lat="47.6714" lon="6.0782">
        <ele>238</ele>
        <time>2012-11-21T10:42:27.000Z</time>
      </trkpt>
      <trkpt lat="47.67142" lon="6.0782">
        <ele>238.19999694824</ele>
        <time>2012-11-21T10:42:28.000Z</time>
      </trkpt>
      <trkpt lat="47.67144" lon="6.0782">
        <ele>238.80000305176</ele>
        <time>2012-11-21T10:42:29.000Z</time>
      </trkpt>
      <trkpt lat="47.67146" lon="6.07819">
        <ele>238.80000305176</ele>
        <time>2012-11-21T10:42:30.000Z</time>
      </trkpt>
      <trkpt lat="47.6716" lon="6.07815">
        <ele>238.80000305176</ele>
        <time>2012-11-21T10:42:37.000Z</time>
      </trkpt>
      <trkpt lat="47.67173" lon="6.0781">
        <ele>239</ele>
        <time>2012-11-21T10:42:44.000Z</time>
      </trkpt>
      <trkpt lat="47.67175" lon="6.07809">
        <ele>239.60000610352</ele>
        <time>2012-11-21T10:42:45.000Z</time>
      </trkpt>
      <trkpt lat="47.67177" lon="6.07808">
        <ele>240</ele>
        <time>2012-11-21T10:42:46.000Z</time>
      </trkpt>
      <trkpt lat="47.67179" lon="6.07807">
        <ele>240.19999694824</ele>
        <time>2012-11-21T10:42:47.000Z</time>
      </trkpt>
      <trkpt lat="47.6718" lon="6.07806">
        <ele>240.80000305176</ele>
        <time>2012-11-21T10:42:48.000Z</time>
      </trkpt>
      <trkpt lat="47.67189" lon="6.07801">
        <ele>240.80000305176</ele>
        <time>2012-11-21T10:42:53.000Z</time>
      </trkpt>
      <trkpt lat="47.67202" lon="6.07792">
        <ele>240.80000305176</ele>
        <time>2012-11-21T10:43:00.000Z</time>
      </trkpt>
      <trkpt lat="47.67213" lon="6.07786">
        <ele>240.80000305176</ele>
        <time>2012-11-21T10:43:06.000Z</time>
      </trkpt>
      <trkpt lat="47.67218" lon="6.07783">
        <ele>241</ele>
        <time>2012-11-21T10:43:09.000Z</time>
      </trkpt>
      <trkpt lat="47.6722" lon="6.07783">
        <ele>241.60000610352</ele>
        <time>2012-11-21T10:43:10.000Z</time>
      </trkpt>
      <trkpt lat="47.67222" lon="6.07782">
        <ele>242</ele>
        <time>2012-11-21T10:43:11.000Z</time>
      </trkpt>
      <trkpt lat="47.67224" lon="6.07781">
        <ele>242.19999694824</ele>
        <time>2012-11-21T10:43:12.000Z</time>
      </trkpt>
      <trkpt lat="47.67226" lon="6.0778">
        <ele>242.80000305176</ele>
        <time>2012-11-21T10:43:13.000Z</time>
      </trkpt>
      <trkpt lat="47.67234" lon="6.07772">
        <ele>242.80000305176</ele>
        <time>2012-11-21T10:43:18.000Z</time>
      </trkpt>
      <trkpt lat="47.67244" lon="6.07759">
        <ele>242.80000305176</ele>
        <time>2012-11-21T10:43:25.000Z</time>
      </trkpt>
      <trkpt lat="47.67246" lon="6.07756">
        <ele>242.80000305176</ele>
        <time>2012-11-21T10:43:27.000Z</time>
      </trkpt>
      <trkpt lat="47.67249" lon="6.07752">
        <ele>242.80000305176</ele>
        <time>2012-11-21T10:43:31.000Z</time>
      </trkpt>
      <trkpt lat="47.67249" lon="6.0775">
        <ele>242.80000305176</ele>
        <time>2012-11-21T10:43:32.000Z</time>
      </trkpt>
      <trkpt lat="47.67254" lon="6.07738">
        <ele>242.80000305176</ele>
        <time>2012-11-21T10:43:37.000Z</time>
      </trkpt>
      <trkpt lat="47.67262" lon="6.07723">
        <ele>242.80000305176</ele>
        <time>2012-11-21T10:43:42.000Z</time>
      </trkpt>
      <trkpt lat="47.67273" lon="6.07698">
        <ele>242.80000305176</ele>
        <time>2012-11-21T10:43:50.000Z</time>
      </trkpt>
      <trkpt lat="47.67283" lon="6.07681">
        <ele>242.80000305176</ele>
        <time>2012-11-21T10:43:56.000Z</time>
      </trkpt>
      <trkpt lat="47.67284" lon="6.07677">
        <ele>243</ele>
        <time>2012-11-21T10:43:57.000Z</time>
      </trkpt>
      <trkpt lat="47.67285" lon="6.07674">
        <ele>243.60000610352</ele>
        <time>2012-11-21T10:43:58.000Z</time>
      </trkpt>
      <trkpt lat="47.67287" lon="6.07671">
        <ele>244</ele>
        <time>2012-11-21T10:43:59.000Z</time>
      </trkpt>
      <trkpt lat="47.67289" lon="6.07668">
        <ele>244.60000610352</ele>
        <time>2012-11-21T10:44:00.000Z</time>
      </trkpt>
      <trkpt lat="47.67291" lon="6.07665">
        <ele>245</ele>
        <time>2012-11-21T10:44:01.000Z</time>
      </trkpt>
      <trkpt lat="47.67293" lon="6.07662">
        <ele>245</ele>
        <time>2012-11-21T10:44:02.000Z</time>
      </trkpt>
      <trkpt lat="47.67307" lon="6.07635">
        <ele>245</ele>
        <time>2012-11-21T10:44:08.000Z</time>
      </trkpt>
      <trkpt lat="47.67317" lon="6.07616">
        <ele>245</ele>
        <time>2012-11-21T10:44:13.000Z</time>
      </trkpt>
      <trkpt lat="47.67327" lon="6.07597">
        <ele>245</ele>
        <time>2012-11-21T10:44:18.000Z</time>
      </trkpt>
      <trkpt lat="47.67332" lon="6.07586">
        <ele>245.19999694824</ele>
        <time>2012-11-21T10:44:21.000Z</time>
      </trkpt>
      <trkpt lat="47.67334" lon="6.07582">
        <ele>245.80000305176</ele>
        <time>2012-11-21T10:44:22.000Z</time>
      </trkpt>
      <trkpt lat="47.67336" lon="6.07578">
        <ele>246</ele>
        <time>2012-11-21T10:44:23.000Z</time>
      </trkpt>
      <trkpt lat="47.67338" lon="6.07573">
        <ele>246.60000610352</ele>
        <time>2012-11-21T10:44:24.000Z</time>
      </trkpt>
      <trkpt lat="47.6734" lon="6.07569">
        <ele>247</ele>
        <time>2012-11-21T10:44:25.000Z</time>
      </trkpt>
      <trkpt lat="47.67346" lon="6.07555">
        <ele>247</ele>
        <time>2012-11-21T10:44:28.000Z</time>
      </trkpt>
      <trkpt lat="47.67356" lon="6.07534">
        <ele>247</ele>
        <time>2012-11-21T10:44:33.000Z</time>
      </trkpt>
      <trkpt lat="47.67364" lon="6.07517">
        <ele>247.19999694824</ele>
        <time>2012-11-21T10:44:38.000Z</time>
      </trkpt>
      <trkpt lat="47.67365" lon="6.07514">
        <ele>247.80000305176</ele>
        <time>2012-11-21T10:44:39.000Z</time>
      </trkpt>
      <trkpt lat="47.67367" lon="6.07512">
        <ele>248.60000610352</ele>
        <time>2012-11-21T10:44:40.000Z</time>
      </trkpt>
      <trkpt lat="47.67368" lon="6.07509">
        <ele>249</ele>
        <time>2012-11-21T10:44:41.000Z</time>
      </trkpt>
      <trkpt lat="47.67378" lon="6.07492">
        <ele>249</ele>
        <time>2012-11-21T10:44:47.000Z</time>
      </trkpt>
      <trkpt lat="47.67384" lon="6.07473">
        <ele>249</ele>
        <time>2012-11-21T10:44:53.000Z</time>
      </trkpt>
      <trkpt lat="47.67389" lon="6.07461">
        <ele>249</ele>
        <time>2012-11-21T10:44:57.000Z</time>
      </trkpt>
      <trkpt lat="47.67395" lon="6.07448">
        <ele>249.19999694824</ele>
        <time>2012-11-21T10:45:01.000Z</time>
      </trkpt>
      <trkpt lat="47.67397" lon="6.07445">
        <ele>249.80000305176</ele>
        <time>2012-11-21T10:45:02.000Z</time>
      </trkpt>
      <trkpt lat="47.67399" lon="6.07442">
        <ele>250</ele>
        <time>2012-11-21T10:45:03.000Z</time>
      </trkpt>
      <trkpt lat="47.674" lon="6.07438">
        <ele>251</ele>
        <time>2012-11-21T10:45:04.000Z</time>
      </trkpt>
      <trkpt lat="47.67412" lon="6.07415">
        <ele>251</ele>
        <time>2012-11-21T10:45:11.000Z</time>
      </trkpt>
      <trkpt lat="47.67422" lon="6.07394">
        <ele>251</ele>
        <time>2012-11-21T10:45:18.000Z</time>
      </trkpt>
      <trkpt lat="47.67428" lon="6.07378">
        <ele>251</ele>
        <time>2012-11-21T10:45:23.000Z</time>
      </trkpt>
      <trkpt lat="47.67432" lon="6.07354">
        <ele>251.80000305176</ele>
        <time>2012-11-21T10:45:29.000Z</time>
      </trkpt>
      <trkpt lat="47.67433" lon="6.07351">
        <ele>252.19999694824</ele>
        <time>2012-11-21T10:45:30.000Z</time>
      </trkpt>
      <trkpt lat="47.67433" lon="6.07348">
        <ele>252.80000305176</ele>
        <time>2012-11-21T10:45:31.000Z</time>
      </trkpt>
      <trkpt lat="47.67434" lon="6.07346">
        <ele>253</ele>
        <time>2012-11-21T10:45:32.000Z</time>
      </trkpt>
      <trkpt lat="47.67437" lon="6.07336">
        <ele>253</ele>
        <time>2012-11-21T10:45:36.000Z</time>
      </trkpt>
      <trkpt lat="47.67442" lon="6.0732">
        <ele>253</ele>
        <time>2012-11-21T10:45:41.000Z</time>
      </trkpt>
      <trkpt lat="47.67445" lon="6.07303">
        <ele>253.60000610352</ele>
        <time>2012-11-21T10:45:47.000Z</time>
      </trkpt>
      <trkpt lat="47.67445" lon="6.07301">
        <ele>254</ele>
        <time>2012-11-21T10:45:48.000Z</time>
      </trkpt>
      <trkpt lat="47.67446" lon="6.07298">
        <ele>254.19999694824</ele>
        <time>2012-11-21T10:45:49.000Z</time>
      </trkpt>
      <trkpt lat="47.67446" lon="6.07296">
        <ele>254.80000305176</ele>
        <time>2012-11-21T10:45:50.000Z</time>
      </trkpt>
      <trkpt lat="47.67447" lon="6.07293">
        <ele>255.19999694824</ele>
        <time>2012-11-21T10:45:51.000Z</time>
      </trkpt>
      <trkpt lat="47.67448" lon="6.07288">
        <ele>255.19999694824</ele>
        <time>2012-11-21T10:45:53.000Z</time>
      </trkpt>
      <trkpt lat="47.67451" lon="6.07278">
        <ele>255.80000305176</ele>
        <time>2012-11-21T10:45:57.000Z</time>
      </trkpt>
      <trkpt lat="47.67451" lon="6.07276">
        <ele>256.20001220703</ele>
        <time>2012-11-21T10:45:58.000Z</time>
      </trkpt>
      <trkpt lat="47.67452" lon="6.07273">
        <ele>256.60000610352</ele>
        <time>2012-11-21T10:45:59.000Z</time>
      </trkpt>
      <trkpt lat="47.67453" lon="6.0727">
        <ele>257</ele>
        <time>2012-11-21T10:46:00.000Z</time>
      </trkpt>
      <trkpt lat="47.67454" lon="6.07267">
        <ele>257.20001220703</ele>
        <time>2012-11-21T10:46:01.000Z</time>
      </trkpt>
      <trkpt lat="47.67458" lon="6.07252">
        <ele>257.20001220703</ele>
        <time>2012-11-21T10:46:05.000Z</time>
      </trkpt>
      <trkpt lat="47.67459" lon="6.07244">
        <ele>257.60000610352</ele>
        <time>2012-11-21T10:46:07.000Z</time>
      </trkpt>
      <trkpt lat="47.6746" lon="6.07241">
        <ele>258.20001220703</ele>
        <time>2012-11-21T10:46:08.000Z</time>
      </trkpt>
      <trkpt lat="47.6746" lon="6.07238">
        <ele>258.60000610352</ele>
        <time>2012-11-21T10:46:09.000Z</time>
      </trkpt>
      <trkpt lat="47.6746" lon="6.07234">
        <ele>259.20001220703</ele>
        <time>2012-11-21T10:46:10.000Z</time>
      </trkpt>
      <trkpt lat="47.6746" lon="6.0723">
        <ele>259.60000610352</ele>
        <time>2012-11-21T10:46:11.000Z</time>
      </trkpt>
      <trkpt lat="47.6746" lon="6.07227">
        <ele>259.60000610352</ele>
        <time>2012-11-21T10:46:12.000Z</time>
      </trkpt>
      <trkpt lat="47.67462" lon="6.07221">
        <ele>259.60000610352</ele>
        <time>2012-11-21T10:46:14.000Z</time>
      </trkpt>
      <trkpt lat="47.67465" lon="6.07217">
        <ele>259.60000610352</ele>
        <time>2012-11-21T10:46:16.000Z</time>
      </trkpt>
      <trkpt lat="47.67466" lon="6.07211">
        <ele>260</ele>
        <time>2012-11-21T10:46:19.000Z</time>
      </trkpt>
      <trkpt lat="47.67466" lon="6.07208">
        <ele>260.20001220703</ele>
        <time>2012-11-21T10:46:20.000Z</time>
      </trkpt>
      <trkpt lat="47.67466" lon="6.07206">
        <ele>261</ele>
        <time>2012-11-21T10:46:21.000Z</time>
      </trkpt>
      <trkpt lat="47.67466" lon="6.07203">
        <ele>261.20001220703</ele>
        <time>2012-11-21T10:46:22.000Z</time>
      </trkpt>
      <trkpt lat="47.67466" lon="6.07201">
        <ele>261.60000610352</ele>
        <time>2012-11-21T10:46:23.000Z</time>
      </trkpt>
      <trkpt lat="47.67468" lon="6.07192">
        <ele>261.60000610352</ele>
        <time>2012-11-21T10:46:28.000Z</time>
      </trkpt>
      <trkpt lat="47.67468" lon="6.0719">
        <ele>261.60000610352</ele>
        <time>2012-11-21T10:46:29.000Z</time>
      </trkpt>
      <trkpt lat="47.6747" lon="6.07179">
        <ele>261.60000610352</ele>
        <time>2012-11-21T10:46:34.000Z</time>
      </trkpt>
      <trkpt lat="47.67471" lon="6.07176">
        <ele>262.20001220703</ele>
        <time>2012-11-21T10:46:36.000Z</time>
      </trkpt>
      <trkpt lat="47.67472" lon="6.0717">
        <ele>263.20001220703</ele>
        <time>2012-11-21T10:46:39.000Z</time>
      </trkpt>
      <trkpt lat="47.67472" lon="6.07168">
        <ele>263.60000610352</ele>
        <time>2012-11-21T10:46:40.000Z</time>
      </trkpt>
      <trkpt lat="47.67473" lon="6.07165">
        <ele>263.60000610352</ele>
        <time>2012-11-21T10:46:41.000Z</time>
      </trkpt>
      <trkpt lat="47.67476" lon="6.07152">
        <ele>263.60000610352</ele>
        <time>2012-11-21T10:46:47.000Z</time>
      </trkpt>
      <trkpt lat="47.67479" lon="6.07139">
        <ele>263.60000610352</ele>
        <time>2012-11-21T10:46:55.000Z</time>
      </trkpt>
      <trkpt lat="47.6748" lon="6.07132">
        <ele>264.20001220703</ele>
        <time>2012-11-21T10:46:58.000Z</time>
      </trkpt>
      <trkpt lat="47.67481" lon="6.0713">
        <ele>264.60000610352</ele>
        <time>2012-11-21T10:46:59.000Z</time>
      </trkpt>
      <trkpt lat="47.67482" lon="6.07127">
        <ele>265</ele>
        <time>2012-11-21T10:47:00.000Z</time>
      </trkpt>
      <trkpt lat="47.67483" lon="6.07125">
        <ele>265.20001220703</ele>
        <time>2012-11-21T10:47:01.000Z</time>
      </trkpt>
      <trkpt lat="47.67483" lon="6.07124">
        <ele>265.60000610352</ele>
        <time>2012-11-21T10:47:02.000Z</time>
      </trkpt>
      <trkpt lat="47.67483" lon="6.07122">
        <ele>265.60000610352</ele>
        <time>2012-11-21T10:47:03.000Z</time>
      </trkpt>
      <trkpt lat="47.67484" lon="6.07118">
        <ele>265.60000610352</ele>
        <time>2012-11-21T10:47:05.000Z</time>
      </trkpt>
      <trkpt lat="47.67488" lon="6.07105">
        <ele>265.60000610352</ele>
        <time>2012-11-21T10:47:10.000Z</time>
      </trkpt>
      <trkpt lat="47.67489" lon="6.07093">
        <ele>265.60000610352</ele>
        <time>2012-11-21T10:47:15.000Z</time>
      </trkpt>
      <trkpt lat="47.67491" lon="6.07087">
        <ele>265.60000610352</ele>
        <time>2012-11-21T10:47:18.000Z</time>
      </trkpt>
      <trkpt lat="47.67493" lon="6.07081">
        <ele>265.60000610352</ele>
        <time>2012-11-21T10:47:20.000Z</time>
      </trkpt>
      <trkpt lat="47.67495" lon="6.07069">
        <ele>265.60000610352</ele>
        <time>2012-11-21T10:47:24.000Z</time>
      </trkpt>
      <trkpt lat="47.67496" lon="6.0706">
        <ele>266.20001220703</ele>
        <time>2012-11-21T10:47:28.000Z</time>
      </trkpt>
      <trkpt lat="47.67496" lon="6.07057">
        <ele>266.60000610352</ele>
        <time>2012-11-21T10:47:29.000Z</time>
      </trkpt>
      <trkpt lat="47.67497" lon="6.07054">
        <ele>267.20001220703</ele>
        <time>2012-11-21T10:47:30.000Z</time>
      </trkpt>
      <trkpt lat="47.67498" lon="6.07051">
        <ele>267.60000610352</ele>
        <time>2012-11-21T10:47:31.000Z</time>
      </trkpt>
      <trkpt lat="47.67498" lon="6.07049">
        <ele>268</ele>
        <time>2012-11-21T10:47:32.000Z</time>
      </trkpt>
      <trkpt lat="47.67501" lon="6.07039">
        <ele>268</ele>
        <time>2012-11-21T10:47:36.000Z</time>
      </trkpt>
      <trkpt lat="47.67503" lon="6.07024">
        <ele>268</ele>
        <time>2012-11-21T10:47:41.000Z</time>
      </trkpt>
      <trkpt lat="47.67504" lon="6.07022">
        <ele>268</ele>
        <time>2012-11-21T10:47:42.000Z</time>
      </trkpt>
      <trkpt lat="47.67508" lon="6.07014">
        <ele>268</ele>
        <time>2012-11-21T10:47:46.000Z</time>
      </trkpt>
      <trkpt lat="47.67513" lon="6.06995">
        <ele>268</ele>
        <time>2012-11-21T10:47:54.000Z</time>
      </trkpt>
      <trkpt lat="47.67516" lon="6.06977">
        <ele>268.20001220703</ele>
        <time>2012-11-21T10:48:01.000Z</time>
      </trkpt>
      <trkpt lat="47.67516" lon="6.06973">
        <ele>268.60000610352</ele>
        <time>2012-11-21T10:48:02.000Z</time>
      </trkpt>
      <trkpt lat="47.67516" lon="6.06969">
        <ele>269.20001220703</ele>
        <time>2012-11-21T10:48:03.000Z</time>
      </trkpt>
      <trkpt lat="47.67516" lon="6.06965">
        <ele>269.60000610352</ele>
        <time>2012-11-21T10:48:04.000Z</time>
      </trkpt>
      <trkpt lat="47.67517" lon="6.06961">
        <ele>270</ele>
        <time>2012-11-21T10:48:05.000Z</time>
      </trkpt>
      <trkpt lat="47.67517" lon="6.06957">
        <ele>270</ele>
        <time>2012-11-21T10:48:06.000Z</time>
      </trkpt>
      <trkpt lat="47.67519" lon="6.06938">
        <ele>270</ele>
        <time>2012-11-21T10:48:12.000Z</time>
      </trkpt>
      <trkpt lat="47.67522" lon="6.0692">
        <ele>270</ele>
        <time>2012-11-21T10:48:19.000Z</time>
      </trkpt>
      <trkpt lat="47.67526" lon="6.06909">
        <ele>270</ele>
        <time>2012-11-21T10:48:25.000Z</time>
      </trkpt>
      <trkpt lat="47.6753" lon="6.06895">
        <ele>270</ele>
        <time>2012-11-21T10:48:31.000Z</time>
      </trkpt>
      <trkpt lat="47.67531" lon="6.0689">
        <ele>270</ele>
        <time>2012-11-21T10:48:35.000Z</time>
      </trkpt>
      <trkpt lat="47.67532" lon="6.0688">
        <ele>270</ele>
        <time>2012-11-21T10:48:46.000Z</time>
      </trkpt>
      <trkpt lat="47.67534" lon="6.06869">
        <ele>270</ele>
        <time>2012-11-21T10:48:50.000Z</time>
      </trkpt>
      <trkpt lat="47.67534" lon="6.06864">
        <ele>270</ele>
        <time>2012-11-21T10:48:52.000Z</time>
      </trkpt>
      <trkpt lat="47.67538" lon="6.06848">
        <ele>270</ele>
        <time>2012-11-21T10:48:57.000Z</time>
      </trkpt>
      <trkpt lat="47.67541" lon="6.06832">
        <ele>270</ele>
        <time>2012-11-21T10:49:02.000Z</time>
      </trkpt>
      <trkpt lat="47.67542" lon="6.06829">
        <ele>270</ele>
        <time>2012-11-21T10:49:03.000Z</time>
      </trkpt>
      <trkpt lat="47.67543" lon="6.06813">
        <ele>270</ele>
        <time>2012-11-21T10:49:07.000Z</time>
      </trkpt>
      <trkpt lat="47.67544" lon="6.06804">
        <ele>270</ele>
        <time>2012-11-21T10:49:09.000Z</time>
      </trkpt>
      <trkpt lat="47.67547" lon="6.0679">
        <ele>270</ele>
        <time>2012-11-21T10:49:13.000Z</time>
      </trkpt>
      <trkpt lat="47.67551" lon="6.06767">
        <ele>270</ele>
        <time>2012-11-21T10:49:19.000Z</time>
      </trkpt>
      <trkpt lat="47.67553" lon="6.0675">
        <ele>269.60000610352</ele>
        <time>2012-11-21T10:49:22.000Z</time>
      </trkpt>
      <trkpt lat="47.67554" lon="6.06745">
        <ele>269.20001220703</ele>
        <time>2012-11-21T10:49:23.000Z</time>
      </trkpt>
      <trkpt lat="47.67555" lon="6.06739">
        <ele>268.60000610352</ele>
        <time>2012-11-21T10:49:24.000Z</time>
      </trkpt>
      <trkpt lat="47.67555" lon="6.06734">
        <ele>268.20001220703</ele>
        <time>2012-11-21T10:49:25.000Z</time>
      </trkpt>
      <trkpt lat="47.67556" lon="6.06728">
        <ele>268</ele>
        <time>2012-11-21T10:49:26.000Z</time>
      </trkpt>
      <trkpt lat="47.67557" lon="6.06711">
        <ele>267.60000610352</ele>
        <time>2012-11-21T10:49:29.000Z</time>
      </trkpt>
      <trkpt lat="47.67558" lon="6.06706">
        <ele>267.20001220703</ele>
        <time>2012-11-21T10:49:30.000Z</time>
      </trkpt>
      <trkpt lat="47.67558" lon="6.067">
        <ele>266.60000610352</ele>
        <time>2012-11-21T10:49:31.000Z</time>
      </trkpt>
      <trkpt lat="47.67558" lon="6.06694">
        <ele>266.20001220703</ele>
        <time>2012-11-21T10:49:32.000Z</time>
      </trkpt>
      <trkpt lat="47.67559" lon="6.0669">
        <ele>266</ele>
        <time>2012-11-21T10:49:33.000Z</time>
      </trkpt>
      <trkpt lat="47.6756" lon="6.06682">
        <ele>265.20001220703</ele>
        <time>2012-11-21T10:49:35.000Z</time>
      </trkpt>
      <trkpt lat="47.67561" lon="6.06678">
        <ele>264.60000610352</ele>
        <time>2012-11-21T10:49:36.000Z</time>
      </trkpt>
      <trkpt lat="47.67561" lon="6.06674">
        <ele>264.20001220703</ele>
        <time>2012-11-21T10:49:37.000Z</time>
      </trkpt>
      <trkpt lat="47.67562" lon="6.06671">
        <ele>263.60000610352</ele>
        <time>2012-11-21T10:49:38.000Z</time>
      </trkpt>
      <trkpt lat="47.67562" lon="6.06662">
        <ele>263.60000610352</ele>
        <time>2012-11-21T10:49:41.000Z</time>
      </trkpt>
      <trkpt lat="47.67563" lon="6.0666">
        <ele>263.20001220703</ele>
        <time>2012-11-21T10:49:42.000Z</time>
      </trkpt>
      <trkpt lat="47.67563" lon="6.06659">
        <ele>263</ele>
        <time>2012-11-21T10:49:43.000Z</time>
      </trkpt>
      <trkpt lat="47.67563" lon="6.06657">
        <ele>262.60000610352</ele>
        <time>2012-11-21T10:49:44.000Z</time>
      </trkpt>
      <trkpt lat="47.67563" lon="6.06654">
        <ele>262</ele>
        <time>2012-11-21T10:49:45.000Z</time>
      </trkpt>
      <trkpt lat="47.67563" lon="6.06652">
        <ele>261.60000610352</ele>
        <time>2012-11-21T10:49:46.000Z</time>
      </trkpt>
      <trkpt lat="47.67564" lon="6.06649">
        <ele>261.60000610352</ele>
        <time>2012-11-21T10:49:47.000Z</time>
      </trkpt>
      <trkpt lat="47.67566" lon="6.06632">
        <ele>261.60000610352</ele>
        <time>2012-11-21T10:49:52.000Z</time>
      </trkpt>
      <trkpt lat="47.67567" lon="6.0663">
        <ele>261.60000610352</ele>
        <time>2012-11-21T10:49:53.000Z</time>
      </trkpt>
      <trkpt lat="47.67569" lon="6.06625">
        <ele>261.60000610352</ele>
        <time>2012-11-21T10:49:55.000Z</time>
      </trkpt>
      <trkpt lat="47.67571" lon="6.06618">
        <ele>261.60000610352</ele>
        <time>2012-11-21T10:49:57.000Z</time>
      </trkpt>
      <trkpt lat="47.67573" lon="6.06611">
        <ele>261.60000610352</ele>
        <time>2012-11-21T10:49:59.000Z</time>
      </trkpt>
      <trkpt lat="47.67579" lon="6.06594">
        <ele>261.60000610352</ele>
        <time>2012-11-21T10:50:03.000Z</time>
      </trkpt>
      <trkpt lat="47.6758" lon="6.06592">
        <ele>261.60000610352</ele>
        <time>2012-11-21T10:50:04.000Z</time>
      </trkpt>
      <trkpt lat="47.67582" lon="6.06589">
        <ele>261.60000610352</ele>
        <time>2012-11-21T10:50:06.000Z</time>
      </trkpt>
      <trkpt lat="47.67582" lon="6.06587">
        <ele>261.60000610352</ele>
        <time>2012-11-21T10:50:07.000Z</time>
      </trkpt>
      <trkpt lat="47.67586" lon="6.0657">
        <ele>261.60000610352</ele>
        <time>2012-11-21T10:50:13.000Z</time>
      </trkpt>
      <trkpt lat="47.67592" lon="6.06553">
        <ele>261.60000610352</ele>
        <time>2012-11-21T10:50:20.000Z</time>
      </trkpt>
      <trkpt lat="47.67596" lon="6.0654">
        <ele>261.60000610352</ele>
        <time>2012-11-21T10:50:26.000Z</time>
      </trkpt>
      <trkpt lat="47.67599" lon="6.0653">
        <ele>261.60000610352</ele>
        <time>2012-11-21T10:50:30.000Z</time>
      </trkpt>
      <trkpt lat="47.676" lon="6.06525">
        <ele>261.60000610352</ele>
        <time>2012-11-21T10:50:32.000Z</time>
      </trkpt>
      <trkpt lat="47.67602" lon="6.06518">
        <ele>261.60000610352</ele>
        <time>2012-11-21T10:50:35.000Z</time>
      </trkpt>
      <trkpt lat="47.67602" lon="6.06512">
        <ele>261.60000610352</ele>
        <time>2012-11-21T10:50:38.000Z</time>
      </trkpt>
      <trkpt lat="47.67604" lon="6.06501">
        <ele>261.60000610352</ele>
        <time>2012-11-21T10:50:42.000Z</time>
      </trkpt>
      <trkpt lat="47.67605" lon="6.06497">
        <ele>261.60000610352</ele>
        <time>2012-11-21T10:50:44.000Z</time>
      </trkpt>
      <trkpt lat="47.67607" lon="6.06494">
        <ele>261.60000610352</ele>
        <time>2012-11-21T10:50:46.000Z</time>
      </trkpt>
      <trkpt lat="47.67609" lon="6.06486">
        <ele>261.60000610352</ele>
        <time>2012-11-21T10:50:50.000Z</time>
      </trkpt>
      <trkpt lat="47.67616" lon="6.06468">
        <ele>261.60000610352</ele>
        <time>2012-11-21T10:50:57.000Z</time>
      </trkpt>
      <trkpt lat="47.67623" lon="6.06451">
        <ele>261.60000610352</ele>
        <time>2012-11-21T10:51:02.000Z</time>
      </trkpt>
      <trkpt lat="47.67631" lon="6.06439">
        <ele>261.60000610352</ele>
        <time>2012-11-21T10:51:08.000Z</time>
      </trkpt>
      <trkpt lat="47.67635" lon="6.06434">
        <ele>261.60000610352</ele>
        <time>2012-11-21T10:51:12.000Z</time>
      </trkpt>
      <trkpt lat="47.67638" lon="6.06431">
        <ele>261.60000610352</ele>
        <time>2012-11-21T10:51:14.000Z</time>
      </trkpt>
      <trkpt lat="47.67642" lon="6.06422">
        <ele>261.60000610352</ele>
        <time>2012-11-21T10:51:18.000Z</time>
      </trkpt>
      <trkpt lat="47.67643" lon="6.06416">
        <ele>262</ele>
        <time>2012-11-21T10:51:21.000Z</time>
      </trkpt>
      <trkpt lat="47.67644" lon="6.06413">
        <ele>262.20001220703</ele>
        <time>2012-11-21T10:51:22.000Z</time>
      </trkpt>
      <trkpt lat="47.67644" lon="6.0641">
        <ele>262.60000610352</ele>
        <time>2012-11-21T10:51:23.000Z</time>
      </trkpt>
      <trkpt lat="47.67645" lon="6.06406">
        <ele>263.20001220703</ele>
        <time>2012-11-21T10:51:24.000Z</time>
      </trkpt>
      <trkpt lat="47.67646" lon="6.06403">
        <ele>263.60000610352</ele>
        <time>2012-11-21T10:51:25.000Z</time>
      </trkpt>
      <trkpt lat="47.67651" lon="6.06392">
        <ele>263.60000610352</ele>
        <time>2012-11-21T10:51:29.000Z</time>
      </trkpt>
      <trkpt lat="47.67653" lon="6.06387">
        <ele>263.60000610352</ele>
        <time>2012-11-21T10:51:31.000Z</time>
      </trkpt>
      <trkpt lat="47.67655" lon="6.06377">
        <ele>263.60000610352</ele>
        <time>2012-11-21T10:51:36.000Z</time>
      </trkpt>
      <trkpt lat="47.67661" lon="6.06364">
        <ele>263.60000610352</ele>
        <time>2012-11-21T10:51:43.000Z</time>
      </trkpt>
      <trkpt lat="47.67668" lon="6.06354">
        <ele>263.60000610352</ele>
        <time>2012-11-21T10:51:47.000Z</time>
      </trkpt>
      <trkpt lat="47.67669" lon="6.06353">
        <ele>264</ele>
        <time>2012-11-21T10:51:48.000Z</time>
      </trkpt>
      <trkpt lat="47.67671" lon="6.06351">
        <ele>264.20001220703</ele>
        <time>2012-11-21T10:51:49.000Z</time>
      </trkpt>
      <trkpt lat="47.67672" lon="6.06349">
        <ele>264.60000610352</ele>
        <time>2012-11-21T10:51:50.000Z</time>
      </trkpt>
      <trkpt lat="47.67674" lon="6.06346">
        <ele>265.20001220703</ele>
        <time>2012-11-21T10:51:51.000Z</time>
      </trkpt>
      <trkpt lat="47.67675" lon="6.06345">
        <ele>265.60000610352</ele>
        <time>2012-11-21T10:51:52.000Z</time>
      </trkpt>
      <trkpt lat="47.67676" lon="6.06342">
        <ele>265.60000610352</ele>
        <time>2012-11-21T10:51:54.000Z</time>
      </trkpt>
      <trkpt lat="47.67683" lon="6.06334">
        <ele>265.60000610352</ele>
        <time>2012-11-21T10:51:59.000Z</time>
      </trkpt>
      <trkpt lat="47.67691" lon="6.06324">
        <ele>265.60000610352</ele>
        <time>2012-11-21T10:52:05.000Z</time>
      </trkpt>
      <trkpt lat="47.67699" lon="6.06312">
        <ele>265.60000610352</ele>
        <time>2012-11-21T10:52:10.000Z</time>
      </trkpt>
      <trkpt lat="47.67709" lon="6.06293">
        <ele>266.20001220703</ele>
        <time>2012-11-21T10:52:17.000Z</time>
      </trkpt>
      <trkpt lat="47.67709" lon="6.0629">
        <ele>266.60000610352</ele>
        <time>2012-11-21T10:52:18.000Z</time>
      </trkpt>
      <trkpt lat="47.6771" lon="6.06287">
        <ele>267</ele>
        <time>2012-11-21T10:52:19.000Z</time>
      </trkpt>
      <trkpt lat="47.67712" lon="6.06284">
        <ele>267.20001220703</ele>
        <time>2012-11-21T10:52:20.000Z</time>
      </trkpt>
      <trkpt lat="47.67714" lon="6.06281">
        <ele>267.60000610352</ele>
        <time>2012-11-21T10:52:21.000Z</time>
      </trkpt>
      <trkpt lat="47.67715" lon="6.06279">
        <ele>267.60000610352</ele>
        <time>2012-11-21T10:52:22.000Z</time>
      </trkpt>
      <trkpt lat="47.67723" lon="6.06259">
        <ele>267.60000610352</ele>
        <time>2012-11-21T10:52:28.000Z</time>
      </trkpt>
      <trkpt lat="47.67735" lon="6.06241">
        <ele>267.60000610352</ele>
        <time>2012-11-21T10:52:35.000Z</time>
      </trkpt>
      <trkpt lat="47.67743" lon="6.06227">
        <ele>267.60000610352</ele>
        <time>2012-11-21T10:52:40.000Z</time>
      </trkpt>
      <trkpt lat="47.67744" lon="6.06226">
        <ele>267.60000610352</ele>
        <time>2012-11-21T10:52:41.000Z</time>
      </trkpt>
      <trkpt lat="47.67747" lon="6.06222">
        <ele>267.60000610352</ele>
        <time>2012-11-21T10:52:44.000Z</time>
      </trkpt>
      <trkpt lat="47.67749" lon="6.06218">
        <ele>267.60000610352</ele>
        <time>2012-11-21T10:52:45.000Z</time>
      </trkpt>
      <trkpt lat="47.67756" lon="6.06201">
        <ele>267.20001220703</ele>
        <time>2012-11-21T10:52:50.000Z</time>
      </trkpt>
      <trkpt lat="47.67757" lon="6.06196">
        <ele>267</ele>
        <time>2012-11-21T10:52:51.000Z</time>
      </trkpt>
      <trkpt lat="47.67759" lon="6.06191">
        <ele>266.60000610352</ele>
        <time>2012-11-21T10:52:52.000Z</time>
      </trkpt>
      <trkpt lat="47.67761" lon="6.06186">
        <ele>266.20001220703</ele>
        <time>2012-11-21T10:52:53.000Z</time>
      </trkpt>
      <trkpt lat="47.67763" lon="6.0618">
        <ele>265.60000610352</ele>
        <time>2012-11-21T10:52:54.000Z</time>
      </trkpt>
      <trkpt lat="47.67765" lon="6.06175">
        <ele>265.60000610352</ele>
        <time>2012-11-21T10:52:55.000Z</time>
      </trkpt>
      <trkpt lat="47.67773" lon="6.06157">
        <ele>265.60000610352</ele>
        <time>2012-11-21T10:52:59.000Z</time>
      </trkpt>
      <trkpt lat="47.67775" lon="6.06148">
        <ele>265.60000610352</ele>
        <time>2012-11-21T10:53:03.000Z</time>
      </trkpt>
      <trkpt lat="47.67775" lon="6.06147">
        <ele>265.20001220703</ele>
        <time>2012-11-21T10:53:04.000Z</time>
      </trkpt>
      <trkpt lat="47.67777" lon="6.06142">
        <ele>263.60000610352</ele>
        <time>2012-11-21T10:53:11.000Z</time>
      </trkpt>
      <trkpt lat="47.67776" lon="6.06139">
        <ele>263.60000610352</ele>
        <time>2012-11-21T10:53:13.000Z</time>
      </trkpt>
      <trkpt lat="47.67777" lon="6.06131">
        <ele>263.60000610352</ele>
        <time>2012-11-21T10:53:20.000Z</time>
      </trkpt>
      <trkpt lat="47.67777" lon="6.06126">
        <ele>263.60000610352</ele>
        <time>2012-11-21T10:53:24.000Z</time>
      </trkpt>
      <trkpt lat="47.67779" lon="6.06121">
        <ele>263.60000610352</ele>
        <time>2012-11-21T10:53:32.000Z</time>
      </trkpt>
      <trkpt lat="47.6778" lon="6.06119">
        <ele>263.60000610352</ele>
        <time>2012-11-21T10:53:33.000Z</time>
      </trkpt>
      <trkpt lat="47.67782" lon="6.06113">
        <ele>263.60000610352</ele>
        <time>2012-11-21T10:53:36.000Z</time>
      </trkpt>
      <trkpt lat="47.67784" lon="6.0611">
        <ele>263.60000610352</ele>
        <time>2012-11-21T10:53:38.000Z</time>
      </trkpt>
      <trkpt lat="47.67794" lon="6.06095">
        <ele>263.60000610352</ele>
        <time>2012-11-21T10:53:46.000Z</time>
      </trkpt>
      <trkpt lat="47.67794" lon="6.06094">
        <ele>263.60000610352</ele>
        <time>2012-11-21T10:53:47.000Z</time>
      </trkpt>
      <trkpt lat="47.67796" lon="6.06092">
        <ele>261.60000610352</ele>
        <time>2012-11-21T10:53:56.000Z</time>
      </trkpt>
      <trkpt lat="47.67798" lon="6.06092">
        <ele>261.60000610352</ele>
        <time>2012-11-21T10:53:58.000Z</time>
      </trkpt>
      <trkpt lat="47.67801" lon="6.06106">
        <ele>261.60000610352</ele>
        <time>2012-11-21T10:54:16.000Z</time>
      </trkpt>
      <trkpt lat="47.67803" lon="6.06113">
        <ele>261.60000610352</ele>
        <time>2012-11-21T10:54:18.000Z</time>
      </trkpt>
      <trkpt lat="47.67807" lon="6.06134">
        <ele>261.60000610352</ele>
        <time>2012-11-21T10:54:24.000Z</time>
      </trkpt>
      <trkpt lat="47.67808" lon="6.06138">
        <ele>261.20001220703</ele>
        <time>2012-11-21T10:54:25.000Z</time>
      </trkpt>
      <trkpt lat="47.67808" lon="6.06143">
        <ele>260.60000610352</ele>
        <time>2012-11-21T10:54:26.000Z</time>
      </trkpt>
      <trkpt lat="47.67809" lon="6.06147">
        <ele>260.20001220703</ele>
        <time>2012-11-21T10:54:27.000Z</time>
      </trkpt>
      <trkpt lat="47.67809" lon="6.0615">
        <ele>259.60000610352</ele>
        <time>2012-11-21T10:54:28.000Z</time>
      </trkpt>
      <trkpt lat="47.6781" lon="6.06154">
        <ele>259.20001220703</ele>
        <time>2012-11-21T10:54:29.000Z</time>
      </trkpt>
      <trkpt lat="47.67811" lon="6.06158">
        <ele>259.20001220703</ele>
        <time>2012-11-21T10:54:31.000Z</time>
      </trkpt>
      <trkpt lat="47.67812" lon="6.06163">
        <ele>259.20001220703</ele>
        <time>2012-11-21T10:54:34.000Z</time>
      </trkpt>
      <trkpt lat="47.67816" lon="6.06176">
        <ele>259.20001220703</ele>
        <time>2012-11-21T10:54:40.000Z</time>
      </trkpt>
      <trkpt lat="47.67822" lon="6.06191">
        <ele>259.20001220703</ele>
        <time>2012-11-21T10:54:46.000Z</time>
      </trkpt>
      <trkpt lat="47.67824" lon="6.06197">
        <ele>259</ele>
        <time>2012-11-21T10:54:48.000Z</time>
      </trkpt>
      <trkpt lat="47.67825" lon="6.062">
        <ele>258.60000610352</ele>
        <time>2012-11-21T10:54:49.000Z</time>
      </trkpt>
      <trkpt lat="47.67827" lon="6.06203">
        <ele>258.20001220703</ele>
        <time>2012-11-21T10:54:50.000Z</time>
      </trkpt>
      <trkpt lat="47.6783" lon="6.06208">
        <ele>257.60000610352</ele>
        <time>2012-11-21T10:54:51.000Z</time>
      </trkpt>
      <trkpt lat="47.67832" lon="6.06213">
        <ele>257.20001220703</ele>
        <time>2012-11-21T10:54:52.000Z</time>
      </trkpt>
      <trkpt lat="47.67845" lon="6.06234">
        <ele>257.20001220703</ele>
        <time>2012-11-21T10:54:57.000Z</time>
      </trkpt>
      <trkpt lat="47.67857" lon="6.06247">
        <ele>257.20001220703</ele>
        <time>2012-11-21T10:55:02.000Z</time>
      </trkpt>
      <trkpt lat="47.67867" lon="6.06259">
        <ele>257.20001220703</ele>
        <time>2012-11-21T10:55:08.000Z</time>
      </trkpt>
      <trkpt lat="47.67875" lon="6.06271">
        <ele>257.60000610352</ele>
        <time>2012-11-21T10:55:12.000Z</time>
      </trkpt>
      <trkpt lat="47.67877" lon="6.06274">
        <ele>258.20001220703</ele>
        <time>2012-11-21T10:55:13.000Z</time>
      </trkpt>
      <trkpt lat="47.67879" lon="6.06276">
        <ele>258.60000610352</ele>
        <time>2012-11-21T10:55:14.000Z</time>
      </trkpt>
      <trkpt lat="47.6788" lon="6.06279">
        <ele>259.20001220703</ele>
        <time>2012-11-21T10:55:15.000Z</time>
      </trkpt>
      <trkpt lat="47.6788" lon="6.0628">
        <ele>259.60000610352</ele>
        <time>2012-11-21T10:55:16.000Z</time>
      </trkpt>
      <trkpt lat="47.67884" lon="6.06285">
        <ele>259.60000610352</ele>
        <time>2012-11-21T10:55:19.000Z</time>
      </trkpt>
      <trkpt lat="47.67885" lon="6.06287">
        <ele>259.60000610352</ele>
        <time>2012-11-21T10:55:20.000Z</time>
      </trkpt>
      <trkpt lat="47.67887" lon="6.06288">
        <ele>260</ele>
        <time>2012-11-21T10:55:21.000Z</time>
      </trkpt>
      <trkpt lat="47.67889" lon="6.0629">
        <ele>260.20001220703</ele>
        <time>2012-11-21T10:55:22.000Z</time>
      </trkpt>
      <trkpt lat="47.67891" lon="6.06292">
        <ele>260.60000610352</ele>
        <time>2012-11-21T10:55:23.000Z</time>
      </trkpt>
      <trkpt lat="47.67893" lon="6.06293">
        <ele>261.20001220703</ele>
        <time>2012-11-21T10:55:24.000Z</time>
      </trkpt>
      <trkpt lat="47.67895" lon="6.06294">
        <ele>261.60000610352</ele>
        <time>2012-11-21T10:55:25.000Z</time>
      </trkpt>
      <trkpt lat="47.67906" lon="6.06303">
        <ele>261.60000610352</ele>
        <time>2012-11-21T10:55:31.000Z</time>
      </trkpt>
      <trkpt lat="47.67913" lon="6.06306">
        <ele>261.60000610352</ele>
        <time>2012-11-21T10:55:36.000Z</time>
      </trkpt>
      <trkpt lat="47.67924" lon="6.06309">
        <ele>262</ele>
        <time>2012-11-21T10:55:41.000Z</time>
      </trkpt>
      <trkpt lat="47.67926" lon="6.06311">
        <ele>262.20001220703</ele>
        <time>2012-11-21T10:55:42.000Z</time>
      </trkpt>
      <trkpt lat="47.67928" lon="6.06312">
        <ele>262.60000610352</ele>
        <time>2012-11-21T10:55:43.000Z</time>
      </trkpt>
      <trkpt lat="47.6793" lon="6.06313">
        <ele>263.20001220703</ele>
        <time>2012-11-21T10:55:44.000Z</time>
      </trkpt>
      <trkpt lat="47.67931" lon="6.06313">
        <ele>263.60000610352</ele>
        <time>2012-11-21T10:55:45.000Z</time>
      </trkpt>
      <trkpt lat="47.67935" lon="6.06315">
        <ele>263.60000610352</ele>
        <time>2012-11-21T10:55:48.000Z</time>
      </trkpt>
      <trkpt lat="47.67942" lon="6.06323">
        <ele>263.60000610352</ele>
        <time>2012-11-21T10:55:53.000Z</time>
      </trkpt>
      <trkpt lat="47.67943" lon="6.06324">
        <ele>264.20001220703</ele>
        <time>2012-11-21T10:55:54.000Z</time>
      </trkpt>
      <trkpt lat="47.67945" lon="6.06326">
        <ele>264.60000610352</ele>
        <time>2012-11-21T10:55:55.000Z</time>
      </trkpt>
      <trkpt lat="47.67946" lon="6.06327">
        <ele>265</ele>
        <time>2012-11-21T10:55:56.000Z</time>
      </trkpt>
      <trkpt lat="47.67947" lon="6.06329">
        <ele>265.20001220703</ele>
        <time>2012-11-21T10:55:57.000Z</time>
      </trkpt>
      <trkpt lat="47.67949" lon="6.0633">
        <ele>265.60000610352</ele>
        <time>2012-11-21T10:55:58.000Z</time>
      </trkpt>
      <trkpt lat="47.67951" lon="6.06334">
        <ele>265.60000610352</ele>
        <time>2012-11-21T10:56:01.000Z</time>
      </trkpt>
      <trkpt lat="47.67959" lon="6.06342">
        <ele>265.60000610352</ele>
        <time>2012-11-21T10:56:08.000Z</time>
      </trkpt>
      <trkpt lat="47.6796" lon="6.06343">
        <ele>265.60000610352</ele>
        <time>2012-11-21T10:56:09.000Z</time>
      </trkpt>
      <trkpt lat="47.67962" lon="6.06345">
        <ele>265.60000610352</ele>
        <time>2012-11-21T10:56:11.000Z</time>
      </trkpt>
      <trkpt lat="47.67965" lon="6.06348">
        <ele>265.60000610352</ele>
        <time>2012-11-21T10:56:13.000Z</time>
      </trkpt>
      <trkpt lat="47.6797" lon="6.06353">
        <ele>266.20001220703</ele>
        <time>2012-11-21T10:56:18.000Z</time>
      </trkpt>
      <trkpt lat="47.67971" lon="6.06354">
        <ele>266.60000610352</ele>
        <time>2012-11-21T10:56:19.000Z</time>
      </trkpt>
      <trkpt lat="47.67972" lon="6.06355">
        <ele>267</ele>
        <time>2012-11-21T10:56:20.000Z</time>
      </trkpt>
      <trkpt lat="47.67973" lon="6.06356">
        <ele>267.20001220703</ele>
        <time>2012-11-21T10:56:21.000Z</time>
      </trkpt>
      <trkpt lat="47.67974" lon="6.06357">
        <ele>267.60000610352</ele>
        <time>2012-11-21T10:56:22.000Z</time>
      </trkpt>
      <trkpt lat="47.67977" lon="6.06362">
        <ele>267.60000610352</ele>
        <time>2012-11-21T10:56:25.000Z</time>
      </trkpt>
      <trkpt lat="47.67978" lon="6.06364">
        <ele>267.60000610352</ele>
        <time>2012-11-21T10:56:26.000Z</time>
      </trkpt>
      <trkpt lat="47.67983" lon="6.0637">
        <ele>267.60000610352</ele>
        <time>2012-11-21T10:56:31.000Z</time>
      </trkpt>
      <trkpt lat="47.6799" lon="6.06381">
        <ele>267.60000610352</ele>
        <time>2012-11-21T10:56:38.000Z</time>
      </trkpt>
      <trkpt lat="47.67992" lon="6.06383">
        <ele>267.60000610352</ele>
        <time>2012-11-21T10:56:39.000Z</time>
      </trkpt>
      <trkpt lat="47.67999" lon="6.06395">
        <ele>267.60000610352</ele>
        <time>2012-11-21T10:56:44.000Z</time>
      </trkpt>
      <trkpt lat="47.68" lon="6.06396">
        <ele>267.60000610352</ele>
        <time>2012-11-21T10:56:45.000Z</time>
      </trkpt>
      <trkpt lat="47.68005" lon="6.06402">
        <ele>267.60000610352</ele>
        <time>2012-11-21T10:56:51.000Z</time>
      </trkpt>
      <trkpt lat="47.68008" lon="6.06407">
        <ele>267.60000610352</ele>
        <time>2012-11-21T10:57:14.000Z</time>
      </trkpt>
      <trkpt lat="47.68009" lon="6.06411">
        <ele>267.60000610352</ele>
        <time>2012-11-21T10:57:16.000Z</time>
      </trkpt>
      <trkpt lat="47.6801" lon="6.06413">
        <ele>267.60000610352</ele>
        <time>2012-11-21T10:57:17.000Z</time>
      </trkpt>
      <trkpt lat="47.68018" lon="6.06427">
        <ele>267.60000610352</ele>
        <time>2012-11-21T10:57:22.000Z</time>
      </trkpt>
      <trkpt lat="47.68026" lon="6.06445">
        <ele>267.60000610352</ele>
        <time>2012-11-21T10:57:27.000Z</time>
      </trkpt>
      <trkpt lat="47.68032" lon="6.0646">
        <ele>267.60000610352</ele>
        <time>2012-11-21T10:57:33.000Z</time>
      </trkpt>
      <trkpt lat="47.68032" lon="6.06463">
        <ele>267.20001220703</ele>
        <time>2012-11-21T10:57:34.000Z</time>
      </trkpt>
      <trkpt lat="47.68033" lon="6.06464">
        <ele>267</ele>
        <time>2012-11-21T10:57:35.000Z</time>
      </trkpt>
      <trkpt lat="47.68034" lon="6.06466">
        <ele>266.60000610352</ele>
        <time>2012-11-21T10:57:36.000Z</time>
      </trkpt>
      <trkpt lat="47.68035" lon="6.06468">
        <ele>266.20001220703</ele>
        <time>2012-11-21T10:57:37.000Z</time>
      </trkpt>
      <trkpt lat="47.68036" lon="6.06469">
        <ele>265.60000610352</ele>
        <time>2012-11-21T10:57:38.000Z</time>
      </trkpt>
      <trkpt lat="47.68037" lon="6.06471">
        <ele>265.60000610352</ele>
        <time>2012-11-21T10:57:39.000Z</time>
      </trkpt>
      <trkpt lat="47.68041" lon="6.06479">
        <ele>265.20001220703</ele>
        <time>2012-11-21T10:57:42.000Z</time>
      </trkpt>
      <trkpt lat="47.68042" lon="6.06481">
        <ele>264.60000610352</ele>
        <time>2012-11-21T10:57:43.000Z</time>
      </trkpt>
      <trkpt lat="47.68043" lon="6.06484">
        <ele>264.20001220703</ele>
        <time>2012-11-21T10:57:44.000Z</time>
      </trkpt>
      <trkpt lat="47.68043" lon="6.06485">
        <ele>263.60000610352</ele>
        <time>2012-11-21T10:57:45.000Z</time>
      </trkpt>
      <trkpt lat="47.68044" lon="6.06487">
        <ele>263.20001220703</ele>
        <time>2012-11-21T10:57:46.000Z</time>
      </trkpt>
      <trkpt lat="47.68045" lon="6.06489">
        <ele>263</ele>
        <time>2012-11-21T10:57:47.000Z</time>
      </trkpt>
      <trkpt lat="47.68046" lon="6.06492">
        <ele>262.20001220703</ele>
        <time>2012-11-21T10:57:48.000Z</time>
      </trkpt>
      <trkpt lat="47.68047" lon="6.06496">
        <ele>262</ele>
        <time>2012-11-21T10:57:49.000Z</time>
      </trkpt>
      <trkpt lat="47.68049" lon="6.065">
        <ele>261</ele>
        <time>2012-11-21T10:57:50.000Z</time>
      </trkpt>
      <trkpt lat="47.68051" lon="6.06505">
        <ele>260.60000610352</ele>
        <time>2012-11-21T10:57:51.000Z</time>
      </trkpt>
      <trkpt lat="47.68052" lon="6.06509">
        <ele>260.20001220703</ele>
        <time>2012-11-21T10:57:52.000Z</time>
      </trkpt>
      <trkpt lat="47.68054" lon="6.06512">
        <ele>259.60000610352</ele>
        <time>2012-11-21T10:57:53.000Z</time>
      </trkpt>
      <trkpt lat="47.68056" lon="6.06516">
        <ele>259.20001220703</ele>
        <time>2012-11-21T10:57:54.000Z</time>
      </trkpt>
      <trkpt lat="47.68057" lon="6.06518">
        <ele>258.60000610352</ele>
        <time>2012-11-21T10:57:55.000Z</time>
      </trkpt>
      <trkpt lat="47.68062" lon="6.06528">
        <ele>258.60000610352</ele>
        <time>2012-11-21T10:57:59.000Z</time>
      </trkpt>
      <trkpt lat="47.68066" lon="6.06534">
        <ele>258.60000610352</ele>
        <time>2012-11-21T10:58:02.000Z</time>
      </trkpt>
      <trkpt lat="47.68067" lon="6.06536">
        <ele>258.20001220703</ele>
        <time>2012-11-21T10:58:03.000Z</time>
      </trkpt>
      <trkpt lat="47.68068" lon="6.06538">
        <ele>258</ele>
        <time>2012-11-21T10:58:04.000Z</time>
      </trkpt>
      <trkpt lat="47.68069" lon="6.06539">
        <ele>257.60000610352</ele>
        <time>2012-11-21T10:58:05.000Z</time>
      </trkpt>
      <trkpt lat="47.6807" lon="6.06542">
        <ele>257</ele>
        <time>2012-11-21T10:58:06.000Z</time>
      </trkpt>
      <trkpt lat="47.68071" lon="6.06545">
        <ele>256.60000610352</ele>
        <time>2012-11-21T10:58:07.000Z</time>
      </trkpt>
      <trkpt lat="47.68073" lon="6.06549">
        <ele>256.60000610352</ele>
        <time>2012-11-21T10:58:09.000Z</time>
      </trkpt>
      <trkpt lat="47.68083" lon="6.06565">
        <ele>256.60000610352</ele>
        <time>2012-11-21T10:58:16.000Z</time>
      </trkpt>
      <trkpt lat="47.68089" lon="6.06573">
        <ele>256.60000610352</ele>
        <time>2012-11-21T10:58:20.000Z</time>
      </trkpt>
      <trkpt lat="47.6809" lon="6.06574">
        <ele>256.60000610352</ele>
        <time>2012-11-21T10:58:21.000Z</time>
      </trkpt>
      <trkpt lat="47.68096" lon="6.06582">
        <ele>256.60000610352</ele>
        <time>2012-11-21T10:58:25.000Z</time>
      </trkpt>
      <trkpt lat="47.68099" lon="6.06586">
        <ele>256.60000610352</ele>
        <time>2012-11-21T10:58:27.000Z</time>
      </trkpt>
      <trkpt lat="47.68105" lon="6.06594">
        <ele>256.60000610352</ele>
        <time>2012-11-21T10:58:31.000Z</time>
      </trkpt>
      <trkpt lat="47.68106" lon="6.06598">
        <ele>256.60000610352</ele>
        <time>2012-11-21T10:58:33.000Z</time>
      </trkpt>
      <trkpt lat="47.6811" lon="6.06608">
        <ele>256.60000610352</ele>
        <time>2012-11-21T10:58:39.000Z</time>
      </trkpt>
      <trkpt lat="47.68114" lon="6.06619">
        <ele>256.60000610352</ele>
        <time>2012-11-21T10:58:45.000Z</time>
      </trkpt>
      <trkpt lat="47.68117" lon="6.06629">
        <ele>256.60000610352</ele>
        <time>2012-11-21T10:58:49.000Z</time>
      </trkpt>
      <trkpt lat="47.68119" lon="6.06631">
        <ele>256.60000610352</ele>
        <time>2012-11-21T10:58:50.000Z</time>
      </trkpt>
      <trkpt lat="47.68123" lon="6.06644">
        <ele>256.60000610352</ele>
        <time>2012-11-21T10:58:56.000Z</time>
      </trkpt>
      <trkpt lat="47.68133" lon="6.06661">
        <ele>256.60000610352</ele>
        <time>2012-11-21T10:59:01.000Z</time>
      </trkpt>
      <trkpt lat="47.68137" lon="6.06671">
        <ele>256.60000610352</ele>
        <time>2012-11-21T10:59:05.000Z</time>
      </trkpt>
      <trkpt lat="47.68137" lon="6.06677">
        <ele>256.60000610352</ele>
        <time>2012-11-21T10:59:08.000Z</time>
      </trkpt>
      <trkpt lat="47.68142" lon="6.06688">
        <ele>256.60000610352</ele>
        <time>2012-11-21T10:59:13.000Z</time>
      </trkpt>
      <trkpt lat="47.68147" lon="6.06704">
        <ele>256.60000610352</ele>
        <time>2012-11-21T10:59:18.000Z</time>
      </trkpt>
      <trkpt lat="47.68151" lon="6.06718">
        <ele>256.60000610352</ele>
        <time>2012-11-21T10:59:23.000Z</time>
      </trkpt>
      <trkpt lat="47.68155" lon="6.06732">
        <ele>256.60000610352</ele>
        <time>2012-11-21T10:59:28.000Z</time>
      </trkpt>
      <trkpt lat="47.68155" lon="6.06736">
        <ele>256.60000610352</ele>
        <time>2012-11-21T10:59:30.000Z</time>
      </trkpt>
      <trkpt lat="47.68158" lon="6.06745">
        <ele>256.60000610352</ele>
        <time>2012-11-21T10:59:34.000Z</time>
      </trkpt>
      <trkpt lat="47.68166" lon="6.06753">
        <ele>255.80000305176</ele>
        <time>2012-11-21T11:00:00.000Z</time>
      </trkpt>
      <trkpt lat="47.68167" lon="6.06755">
        <ele>255.19999694824</ele>
        <time>2012-11-21T11:00:01.000Z</time>
      </trkpt>
      <trkpt lat="47.68168" lon="6.06756">
        <ele>255</ele>
        <time>2012-11-21T11:00:02.000Z</time>
      </trkpt>
      <trkpt lat="47.68168" lon="6.06757">
        <ele>254.60000610352</ele>
        <time>2012-11-21T11:00:03.000Z</time>
      </trkpt>
      <trkpt lat="47.68172" lon="6.06765">
        <ele>254.60000610352</ele>
        <time>2012-11-21T11:00:09.000Z</time>
      </trkpt>
      <trkpt lat="47.68174" lon="6.06768">
        <ele>254</ele>
        <time>2012-11-21T11:00:10.000Z</time>
      </trkpt>
      <trkpt lat="47.68177" lon="6.0677">
        <ele>253.80000305176</ele>
        <time>2012-11-21T11:00:11.000Z</time>
      </trkpt>
      <trkpt lat="47.68179" lon="6.06771">
        <ele>253.19999694824</ele>
        <time>2012-11-21T11:00:12.000Z</time>
      </trkpt>
      <trkpt lat="47.68181" lon="6.06774">
        <ele>253</ele>
        <time>2012-11-21T11:00:13.000Z</time>
      </trkpt>
      <trkpt lat="47.68183" lon="6.06776">
        <ele>252.19999694824</ele>
        <time>2012-11-21T11:00:14.000Z</time>
      </trkpt>
      <trkpt lat="47.68189" lon="6.06781">
        <ele>252.19999694824</ele>
        <time>2012-11-21T11:00:18.000Z</time>
      </trkpt>
      <trkpt lat="47.68191" lon="6.06781">
        <ele>252.19999694824</ele>
        <time>2012-11-21T11:00:19.000Z</time>
      </trkpt>
      <trkpt lat="47.68195" lon="6.06784">
        <ele>252</ele>
        <time>2012-11-21T11:00:22.000Z</time>
      </trkpt>
      <trkpt lat="47.68196" lon="6.06786">
        <ele>251.60000610352</ele>
        <time>2012-11-21T11:00:23.000Z</time>
      </trkpt>
      <trkpt lat="47.68197" lon="6.06787">
        <ele>251</ele>
        <time>2012-11-21T11:00:24.000Z</time>
      </trkpt>
      <trkpt lat="47.68198" lon="6.06789">
        <ele>250.80000305176</ele>
        <time>2012-11-21T11:00:25.000Z</time>
      </trkpt>
      <trkpt lat="47.68198" lon="6.06791">
        <ele>250.19999694824</ele>
        <time>2012-11-21T11:00:26.000Z</time>
      </trkpt>
      <trkpt lat="47.68198" lon="6.06792">
        <ele>250.19999694824</ele>
        <time>2012-11-21T11:00:27.000Z</time>
      </trkpt>
      <trkpt lat="47.68201" lon="6.06796">
        <ele>250.19999694824</ele>
        <time>2012-11-21T11:00:29.000Z</time>
      </trkpt>
      <trkpt lat="47.68207" lon="6.06807">
        <ele>250.19999694824</ele>
        <time>2012-11-21T11:00:36.000Z</time>
      </trkpt>
      <trkpt lat="47.68208" lon="6.06807">
        <ele>250.19999694824</ele>
        <time>2012-11-21T11:00:37.000Z</time>
      </trkpt>
      <trkpt lat="47.68207" lon="6.06811">
        <ele>250.19999694824</ele>
        <time>2012-11-21T11:00:47.000Z</time>
      </trkpt>
      <trkpt lat="47.68207" lon="6.06813">
        <ele>250.19999694824</ele>
        <time>2012-11-21T11:00:48.000Z</time>
      </trkpt>
      <trkpt lat="47.68206" lon="6.0682">
        <ele>250.19999694824</ele>
        <time>2012-11-21T11:00:51.000Z</time>
      </trkpt>
      <trkpt lat="47.68204" lon="6.06825">
        <ele>250.19999694824</ele>
        <time>2012-11-21T11:00:54.000Z</time>
      </trkpt>
      <trkpt lat="47.68202" lon="6.06831">
        <ele>250.19999694824</ele>
        <time>2012-11-21T11:00:59.000Z</time>
      </trkpt>
      <trkpt lat="47.68204" lon="6.06832">
        <ele>250.19999694824</ele>
        <time>2012-11-21T11:01:02.000Z</time>
      </trkpt>
      <trkpt lat="47.68205" lon="6.06829">
        <ele>250.19999694824</ele>
        <time>2012-11-21T11:01:20.000Z</time>
      </trkpt>
      <trkpt lat="47.68206" lon="6.06826">
        <ele>250.19999694824</ele>
        <time>2012-11-21T11:01:21.000Z</time>
      </trkpt>
      <trkpt lat="47.68216" lon="6.06811">
        <ele>250.19999694824</ele>
        <time>2012-11-21T11:01:26.000Z</time>
      </trkpt>
      <trkpt lat="47.68231" lon="6.06791">
        <ele>250.19999694824</ele>
        <time>2012-11-21T11:01:31.000Z</time>
      </trkpt>
      <trkpt lat="47.68234" lon="6.06786">
        <ele>250</ele>
        <time>2012-11-21T11:01:32.000Z</time>
      </trkpt>
      <trkpt lat="47.68238" lon="6.06781">
        <ele>249.60000610352</ele>
        <time>2012-11-21T11:01:33.000Z</time>
      </trkpt>
      <trkpt lat="47.68242" lon="6.06775">
        <ele>249</ele>
        <time>2012-11-21T11:01:34.000Z</time>
      </trkpt>
      <trkpt lat="47.68245" lon="6.06769">
        <ele>248.60000610352</ele>
        <time>2012-11-21T11:01:35.000Z</time>
      </trkpt>
      <trkpt lat="47.68249" lon="6.06763">
        <ele>248</ele>
        <time>2012-11-21T11:01:36.000Z</time>
      </trkpt>
      <trkpt lat="47.6827" lon="6.06724">
        <ele>247.80000305176</ele>
        <time>2012-11-21T11:01:42.000Z</time>
      </trkpt>
      <trkpt lat="47.68273" lon="6.06717">
        <ele>247.19999694824</ele>
        <time>2012-11-21T11:01:43.000Z</time>
      </trkpt>
      <trkpt lat="47.68276" lon="6.06711">
        <ele>247</ele>
        <time>2012-11-21T11:01:44.000Z</time>
      </trkpt>
      <trkpt lat="47.6828" lon="6.06704">
        <ele>246.60000610352</ele>
        <time>2012-11-21T11:01:45.000Z</time>
      </trkpt>
      <trkpt lat="47.68283" lon="6.06697">
        <ele>246</ele>
        <time>2012-11-21T11:01:46.000Z</time>
      </trkpt>
      <trkpt lat="47.68299" lon="6.06661">
        <ele>246</ele>
        <time>2012-11-21T11:01:51.000Z</time>
      </trkpt>
      <trkpt lat="47.68321" lon="6.06609">
        <ele>245.60000610352</ele>
        <time>2012-11-21T11:01:58.000Z</time>
      </trkpt>
      <trkpt lat="47.68324" lon="6.06602">
        <ele>245</ele>
        <time>2012-11-21T11:01:59.000Z</time>
      </trkpt>
      <trkpt lat="47.68326" lon="6.06595">
        <ele>244.80000305176</ele>
        <time>2012-11-21T11:02:00.000Z</time>
      </trkpt>
      <trkpt lat="47.68329" lon="6.06587">
        <ele>244.19999694824</ele>
        <time>2012-11-21T11:02:01.000Z</time>
      </trkpt>
      <trkpt lat="47.68331" lon="6.0658">
        <ele>244</ele>
        <time>2012-11-21T11:02:02.000Z</time>
      </trkpt>
      <trkpt lat="47.68342" lon="6.06544">
        <ele>244</ele>
        <time>2012-11-21T11:02:07.000Z</time>
      </trkpt>
      <trkpt lat="47.68353" lon="6.06503">
        <ele>244</ele>
        <time>2012-11-21T11:02:13.000Z</time>
      </trkpt>
      <trkpt lat="47.68355" lon="6.06496">
        <ele>244</ele>
        <time>2012-11-21T11:02:14.000Z</time>
      </trkpt>
      <trkpt lat="47.68359" lon="6.06481">
        <ele>244</ele>
        <time>2012-11-21T11:02:16.000Z</time>
      </trkpt>
      <trkpt lat="47.68365" lon="6.06467">
        <ele>244</ele>
        <time>2012-11-21T11:02:18.000Z</time>
      </trkpt>
      <trkpt lat="47.68379" lon="6.06421">
        <ele>244</ele>
        <time>2012-11-21T11:02:24.000Z</time>
      </trkpt>
      <trkpt lat="47.68395" lon="6.06369">
        <ele>244</ele>
        <time>2012-11-21T11:02:31.000Z</time>
      </trkpt>
      <trkpt lat="47.68415" lon="6.06312">
        <ele>244</ele>
        <time>2012-11-21T11:02:39.000Z</time>
      </trkpt>
      <trkpt lat="47.68434" lon="6.0625">
        <ele>244</ele>
        <time>2012-11-21T11:02:48.000Z</time>
      </trkpt>
      <trkpt lat="47.6845" lon="6.062">
        <ele>244</ele>
        <time>2012-11-21T11:02:55.000Z</time>
      </trkpt>
      <trkpt lat="47.68464" lon="6.06159">
        <ele>244</ele>
        <time>2012-11-21T11:03:01.000Z</time>
      </trkpt>
      <trkpt lat="47.68485" lon="6.06097">
        <ele>244</ele>
        <time>2012-11-21T11:03:11.000Z</time>
      </trkpt>
      <trkpt lat="47.68491" lon="6.06082">
        <ele>244</ele>
        <time>2012-11-21T11:03:14.000Z</time>
      </trkpt>
      <trkpt lat="47.685" lon="6.06061">
        <ele>244</ele>
        <time>2012-11-21T11:03:18.000Z</time>
      </trkpt>
      <trkpt lat="47.68509" lon="6.06035">
        <ele>244</ele>
        <time>2012-11-21T11:03:23.000Z</time>
      </trkpt>
      <trkpt lat="47.68512" lon="6.06029">
        <ele>244</ele>
        <time>2012-11-21T11:03:24.000Z</time>
      </trkpt>
      <trkpt lat="47.68529" lon="6.05987">
        <ele>244</ele>
        <time>2012-11-21T11:03:32.000Z</time>
      </trkpt>
      <trkpt lat="47.68548" lon="6.05939">
        <ele>244</ele>
        <time>2012-11-21T11:03:41.000Z</time>
      </trkpt>
      <trkpt lat="47.6856" lon="6.05908">
        <ele>244</ele>
        <time>2012-11-21T11:03:47.000Z</time>
      </trkpt>
      <trkpt lat="47.68573" lon="6.05875">
        <ele>244</ele>
        <time>2012-11-21T11:03:54.000Z</time>
      </trkpt>
      <trkpt lat="47.68586" lon="6.05843">
        <ele>244</ele>
        <time>2012-11-21T11:04:01.000Z</time>
      </trkpt>
      <trkpt lat="47.68599" lon="6.05812">
        <ele>244</ele>
        <time>2012-11-21T11:04:08.000Z</time>
      </trkpt>
      <trkpt lat="47.68615" lon="6.0578">
        <ele>244</ele>
        <time>2012-11-21T11:04:16.000Z</time>
      </trkpt>
      <trkpt lat="47.68628" lon="6.05758">
        <ele>244</ele>
        <time>2012-11-21T11:04:23.000Z</time>
      </trkpt>
      <trkpt lat="47.68639" lon="6.05741">
        <ele>244.19999694824</ele>
        <time>2012-11-21T11:04:28.000Z</time>
      </trkpt>
      <trkpt lat="47.68642" lon="6.05738">
        <ele>244.80000305176</ele>
        <time>2012-11-21T11:04:29.000Z</time>
      </trkpt>
      <trkpt lat="47.68644" lon="6.05735">
        <ele>245</ele>
        <time>2012-11-21T11:04:30.000Z</time>
      </trkpt>
      <trkpt lat="47.68646" lon="6.05732">
        <ele>245.60000610352</ele>
        <time>2012-11-21T11:04:31.000Z</time>
      </trkpt>
      <trkpt lat="47.68648" lon="6.05729">
        <ele>246</ele>
        <time>2012-11-21T11:04:32.000Z</time>
      </trkpt>
      <trkpt lat="47.6865" lon="6.05726">
        <ele>246</ele>
        <time>2012-11-21T11:04:33.000Z</time>
      </trkpt>
      <trkpt lat="47.68658" lon="6.05713">
        <ele>246.19999694824</ele>
        <time>2012-11-21T11:04:37.000Z</time>
      </trkpt>
      <trkpt lat="47.6866" lon="6.05709">
        <ele>246.80000305176</ele>
        <time>2012-11-21T11:04:38.000Z</time>
      </trkpt>
      <trkpt lat="47.68661" lon="6.05706">
        <ele>247</ele>
        <time>2012-11-21T11:04:39.000Z</time>
      </trkpt>
      <trkpt lat="47.68663" lon="6.05702">
        <ele>247.60000610352</ele>
        <time>2012-11-21T11:04:40.000Z</time>
      </trkpt>
      <trkpt lat="47.68665" lon="6.05699">
        <ele>248</ele>
        <time>2012-11-21T11:04:41.000Z</time>
      </trkpt>
      <trkpt lat="47.68668" lon="6.05693">
        <ele>248</ele>
        <time>2012-11-21T11:04:43.000Z</time>
      </trkpt>
      <trkpt lat="47.68671" lon="6.05688">
        <ele>248</ele>
        <time>2012-11-21T11:04:45.000Z</time>
      </trkpt>
      <trkpt lat="47.68676" lon="6.0568">
        <ele>248.19999694824</ele>
        <time>2012-11-21T11:04:48.000Z</time>
      </trkpt>
      <trkpt lat="47.68678" lon="6.05678">
        <ele>249.19999694824</ele>
        <time>2012-11-21T11:04:49.000Z</time>
      </trkpt>
      <trkpt lat="47.68679" lon="6.05675">
        <ele>249.80000305176</ele>
        <time>2012-11-21T11:04:50.000Z</time>
      </trkpt>
      <trkpt lat="47.68681" lon="6.05673">
        <ele>250</ele>
        <time>2012-11-21T11:04:51.000Z</time>
      </trkpt>
      <trkpt lat="47.68685" lon="6.05664">
        <ele>250</ele>
        <time>2012-11-21T11:04:54.000Z</time>
      </trkpt>
      <trkpt lat="47.68696" lon="6.05647">
        <ele>250.60000610352</ele>
        <time>2012-11-21T11:05:01.000Z</time>
      </trkpt>
      <trkpt lat="47.68697" lon="6.05644">
        <ele>251</ele>
        <time>2012-11-21T11:05:02.000Z</time>
      </trkpt>
      <trkpt lat="47.68698" lon="6.05642">
        <ele>251.19999694824</ele>
        <time>2012-11-21T11:05:03.000Z</time>
      </trkpt>
      <trkpt lat="47.68699" lon="6.0564">
        <ele>251.80000305176</ele>
        <time>2012-11-21T11:05:04.000Z</time>
      </trkpt>
      <trkpt lat="47.68701" lon="6.05638">
        <ele>252</ele>
        <time>2012-11-21T11:05:05.000Z</time>
      </trkpt>
      <trkpt lat="47.68706" lon="6.05631">
        <ele>252</ele>
        <time>2012-11-21T11:05:09.000Z</time>
      </trkpt>
      <trkpt lat="47.68716" lon="6.05614">
        <ele>252.80000305176</ele>
        <time>2012-11-21T11:05:16.000Z</time>
      </trkpt>
      <trkpt lat="47.68718" lon="6.05611">
        <ele>253.19999694824</ele>
        <time>2012-11-21T11:05:17.000Z</time>
      </trkpt>
      <trkpt lat="47.6872" lon="6.05607">
        <ele>253.80000305176</ele>
        <time>2012-11-21T11:05:18.000Z</time>
      </trkpt>
      <trkpt lat="47.68722" lon="6.05604">
        <ele>253.19999694824</ele>
        <time>2012-11-21T11:05:19.000Z</time>
      </trkpt>
      <trkpt lat="47.68724" lon="6.05602">
        <ele>253</ele>
        <time>2012-11-21T11:05:20.000Z</time>
      </trkpt>
      <trkpt lat="47.68726" lon="6.056">
        <ele>252.80000305176</ele>
        <time>2012-11-21T11:05:21.000Z</time>
      </trkpt>
      <trkpt lat="47.68728" lon="6.05598">
        <ele>252.19999694824</ele>
        <time>2012-11-21T11:05:22.000Z</time>
      </trkpt>
      <trkpt lat="47.68729" lon="6.05596">
        <ele>252</ele>
        <time>2012-11-21T11:05:23.000Z</time>
      </trkpt>
      <trkpt lat="47.68729" lon="6.05591">
        <ele>252</ele>
        <time>2012-11-21T11:05:25.000Z</time>
      </trkpt>
      <trkpt lat="47.68729" lon="6.0559">
        <ele>252</ele>
        <time>2012-11-21T11:05:27.000Z</time>
      </trkpt>
      <trkpt lat="47.6873" lon="6.05587">
        <ele>252</ele>
        <time>2012-11-21T11:05:48.000Z</time>
      </trkpt>
      <trkpt lat="47.6873" lon="6.0558">
        <ele>252</ele>
        <time>2012-11-21T11:05:51.000Z</time>
      </trkpt>
      <trkpt lat="47.68731" lon="6.0556">
        <ele>252</ele>
        <time>2012-11-21T11:05:57.000Z</time>
      </trkpt>
      <trkpt lat="47.68733" lon="6.05536">
        <ele>251.60000610352</ele>
        <time>2012-11-21T11:06:01.000Z</time>
      </trkpt>
      <trkpt lat="47.68734" lon="6.05529">
        <ele>250.60000610352</ele>
        <time>2012-11-21T11:06:02.000Z</time>
      </trkpt>
      <trkpt lat="47.68735" lon="6.05522">
        <ele>248.60000610352</ele>
        <time>2012-11-21T11:06:03.000Z</time>
      </trkpt>
      <trkpt lat="47.68737" lon="6.05514">
        <ele>249</ele>
        <time>2012-11-21T11:06:04.000Z</time>
      </trkpt>
      <trkpt lat="47.68738" lon="6.05506">
        <ele>249</ele>
        <time>2012-11-21T11:06:05.000Z</time>
      </trkpt>
      <trkpt lat="47.6874" lon="6.05499">
        <ele>249</ele>
        <time>2012-11-21T11:06:06.000Z</time>
      </trkpt>
      <trkpt lat="47.68742" lon="6.05492">
        <ele>248.80000305176</ele>
        <time>2012-11-21T11:06:07.000Z</time>
      </trkpt>
      <trkpt lat="47.68744" lon="6.05484">
        <ele>248.60000610352</ele>
        <time>2012-11-21T11:06:08.000Z</time>
      </trkpt>
      <trkpt lat="47.68745" lon="6.05476">
        <ele>248</ele>
        <time>2012-11-21T11:06:09.000Z</time>
      </trkpt>
      <trkpt lat="47.68747" lon="6.05467">
        <ele>248</ele>
        <time>2012-11-21T11:06:10.000Z</time>
      </trkpt>
      <trkpt lat="47.6875" lon="6.05439">
        <ele>247.60000610352</ele>
        <time>2012-11-21T11:06:13.000Z</time>
      </trkpt>
      <trkpt lat="47.68752" lon="6.05431">
        <ele>247</ele>
        <time>2012-11-21T11:06:14.000Z</time>
      </trkpt>
      <trkpt lat="47.68753" lon="6.05424">
        <ele>246.80000305176</ele>
        <time>2012-11-21T11:06:15.000Z</time>
      </trkpt>
      <trkpt lat="47.68754" lon="6.05417">
        <ele>246.19999694824</ele>
        <time>2012-11-21T11:06:16.000Z</time>
      </trkpt>
      <trkpt lat="47.68754" lon="6.0541">
        <ele>246</ele>
        <time>2012-11-21T11:06:17.000Z</time>
      </trkpt>
      <trkpt lat="47.68754" lon="6.05406">
        <ele>245.60000610352</ele>
        <time>2012-11-21T11:06:18.000Z</time>
      </trkpt>
      <trkpt lat="47.68754" lon="6.05402">
        <ele>245</ele>
        <time>2012-11-21T11:06:19.000Z</time>
      </trkpt>
      <trkpt lat="47.68753" lon="6.05398">
        <ele>244.60000610352</ele>
        <time>2012-11-21T11:06:20.000Z</time>
      </trkpt>
      <trkpt lat="47.68753" lon="6.05394">
        <ele>244</ele>
        <time>2012-11-21T11:06:21.000Z</time>
      </trkpt>
      <trkpt lat="47.68753" lon="6.0539">
        <ele>243.60000610352</ele>
        <time>2012-11-21T11:06:22.000Z</time>
      </trkpt>
      <trkpt lat="47.68754" lon="6.05378">
        <ele>243.60000610352</ele>
        <time>2012-11-21T11:06:25.000Z</time>
      </trkpt>
      <trkpt lat="47.68757" lon="6.05368">
        <ele>242.80000305176</ele>
        <time>2012-11-21T11:06:28.000Z</time>
      </trkpt>
      <trkpt lat="47.68758" lon="6.05364">
        <ele>242</ele>
        <time>2012-11-21T11:06:29.000Z</time>
      </trkpt>
      <trkpt lat="47.68758" lon="6.0536">
        <ele>241.80000305176</ele>
        <time>2012-11-21T11:06:30.000Z</time>
      </trkpt>
      <trkpt lat="47.68759" lon="6.05355">
        <ele>241.19999694824</ele>
        <time>2012-11-21T11:06:31.000Z</time>
      </trkpt>
      <trkpt lat="47.6876" lon="6.05339">
        <ele>241.19999694824</ele>
        <time>2012-11-21T11:06:35.000Z</time>
      </trkpt>
      <trkpt lat="47.68761" lon="6.0533">
        <ele>241.19999694824</ele>
        <time>2012-11-21T11:06:37.000Z</time>
      </trkpt>
      <trkpt lat="47.68764" lon="6.05308">
        <ele>241.19999694824</ele>
        <time>2012-11-21T11:06:41.000Z</time>
      </trkpt>
      <trkpt lat="47.68765" lon="6.05295">
        <ele>241</ele>
        <time>2012-11-21T11:06:43.000Z</time>
      </trkpt>
      <trkpt lat="47.68766" lon="6.05288">
        <ele>240.60000610352</ele>
        <time>2012-11-21T11:06:44.000Z</time>
      </trkpt>
      <trkpt lat="47.68767" lon="6.0528">
        <ele>240</ele>
        <time>2012-11-21T11:06:45.000Z</time>
      </trkpt>
      <trkpt lat="47.68768" lon="6.05272">
        <ele>239.80000305176</ele>
        <time>2012-11-21T11:06:46.000Z</time>
      </trkpt>
      <trkpt lat="47.68769" lon="6.05264">
        <ele>239.19999694824</ele>
        <time>2012-11-21T11:06:47.000Z</time>
      </trkpt>
      <trkpt lat="47.6877" lon="6.05247">
        <ele>239.19999694824</ele>
        <time>2012-11-21T11:06:49.000Z</time>
      </trkpt>
      <trkpt lat="47.68775" lon="6.05206">
        <ele>239</ele>
        <time>2012-11-21T11:06:54.000Z</time>
      </trkpt>
      <trkpt lat="47.68776" lon="6.05197">
        <ele>238.19999694824</ele>
        <time>2012-11-21T11:06:55.000Z</time>
      </trkpt>
      <trkpt lat="47.68777" lon="6.05189">
        <ele>238</ele>
        <time>2012-11-21T11:06:56.000Z</time>
      </trkpt>
      <trkpt lat="47.68778" lon="6.05182">
        <ele>237.60000610352</ele>
        <time>2012-11-21T11:06:57.000Z</time>
      </trkpt>
      <trkpt lat="47.68779" lon="6.05175">
        <ele>237</ele>
        <time>2012-11-21T11:06:58.000Z</time>
      </trkpt>
      <trkpt lat="47.68781" lon="6.05155">
        <ele>237</ele>
        <time>2012-11-21T11:07:01.000Z</time>
      </trkpt>
      <trkpt lat="47.68781" lon="6.05143">
        <ele>237</ele>
        <time>2012-11-21T11:07:03.000Z</time>
      </trkpt>
      <trkpt lat="47.68782" lon="6.05136">
        <ele>237</ele>
        <time>2012-11-21T11:07:04.000Z</time>
      </trkpt>
      <trkpt lat="47.68783" lon="6.05123">
        <ele>236.80000305176</ele>
        <time>2012-11-21T11:07:06.000Z</time>
      </trkpt>
      <trkpt lat="47.68784" lon="6.05117">
        <ele>236.19999694824</ele>
        <time>2012-11-21T11:07:07.000Z</time>
      </trkpt>
      <trkpt lat="47.68784" lon="6.0511">
        <ele>236</ele>
        <time>2012-11-21T11:07:08.000Z</time>
      </trkpt>
      <trkpt lat="47.68785" lon="6.05103">
        <ele>235.60000610352</ele>
        <time>2012-11-21T11:07:09.000Z</time>
      </trkpt>
      <trkpt lat="47.68785" lon="6.05097">
        <ele>235</ele>
        <time>2012-11-21T11:07:10.000Z</time>
      </trkpt>
      <trkpt lat="47.68788" lon="6.05071">
        <ele>235</ele>
        <time>2012-11-21T11:07:15.000Z</time>
      </trkpt>
      <trkpt lat="47.68788" lon="6.05062">
        <ele>234.80000305176</ele>
        <time>2012-11-21T11:07:17.000Z</time>
      </trkpt>
      <trkpt lat="47.68788" lon="6.05057">
        <ele>234.19999694824</ele>
        <time>2012-11-21T11:07:18.000Z</time>
      </trkpt>
      <trkpt lat="47.68788" lon="6.05052">
        <ele>234</ele>
        <time>2012-11-21T11:07:19.000Z</time>
      </trkpt>
      <trkpt lat="47.68788" lon="6.05047">
        <ele>233.60000610352</ele>
        <time>2012-11-21T11:07:20.000Z</time>
      </trkpt>
      <trkpt lat="47.68789" lon="6.05042">
        <ele>233</ele>
        <time>2012-11-21T11:07:21.000Z</time>
      </trkpt>
      <trkpt lat="47.6879" lon="6.05021">
        <ele>233</ele>
        <time>2012-11-21T11:07:25.000Z</time>
      </trkpt>
      <trkpt lat="47.68782" lon="6.05005">
        <ele>233</ele>
        <time>2012-11-21T11:07:29.000Z</time>
      </trkpt>
      <trkpt lat="47.68772" lon="6.04987">
        <ele>233</ele>
        <time>2012-11-21T11:07:34.000Z</time>
      </trkpt>
      <trkpt lat="47.68769" lon="6.04985">
        <ele>233</ele>
        <time>2012-11-21T11:07:35.000Z</time>
      </trkpt>
      <trkpt lat="47.68769" lon="6.04978">
        <ele>233</ele>
        <time>2012-11-21T11:07:37.000Z</time>
      </trkpt>
      <trkpt lat="47.68775" lon="6.0497">
        <ele>233</ele>
        <time>2012-11-21T11:07:40.000Z</time>
      </trkpt>
      <trkpt lat="47.68778" lon="6.04967">
        <ele>233</ele>
        <time>2012-11-21T11:07:41.000Z</time>
      </trkpt>
      <trkpt lat="47.68794" lon="6.04945">
        <ele>232.60000610352</ele>
        <time>2012-11-21T11:07:47.000Z</time>
      </trkpt>
      <trkpt lat="47.68795" lon="6.04943">
        <ele>232</ele>
        <time>2012-11-21T11:07:48.000Z</time>
      </trkpt>
      <trkpt lat="47.68794" lon="6.04939">
        <ele>231.80000305176</ele>
        <time>2012-11-21T11:07:49.000Z</time>
      </trkpt>
      <trkpt lat="47.68793" lon="6.04935">
        <ele>231.19999694824</ele>
        <time>2012-11-21T11:07:50.000Z</time>
      </trkpt>
      <trkpt lat="47.68791" lon="6.04931">
        <ele>231</ele>
        <time>2012-11-21T11:07:51.000Z</time>
      </trkpt>
      <trkpt lat="47.68789" lon="6.04917">
        <ele>231</ele>
        <time>2012-11-21T11:07:54.000Z</time>
      </trkpt>
      <trkpt lat="47.68789" lon="6.04907">
        <ele>231</ele>
        <time>2012-11-21T11:07:56.000Z</time>
      </trkpt>
      <trkpt lat="47.68788" lon="6.04894">
        <ele>231</ele>
        <time>2012-11-21T11:07:58.000Z</time>
      </trkpt>
      <trkpt lat="47.68783" lon="6.04874">
        <ele>231</ele>
        <time>2012-11-21T11:08:01.000Z</time>
      </trkpt>
      <trkpt lat="47.68773" lon="6.04838">
        <ele>231</ele>
        <time>2012-11-21T11:08:07.000Z</time>
      </trkpt>
      <trkpt lat="47.68763" lon="6.04804">
        <ele>231</ele>
        <time>2012-11-21T11:08:14.000Z</time>
      </trkpt>
      <trkpt lat="47.68753" lon="6.0477">
        <ele>231</ele>
        <time>2012-11-21T11:08:21.000Z</time>
      </trkpt>
      <trkpt lat="47.68747" lon="6.04748">
        <ele>231</ele>
        <time>2012-11-21T11:08:26.000Z</time>
      </trkpt>
      <trkpt lat="47.68739" lon="6.04724">
        <ele>231.19999694824</ele>
        <time>2012-11-21T11:08:31.000Z</time>
      </trkpt>
      <trkpt lat="47.68738" lon="6.04719">
        <ele>231.80000305176</ele>
        <time>2012-11-21T11:08:32.000Z</time>
      </trkpt>
      <trkpt lat="47.68736" lon="6.04714">
        <ele>232</ele>
        <time>2012-11-21T11:08:33.000Z</time>
      </trkpt>
      <trkpt lat="47.68734" lon="6.04709">
        <ele>232.60000610352</ele>
        <time>2012-11-21T11:08:34.000Z</time>
      </trkpt>
      <trkpt lat="47.68733" lon="6.04705">
        <ele>233</ele>
        <time>2012-11-21T11:08:35.000Z</time>
      </trkpt>
      <trkpt lat="47.68727" lon="6.04694">
        <ele>233</ele>
        <time>2012-11-21T11:08:38.000Z</time>
      </trkpt>
      <trkpt lat="47.6871" lon="6.0466">
        <ele>233</ele>
        <time>2012-11-21T11:08:46.000Z</time>
      </trkpt>
      <trkpt lat="47.68696" lon="6.04627">
        <ele>233</ele>
        <time>2012-11-21T11:08:53.000Z</time>
      </trkpt>
      <trkpt lat="47.6869" lon="6.04611">
        <ele>233</ele>
        <time>2012-11-21T11:08:56.000Z</time>
      </trkpt>
      <trkpt lat="47.68686" lon="6.04593">
        <ele>233</ele>
        <time>2012-11-21T11:08:59.000Z</time>
      </trkpt>
      <trkpt lat="47.6868" lon="6.0458">
        <ele>233</ele>
        <time>2012-11-21T11:09:01.000Z</time>
      </trkpt>
      <trkpt lat="47.6867" lon="6.04564">
        <ele>233</ele>
        <time>2012-11-21T11:09:04.000Z</time>
      </trkpt>
      <trkpt lat="47.68647" lon="6.0454">
        <ele>233</ele>
        <time>2012-11-21T11:09:09.000Z</time>
      </trkpt>
      <trkpt lat="47.68637" lon="6.04534">
        <ele>232.60000610352</ele>
        <time>2012-11-21T11:09:11.000Z</time>
      </trkpt>
      <trkpt lat="47.68632" lon="6.04535">
        <ele>232</ele>
        <time>2012-11-21T11:09:12.000Z</time>
      </trkpt>
      <trkpt lat="47.68628" lon="6.04538">
        <ele>231.80000305176</ele>
        <time>2012-11-21T11:09:13.000Z</time>
      </trkpt>
      <trkpt lat="47.68626" lon="6.04542">
        <ele>231.19999694824</ele>
        <time>2012-11-21T11:09:14.000Z</time>
      </trkpt>
      <trkpt lat="47.68625" lon="6.04547">
        <ele>231</ele>
        <time>2012-11-21T11:09:15.000Z</time>
      </trkpt>
      <trkpt lat="47.68626" lon="6.04549">
        <ele>231</ele>
        <time>2012-11-21T11:09:16.000Z</time>
      </trkpt>
      <trkpt lat="47.68628" lon="6.0455">
        <ele>231</ele>
        <time>2012-11-21T11:09:20.000Z</time>
      </trkpt>
    </trkseg>
  </trk>
</gpx>